
Distance (Route):
Temperature : 14.7°C
Humidity : 79.1%
Pressure : 0hPa| Receiver | Frames | First received | Last received |
|---|---|---|---|
| IW2NTF | 1380 | 2026-09-03 11:02:10 | 2026-09-03 14:20:39 |
| DO3MHA-11 | 329 | 2026-09-03 12:11:16 | 2026-09-03 13:29:15 |
| DB0UT-7 | 125 | 2026-09-03 12:16:11 | 2026-09-03 13:26:47 |
| RDZBGO | 59 | 2026-09-03 13:11:46 | 2026-09-03 13:37:14 |
| NBG1-10 | 45 | 2026-09-03 12:31:08 | 2026-09-03 13:23:03 |
| DL2OL | 31 | 2026-09-03 12:41:32 | 2026-09-03 13:24:50 |
| OE5DRO-10 | 7 | 2026-09-03 13:05:57 | 2026-09-03 13:07:51 |
| PG1ADW-2 | 3 | 2026-09-03 13:09:21 | 2026-09-03 13:10:46 |
| DF1GD-15 | 3 | 2026-09-03 13:22:22 | 2026-09-03 13:23:24 |
| Receiver | Date | Latitude | Longitude | Direction | Speed | Altitude | Climb | Temperature | Humidity | Pressure | Voltage | Killtimer | Uptime | BKT | XDATA |
|---|---|---|---|---|---|---|---|---|---|---|---|---|---|---|---|
| IW2NTF | 2026-09-03 14:20:39 | 44.38267 | 9.54815 | 190° | 24km/h | 2097m | -2.2m/s | 14.7°C | 79.1% | 0hPa | 2.8V | 07:20:47 | 03:45:23 | 00:00:00 | |
| IW2NTF | 2026-09-03 14:20:32 | 44.38306 | 9.54813 | 167° | 20km/h | 2113m | -2.2m/s | 14.4°C | 80.6% | 0hPa | 2.8V | 07:20:54 | 03:45:16 | 00:00:00 | |
| IW2NTF | 2026-09-03 14:20:26 | 44.38330 | 9.54804 | 166° | 13km/h | 2126m | -2.1m/s | 14.3°C | 81.1% | 0hPa | 2.8V | 07:21:00 | 03:45:10 | 00:00:00 | |
| IW2NTF | 2026-09-03 14:20:20 | 44.38348 | 9.54808 | 206° | 15km/h | 2138m | -2.1m/s | 14.2°C | 80.9% | 0hPa | 2.8V | 07:21:06 | 03:45:04 | 00:00:00 | |
| IW2NTF | 2026-09-03 14:20:14 | 44.38371 | 9.54825 | 207° | 18km/h | 2151m | -2.5m/s | 14.1°C | 81.3% | 0hPa | 2.8V | 07:21:12 | 03:44:58 | 00:00:00 | |
| IW2NTF | 2026-09-03 14:20:08 | 44.38398 | 9.54844 | 204° | 22km/h | 2165m | -2.1m/s | 14.1°C | 79.9% | 0hPa | 2.8V | 07:21:18 | 03:44:52 | 00:00:00 | |
| IW2NTF | 2026-09-03 14:20:02 | 44.38428 | 9.54861 | 197° | 18km/h | 2179m | -2.4m/s | 13.9°C | 81.4% | 0hPa | 2.7V | 07:21:24 | 03:44:46 | 00:00:00 | |
| IW2NTF | 2026-09-03 14:19:56 | 44.38450 | 9.54859 | 160° | 13km/h | 2193m | -2.8m/s | 13.8°C | 81.2% | 0hPa | 2.8V | 07:21:30 | 03:44:40 | 00:00:00 | |
| IW2NTF | 2026-09-03 14:19:51 | 44.38474 | 9.54844 | 153° | 18km/h | 2209m | -3m/s | 13.7°C | 81.8% | 0hPa | 2.8V | 07:21:36 | 03:44:34 | 00:00:00 | |
| IW2NTF | 2026-09-03 14:19:44 | 44.38498 | 9.54827 | 153° | 16km/h | 2229m | -3.2m/s | 13.8°C | 78.7% | 0hPa | 2.8V | 07:21:42 | 03:44:28 | 00:00:00 | |
| IW2NTF | 2026-09-03 14:19:38 | 44.38516 | 9.54812 | 145° | 11km/h | 2247m | -3.4m/s | 13.8°C | 75.4% | 0hPa | 2.8V | 07:21:48 | 03:44:22 | 00:00:00 | |
| IW2NTF | 2026-09-03 14:19:32 | 44.38528 | 9.54806 | 172° | 7km/h | 2263m | -2m/s | 13.7°C | 76.6% | 0hPa | 2.8V | 07:21:54 | 03:44:16 | 00:00:00 | |
| IW2NTF | 2026-09-03 14:19:26 | 44.38541 | 9.54809 | 198° | 9km/h | 2278m | -2.5m/s | 13.5°C | 76.9% | 0hPa | 2.8V | 07:22:00 | 03:44:10 | 00:00:00 | |
| IW2NTF | 2026-09-03 14:19:20 | 44.38556 | 9.54817 | 198° | 13km/h | 2298m | -4.1m/s | 13.3°C | 77.4% | 0hPa | 2.8V | 07:22:06 | 03:44:04 | 00:00:00 | |
| IW2NTF | 2026-09-03 14:19:14 | 44.38574 | 9.54825 | 200° | 13km/h | 2318m | -3.1m/s | 13.1°C | 78.9% | 0hPa | 2.8V | 07:22:12 | 03:43:58 | 00:00:00 | |
| IW2NTF | 2026-09-03 14:19:08 | 44.38595 | 9.54834 | 190° | 18km/h | 2334m | -1.7m/s | 12.9°C | 80.2% | 0hPa | 2.7V | 07:22:18 | 03:43:52 | 00:00:00 | |
| IW2NTF | 2026-09-03 14:19:02 | 44.38622 | 9.54839 | 190° | 16km/h | 2345m | -1.9m/s | 12.9°C | 79.9% | 0hPa | 2.8V | 07:22:24 | 03:43:46 | 00:00:00 | |
| IW2NTF | 2026-09-03 14:18:56 | 44.38648 | 9.54846 | 189° | 16km/h | 2358m | -2.2m/s | 12.9°C | 79.3% | 0hPa | 2.7V | 07:22:30 | 03:43:40 | 00:00:00 | |
| IW2NTF | 2026-09-03 14:18:50 | 44.38672 | 9.54851 | 193° | 15km/h | 2371m | -2m/s | 12.7°C | 80.5% | 0hPa | 2.8V | 07:22:36 | 03:43:34 | 00:00:00 | |
| IW2NTF | 2026-09-03 14:18:39 | 44.38690 | 9.54861 | 202° | 13km/h | 2384m | -2.3m/s | 12.5°C | 81.9% | 0hPa | 2.8V | 07:22:42 | 03:43:28 | 00:00:00 | |
| IW2NTF | 2026-09-03 14:18:39 | 44.38703 | 9.54869 | 211° | 9km/h | 2397m | -3.5m/s | 12.3°C | 82.7% | 0hPa | 2.8V | 07:22:47 | 03:43:23 | 00:00:00 | |
| IW2NTF | 2026-09-03 14:18:34 | 44.38713 | 9.54878 | 207° | 11km/h | 2413m | -1.9m/s | 12.3°C | 83% | 0hPa | 2.8V | 07:22:53 | 03:43:17 | 00:00:00 | |
| IW2NTF | 2026-09-03 14:18:27 | 44.38728 | 9.54889 | 206° | 11km/h | 2428m | -2.4m/s | 12.2°C | 83.4% | 0hPa | 2.8V | 07:22:59 | 03:43:11 | 00:00:00 | |
| IW2NTF | 2026-09-03 14:18:21 | 44.38742 | 9.54901 | 206° | 11km/h | 2444m | -2.5m/s | 12.1°C | 83.3% | 0hPa | 2.8V | 07:23:05 | 03:43:05 | 00:00:00 | |
| IW2NTF | 2026-09-03 14:18:15 | 44.38760 | 9.54907 | 185° | 13km/h | 2459m | -2.9m/s | 11.9°C | 82.9% | 0hPa | 2.8V | 07:23:11 | 03:42:59 | 00:00:00 | |
| IW2NTF | 2026-09-03 14:18:09 | 44.38777 | 9.54904 | 160° | 11km/h | 2473m | -2.6m/s | 11.7°C | 83.5% | 0hPa | 2.8V | 07:23:17 | 03:42:53 | 00:00:00 | |
| IW2NTF | 2026-09-03 14:18:03 | 44.38792 | 9.54892 | 138° | 11km/h | 2486m | -2m/s | 11.6°C | 84.3% | 0hPa | 2.8V | 07:23:23 | 03:42:47 | 00:00:00 | |
| IW2NTF | 2026-09-03 14:17:57 | 44.38801 | 9.54875 | 112° | 9km/h | 2498m | -2.2m/s | 11.4°C | 85.6% | 0hPa | 2.8V | 07:23:29 | 03:42:41 | 00:00:00 | |
| IW2NTF | 2026-09-03 14:17:51 | 44.38806 | 9.54859 | 110° | 7km/h | 2512m | -2.2m/s | 11.3°C | 86% | 0hPa | 2.8V | 07:23:35 | 03:42:35 | 00:00:00 | |
| IW2NTF | 2026-09-03 14:17:45 | 44.38808 | 9.54849 | 77° | 2km/h | 2526m | -2.3m/s | 11.2°C | 86.3% | 0hPa | 2.7V | 07:23:41 | 03:42:29 | 00:00:00 | |
| IW2NTF | 2026-09-03 14:17:39 | 44.38805 | 9.54851 | 335° | 4km/h | 2541m | -2.6m/s | 11.1°C | 86.6% | 0hPa | 2.8V | 07:23:47 | 03:42:23 | 00:00:00 | |
| IW2NTF | 2026-09-03 14:17:33 | 44.38802 | 9.54850 | 13° | 2km/h | 2555m | -2.2m/s | 11°C | 87.1% | 0hPa | 2.8V | 07:23:53 | 03:42:17 | 00:00:00 | |
| IW2NTF | 2026-09-03 14:17:27 | 44.38799 | 9.54846 | 56° | 4km/h | 2568m | -2.1m/s | 10.8°C | 88.2% | 0hPa | 2.8V | 07:23:59 | 03:42:11 | 00:00:00 | |
| IW2NTF | 2026-09-03 14:17:21 | 44.38795 | 9.54839 | 40° | 4km/h | 2580m | -1.9m/s | 10.6°C | 89% | 0hPa | 2.8V | 07:24:05 | 03:42:05 | 00:00:00 | |
| IW2NTF | 2026-09-03 14:17:15 | 44.38788 | 9.54836 | 357° | 5km/h | 2592m | -2m/s | 10.6°C | 88.7% | 0hPa | 2.8V | 07:24:11 | 03:41:59 | 00:00:00 | |
| IW2NTF | 2026-09-03 14:17:09 | 44.38780 | 9.54839 | 347° | 5km/h | 2605m | -2.1m/s | 10.5°C | 88.9% | 0hPa | 2.8V | 07:24:17 | 03:41:53 | 00:00:00 | |
| IW2NTF | 2026-09-03 14:17:03 | 44.38774 | 9.54840 | 0° | 4km/h | 2616m | -1.8m/s | 10.4°C | 89.6% | 0hPa | 2.8V | 07:24:23 | 03:41:47 | 00:00:00 | |
| IW2NTF | 2026-09-03 14:16:57 | 44.38767 | 9.54841 | 4° | 5km/h | 2627m | -1.7m/s | 10.5°C | 86.3% | 0hPa | 2.8V | 07:24:29 | 03:41:41 | 00:00:00 | |
| IW2NTF | 2026-09-03 14:16:51 | 44.38760 | 9.54844 | 322° | 5km/h | 2638m | -1.7m/s | 10.4°C | 86.2% | 0hPa | 2.7V | 07:24:35 | 03:41:35 | 00:00:00 | |
| IW2NTF | 2026-09-03 14:16:46 | 44.38753 | 9.54855 | 307° | 7km/h | 2647m | -1.5m/s | 10.4°C | 85.8% | 0hPa | 2.8V | 07:24:41 | 03:41:29 | 00:00:00 | |
| IW2NTF | 2026-09-03 14:16:39 | 44.38749 | 9.54870 | 290° | 9km/h | 2657m | -1.4m/s | 10.2°C | 86.9% | 0hPa | 2.8V | 07:24:47 | 03:41:23 | 00:00:00 | |
| IW2NTF | 2026-09-03 14:16:33 | 44.38741 | 9.54883 | 336° | 7km/h | 2667m | -1.4m/s | 10.2°C | 86.9% | 0hPa | 2.8V | 07:24:53 | 03:41:17 | 00:00:00 | |
| IW2NTF | 2026-09-03 14:16:27 | 44.38731 | 9.54881 | 33° | 7km/h | 2679m | -2.5m/s | 10.1°C | 87.3% | 0hPa | 2.8V | 07:24:59 | 03:41:11 | 00:00:00 | |
| IW2NTF | 2026-09-03 14:16:21 | 44.38725 | 9.54870 | 75° | 7km/h | 2690m | -1.6m/s | 10.1°C | 86.5% | 0hPa | 2.7V | 07:25:05 | 03:41:05 | 00:00:00 | |
| IW2NTF | 2026-09-03 14:16:15 | 44.38723 | 9.54855 | 83° | 7km/h | 2699m | -0.9m/s | 10°C | 87.3% | 0hPa | 2.8V | 07:25:11 | 03:40:59 | 00:00:00 | |
| IW2NTF | 2026-09-03 14:16:09 | 44.38718 | 9.54837 | 63° | 11km/h | 2706m | -1.4m/s | 9.8°C | 89.4% | 0hPa | 2.8V | 07:25:17 | 03:40:53 | 00:00:00 | |
| IW2NTF | 2026-09-03 14:16:03 | 44.38713 | 9.54815 | 74° | 11km/h | 2715m | -1.7m/s | 9.7°C | 89.7% | 0hPa | 2.8V | 07:25:23 | 03:40:47 | 00:00:00 | |
| IW2NTF | 2026-09-03 14:15:57 | 44.38707 | 9.54791 | 57° | 11km/h | 2724m | -1.4m/s | 9.5°C | 90.9% | 0hPa | 2.8V | 07:25:29 | 03:40:41 | 00:00:00 | |
| IW2NTF | 2026-09-03 14:15:51 | 44.38698 | 9.54770 | 63° | 11km/h | 2733m | -1.2m/s | 9.5°C | 92.9% | 0hPa | 2.8V | 07:25:35 | 03:40:35 | 00:00:00 | |
| IW2NTF | 2026-09-03 14:15:45 | 44.38686 | 9.54748 | 36° | 15km/h | 2742m | -1.6m/s | 9.3°C | 94% | 0hPa | 2.8V | 07:25:41 | 03:40:29 | 00:00:00 | |
| IW2NTF | 2026-09-03 14:15:39 | 44.38670 | 9.54742 | 343° | 9km/h | 2752m | -2m/s | 9.3°C | 94.1% | 0hPa | 2.8V | 07:25:47 | 03:40:23 | 00:00:00 | |
| IW2NTF | 2026-09-03 14:15:33 | 44.38664 | 9.54752 | 269° | 5km/h | 2765m | -2.2m/s | 9.2°C | 95.2% | 0hPa | 2.7V | 07:25:53 | 03:40:17 | 00:00:00 | |
| IW2NTF | 2026-09-03 14:15:27 | 44.38665 | 9.54762 | 244° | 4km/h | 2782m | -2.5m/s | 9.1°C | 94.5% | 0hPa | 2.8V | 07:25:59 | 03:40:11 | 00:00:00 | |
| IW2NTF | 2026-09-03 14:15:21 | 44.38668 | 9.54765 | 166° | 0km/h | 2795m | -1.2m/s | 9.2°C | 91.4% | 0hPa | 2.8V | 07:26:05 | 03:40:05 | 00:00:00 | |
| IW2NTF | 2026-09-03 14:15:15 | 44.38673 | 9.54754 | 112° | 11km/h | 2805m | -2.4m/s | 9.5°C | 87.9% | 0hPa | 2.7V | 07:26:11 | 03:39:59 | 00:00:00 | |
| IW2NTF | 2026-09-03 14:15:10 | 44.38683 | 9.54733 | 129° | 11km/h | 2826m | -4.8m/s | 9.4°C | 85.8% | 0hPa | 2.8V | 07:26:17 | 03:39:53 | 00:00:00 | |
| IW2NTF | 2026-09-03 14:15:03 | 44.38693 | 9.54714 | 121° | 11km/h | 2854m | -2.8m/s | 9.3°C | 84.9% | 0hPa | 2.8V | 07:26:23 | 03:39:47 | 00:00:00 | |
| IW2NTF | 2026-09-03 14:14:57 | 44.38697 | 9.54695 | 76° | 5km/h | 2863m | -1.9m/s | 9.5°C | 81.1% | 0hPa | 2.7V | 07:26:29 | 03:39:41 | 00:00:00 | |
| IW2NTF | 2026-09-03 14:14:51 | 44.38700 | 9.54692 | 196° | 11km/h | 2872m | -2.6m/s | 9.4°C | 83.7% | 0hPa | 2.8V | 07:26:35 | 03:39:35 | 00:00:00 | |
| IW2NTF | 2026-09-03 14:14:45 | 44.38720 | 9.54696 | 192° | 13km/h | 2885m | -1.2m/s | 9.2°C | 84.9% | 0hPa | 2.8V | 07:26:41 | 03:39:29 | 00:00:00 | |
| IW2NTF | 2026-09-03 14:14:39 | 44.38733 | 9.54700 | 171° | 5km/h | 2892m | -0.9m/s | 9.1°C | 85.4% | 0hPa | 2.8V | 07:26:47 | 03:39:23 | 00:00:00 | |
| IW2NTF | 2026-09-03 14:14:33 | 44.38742 | 9.54688 | 141° | 13km/h | 2904m | -2.1m/s | 8.9°C | 88.6% | 0hPa | 2.8V | 07:26:53 | 03:39:17 | 00:00:00 | |
| IW2NTF | 2026-09-03 14:14:27 | 44.38764 | 9.54675 | 160° | 16km/h | 2920m | -2.5m/s | 9.1°C | 82.3% | 0hPa | 2.8V | 07:26:59 | 03:39:11 | 00:00:00 | |
| IW2NTF | 2026-09-03 14:14:21 | 44.38789 | 9.54659 | 151° | 18km/h | 2933m | -1.6m/s | 8.4°C | 91.8% | 0hPa | 2.8V | 07:27:05 | 03:39:05 | 00:00:00 | |
| IW2NTF | 2026-09-03 14:14:15 | 44.38813 | 9.54645 | 166° | 18km/h | 2942m | -0.6m/s | 8.7°C | 87.1% | 0hPa | 2.7V | 07:27:11 | 03:38:59 | 00:00:00 | |
| IW2NTF | 2026-09-03 14:14:09 | 44.38844 | 9.54637 | 170° | 20km/h | 2945m | -0.4m/s | 8.5°C | 88.7% | 0hPa | 2.8V | 07:27:17 | 03:38:53 | 00:00:00 | |
| IW2NTF | 2026-09-03 14:14:03 | 44.38868 | 9.54630 | 165° | 11km/h | 2958m | -2.9m/s | 8.5°C | 89.1% | 0hPa | 2.8V | 07:27:23 | 03:38:47 | 00:00:00 | |
| IW2NTF | 2026-09-03 14:13:57 | 44.38884 | 9.54625 | 173° | 15km/h | 2973m | -1.3m/s | 8.4°C | 89.7% | 0hPa | 2.8V | 07:27:29 | 03:38:41 | 00:00:00 | |
| IW2NTF | 2026-09-03 14:13:52 | 44.38908 | 9.54623 | 172° | 16km/h | 2984m | -2.5m/s | 8.1°C | 92.1% | 0hPa | 2.7V | 07:27:35 | 03:38:35 | 00:00:00 | |
| IW2NTF | 2026-09-03 14:13:45 | 44.38934 | 9.54613 | 149° | 18km/h | 2996m | -1.8m/s | 8.2°C | 89.6% | 0hPa | 2.8V | 07:27:41 | 03:38:29 | 00:00:00 | |
| IW2NTF | 2026-09-03 14:13:39 | 44.38955 | 9.54597 | 165° | 13km/h | 3005m | -0.3m/s | 8.1°C | 92.2% | 0hPa | 2.8V | 07:27:47 | 03:38:23 | 00:00:00 | |
| IW2NTF | 2026-09-03 14:13:33 | 44.38981 | 9.54585 | 153° | 24km/h | 3007m | -0.5m/s | 8.2°C | 89.6% | 0hPa | 2.8V | 07:27:53 | 03:38:17 | 00:00:00 | |
| IW2NTF | 2026-09-03 14:13:27 | 44.39014 | 9.54561 | 158° | 24km/h | 3011m | -0.9m/s | 8.3°C | 87.1% | 0hPa | 2.7V | 07:27:59 | 03:38:11 | 00:00:00 | |
| IW2NTF | 2026-09-03 14:13:21 | 44.39047 | 9.54545 | 163° | 22km/h | 3020m | -2.6m/s | 8°C | 89.5% | 0hPa | 2.8V | 07:28:05 | 03:38:05 | 00:00:00 | |
| IW2NTF | 2026-09-03 14:13:13 | 44.39083 | 9.54517 | 147° | 22km/h | 3042m | -3.3m/s | 7.3°C | 97.9% | 0hPa | 2.8V | 07:28:13 | 03:37:57 | 00:00:00 | |
| IW2NTF | 2026-09-03 14:13:07 | 44.39109 | 9.54500 | 155° | 18km/h | 3054m | -1.8m/s | 7.1°C | 0% | 0hPa | 2.8V | 07:28:19 | 03:37:51 | 00:00:00 | |
| IW2NTF | 2026-09-03 14:13:01 | 44.39136 | 9.54489 | 173° | 22km/h | 3064m | -1m/s | 7.1°C | 0% | 0hPa | 2.8V | 07:28:25 | 03:37:45 | 00:00:00 | |
| IW2NTF | 2026-09-03 14:12:55 | 44.39174 | 9.54488 | 173° | 27km/h | 3069m | -0.5m/s | 7.3°C | 99.2% | 0hPa | 2.8V | 07:28:31 | 03:37:39 | 00:00:00 | |
| IW2NTF | 2026-09-03 14:12:49 | 44.39207 | 9.54482 | 175° | 22km/h | 3075m | -1.2m/s | 8.5°C | 77.6% | 0hPa | 2.8V | 07:28:37 | 03:37:33 | 00:00:00 | |
| IW2NTF | 2026-09-03 14:12:43 | 44.39243 | 9.54476 | 167° | 27km/h | 3083m | -2.3m/s | 8.4°C | 77.9% | 0hPa | 2.7V | 07:28:43 | 03:37:27 | 00:00:00 | |
| IW2NTF | 2026-09-03 14:12:37 | 44.39285 | 9.54460 | 161° | 29km/h | 3096m | -2.1m/s | 8.4°C | 76.6% | 0hPa | 2.8V | 07:28:49 | 03:37:21 | 00:00:00 | |
| IW2NTF | 2026-09-03 14:12:31 | 44.39328 | 9.54437 | 160° | 29km/h | 3110m | -2m/s | 8.3°C | 76% | 0hPa | 2.8V | 07:28:55 | 03:37:15 | 00:00:00 | |
| IW2NTF | 2026-09-03 14:12:25 | 44.39376 | 9.54418 | 164° | 35km/h | 3122m | -2.1m/s | 8.2°C | 76.1% | 0hPa | 2.8V | 07:29:01 | 03:37:09 | 00:00:00 | |
| IW2NTF | 2026-09-03 14:12:19 | 44.39428 | 9.54396 | 163° | 37km/h | 3143m | -1.6m/s | 8°C | 76.9% | 0hPa | 2.8V | 07:29:07 | 03:37:03 | 00:00:00 | |
| IW2NTF | 2026-09-03 14:12:13 | 44.39482 | 9.54379 | 169° | 37km/h | 3163m | -3.6m/s | 7.8°C | 77.9% | 0hPa | 2.8V | 07:29:13 | 03:36:57 | 00:00:00 | |
| IW2NTF | 2026-09-03 14:12:07 | 44.39536 | 9.54365 | 166° | 35km/h | 3185m | -4.4m/s | 7.6°C | 77.9% | 0hPa | 2.8V | 07:29:19 | 03:36:51 | 00:00:00 | |
| IW2NTF | 2026-09-03 14:12:01 | 44.39589 | 9.54345 | 166° | 38km/h | 3213m | -3.3m/s | 7.3°C | 80.5% | 0hPa | 2.8V | 07:29:25 | 03:36:45 | 00:00:00 | |
| IW2NTF | 2026-09-03 14:11:55 | 44.39645 | 9.54319 | 159° | 37km/h | 3228m | -0.7m/s | 7.3°C | 78.4% | 0hPa | 2.7V | 07:29:31 | 03:36:39 | 00:00:00 | |
| IW2NTF | 2026-09-03 14:11:50 | 44.39697 | 9.54282 | 151° | 42km/h | 3240m | -3.4m/s | 7°C | 81.6% | 0hPa | 2.8V | 07:29:37 | 03:36:33 | 00:00:00 | |
| IW2NTF | 2026-09-03 14:11:43 | 44.39747 | 9.54240 | 147° | 38km/h | 3258m | -3.7m/s | 6.8°C | 83.5% | 0hPa | 2.8V | 07:29:43 | 03:36:27 | 00:00:00 | |
| IW2NTF | 2026-09-03 14:11:37 | 44.39797 | 9.54204 | 154° | 38km/h | 3276m | -2.5m/s | 6.8°C | 78.5% | 0hPa | 2.8V | 07:29:49 | 03:36:21 | 00:00:00 | |
| IW2NTF | 2026-09-03 14:11:31 | 44.39848 | 9.54165 | 149° | 37km/h | 3294m | -3.1m/s | 6.6°C | 81.7% | 0hPa | 2.7V | 07:29:55 | 03:36:15 | 00:00:00 | |
| IW2NTF | 2026-09-03 14:11:25 | 44.39891 | 9.54132 | 147° | 29km/h | 3313m | -3.1m/s | 6.5°C | 80.6% | 0hPa | 2.6V | 07:30:01 | 03:36:09 | 00:00:00 | |
| IW2NTF | 2026-09-03 14:11:19 | 44.39926 | 9.54099 | 145° | 27km/h | 3335m | -3.9m/s | 6.3°C | 80.2% | 0hPa | 2.7V | 07:30:07 | 03:36:03 | 00:00:00 | |
| IW2NTF | 2026-09-03 14:11:13 | 44.39960 | 9.54068 | 148° | 27km/h | 3357m | -3.3m/s | 6.3°C | 79.6% | 0hPa | 2.7V | 07:30:13 | 03:35:57 | 00:00:00 | |
| IW2NTF | 2026-09-03 14:11:07 | 44.39994 | 9.54040 | 156° | 24km/h | 3377m | -2.9m/s | 6.3°C | 74.3% | 0hPa | 2.8V | 07:30:19 | 03:35:51 | 00:00:00 | |
| IW2NTF | 2026-09-03 14:11:01 | 44.40026 | 9.54021 | 158° | 22km/h | 3395m | -3.2m/s | 7.3°C | 50.8% | 0hPa | 2.7V | 07:30:25 | 03:35:45 | 00:00:00 | |
| IW2NTF | 2026-09-03 14:10:55 | 44.40060 | 9.54010 | 173° | 26km/h | 3414m | -3.2m/s | 7.8°C | 46.7% | 0hPa | 2.8V | 07:30:31 | 03:35:39 | 00:00:00 | |
| IW2NTF | 2026-09-03 14:10:49 | 44.40103 | 9.54007 | 179° | 31km/h | 3435m | -3.9m/s | 7.9°C | 41.7% | 0hPa | 2.8V | 07:30:37 | 03:35:33 | 00:00:00 | |
| IW2NTF | 2026-09-03 14:10:43 | 44.40150 | 9.54005 | 177° | 31km/h | 3457m | -3.5m/s | 8.1°C | 37.4% | 0hPa | 2.8V | 07:30:43 | 03:35:27 | 00:00:00 | |
| IW2NTF | 2026-09-03 14:10:37 | 44.40200 | 9.54005 | 181° | 33km/h | 3483m | -4.9m/s | 8.8°C | 25.6% | 0hPa | 2.8V | 07:30:49 | 03:35:21 | 00:00:00 | |
| IW2NTF | 2026-09-03 14:10:31 | 44.40250 | 9.54008 | 182° | 35km/h | 3509m | -4.4m/s | 8.8°C | 23% | 0hPa | 2.8V | 07:30:55 | 03:35:15 | 00:00:00 | |
| IW2NTF | 2026-09-03 14:10:25 | 44.40302 | 9.54014 | 185° | 35km/h | 3535m | -4m/s | 8.4°C | 25.7% | 0hPa | 2.6V | 07:31:01 | 03:35:09 | 00:00:00 | |
| IW2NTF | 2026-09-03 14:10:19 | 44.40356 | 9.54019 | 181° | 38km/h | 3559m | -3.7m/s | 8.4°C | 14.6% | 0hPa | 2.6V | 07:31:07 | 03:35:03 | 00:00:00 | |
| IW2NTF | 2026-09-03 14:10:13 | 44.40416 | 9.54021 | 178° | 42km/h | 3584m | -4.3m/s | 8.1°C | 21.5% | 0hPa | 2.7V | 07:31:13 | 03:34:57 | 00:00:00 | |
| IW2NTF | 2026-09-03 14:10:07 | 44.40482 | 9.54018 | 177° | 44km/h | 3609m | -4m/s | 8.2°C | 10.3% | 0hPa | 2.7V | 07:31:19 | 03:34:51 | 00:00:00 | |
| IW2NTF | 2026-09-03 14:10:01 | 44.40546 | 9.54018 | 181° | 42km/h | 3634m | -4m/s | 8°C | 10.2% | 0hPa | 2.7V | 07:31:25 | 03:34:45 | 00:00:00 | |
| IW2NTF | 2026-09-03 14:09:55 | 44.40612 | 9.54018 | 177° | 46km/h | 3664m | -5.2m/s | 7.8°C | 10.1% | 0hPa | 2.7V | 07:31:31 | 03:34:39 | 00:00:00 | |
| IW2NTF | 2026-09-03 14:09:49 | 44.40682 | 9.54012 | 176° | 47km/h | 3695m | -5.5m/s | 8°C | 10.1% | 0hPa | 2.6V | 07:31:37 | 03:34:33 | 00:00:00 | |
| IW2NTF | 2026-09-03 14:09:43 | 44.40751 | 9.54007 | 176° | 42km/h | 3726m | -5.3m/s | 7.8°C | 9.5% | 0hPa | 2.7V | 07:31:43 | 03:34:27 | 00:00:00 | |
| IW2NTF | 2026-09-03 14:09:37 | 44.40815 | 9.54000 | 174° | 44km/h | 3760m | -5.7m/s | 7.8°C | 7.4% | 0hPa | 2.7V | 07:31:49 | 03:34:21 | 00:00:00 | |
| IW2NTF | 2026-09-03 14:09:31 | 44.40881 | 9.53990 | 171° | 42km/h | 3794m | -6.1m/s | 7.9°C | 6.1% | 0hPa | 2.7V | 07:31:55 | 03:34:15 | 00:00:00 | |
| IW2NTF | 2026-09-03 14:09:25 | 44.40942 | 9.53969 | 162° | 40km/h | 3831m | -6.3m/s | 7.6°C | 6.1% | 0hPa | 2.7V | 07:32:01 | 03:34:09 | 00:00:00 | |
| IW2NTF | 2026-09-03 14:09:19 | 44.41002 | 9.53944 | 165° | 42km/h | 3870m | -6.6m/s | 7.3°C | 11.7% | 0hPa | 2.6V | 07:32:07 | 03:34:03 | 00:00:00 | |
| IW2NTF | 2026-09-03 14:09:13 | 44.41064 | 9.53922 | 167° | 44km/h | 3909m | -6.5m/s | 6.9°C | 27.2% | 0hPa | 2.6V | 07:32:13 | 03:33:57 | 00:00:00 | |
| IW2NTF | 2026-09-03 14:09:07 | 44.41129 | 9.53903 | 167° | 44km/h | 3948m | -6.4m/s | 6.6°C | 30.2% | 0hPa | 2.7V | 07:32:19 | 03:33:51 | 00:00:00 | |
| IW2NTF | 2026-09-03 14:09:01 | 44.41194 | 9.53882 | 167° | 44km/h | 3986m | -6.5m/s | 6.3°C | 34.2% | 0hPa | 2.7V | 07:32:25 | 03:33:45 | 00:00:00 | |
| IW2NTF | 2026-09-03 14:08:55 | 44.41261 | 9.53861 | 166° | 44km/h | 4025m | -6.3m/s | 6°C | 35.2% | 0hPa | 2.7V | 07:32:31 | 03:33:39 | 00:00:00 | |
| IW2NTF | 2026-09-03 14:08:49 | 44.41326 | 9.53838 | 164° | 44km/h | 4063m | -6.4m/s | 5.6°C | 37.3% | 0hPa | 2.7V | 07:32:37 | 03:33:33 | 00:00:00 | |
| IW2NTF | 2026-09-03 14:08:43 | 44.41391 | 9.53809 | 160° | 46km/h | 4102m | -6.4m/s | 5.3°C | 37.4% | 0hPa | 2.7V | 07:32:43 | 03:33:27 | 00:00:00 | |
| IW2NTF | 2026-09-03 14:08:37 | 44.41457 | 9.53776 | 159° | 47km/h | 4139m | -6.1m/s | 5°C | 36.3% | 0hPa | 2.7V | 07:32:49 | 03:33:21 | 00:00:00 | |
| IW2NTF | 2026-09-03 14:08:31 | 44.41525 | 9.53740 | 159° | 47km/h | 4177m | -6.1m/s | 4.7°C | 37.5% | 0hPa | 2.6V | 07:32:55 | 03:33:15 | 00:00:00 | |
| IW2NTF | 2026-09-03 14:08:25 | 44.41595 | 9.53700 | 156° | 51km/h | 4213m | -6m/s | 4.4°C | 38.4% | 0hPa | 2.7V | 07:33:01 | 03:33:09 | 00:00:00 | |
| IW2NTF | 2026-09-03 14:08:19 | 44.41672 | 9.53652 | 155° | 58km/h | 4248m | -5.8m/s | 4.2°C | 39.8% | 0hPa | 2.7V | 07:33:07 | 03:33:03 | 00:00:00 | |
| IW2NTF | 2026-09-03 14:08:13 | 44.41755 | 9.53599 | 155° | 60km/h | 4283m | -5.7m/s | 3.8°C | 41% | 0hPa | 2.6V | 07:33:13 | 03:32:57 | 00:00:00 | |
| IW2NTF | 2026-09-03 14:08:07 | 44.41839 | 9.53545 | 155° | 62km/h | 4316m | -5.6m/s | 3.5°C | 41.8% | 0hPa | 2.7V | 07:33:19 | 03:32:51 | 00:00:00 | |
| IW2NTF | 2026-09-03 14:08:01 | 44.41925 | 9.53490 | 154° | 62km/h | 4349m | -5.3m/s | 3.2°C | 42.8% | 0hPa | 2.7V | 07:33:25 | 03:32:45 | 00:00:00 | |
| IW2NTF | 2026-09-03 14:07:55 | 44.42009 | 9.53433 | 154° | 62km/h | 4380m | -5.1m/s | 2.9°C | 42.8% | 0hPa | 2.6V | 07:33:31 | 03:32:39 | 00:00:00 | |
| IW2NTF | 2026-09-03 14:07:49 | 44.42099 | 9.53376 | 156° | 66km/h | 4410m | -4.7m/s | 2.7°C | 43% | 0hPa | 2.6V | 07:33:37 | 03:32:33 | 00:00:00 | |
| IW2NTF | 2026-09-03 14:07:43 | 44.42190 | 9.53319 | 156° | 66km/h | 4438m | -4.5m/s | 2.5°C | 43.5% | 0hPa | 2.7V | 07:33:43 | 03:32:27 | 00:00:00 | |
| IW2NTF | 2026-09-03 14:07:37 | 44.42281 | 9.53260 | 154° | 66km/h | 4464m | -4.2m/s | 2.3°C | 43.6% | 0hPa | 2.7V | 07:33:49 | 03:32:21 | 00:00:00 | |
| IW2NTF | 2026-09-03 14:07:31 | 44.42372 | 9.53200 | 154° | 68km/h | 4489m | -4m/s | 2.1°C | 43.6% | 0hPa | 2.7V | 07:33:55 | 03:32:15 | 00:00:00 | |
| IW2NTF | 2026-09-03 14:07:25 | 44.42469 | 9.53146 | 162° | 68km/h | 4513m | -3.9m/s | 2.1°C | 41.8% | 0hPa | 2.7V | 07:34:01 | 03:32:09 | 00:00:00 | |
| IW2NTF | 2026-09-03 14:07:19 | 44.42562 | 9.53115 | 169° | 58km/h | 4536m | -3.6m/s | 2°C | 42.3% | 0hPa | 2.6V | 07:34:07 | 03:32:03 | 00:00:00 | |
| IW2NTF | 2026-09-03 14:07:13 | 44.42645 | 9.53092 | 167° | 53km/h | 4557m | -3.3m/s | 1.8°C | 43.2% | 0hPa | 2.7V | 07:34:13 | 03:31:57 | 00:00:00 | |
| IW2NTF | 2026-09-03 14:07:07 | 44.42719 | 9.53064 | 161° | 49km/h | 4577m | -3.3m/s | 1.6°C | 44.3% | 0hPa | 2.7V | 07:34:19 | 03:31:51 | 00:00:00 | |
| IW2NTF | 2026-09-03 14:07:01 | 44.42791 | 9.53023 | 156° | 51km/h | 4597m | -3.3m/s | 1.4°C | 43.5% | 0hPa | 2.6V | 07:34:25 | 03:31:45 | 00:00:00 | |
| IW2NTF | 2026-09-03 14:06:55 | 44.42862 | 9.52979 | 156° | 51km/h | 4616m | -3m/s | 1.3°C | 43.4% | 0hPa | 2.7V | 07:34:31 | 03:31:39 | 00:00:00 | |
| IW2NTF | 2026-09-03 14:06:49 | 44.42932 | 9.52936 | 155° | 51km/h | 4634m | -2.9m/s | 1.1°C | 44.1% | 0hPa | 2.7V | 07:34:37 | 03:31:33 | 00:00:00 | |
| IW2NTF | 2026-09-03 14:06:43 | 44.43004 | 9.52886 | 153° | 53km/h | 4652m | -3m/s | 1°C | 43.8% | 0hPa | 2.7V | 07:34:43 | 03:31:27 | 00:00:00 | |
| IW2NTF | 2026-09-03 14:06:36 | 44.43089 | 9.52827 | 153° | 53km/h | 4671m | -2.8m/s | 0.8°C | 41.9% | 0hPa | 2.7V | 07:34:50 | 03:31:20 | 00:00:00 | |
| IW2NTF | 2026-09-03 14:06:30 | 44.43158 | 9.52781 | 154° | 49km/h | 4687m | -2.6m/s | 0.8°C | 37.1% | 0hPa | 2.7V | 07:34:56 | 03:31:14 | 00:00:00 | |
| IW2NTF | 2026-09-03 14:06:24 | 44.43226 | 9.52739 | 159° | 47km/h | 4701m | -2.2m/s | 0.8°C | 37.5% | 0hPa | 2.6V | 07:35:02 | 03:31:08 | 00:00:00 | |
| IW2NTF | 2026-09-03 14:06:18 | 44.43293 | 9.52705 | 160° | 47km/h | 4715m | -2.3m/s | 0.8°C | 37.9% | 0hPa | 2.7V | 07:35:08 | 03:31:02 | 00:00:00 | |
| IW2NTF | 2026-09-03 14:06:10 | 44.43383 | 9.52662 | 161° | 46km/h | 4733m | -2.2m/s | 0.8°C | 37.8% | 0hPa | 2.7V | 07:35:16 | 03:30:54 | 00:00:00 | |
| IW2NTF | 2026-09-03 14:06:04 | 44.43450 | 9.52631 | 160° | 46km/h | 4746m | -2.2m/s | 0.7°C | 37.6% | 0hPa | 2.7V | 07:35:22 | 03:30:48 | 00:00:00 | |
| IW2NTF | 2026-09-03 14:05:58 | 44.43514 | 9.52589 | 150° | 49km/h | 4759m | -2.1m/s | 0.6°C | 37.9% | 0hPa | 2.7V | 07:35:28 | 03:30:42 | 00:00:00 | |
| IW2NTF | 2026-09-03 14:05:52 | 44.43579 | 9.52540 | 153° | 47km/h | 4771m | -2.1m/s | 0.6°C | 38.2% | 0hPa | 2.6V | 07:35:34 | 03:30:36 | 00:00:00 | |
| IW2NTF | 2026-09-03 14:05:46 | 44.43642 | 9.52499 | 155° | 46km/h | 4783m | -1.9m/s | 0.5°C | 38.6% | 0hPa | 2.7V | 07:35:40 | 03:30:30 | 00:00:00 | |
| IW2NTF | 2026-09-03 14:05:40 | 44.43705 | 9.52459 | 154° | 46km/h | 4795m | -2.1m/s | 0.4°C | 38.8% | 0hPa | 2.7V | 07:35:46 | 03:30:24 | 00:00:00 | |
| IW2NTF | 2026-09-03 14:05:34 | 44.43766 | 9.52417 | 152° | 46km/h | 4807m | -1.9m/s | 0.3°C | 38.4% | 0hPa | 2.7V | 07:35:52 | 03:30:18 | 00:00:00 | |
| IW2NTF | 2026-09-03 14:05:28 | 44.43830 | 9.52365 | 148° | 51km/h | 4818m | -1.8m/s | 0.1°C | 38.6% | 0hPa | 2.7V | 07:35:58 | 03:30:12 | 00:00:00 | |
| IW2NTF | 2026-09-03 14:05:22 | 44.43898 | 9.52307 | 148° | 53km/h | 4830m | -1.9m/s | 0.1°C | 38.6% | 0hPa | 2.6V | 07:36:04 | 03:30:06 | 00:00:00 | |
| IW2NTF | 2026-09-03 14:05:16 | 44.43970 | 9.52247 | 148° | 55km/h | 4842m | -2m/s | 0°C | 38.1% | 0hPa | 2.7V | 07:36:10 | 03:30:00 | 00:00:00 | |
| IW2NTF | 2026-09-03 14:05:10 | 44.44038 | 9.52188 | 147° | 49km/h | 4854m | -2m/s | -0.1°C | 38.6% | 0hPa | 2.7V | 07:36:16 | 03:29:54 | 00:00:00 | |
| IW2NTF | 2026-09-03 14:05:04 | 44.44100 | 9.52135 | 149° | 46km/h | 4866m | -2.1m/s | -0.2°C | 39.4% | 0hPa | 2.6V | 07:36:22 | 03:29:48 | 00:00:00 | |
| IW2NTF | 2026-09-03 14:04:58 | 44.44160 | 9.52086 | 148° | 47km/h | 4877m | -1.9m/s | -0.3°C | 40% | 0hPa | 2.7V | 07:36:28 | 03:29:42 | 00:00:00 | |
| IW2NTF | 2026-09-03 14:04:52 | 44.44227 | 9.52027 | 146° | 53km/h | 4890m | -2.1m/s | -0.4°C | 41% | 0hPa | 2.7V | 07:36:34 | 03:29:36 | 00:00:00 | |
| IW2NTF | 2026-09-03 14:04:47 | 44.44283 | 9.51976 | 146° | 53km/h | 4901m | -2.2m/s | -0.5°C | 41% | 0hPa | 2.7V | 07:36:39 | 03:29:31 | 00:00:00 | |
| IW2NTF | 2026-09-03 14:04:41 | 44.44354 | 9.51912 | 148° | 58km/h | 4914m | -2.1m/s | -0.5°C | 41.1% | 0hPa | 2.7V | 07:36:45 | 03:29:25 | 00:00:00 | |
| IW2NTF | 2026-09-03 14:04:35 | 44.44430 | 9.51849 | 149° | 58km/h | 4927m | -2.2m/s | -0.7°C | 41% | 0hPa | 2.7V | 07:36:51 | 03:29:19 | 00:00:00 | |
| IW2NTF | 2026-09-03 14:04:29 | 44.44510 | 9.51790 | 154° | 60km/h | 4941m | -2.3m/s | -0.7°C | 40.6% | 0hPa | 2.7V | 07:36:57 | 03:29:13 | 00:00:00 | |
| IW2NTF | 2026-09-03 14:04:23 | 44.44593 | 9.51737 | 156° | 60km/h | 4954m | -2.3m/s | -0.8°C | 40.5% | 0hPa | 2.7V | 07:37:03 | 03:29:07 | 00:00:00 | |
| IW2NTF | 2026-09-03 14:04:17 | 44.44678 | 9.51688 | 157° | 60km/h | 4968m | -2.4m/s | -0.9°C | 40.7% | 0hPa | 2.7V | 07:37:09 | 03:29:01 | 00:00:00 | |
| IW2NTF | 2026-09-03 14:04:11 | 44.44762 | 9.51639 | 157° | 58km/h | 4983m | -2.4m/s | -1°C | 40.8% | 0hPa | 2.6V | 07:37:15 | 03:28:55 | 00:00:00 | |
| IW2NTF | 2026-09-03 14:04:05 | 44.44841 | 9.51598 | 160° | 53km/h | 4997m | -2.3m/s | -1.1°C | 41% | 0hPa | 2.7V | 07:37:21 | 03:28:49 | 00:00:00 | |
| IW2NTF | 2026-09-03 14:03:57 | 44.44941 | 9.51548 | 160° | 49km/h | 5016m | -2.6m/s | -1.2°C | 41.3% | 0hPa | 2.6V | 07:37:29 | 03:28:41 | 00:00:00 | |
| IW2NTF | 2026-09-03 14:03:47 | 44.45047 | 9.51480 | 148° | 44km/h | 5042m | -2.6m/s | -1.5°C | 42.3% | 0hPa | 2.7V | 07:37:39 | 03:28:31 | 00:00:00 | |
| IW2NTF | 2026-09-03 14:03:37 | 44.45143 | 9.51375 | 138° | 51km/h | 5069m | -2.8m/s | -1.9°C | 43.1% | 0hPa | 2.7V | 07:37:49 | 03:28:21 | 00:00:00 | |
| IW2NTF | 2026-09-03 14:03:27 | 44.45251 | 9.51244 | 140° | 60km/h | 5097m | -2.7m/s | -2°C | 43.2% | 0hPa | 2.6V | 07:37:59 | 03:28:11 | 00:00:00 | |
| IW2NTF | 2026-09-03 14:03:17 | 44.45376 | 9.51111 | 145° | 64km/h | 5126m | -2.8m/s | -2.1°C | 42.1% | 0hPa | 2.7V | 07:38:09 | 03:28:01 | 00:00:00 | |
| IW2NTF | 2026-09-03 14:03:07 | 44.45509 | 9.50979 | 144° | 64km/h | 5154m | -3m/s | -2.3°C | 41.4% | 0hPa | 2.6V | 07:38:19 | 03:27:51 | 00:00:00 | |
| IW2NTF | 2026-09-03 14:02:57 | 44.45648 | 9.50861 | 150° | 64km/h | 5183m | -2.9m/s | -2.5°C | 42% | 0hPa | 2.7V | 07:38:29 | 03:27:41 | 00:00:00 | |
| IW2NTF | 2026-09-03 14:02:46 | 44.45802 | 9.50750 | 153° | 62km/h | 5216m | -3.1m/s | -2.8°C | 40.9% | 0hPa | 2.6V | 07:38:40 | 03:27:30 | 00:00:00 | |
| IW2NTF | 2026-09-03 14:02:36 | 44.45939 | 9.50656 | 153° | 53km/h | 5247m | -2.9m/s | -3.1°C | 40.4% | 0hPa | 2.7V | 07:38:50 | 03:27:20 | 00:00:00 | |
| IW2NTF | 2026-09-03 14:02:26 | 44.46050 | 9.50567 | 147° | 49km/h | 5278m | -3.1m/s | -3.4°C | 42% | 0hPa | 2.7V | 07:39:00 | 03:27:10 | 00:00:00 | |
| IW2NTF | 2026-09-03 14:02:16 | 44.46151 | 9.50451 | 135° | 57km/h | 5310m | -3.3m/s | -3.8°C | 45.3% | 0hPa | 2.7V | 07:39:10 | 03:27:00 | 00:00:00 | |
| IW2NTF | 2026-09-03 14:02:06 | 44.46250 | 9.50314 | 134° | 57km/h | 5341m | -3.1m/s | -4°C | 43.5% | 0hPa | 2.7V | 07:39:20 | 03:26:50 | 00:00:00 | |
| IW2NTF | 2026-09-03 14:01:54 | 44.46373 | 9.50134 | 133° | 62km/h | 5379m | -3.2m/s | -4.2°C | 43.3% | 0hPa | 2.6V | 07:39:32 | 03:26:38 | 00:00:00 | |
| IW2NTF | 2026-09-03 14:01:44 | 44.46488 | 9.49974 | 137° | 66km/h | 5410m | -3.2m/s | -4.4°C | 42.5% | 0hPa | 2.7V | 07:39:42 | 03:26:28 | 00:00:00 | |
| IW2NTF | 2026-09-03 14:01:34 | 44.46611 | 9.49813 | 137° | 68km/h | 5441m | -3.2m/s | -4.6°C | 41.3% | 0hPa | 2.6V | 07:39:52 | 03:26:18 | 00:00:00 | |
| IW2NTF | 2026-09-03 14:01:24 | 44.46741 | 9.49653 | 137° | 68km/h | 5472m | -3.2m/s | -4.8°C | 40.8% | 0hPa | 2.7V | 07:40:02 | 03:26:08 | 00:00:00 | |
| IW2NTF | 2026-09-03 14:01:14 | 44.46872 | 9.49492 | 136° | 68km/h | 5503m | -3.2m/s | -5.1°C | 40.5% | 0hPa | 2.7V | 07:40:12 | 03:25:58 | 00:00:00 | |
| IW2NTF | 2026-09-03 14:01:04 | 44.46978 | 9.49339 | 134° | 57km/h | 5534m | -3m/s | -5.4°C | 41.6% | 0hPa | 2.7V | 07:40:22 | 03:25:48 | 00:00:00 | |
| IW2NTF | 2026-09-03 14:00:54 | 44.47075 | 9.49204 | 135° | 53km/h | 5566m | -3.1m/s | -5.6°C | 42% | 0hPa | 2.7V | 07:40:32 | 03:25:38 | 00:00:00 | |
| IW2NTF | 2026-09-03 14:00:44 | 44.47171 | 9.49078 | 142° | 51km/h | 5597m | -3m/s | -5.7°C | 42.4% | 0hPa | 2.6V | 07:40:42 | 03:25:28 | 00:00:00 | |
| IW2NTF | 2026-09-03 14:00:34 | 44.47291 | 9.48968 | 146° | 60km/h | 5626m | -3m/s | -6°C | 42.1% | 0hPa | 2.7V | 07:40:52 | 03:25:18 | 00:00:00 | |
| IW2NTF | 2026-09-03 14:00:24 | 44.47417 | 9.48849 | 145° | 58km/h | 5657m | -3.1m/s | -6.2°C | 41.7% | 0hPa | 2.6V | 07:41:02 | 03:25:08 | 00:00:00 | |
| IW2NTF | 2026-09-03 14:00:15 | 44.47543 | 9.48730 | 146° | 60km/h | 5688m | -3.2m/s | -6.3°C | 41.8% | 0hPa | 2.7V | 07:41:12 | 03:24:58 | 00:00:00 | |
| IW2NTF | 2026-09-03 14:00:05 | 44.47667 | 9.48617 | 147° | 57km/h | 5722m | -3.6m/s | -6.5°C | 39.7% | 0hPa | 2.7V | 07:41:22 | 03:24:48 | 00:00:00 | |
| IW2NTF | 2026-09-03 13:59:54 | 44.47791 | 9.48507 | 148° | 60km/h | 5756m | -3.1m/s | -6.8°C | 40.3% | 0hPa | 2.6V | 07:41:32 | 03:24:38 | 00:00:00 | |
| IW2NTF | 2026-09-03 13:59:44 | 44.47923 | 9.48397 | 150° | 60km/h | 5788m | -3m/s | -7.1°C | 39.1% | 0hPa | 2.7V | 07:41:42 | 03:24:28 | 00:00:00 | |
| IW2NTF | 2026-09-03 13:59:34 | 44.48060 | 9.48284 | 148° | 66km/h | 5820m | -3.1m/s | -7.3°C | 37.4% | 0hPa | 2.7V | 07:41:52 | 03:24:18 | 00:00:00 | |
| IW2NTF | 2026-09-03 13:59:24 | 44.48196 | 9.48150 | 142° | 68km/h | 5852m | -3.2m/s | -7.6°C | 37% | 0hPa | 2.6V | 07:42:02 | 03:24:08 | 00:00:00 | |
| IW2NTF | 2026-09-03 13:59:14 | 44.48338 | 9.48014 | 147° | 68km/h | 5885m | -3.5m/s | -7.7°C | 35.6% | 0hPa | 2.6V | 07:42:12 | 03:23:58 | 00:00:00 | |
| IW2NTF | 2026-09-03 13:59:04 | 44.48481 | 9.47896 | 149° | 66km/h | 5918m | -3.4m/s | -7.7°C | 29.3% | 0hPa | 2.7V | 07:42:22 | 03:23:48 | 00:00:00 | |
| IW2NTF | 2026-09-03 13:58:54 | 44.48621 | 9.47755 | 140° | 69km/h | 5952m | -3.4m/s | -7.9°C | 32.4% | 0hPa | 2.7V | 07:42:32 | 03:23:38 | 00:00:00 | |
| IW2NTF | 2026-09-03 13:58:44 | 44.48764 | 9.47619 | 153° | 64km/h | 5984m | -3.3m/s | -8.2°C | 32.8% | 0hPa | 2.6V | 07:42:42 | 03:23:28 | 00:00:00 | |
| IW2NTF | 2026-09-03 13:58:34 | 44.48912 | 9.47519 | 153° | 68km/h | 6019m | -3.5m/s | -8.5°C | 33.5% | 0hPa | 2.7V | 07:42:52 | 03:23:18 | 00:00:00 | |
| IW2NTF | 2026-09-03 13:58:24 | 44.49065 | 9.47407 | 148° | 71km/h | 6054m | -3.6m/s | -8.8°C | 34.1% | 0hPa | 2.7V | 07:43:02 | 03:23:08 | 00:00:00 | |
| IW2NTF | 2026-09-03 13:58:14 | 44.49220 | 9.47273 | 144° | 71km/h | 6089m | -3.3m/s | -9.2°C | 35.1% | 0hPa | 2.7V | 07:43:12 | 03:22:58 | 00:00:00 | |
| IW2NTF | 2026-09-03 13:58:05 | 44.49353 | 9.47126 | 140° | 60km/h | 6124m | -3.3m/s | -9.6°C | 35.9% | 0hPa | 2.6V | 07:43:22 | 03:22:48 | 00:00:00 | |
| IW2NTF | 2026-09-03 13:57:54 | 44.49469 | 9.47007 | 144° | 55km/h | 6159m | -3.6m/s | -9.8°C | 36.3% | 0hPa | 2.5V | 07:43:32 | 03:22:38 | 00:00:00 | |
| IW2NTF | 2026-09-03 13:57:44 | 44.49580 | 9.46896 | 145° | 53km/h | 6196m | -3.8m/s | -10.1°C | 36.8% | 0hPa | 2.7V | 07:43:42 | 03:22:28 | 00:00:00 | |
| IW2NTF | 2026-09-03 13:57:34 | 44.49691 | 9.46807 | 156° | 51km/h | 6233m | -3.8m/s | -10.4°C | 35.6% | 0hPa | 2.7V | 07:43:52 | 03:22:18 | 00:00:00 | |
| IW2NTF | 2026-09-03 13:57:24 | 44.49807 | 9.46741 | 159° | 47km/h | 6270m | -3.7m/s | -10.1°C | 17.3% | 0hPa | 2.7V | 07:44:02 | 03:22:08 | 00:00:00 | |
| IW2NTF | 2026-09-03 13:57:14 | 44.49927 | 9.46685 | 162° | 55km/h | 6305m | -3.3m/s | -9.8°C | 8.3% | 0hPa | 2.7V | 07:44:12 | 03:21:58 | 00:00:00 | |
| IW2NTF | 2026-09-03 13:57:04 | 44.50065 | 9.46616 | 157° | 60km/h | 6339m | -3.5m/s | -9.5°C | 5.5% | 0hPa | 2.5V | 07:44:22 | 03:21:48 | 00:00:00 | |
| IW2NTF | 2026-09-03 13:56:54 | 44.50206 | 9.46525 | 152° | 62km/h | 6374m | -3.6m/s | -9.7°C | 10% | 0hPa | 2.5V | 07:44:32 | 03:21:38 | 00:00:00 | |
| IW2NTF | 2026-09-03 13:56:44 | 44.50333 | 9.46412 | 143° | 53km/h | 6409m | -3.4m/s | -9.9°C | 9.3% | 0hPa | 2.5V | 07:44:42 | 03:21:28 | 00:00:00 | |
| IW2NTF | 2026-09-03 13:56:34 | 44.50433 | 9.46304 | 142° | 47km/h | 6444m | -3.6m/s | -10°C | 9.5% | 0hPa | 2.6V | 07:44:52 | 03:21:18 | 00:00:00 | |
| IW2NTF | 2026-09-03 13:56:24 | 44.50524 | 9.46223 | 153° | 40km/h | 6480m | -3.6m/s | -10°C | 9.3% | 0hPa | 2.7V | 07:45:02 | 03:21:08 | 00:00:00 | |
| IW2NTF | 2026-09-03 13:56:14 | 44.50628 | 9.46173 | 164° | 53km/h | 6516m | -3.4m/s | -10.2°C | 9.8% | 0hPa | 2.7V | 07:45:12 | 03:20:58 | 00:00:00 | |
| IW2NTF | 2026-09-03 13:56:02 | 44.50790 | 9.46075 | 152° | 60km/h | 6558m | -3.6m/s | -10.5°C | 10.3% | 0hPa | 2.6V | 07:45:24 | 03:20:46 | 00:00:00 | |
| IW2NTF | 2026-09-03 13:55:52 | 44.50914 | 9.45965 | 142° | 55km/h | 6594m | -3.7m/s | -11°C | 10.6% | 0hPa | 2.6V | 07:45:34 | 03:20:36 | 00:00:00 | |
| IW2NTF | 2026-09-03 13:55:42 | 44.51004 | 9.45860 | 145° | 38km/h | 6631m | -3.7m/s | -11.2°C | 10.8% | 0hPa | 2.6V | 07:45:44 | 03:20:26 | 00:00:00 | |
| IW2NTF | 2026-09-03 13:55:30 | 44.51124 | 9.45802 | 164° | 51km/h | 6676m | -3.7m/s | -11.6°C | 10.8% | 0hPa | 2.5V | 07:45:56 | 03:20:14 | 00:00:00 | |
| IW2NTF | 2026-09-03 13:55:15 | 44.51302 | 9.45697 | 146° | 55km/h | 6727m | -3.6m/s | -12.1°C | 11.2% | 0hPa | 2.5V | 07:46:10 | 03:20:00 | 00:00:00 | |
| IW2NTF | 2026-09-03 13:55:15 | 44.51365 | 9.45632 | 141° | 47km/h | 6750m | -3.7m/s | -12.3°C | 11.4% | 0hPa | 2.5V | 07:46:16 | 03:19:54 | 00:00:00 | |
| IW2NTF | 2026-09-03 13:55:00 | 44.51448 | 9.45553 | 155° | 35km/h | 6787m | -3.7m/s | -12.6°C | 11.5% | 0hPa | 2.6V | 07:46:26 | 03:19:44 | 00:00:00 | |
| IW2NTF | 2026-09-03 13:54:50 | 44.51545 | 9.45518 | 169° | 47km/h | 6826m | -4m/s | -12.9°C | 11.5% | 0hPa | 2.6V | 07:46:36 | 03:19:34 | 00:00:00 | |
| IW2NTF | 2026-09-03 13:54:40 | 44.51678 | 9.45451 | 147° | 57km/h | 6866m | -4m/s | -13.2°C | 11.1% | 0hPa | 2.6V | 07:46:46 | 03:19:24 | 00:00:00 | |
| IW2NTF | 2026-09-03 13:54:30 | 44.51774 | 9.45356 | 157° | 38km/h | 6906m | -4m/s | -13.4°C | 10.8% | 0hPa | 2.5V | 07:46:56 | 03:19:14 | 00:00:00 | |
| IW2NTF | 2026-09-03 13:54:20 | 44.51897 | 9.45313 | 161° | 60km/h | 6947m | -4.1m/s | -13.7°C | 11% | 0hPa | 2.6V | 07:47:06 | 03:19:04 | 00:00:00 | |
| IW2NTF | 2026-09-03 13:54:10 | 44.52024 | 9.45214 | 144° | 47km/h | 6988m | -4.2m/s | -14.1°C | 11.1% | 0hPa | 2.6V | 07:47:16 | 03:18:54 | 00:00:00 | |
| IW2NTF | 2026-09-03 13:54:00 | 44.52126 | 9.45161 | 170° | 51km/h | 7030m | -4.1m/s | -14.3°C | 11.5% | 0hPa | 2.6V | 07:47:26 | 03:18:44 | 00:00:00 | |
| IW2NTF | 2026-09-03 13:53:50 | 44.52274 | 9.45100 | 153° | 64km/h | 7074m | -4.3m/s | -14.7°C | 12.3% | 0hPa | 2.6V | 07:47:36 | 03:18:34 | 00:00:00 | |
| IW2NTF | 2026-09-03 13:53:40 | 44.52390 | 9.45009 | 163° | 44km/h | 7115m | -4.4m/s | -14.9°C | 12.5% | 0hPa | 2.5V | 07:47:46 | 03:18:24 | 00:00:00 | |
| IW2NTF | 2026-09-03 13:53:30 | 44.52528 | 9.44971 | 165° | 66km/h | 7158m | -4.3m/s | -15.3°C | 12.6% | 0hPa | 2.6V | 07:47:56 | 03:18:14 | 00:00:00 | |
| IW2NTF | 2026-09-03 13:53:20 | 44.52683 | 9.44875 | 147° | 62km/h | 7202m | -4.3m/s | -15.8°C | 13.2% | 0hPa | 2.6V | 07:48:06 | 03:18:04 | 00:00:00 | |
| IW2NTF | 2026-09-03 13:53:10 | 44.52801 | 9.44796 | 168° | 53km/h | 7246m | -4.5m/s | -15.9°C | 12.4% | 0hPa | 2.5V | 07:48:16 | 03:17:54 | 00:00:00 | |
| IW2NTF | 2026-09-03 13:53:00 | 44.52960 | 9.44731 | 152° | 69km/h | 7290m | -4.4m/s | -16.3°C | 12.6% | 0hPa | 2.5V | 07:48:26 | 03:17:44 | 00:00:00 | |
| IW2NTF | 2026-09-03 13:52:50 | 44.53085 | 9.44623 | 156° | 47km/h | 7334m | -4.5m/s | -16.7°C | 12.7% | 0hPa | 2.6V | 07:48:36 | 03:17:34 | 00:00:00 | |
| IW2NTF | 2026-09-03 13:52:40 | 44.53228 | 9.44573 | 160° | 71km/h | 7379m | -4.6m/s | -17°C | 13% | 0hPa | 2.5V | 07:48:46 | 03:17:24 | 00:00:00 | |
| IW2NTF | 2026-09-03 13:52:30 | 44.53368 | 9.44468 | 152° | 51km/h | 7423m | -4.3m/s | -17.5°C | 13.4% | 0hPa | 2.5V | 07:48:56 | 03:17:14 | 00:00:00 | |
| IW2NTF | 2026-09-03 13:52:20 | 44.53490 | 9.44416 | 170° | 60km/h | 7468m | -4.6m/s | -17.8°C | 16.9% | 0hPa | 2.6V | 07:49:06 | 03:17:04 | 00:00:00 | |
| IW2NTF | 2026-09-03 13:52:10 | 44.53659 | 9.44343 | 153° | 69km/h | 7513m | -4.5m/s | -18.3°C | 20.2% | 0hPa | 2.6V | 07:49:16 | 03:16:54 | 00:00:00 | |
| IW2NTF | 2026-09-03 13:52:00 | 44.53793 | 9.44255 | 165° | 55km/h | 7556m | -4.4m/s | -18.6°C | 20.6% | 0hPa | 2.6V | 07:49:26 | 03:16:44 | 00:00:00 | |
| IW2NTF | 2026-09-03 13:51:49 | 44.53968 | 9.44212 | 167° | 73km/h | 7606m | -4.3m/s | -19°C | 21.9% | 0hPa | 2.5V | 07:49:37 | 03:16:33 | 00:00:00 | |
| IW2NTF | 2026-09-03 13:51:39 | 44.54153 | 9.44127 | 156° | 77km/h | 7650m | -4.3m/s | -19.4°C | 24% | 0hPa | 2.6V | 07:49:47 | 03:16:23 | 00:00:00 | |
| IW2NTF | 2026-09-03 13:51:30 | 44.54320 | 9.44014 | 153° | 71km/h | 7696m | -4.7m/s | -19.9°C | 25.2% | 0hPa | 2.5V | 07:49:57 | 03:16:13 | 00:00:00 | |
| IW2NTF | 2026-09-03 13:51:19 | 44.54477 | 9.43903 | 153° | 68km/h | 7744m | -4.9m/s | -20.2°C | 24.6% | 0hPa | 2.5V | 07:50:07 | 03:16:03 | 00:00:00 | |
| IW2NTF | 2026-09-03 13:51:09 | 44.54626 | 9.43801 | 154° | 64km/h | 7792m | -4.7m/s | -20.7°C | 23.6% | 0hPa | 2.6V | 07:50:17 | 03:15:53 | 00:00:00 | |
| IW2NTF | 2026-09-03 13:50:59 | 44.54774 | 9.43700 | 154° | 64km/h | 7840m | -4.8m/s | -21.1°C | 24.1% | 0hPa | 2.6V | 07:50:27 | 03:15:43 | 00:00:00 | |
| IW2NTF | 2026-09-03 13:50:49 | 44.54917 | 9.43610 | 156° | 62km/h | 7888m | -4.8m/s | -21.6°C | 25.2% | 0hPa | 2.5V | 07:50:37 | 03:15:33 | 00:00:00 | |
| IW2NTF | 2026-09-03 13:50:39 | 44.55064 | 9.43513 | 153° | 66km/h | 7936m | -5m/s | -22.1°C | 25.2% | 0hPa | 2.6V | 07:50:47 | 03:15:23 | 00:00:00 | |
| IW2NTF | 2026-09-03 13:50:30 | 44.55208 | 9.43413 | 152° | 66km/h | 7985m | -5m/s | -22.5°C | 25.7% | 0hPa | 2.6V | 07:50:57 | 03:15:13 | 00:00:00 | |
| IW2NTF | 2026-09-03 13:50:19 | 44.55377 | 9.43304 | 161° | 78km/h | 8034m | -4.8m/s | -22.9°C | 25.6% | 0hPa | 2.5V | 07:51:07 | 03:15:03 | 00:00:00 | |
| IW2NTF | 2026-09-03 13:50:09 | 44.55557 | 9.43248 | 171° | 64km/h | 8082m | -4.9m/s | -23.3°C | 25.1% | 0hPa | 2.6V | 07:51:17 | 03:14:53 | 00:00:00 | |
| IW2NTF | 2026-09-03 13:49:59 | 44.55698 | 9.43180 | 152° | 71km/h | 8130m | -4.8m/s | -23.8°C | 24.4% | 0hPa | 2.5V | 07:51:27 | 03:14:43 | 00:00:00 | |
| IW2NTF | 2026-09-03 13:49:49 | 44.55875 | 9.43108 | 170° | 66km/h | 8177m | -5m/s | -24.2°C | 24.8% | 0hPa | 2.6V | 07:51:37 | 03:14:33 | 00:00:00 | |
| IW2NTF | 2026-09-03 13:49:39 | 44.56011 | 9.43053 | 152° | 53km/h | 8225m | -4.9m/s | -24.6°C | 23.1% | 0hPa | 2.5V | 07:51:47 | 03:14:23 | 00:00:00 | |
| IW2NTF | 2026-09-03 13:49:29 | 44.56158 | 9.42948 | 158° | 73km/h | 8271m | -4.8m/s | -24.9°C | 22% | 0hPa | 2.6V | 07:51:57 | 03:14:13 | 00:00:00 | |
| IW2NTF | 2026-09-03 13:49:19 | 44.56330 | 9.42863 | 166° | 68km/h | 8320m | -5m/s | -25.2°C | 18.5% | 0hPa | 2.5V | 07:52:07 | 03:14:03 | 00:00:00 | |
| IW2NTF | 2026-09-03 13:49:09 | 44.56463 | 9.42811 | 158° | 47km/h | 8368m | -4.9m/s | -25.8°C | 18.9% | 0hPa | 2.5V | 07:52:17 | 03:13:53 | 00:00:00 | |
| IW2NTF | 2026-09-03 13:48:59 | 44.56584 | 9.42716 | 155° | 69km/h | 8415m | -4.8m/s | -26.2°C | 19.5% | 0hPa | 2.5V | 07:52:27 | 03:13:43 | 00:00:00 | |
| IW2NTF | 2026-09-03 13:48:49 | 44.56723 | 9.42638 | 149° | 62km/h | 8461m | -5m/s | -26.6°C | 20.1% | 0hPa | 2.5V | 07:52:37 | 03:13:33 | 00:00:00 | |
| IW2NTF | 2026-09-03 13:48:39 | 44.56886 | 9.42546 | 162° | 71km/h | 8510m | -5.5m/s | -27.1°C | 20.4% | 0hPa | 2.5V | 07:52:47 | 03:13:23 | 00:00:00 | |
| IW2NTF | 2026-09-03 13:48:29 | 44.57056 | 9.42489 | 170° | 62km/h | 8563m | -5.2m/s | -27.5°C | 21.5% | 0hPa | 2.5V | 07:52:57 | 03:13:13 | 00:00:00 | |
| IW2NTF | 2026-09-03 13:48:19 | 44.57186 | 9.42425 | 148° | 60km/h | 8614m | -5.5m/s | -28°C | 23% | 0hPa | 2.5V | 07:53:07 | 03:13:03 | 00:00:00 | |
| IW2NTF | 2026-09-03 13:48:09 | 44.57337 | 9.42312 | 156° | 75km/h | 8664m | -5.3m/s | -28.4°C | 24.4% | 0hPa | 2.6V | 07:53:17 | 03:12:53 | 00:00:00 | |
| IW2NTF | 2026-09-03 13:47:59 | 44.57521 | 9.42221 | 168° | 73km/h | 8715m | -5m/s | -28.9°C | 26% | 0hPa | 2.6V | 07:53:27 | 03:12:43 | 00:00:00 | |
| IW2NTF | 2026-09-03 13:47:49 | 44.57670 | 9.42157 | 153° | 68km/h | 8763m | -4.5m/s | -29.4°C | 27.9% | 0hPa | 2.5V | 07:53:37 | 03:12:33 | 00:00:00 | |
| IW2NTF | 2026-09-03 13:47:39 | 44.57843 | 9.42047 | 158° | 78km/h | 8813m | -5.6m/s | -29.8°C | 30.5% | 0hPa | 2.5V | 07:53:47 | 03:12:23 | 00:00:00 | |
| IW2NTF | 2026-09-03 13:47:27 | 44.58072 | 9.41965 | 169° | 68km/h | 8875m | -4.8m/s | -30.4°C | 32.2% | 0hPa | 2.5V | 07:53:59 | 03:12:11 | 00:00:00 | |
| IW2NTF | 2026-09-03 13:47:17 | 44.58234 | 9.41892 | 163° | 73km/h | 8923m | -4.9m/s | -30.8°C | 33.3% | 0hPa | 2.5V | 07:54:09 | 03:12:01 | 00:00:00 | |
| IW2NTF | 2026-09-03 13:47:07 | 44.58414 | 9.41831 | 165° | 62km/h | 8973m | -5m/s | -31.3°C | 35% | 0hPa | 2.5V | 07:54:19 | 03:11:51 | 00:00:00 | |
| IW2NTF | 2026-09-03 13:46:57 | 44.58566 | 9.41755 | 155° | 71km/h | 9026m | -4.9m/s | -31.8°C | 36.6% | 0hPa | 2.6V | 07:54:29 | 03:11:41 | 00:00:00 | |
| IW2NTF | 2026-09-03 13:46:47 | 44.58754 | 9.41667 | 163° | 78km/h | 9075m | -5.3m/s | -32.2°C | 39.4% | 0hPa | 2.5V | 07:54:39 | 03:11:31 | 00:00:00 | |
| IW2NTF | 2026-09-03 13:46:37 | 44.58950 | 9.41587 | 166° | 88km/h | 9124m | -5m/s | -32.5°C | 38.5% | 0hPa | 2.6V | 07:54:49 | 03:11:21 | 00:00:00 | |
| IW2NTF | 2026-09-03 13:46:28 | 44.59148 | 9.41497 | 157° | 91km/h | 9175m | -5.3m/s | -32.9°C | 36.3% | 0hPa | 2.6V | 07:54:59 | 03:11:11 | 00:00:00 | |
| IW2NTF | 2026-09-03 13:46:17 | 44.59369 | 9.41419 | 166° | 77km/h | 9225m | -4.9m/s | -33.4°C | 38.9% | 0hPa | 2.6V | 07:55:09 | 03:11:01 | 00:00:00 | |
| IW2NTF | 2026-09-03 13:46:07 | 44.59573 | 9.41329 | 165° | 82km/h | 9274m | -4.8m/s | -33.8°C | 41.4% | 0hPa | 2.5V | 07:55:19 | 03:10:51 | 00:00:00 | |
| IW2NTF | 2026-09-03 13:45:57 | 44.59786 | 9.41258 | 166° | 77km/h | 9324m | -5m/s | -34.2°C | 44.6% | 0hPa | 2.5V | 07:55:29 | 03:10:41 | 00:00:00 | |
| IW2NTF | 2026-09-03 13:45:47 | 44.60000 | 9.41156 | 166° | 100km/h | 9374m | -5.2m/s | -34.7°C | 42.4% | 0hPa | 2.5V | 07:55:39 | 03:10:31 | 00:00:00 | |
| IW2NTF | 2026-09-03 13:45:38 | 44.60229 | 9.41105 | 169° | 78km/h | 9425m | -5m/s | -35.2°C | 44.6% | 0hPa | 2.5V | 07:55:49 | 03:10:21 | 00:00:00 | |
| IW2NTF | 2026-09-03 13:45:27 | 44.60433 | 9.41005 | 161° | 99km/h | 9476m | -5.1m/s | -35.7°C | 41.4% | 0hPa | 2.5V | 07:55:59 | 03:10:11 | 00:00:00 | |
| IW2NTF | 2026-09-03 13:45:17 | 44.60662 | 9.40937 | 163° | 86km/h | 9525m | -5.1m/s | -36.1°C | 38.9% | 0hPa | 2.5V | 07:56:09 | 03:10:01 | 00:00:00 | |
| IW2NTF | 2026-09-03 13:45:07 | 44.60883 | 9.40856 | 161° | 91km/h | 9576m | -5.7m/s | -36.5°C | 36.7% | 0hPa | 2.5V | 07:56:19 | 03:09:51 | 00:00:00 | |
| IW2NTF | 2026-09-03 13:44:57 | 44.61112 | 9.40779 | 164° | 91km/h | 9626m | -5.2m/s | -36.9°C | 36.1% | 0hPa | 2.5V | 07:56:29 | 03:09:41 | 00:00:00 | |
| IW2NTF | 2026-09-03 13:44:47 | 44.61357 | 9.40704 | 173° | 100km/h | 9680m | -5.3m/s | -37.2°C | 36.3% | 0hPa | 2.5V | 07:56:39 | 03:09:31 | 00:00:00 | |
| IW2NTF | 2026-09-03 13:44:37 | 44.61585 | 9.40643 | 165° | 100km/h | 9730m | -5.1m/s | -37.8°C | 37.5% | 0hPa | 2.5V | 07:56:49 | 03:09:21 | 00:00:00 | |
| IW2NTF | 2026-09-03 13:44:27 | 44.61831 | 9.40574 | 170° | 93km/h | 9783m | -5.3m/s | -38.2°C | 37.7% | 0hPa | 2.5V | 07:56:59 | 03:09:11 | 00:00:00 | |
| IW2NTF | 2026-09-03 13:44:17 | 44.62070 | 9.40492 | 169° | 95km/h | 9836m | -5.3m/s | -38.6°C | 38.1% | 0hPa | 2.5V | 07:57:09 | 03:09:01 | 00:00:00 | |
| IW2NTF | 2026-09-03 13:44:08 | 44.62299 | 9.40413 | 161° | 100km/h | 9891m | -5.4m/s | -39.1°C | 34.6% | 0hPa | 2.5V | 07:57:19 | 03:08:51 | 00:00:00 | |
| IW2NTF | 2026-09-03 13:43:57 | 44.62540 | 9.40336 | 160° | 93km/h | 9945m | -5m/s | -39.6°C | 31% | 0hPa | 2.4V | 07:57:29 | 03:08:41 | 00:00:00 | |
| IW2NTF | 2026-09-03 13:43:47 | 44.62783 | 9.40215 | 162° | 106km/h | 10000m | -5.6m/s | -39.9°C | 30.7% | 0hPa | 2.5V | 07:57:39 | 03:08:31 | 00:00:00 | |
| IW2NTF | 2026-09-03 13:43:35 | 44.63101 | 9.40080 | 169° | 108km/h | 10068m | -5.5m/s | -40.5°C | 33.2% | 0hPa | 2.5V | 07:57:51 | 03:08:19 | 00:00:00 | |
| IW2NTF | 2026-09-03 13:43:25 | 44.63347 | 9.40003 | 167° | 108km/h | 10122m | -5.8m/s | -41°C | 32.7% | 0hPa | 2.5V | 07:58:01 | 03:08:09 | 00:00:00 | |
| IW2NTF | 2026-09-03 13:43:15 | 44.63597 | 9.39917 | 167° | 111km/h | 10177m | -5.3m/s | -41.5°C | 30.7% | 0hPa | 2.5V | 07:58:11 | 03:07:59 | 00:00:00 | |
| IW2NTF | 2026-09-03 13:43:05 | 44.63852 | 9.39847 | 169° | 108km/h | 10232m | -5.6m/s | -41.9°C | 29% | 0hPa | 2.4V | 07:58:21 | 03:07:49 | 00:00:00 | |
| IW2NTF | 2026-09-03 13:42:55 | 44.64111 | 9.39782 | 168° | 99km/h | 10289m | -5.7m/s | -42.4°C | 29.3% | 0hPa | 2.6V | 07:58:31 | 03:07:39 | 00:00:00 | |
| IW2NTF | 2026-09-03 13:42:45 | 44.64370 | 9.39718 | 171° | 97km/h | 10346m | -5.8m/s | -42.9°C | 32.2% | 0hPa | 2.6V | 07:58:41 | 03:07:29 | 00:00:00 | |
| IW2NTF | 2026-09-03 13:42:35 | 44.64619 | 9.39653 | 170° | 99km/h | 10403m | -6.1m/s | -43.4°C | 35.6% | 0hPa | 2.5V | 07:58:51 | 03:07:19 | 00:00:00 | |
| IW2NTF | 2026-09-03 13:42:25 | 44.64865 | 9.39590 | 168° | 99km/h | 10460m | -5.4m/s | -43.8°C | 36.2% | 0hPa | 2.5V | 07:59:01 | 03:07:09 | 00:00:00 | |
| IW2NTF | 2026-09-03 13:42:15 | 44.65119 | 9.39526 | 170° | 100km/h | 10517m | -5.8m/s | -44.3°C | 37% | 0hPa | 2.5V | 07:59:11 | 03:06:59 | 00:00:00 | |
| IW2NTF | 2026-09-03 13:42:05 | 44.65377 | 9.39460 | 170° | 110km/h | 10573m | -5.7m/s | -44.9°C | 35.2% | 0hPa | 2.6V | 07:59:21 | 03:06:49 | 00:00:00 | |
| IW2NTF | 2026-09-03 13:41:55 | 44.65642 | 9.39398 | 172° | 108km/h | 10628m | -5.8m/s | -45.4°C | 34.1% | 0hPa | 2.6V | 07:59:31 | 03:06:39 | 00:00:00 | |
| IW2NTF | 2026-09-03 13:41:45 | 44.65910 | 9.39338 | 169° | 110km/h | 10685m | -5.5m/s | -45.9°C | 34.6% | 0hPa | 2.5V | 07:59:41 | 03:06:29 | 00:00:00 | |
| IW2NTF | 2026-09-03 13:41:35 | 44.66183 | 9.39275 | 171° | 110km/h | 10742m | -5.7m/s | -46.5°C | 33.6% | 0hPa | 2.5V | 07:59:51 | 03:06:19 | 00:00:00 | |
| IW2NTF | 2026-09-03 13:41:26 | 44.66458 | 9.39207 | 171° | 111km/h | 10800m | -6m/s | -47°C | 32.3% | 0hPa | 2.6V | 08:00:01 | 03:06:09 | 00:00:00 | |
| IW2NTF | 2026-09-03 13:41:15 | 44.66731 | 9.39143 | 169° | 111km/h | 10858m | -5.9m/s | -47.5°C | 30.3% | 0hPa | 2.6V | 08:00:11 | 03:05:59 | 00:00:00 | |
| IW2NTF | 2026-09-03 13:41:05 | 44.67004 | 9.39076 | 170° | 110km/h | 10917m | -6.2m/s | -48.1°C | 29.3% | 0hPa | 2.5V | 08:00:21 | 03:05:49 | 00:00:00 | |
| IW2NTF | 2026-09-03 13:40:55 | 44.67275 | 9.39007 | 169° | 108km/h | 10983m | -6.4m/s | -48.7°C | 26.8% | 0hPa | 2.5V | 08:00:31 | 03:05:39 | 00:00:00 | |
| IW2NTF | 2026-09-03 13:40:45 | 44.67545 | 9.38934 | 170° | 110km/h | 11050m | -6.9m/s | -49.2°C | 28.5% | 0hPa | 2.6V | 08:00:41 | 03:05:29 | 00:00:00 | |
| IW2NTF | 2026-09-03 13:40:35 | 44.67823 | 9.38869 | 171° | 113km/h | 11118m | -6.9m/s | -49.7°C | 25.4% | 0hPa | 2.5V | 08:00:51 | 03:05:19 | 00:00:00 | |
| IW2NTF | 2026-09-03 13:40:25 | 44.68106 | 9.38805 | 171° | 113km/h | 11186m | -6.4m/s | -50.4°C | 24.9% | 0hPa | 2.5V | 08:01:01 | 03:05:09 | 00:00:00 | |
| IW2NTF | 2026-09-03 13:40:15 | 44.68392 | 9.38744 | 171° | 117km/h | 11253m | -6.8m/s | -51°C | 26.6% | 0hPa | 2.4V | 08:01:11 | 03:04:59 | 00:00:00 | |
| IW2NTF | 2026-09-03 13:40:05 | 44.68684 | 9.38684 | 171° | 119km/h | 11319m | -6.9m/s | -51.7°C | 29.9% | 0hPa | 2.6V | 08:01:21 | 03:04:49 | 00:00:00 | |
| IW2NTF | 2026-09-03 13:39:55 | 44.68985 | 9.38625 | 172° | 120km/h | 11386m | -6.6m/s | -52.3°C | 32% | 0hPa | 2.5V | 08:01:31 | 03:04:39 | 00:00:00 | |
| IW2NTF | 2026-09-03 13:39:45 | 44.69289 | 9.38568 | 172° | 122km/h | 11453m | -6.9m/s | -52.8°C | 31.5% | 0hPa | 2.5V | 08:01:41 | 03:04:29 | 00:00:00 | |
| IW2NTF | 2026-09-03 13:39:35 | 44.69596 | 9.38513 | 172° | 122km/h | 11520m | -6.6m/s | -53.4°C | 32.1% | 0hPa | 2.6V | 08:01:51 | 03:04:19 | 00:00:00 | |
| IW2NTF | 2026-09-03 13:39:25 | 44.69903 | 9.38459 | 173° | 120km/h | 11586m | -6.5m/s | -54°C | 32.2% | 0hPa | 2.5V | 08:02:01 | 03:04:09 | 00:00:00 | |
| IW2NTF | 2026-09-03 13:39:15 | 44.70203 | 9.38407 | 173° | 119km/h | 11654m | -6.8m/s | -54.5°C | 32.1% | 0hPa | 2.5V | 08:02:11 | 03:03:59 | 00:00:00 | |
| IW2NTF | 2026-09-03 13:39:05 | 44.70498 | 9.38357 | 173° | 115km/h | 11721m | -6.8m/s | -55.1°C | 35.2% | 0hPa | 2.6V | 08:02:21 | 03:03:49 | 00:00:00 | |
| IW2NTF | 2026-09-03 13:38:55 | 44.70782 | 9.38307 | 172° | 111km/h | 11789m | -6.8m/s | -55.7°C | 37.7% | 0hPa | 2.5V | 08:02:31 | 03:03:39 | 00:00:00 | |
| IW2NTF | 2026-09-03 13:38:45 | 44.71058 | 9.38254 | 171° | 108km/h | 11856m | -6.8m/s | -56.1°C | 41% | 0hPa | 2.5V | 08:02:41 | 03:03:29 | 00:00:00 | |
| IW2NTF | 2026-09-03 13:38:36 | 44.71322 | 9.38202 | 171° | 102km/h | 11926m | -6.9m/s | -56.7°C | 43.5% | 0hPa | 2.6V | 08:02:51 | 03:03:19 | 00:00:00 | |
| IW2NTF | 2026-09-03 13:38:26 | 44.71572 | 9.38148 | 171° | 99km/h | 11997m | -7.5m/s | -57.3°C | 45.3% | 0hPa | 2.5V | 08:03:01 | 03:03:09 | 00:00:00 | |
| IW2NTF | 2026-09-03 13:38:14 | 44.71858 | 9.38078 | 169° | 93km/h | 12082m | -7m/s | -57.9°C | 49% | 0hPa | 2.5V | 08:03:13 | 03:02:57 | 00:00:00 | |
| IW2NTF | 2026-09-03 13:38:03 | 44.72080 | 9.38012 | 166° | 88km/h | 12152m | -6.7m/s | -58.4°C | 49% | 0hPa | 2.5V | 08:03:23 | 03:02:47 | 00:00:00 | |
| IW2NTF | 2026-09-03 13:37:53 | 44.72287 | 9.37933 | 162° | 82km/h | 12222m | -6.7m/s | -58.9°C | 50.2% | 0hPa | 2.6V | 08:03:33 | 03:02:37 | 00:00:00 | |
| IW2NTF | 2026-09-03 13:37:43 | 44.72483 | 9.37832 | 156° | 82km/h | 12292m | -7.1m/s | -59.1°C | 51.9% | 0hPa | 2.5V | 08:03:43 | 03:02:27 | 00:00:00 | |
| IW2NTF | 2026-09-03 13:37:33 | 44.72672 | 9.37706 | 152° | 84km/h | 12361m | -7m/s | -59.6°C | 52.4% | 0hPa | 2.5V | 08:03:53 | 03:02:17 | 00:00:00 | |
| IW2NTF | 2026-09-03 13:37:23 | 44.72862 | 9.37559 | 149° | 86km/h | 12433m | -7m/s | -60°C | 52.5% | 0hPa | 2.6V | 08:04:03 | 03:02:07 | 00:00:00 | |
| RDZBGO | 2026-09-03 13:37:14 | 44.72918 | 9.37511 | 149° | 88km/h | 12455m | -7.4m/s | -60.1°C | 44.7% | 0hPa | 2.5V | 00:00:00 | 00:00:00 | 00:00:00 | |
| IW2NTF | 2026-09-03 13:37:13 | 44.73051 | 9.37395 | 147° | 88km/h | 12504m | -7.1m/s | -60.5°C | 53.9% | 0hPa | 2.5V | 08:04:13 | 03:01:57 | 00:00:00 | |
| IW2NTF | 2026-09-03 13:37:03 | 44.73241 | 9.37217 | 146° | 95km/h | 12575m | -6.8m/s | -61.1°C | 52.5% | 0hPa | 2.5V | 08:04:23 | 03:01:47 | 00:00:00 | |
| IW2NTF | 2026-09-03 13:36:52 | 44.73468 | 9.37013 | 146° | 102km/h | 12646m | -6.2m/s | -61.5°C | 50% | 0hPa | 2.5V | 08:04:34 | 03:01:36 | 00:00:00 | |
| RDZBGO | 2026-09-03 13:36:45 | 44.73490 | 9.36993 | 149° | 102km/h | 12652m | -6.3m/s | -61.5°C | 41.5% | 0hPa | 2.6V | 08:05:00 | 00:00:00 | 00:00:00 | |
| IW2NTF | 2026-09-03 13:36:42 | 44.73677 | 9.36812 | 142° | 106km/h | 12710m | -5.8m/s | -61.7°C | 48.3% | 0hPa | 2.6V | 08:04:44 | 03:01:26 | 00:00:00 | |
| IW2NTF | 2026-09-03 13:36:32 | 44.73901 | 9.36596 | 146° | 106km/h | 12771m | -6.5m/s | -62.2°C | 49.1% | 0hPa | 2.5V | 08:04:54 | 03:01:16 | 00:00:00 | |
| RDZBGO | 2026-09-03 13:36:24 | 44.73969 | 9.36532 | 148° | 108km/h | 12791m | -6.9m/s | -62.5°C | 39.3% | 0hPa | 2.5V | 08:05:00 | 00:00:00 | 00:00:00 | |
| IW2NTF | 2026-09-03 13:36:22 | 44.74131 | 9.36389 | 148° | 110km/h | 12841m | -7.4m/s | -62.8°C | 46.1% | 0hPa | 2.5V | 08:05:04 | 03:01:06 | 00:00:00 | |
| IW2NTF | 2026-09-03 13:36:12 | 44.74372 | 9.36184 | 149° | 113km/h | 12914m | -7.6m/s | -63.2°C | 45.6% | 0hPa | 2.5V | 08:05:14 | 03:00:56 | 00:00:00 | |
| RDZBGO | 2026-09-03 13:36:03 | 44.74446 | 9.36125 | 152° | 113km/h | 12936m | -7.4m/s | -63.2°C | 36.3% | 0hPa | 2.6V | 08:05:00 | 00:00:00 | 00:00:00 | |
| IW2NTF | 2026-09-03 13:36:02 | 44.74627 | 9.35989 | 152° | 117km/h | 12987m | -7.8m/s | -63.4°C | 43.7% | 0hPa | 2.6V | 08:05:24 | 03:00:46 | 00:00:00 | |
| IW2NTF | 2026-09-03 13:35:53 | 44.74893 | 9.35804 | 154° | 119km/h | 13061m | -7.3m/s | -63.5°C | 41.8% | 0hPa | 2.5V | 08:05:34 | 03:00:36 | 00:00:00 | |
| IW2NTF | 2026-09-03 13:35:42 | 44.75176 | 9.35632 | 157° | 119km/h | 13137m | -7.4m/s | -64°C | 41.6% | 0hPa | 2.5V | 08:05:44 | 03:00:26 | 00:00:00 | |
| IW2NTF | 2026-09-03 13:35:32 | 44.75445 | 9.35476 | 156° | 111km/h | 13214m | -7.2m/s | -63.5°C | 35.2% | 0hPa | 2.6V | 08:05:54 | 03:00:16 | 00:00:00 | |
| IW2NTF | 2026-09-03 13:35:22 | 44.75681 | 9.35321 | 150° | 97km/h | 13288m | -7.4m/s | -63.2°C | 29.5% | 0hPa | 2.6V | 08:06:04 | 03:00:06 | 00:00:00 | |
| RDZBGO | 2026-09-03 13:35:21 | 44.75568 | 9.35399 | 157° | 102km/h | 13251m | -7.3m/s | -63.1°C | 23.9% | 0hPa | 2.5V | 08:06:00 | 00:00:00 | 00:00:00 | |
| IW2NTF | 2026-09-03 13:35:12 | 44.75910 | 9.35134 | 146° | 111km/h | 13351m | -6.9m/s | -63.5°C | 26.8% | 0hPa | 2.5V | 08:06:14 | 02:59:56 | 00:00:00 | |
| IW2NTF | 2026-09-03 13:35:02 | 44.76140 | 9.34929 | 144° | 104km/h | 13417m | -6.4m/s | -63.4°C | 24.6% | 0hPa | 2.5V | 08:06:24 | 02:59:46 | 00:00:00 | |
| RDZBGO | 2026-09-03 13:35:01 | 44.76029 | 9.35026 | 151° | 111km/h | 13385m | -6.5m/s | -63.6°C | 20.0% | 0hPa | 2.5V | 08:06:00 | 00:00:00 | 00:00:00 | |
| IW2NTF | 2026-09-03 13:34:52 | 44.76342 | 9.34716 | 139° | 104km/h | 13486m | -6.4m/s | -61°C | 18.6% | 0hPa | 2.5V | 08:06:34 | 02:59:36 | 00:00:00 | |
| IW2NTF | 2026-09-03 13:34:42 | 44.76541 | 9.34506 | 143° | 93km/h | 13554m | -7.5m/s | -60.8°C | 18.1% | 0hPa | 2.6V | 08:06:44 | 02:59:26 | 00:00:00 | |
| RDZBGO | 2026-09-03 13:34:41 | 44.76443 | 9.34606 | 143° | 95km/h | 13519m | -7.1m/s | -60.9°C | 13.3% | 0hPa | 2.5V | 08:06:00 | 00:00:00 | 00:00:00 | |
| IW2NTF | 2026-09-03 13:34:32 | 44.76736 | 9.34316 | 144° | 93km/h | 13621m | -7.1m/s | -60.6°C | 16.5% | 0hPa | 2.5V | 08:06:54 | 02:59:16 | 00:00:00 | |
| IW2NTF | 2026-09-03 13:34:22 | 44.76917 | 9.34112 | 141° | 89km/h | 13691m | -7.1m/s | -60.3°C | 13.9% | 0hPa | 2.5V | 08:07:04 | 02:59:06 | 00:00:00 | |
| RDZBGO | 2026-09-03 13:34:20 | 44.76845 | 9.34195 | 142° | 89km/h | 13663m | -7.1m/s | -60.3°C | 9.9% | 0hPa | 2.5V | 00:00:00 | 00:00:00 | 00:00:00 | |
| IW2NTF | 2026-09-03 13:34:12 | 44.77084 | 9.33900 | 139° | 89km/h | 13763m | -6.8m/s | -59.8°C | 12.2% | 0hPa | 2.5V | 08:07:14 | 02:58:56 | 00:00:00 | |
| IW2NTF | 2026-09-03 13:34:02 | 44.77259 | 9.33694 | 141° | 88km/h | 13836m | -7m/s | -60°C | 12.2% | 0hPa | 2.6V | 08:07:24 | 02:58:46 | 00:00:00 | |
| RDZBGO | 2026-09-03 13:34:00 | 44.77188 | 9.33776 | 141° | 89km/h | 13807m | -7.5m/s | -60.0°C | 7.7% | 0hPa | 2.5V | 00:00:00 | 00:00:00 | 00:00:00 | |
| IW2NTF | 2026-09-03 13:33:52 | 44.77430 | 9.33517 | 145° | 80km/h | 13911m | -7.2m/s | -59.8°C | 12% | 0hPa | 2.5V | 08:07:34 | 02:58:36 | 00:00:00 | |
| IW2NTF | 2026-09-03 13:33:40 | 44.77625 | 9.33313 | 141° | 80km/h | 14001m | -7.6m/s | -59.5°C | 11.2% | 0hPa | 2.6V | 08:07:46 | 02:58:24 | 00:00:00 | |
| RDZBGO | 2026-09-03 13:33:38 | 44.77560 | 9.33386 | 143° | 78km/h | 13971m | -7.5m/s | -59.6°C | 7.2% | 0hPa | 2.5V | 08:08:00 | 00:00:00 | 00:00:00 | |
| IW2NTF | 2026-09-03 13:33:30 | 44.77782 | 9.33155 | 145° | 71km/h | 14075m | -7.8m/s | -59.7°C | 11.2% | 0hPa | 2.5V | 08:07:56 | 02:58:14 | 00:00:00 | |
| IW2NTF | 2026-09-03 13:33:20 | 44.77922 | 9.33015 | 142° | 60km/h | 14150m | -7.2m/s | -59.2°C | 10% | 0hPa | 2.5V | 08:08:06 | 02:58:04 | 00:00:00 | |
| RDZBGO | 2026-09-03 13:33:18 | 44.77869 | 9.33068 | 143° | 68km/h | 14120m | -7.9m/s | -59.3°C | 6.3% | 0hPa | 2.5V | 08:08:00 | 00:00:00 | 00:00:00 | |
| IW2NTF | 2026-09-03 13:33:10 | 44.78043 | 9.32882 | 137° | 60km/h | 14224m | -7.7m/s | -59°C | 9.6% | 0hPa | 2.5V | 08:08:16 | 02:57:54 | 00:00:00 | |
| IW2NTF | 2026-09-03 13:33:00 | 44.78153 | 9.32728 | 134° | 62km/h | 14302m | -7.5m/s | -59.6°C | 9.7% | 0hPa | 2.6V | 08:08:26 | 02:57:44 | 00:00:00 | |
| RDZBGO | 2026-09-03 13:32:56 | 44.78132 | 9.32760 | 133° | 60km/h | 14287m | -7.9m/s | -59.5°C | 5.8% | 0hPa | 2.6V | 08:08:00 | 00:00:00 | 00:00:00 | |
| IW2NTF | 2026-09-03 13:32:50 | 44.78262 | 9.32573 | 134° | 62km/h | 14381m | -8m/s | -59.5°C | 10% | 0hPa | 2.6V | 08:08:36 | 02:57:34 | 00:00:00 | |
| IW2NTF | 2026-09-03 13:32:40 | 44.78384 | 9.32419 | 138° | 64km/h | 14465m | -8.5m/s | -59.9°C | 9.7% | 0hPa | 2.5V | 08:08:46 | 02:57:24 | 00:00:00 | |
| RDZBGO | 2026-09-03 13:32:34 | 44.78384 | 9.32419 | 139° | 64km/h | 14465m | -8.5m/s | -59.9°C | 5.8% | 0hPa | 2.5V | 00:00:00 | 00:00:00 | 00:00:00 | |
| IW2NTF | 2026-09-03 13:32:30 | 44.78507 | 9.32252 | 136° | 62km/h | 14544m | -7m/s | -60.3°C | 9.9% | 0hPa | 2.5V | 08:08:56 | 02:57:14 | 00:00:00 | |
| IW2NTF | 2026-09-03 13:32:20 | 44.78611 | 9.32081 | 130° | 64km/h | 14618m | -7.8m/s | -60.1°C | 9.2% | 0hPa | 2.5V | 08:09:06 | 02:57:04 | 00:00:00 | |
| IW2NTF | 2026-09-03 13:32:10 | 44.78706 | 9.31891 | 119° | 64km/h | 14697m | -7.8m/s | -60.6°C | 9.1% | 0hPa | 2.6V | 08:09:16 | 02:56:54 | 00:00:00 | |
| RDZBGO | 2026-09-03 13:32:06 | 44.78689 | 9.31929 | 125° | 64km/h | 14682m | -7.5m/s | -60.5°C | 5.2% | 0hPa | 2.6V | 00:00:00 | 00:00:00 | 00:00:00 | |
| IW2NTF | 2026-09-03 13:32:00 | 44.78784 | 9.31682 | 115° | 71km/h | 14775m | -8m/s | -61°C | 9.1% | 0hPa | 2.6V | 08:09:26 | 02:56:44 | 00:00:00 | |
| IW2NTF | 2026-09-03 13:31:50 | 44.78856 | 9.31452 | 115° | 73km/h | 14854m | -7.7m/s | -61.2°C | 9.4% | 0hPa | 2.5V | 08:09:36 | 02:56:34 | 00:00:00 | |
| IW2NTF | 2026-09-03 13:31:40 | 44.78945 | 9.31212 | 119° | 77km/h | 14934m | -7.5m/s | -60.7°C | 8.6% | 0hPa | 2.5V | 08:09:46 | 02:56:24 | 00:00:00 | |
| RDZBGO | 2026-09-03 13:31:37 | 44.78916 | 9.31285 | 118° | 78km/h | 14910m | -8.1m/s | -60.9°C | 4.6% | 0hPa | 2.5V | 08:10:00 | 00:00:00 | 00:00:00 | |
| IW2NTF | 2026-09-03 13:31:30 | 44.79048 | 9.30971 | 122° | 82km/h | 15015m | -8m/s | -59.9°C | 7.9% | 0hPa | 2.5V | 08:09:56 | 02:56:14 | 00:00:00 | |
| IW2NTF | 2026-09-03 13:31:21 | 44.79163 | 9.30733 | 127° | 80km/h | 15097m | -8.3m/s | -60.5°C | 7.9% | 0hPa | 2.6V | 08:10:06 | 02:56:04 | 00:00:00 | |
| RDZBGO | 2026-09-03 13:31:16 | 44.79138 | 9.30780 | 125° | 80km/h | 15080m | -8.3m/s | -60.4°C | 4.2% | 0hPa | 2.6V | 08:10:00 | 00:00:00 | 00:00:00 | |
| IW2NTF | 2026-09-03 13:31:10 | 44.79290 | 9.30517 | 130° | 78km/h | 15179m | -8m/s | -60.7°C | 8% | 0hPa | 2.6V | 08:10:16 | 02:55:54 | 00:00:00 | |
| IW2NTF | 2026-09-03 13:31:00 | 44.79432 | 9.30312 | 136° | 78km/h | 15264m | -8.7m/s | -61.2°C | 8% | 0hPa | 2.5V | 08:10:26 | 02:55:44 | 00:00:00 | |
| RDZBGO | 2026-09-03 13:30:55 | 44.79417 | 9.30331 | 137° | 80km/h | 15255m | -8.6m/s | -61.1°C | 4.1% | 0hPa | 2.5V | 00:00:00 | 00:00:00 | 00:00:00 | |
| IW2NTF | 2026-09-03 13:30:50 | 44.79581 | 9.30109 | 138° | 84km/h | 15348m | -8.8m/s | -61.6°C | 8.2% | 0hPa | 2.5V | 08:10:36 | 02:55:34 | 00:00:00 | |
| IW2NTF | 2026-09-03 13:30:40 | 44.79737 | 9.29939 | 143° | 73km/h | 15433m | -8.3m/s | -61.8°C | 8.2% | 0hPa | 2.5V | 08:10:46 | 02:55:24 | 00:00:00 | |
| RDZBGO | 2026-09-03 13:30:34 | 44.79737 | 9.29939 | 145° | 73km/h | 15433m | -8.3m/s | -61.8°C | 4.1% | 0hPa | 2.5V | 00:00:00 | 00:00:00 | 00:00:00 | |
| IW2NTF | 2026-09-03 13:30:30 | 44.79876 | 9.29796 | 142° | 62km/h | 15519m | -9m/s | -61.5°C | 7.8% | 0hPa | 2.5V | 08:10:56 | 02:55:14 | 00:00:00 | |
| IW2NTF | 2026-09-03 13:30:20 | 44.79983 | 9.29661 | 135° | 55km/h | 15608m | -8.5m/s | -61.6°C | 7.7% | 0hPa | 2.6V | 08:11:06 | 02:55:04 | 00:00:00 | |
| RDZBGO | 2026-09-03 13:30:11 | 44.80010 | 9.29620 | 133° | 55km/h | 15634m | -8.7m/s | -61.5°C | 3.7% | 0hPa | 2.6V | 08:11:00 | 00:00:00 | 00:00:00 | |
| IW2NTF | 2026-09-03 13:30:10 | 44.80067 | 9.29516 | 120° | 53km/h | 15695m | -9m/s | -61.8°C | 7.4% | 0hPa | 2.6V | 08:11:16 | 02:54:54 | 00:00:00 | |
| IW2NTF | 2026-09-03 13:30:00 | 44.80145 | 9.29338 | 123° | 64km/h | 15785m | -9.2m/s | -61.8°C | 7.5% | 0hPa | 2.6V | 08:11:26 | 02:54:44 | 00:00:00 | |
| IW2NTF | 2026-09-03 13:29:50 | 44.80241 | 9.29147 | 130° | 68km/h | 15876m | -9m/s | -61.6°C | 7.4% | 0hPa | 2.5V | 08:11:36 | 02:54:34 | 00:00:00 | |
| IW2NTF | 2026-09-03 13:29:40 | 44.80361 | 9.28977 | 136° | 66km/h | 15968m | -9.1m/s | -61.4°C | 7.3% | 0hPa | 2.5V | 08:11:46 | 02:54:24 | 00:00:00 | |
| IW2NTF | 2026-09-03 13:29:30 | 44.80480 | 9.28835 | 139° | 55km/h | 16061m | -9.4m/s | -60.8°C | 6.7% | 0hPa | 2.5V | 08:11:56 | 02:54:14 | 00:00:00 | |
| RDZBGO | 2026-09-03 13:29:28 | 44.80435 | 9.28887 | 143° | 60km/h | 16024m | -9.3m/s | -61.0°C | 3.1% | 0hPa | 2.5V | 08:11:00 | 00:00:00 | 00:00:00 | |
| IW2NTF | 2026-09-03 13:29:20 | 44.80583 | 9.28709 | 138° | 51km/h | 16158m | -9.8m/s | -60.5°C | 6.5% | 0hPa | 2.5V | 08:12:06 | 02:54:04 | 00:00:00 | |
| DO3MHA-11 | 2026-09-03 13:29:15 | 44.80583 | 9.28708 | 139° | 49km/h | 16158m | -9.8m/s | -60.4°C | 6.5% | 0hPa | 2.5V | 00:00:00 | 02:54:04 | 00:00:00 | |
| IW2NTF | 2026-09-03 13:29:11 | 44.80671 | 9.28589 | 134° | 47km/h | 16254m | -10.1m/s | -59.9°C | 6.1% | 0hPa | 2.5V | 08:12:16 | 02:53:54 | 00:00:00 | |
| RDZBGO | 2026-09-03 13:29:07 | 44.80647 | 9.28625 | 138° | 47km/h | 16225m | -9.6m/s | -59.9°C | 2.6% | 0hPa | 2.5V | 08:12:00 | 00:00:00 | 00:00:00 | |
| DO3MHA-11 | 2026-09-03 13:29:05 | 44.80671 | 9.28589 | 135° | 51km/h | 16255m | -10.0m/s | -59.9°C | 6.1% | 0hPa | 2.5V | 00:00:00 | 02:53:54 | 00:00:00 | |
| IW2NTF | 2026-09-03 13:29:00 | 44.80758 | 9.28456 | 130° | 55km/h | 16352m | -10m/s | -60.3°C | 6% | 0hPa | 2.5V | 08:12:26 | 02:53:44 | 00:00:00 | |
| DO3MHA-11 | 2026-09-03 13:28:55 | 44.80758 | 9.28456 | 131° | 55km/h | 16352m | -9.9m/s | -60.2°C | 6.0% | 0hPa | 2.5V | 00:00:00 | 02:53:44 | 00:00:00 | |
| IW2NTF | 2026-09-03 13:28:50 | 44.80844 | 9.28306 | 128° | 55km/h | 16451m | -10m/s | -60.4°C | 6% | 0hPa | 2.6V | 08:12:36 | 02:53:34 | 00:00:00 | |
| DO3MHA-11 | 2026-09-03 13:28:45 | 44.80844 | 9.28306 | 129° | 57km/h | 16451m | -10.0m/s | -60.4°C | 6.0% | 0hPa | 2.6V | 00:00:00 | 02:53:34 | 00:00:00 | |
| IW2NTF | 2026-09-03 13:28:40 | 44.80940 | 9.28154 | 131° | 60km/h | 16551m | -9.9m/s | -60.7°C | 6% | 0hPa | 2.6V | 08:12:46 | 02:53:24 | 00:00:00 | |
| DO3MHA-11 | 2026-09-03 13:28:35 | 44.80940 | 9.28154 | 132° | 62km/h | 16552m | -9.9m/s | -60.6°C | 6.0% | 0hPa | 2.6V | 00:00:00 | 02:53:24 | 00:00:00 | |
| IW2NTF | 2026-09-03 13:28:30 | 44.81046 | 9.27993 | 132° | 58km/h | 16654m | -10.2m/s | -61°C | 6.2% | 0hPa | 2.6V | 08:12:56 | 02:53:14 | 00:00:00 | |
| DO3MHA-11 | 2026-09-03 13:28:25 | 44.81046 | 9.27993 | 133° | 66km/h | 16654m | -10.2m/s | -61.0°C | 6.2% | 0hPa | 2.6V | 08:12:00 | 02:53:14 | 00:00:00 | |
| RDZBGO | 2026-09-03 13:28:23 | 44.81056 | 9.27977 | 133° | 62km/h | 16664m | -10.8m/s | -61.0°C | 2.4% | 0hPa | 2.5V | 00:00:00 | 00:00:00 | 00:00:00 | |
| IW2NTF | 2026-09-03 13:28:20 | 44.81166 | 9.27827 | 137° | 69km/h | 16758m | -10.5m/s | -60.6°C | 6.1% | 0hPa | 2.5V | 08:13:06 | 02:53:04 | 00:00:00 | |
| DO3MHA-11 | 2026-09-03 13:28:15 | 44.81166 | 9.27827 | 138° | 71km/h | 16758m | -10.4m/s | -60.5°C | 6.1% | 0hPa | 2.5V | 00:00:00 | 02:53:04 | 00:00:00 | |
| IW2NTF | 2026-09-03 13:28:10 | 44.81304 | 9.27666 | 142° | 71km/h | 16862m | -10.8m/s | -60°C | 6% | 0hPa | 2.5V | 08:13:16 | 02:52:54 | 00:00:00 | |
| DO3MHA-11 | 2026-09-03 13:28:05 | 44.81304 | 9.27666 | 143° | 68km/h | 16862m | -10.8m/s | -59.9°C | 6.0% | 0hPa | 2.5V | 00:00:00 | 02:52:54 | 00:00:00 | |
| RDZBGO | 2026-09-03 13:28:02 | 44.81333 | 9.27636 | 146° | 71km/h | 16884m | -10.7m/s | -59.8°C | 2.2% | 0hPa | 2.5V | 00:00:00 | 00:00:00 | 00:00:00 | |
| IW2NTF | 2026-09-03 13:28:00 | 44.81450 | 9.27539 | 154° | 62km/h | 16969m | -11m/s | -59.2°C | 5.6% | 0hPa | 2.5V | 08:13:26 | 02:52:44 | 00:00:00 | |
| DO3MHA-11 | 2026-09-03 13:27:55 | 44.81450 | 9.27539 | 155° | 58km/h | 16969m | -10.9m/s | -59.2°C | 5.6% | 0hPa | 2.5V | 00:00:00 | 02:52:44 | 00:00:00 | |
| IW2NTF | 2026-09-03 13:27:50 | 44.81586 | 9.27458 | 159° | 55km/h | 17077m | -10.7m/s | -58.4°C | 5.4% | 0hPa | 2.5V | 08:13:36 | 02:52:34 | 00:00:00 | |
| DO3MHA-11 | 2026-09-03 13:27:45 | 44.81586 | 9.27458 | 160° | 47km/h | 17077m | -10.7m/s | -58.4°C | 5.4% | 0hPa | 2.5V | 00:00:00 | 02:52:34 | 00:00:00 | |
| RDZBGO | 2026-09-03 13:27:41 | 44.81624 | 9.27439 | 161° | 49km/h | 17109m | -10.4m/s | -58.1°C | 2.0% | 0hPa | 2.5V | 08:14:00 | 00:00:00 | 00:00:00 | |
| IW2NTF | 2026-09-03 13:27:40 | 44.81700 | 9.27407 | 168° | 40km/h | 17186m | -11.8m/s | -57.6°C | 4.9% | 0hPa | 2.5V | 08:13:46 | 02:52:24 | 00:00:00 | |
| DO3MHA-11 | 2026-09-03 13:27:35 | 44.81700 | 9.27407 | 169° | 33km/h | 17186m | -11.8m/s | -57.6°C | 4.9% | 0hPa | 2.6V | 00:00:00 | 02:52:24 | 00:00:00 | |
| IW2NTF | 2026-09-03 13:27:30 | 44.81781 | 9.27383 | 172° | 27km/h | 17296m | -11.1m/s | -57.5°C | 4.8% | 0hPa | 2.6V | 08:13:56 | 02:52:14 | 00:00:00 | |
| DO3MHA-11 | 2026-09-03 13:27:25 | 44.81781 | 9.27383 | 173° | 27km/h | 17296m | -11.1m/s | -57.4°C | 4.8% | 0hPa | 2.6V | 00:00:00 | 02:52:14 | 00:00:00 | |
| IW2NTF | 2026-09-03 13:27:20 | 44.81848 | 9.27384 | 177° | 18km/h | 17405m | -11.4m/s | -58°C | 4.9% | 0hPa | 2.6V | 08:14:06 | 02:52:04 | 00:00:00 | |
| DO3MHA-11 | 2026-09-03 13:27:15 | 44.81848 | 9.27384 | 178° | 16km/h | 17406m | -11.3m/s | -58.0°C | 4.9% | 0hPa | 2.5V | 00:00:00 | 02:52:04 | 00:00:00 | |
| IW2NTF | 2026-09-03 13:27:10 | 44.81889 | 9.27372 | 155° | 13km/h | 17518m | -10.9m/s | -58.3°C | 5.1% | 0hPa | 2.5V | 08:14:16 | 02:51:54 | 00:00:00 | |
| DO3MHA-11 | 2026-09-03 13:27:05 | 44.81889 | 9.27372 | 156° | 15km/h | 17519m | -10.8m/s | -58.3°C | 5.1% | 0hPa | 2.5V | 00:00:00 | 02:51:54 | 00:00:00 | |
| IW2NTF | 2026-09-03 13:27:00 | 44.81913 | 9.27328 | 122° | 18km/h | 17633m | -10.9m/s | -58.6°C | 5.1% | 0hPa | 2.5V | 08:14:26 | 02:51:44 | 00:00:00 | |
| RDZBGO | 2026-09-03 13:26:56 | 44.81911 | 9.27333 | 119° | 16km/h | 17623m | -11.0m/s | -58.6°C | 1.8% | 0hPa | 2.5V | 08:14:00 | 00:00:00 | 00:00:00 | |
| DO3MHA-11 | 2026-09-03 13:26:55 | 44.81913 | 9.27328 | 123° | 20km/h | 17634m | -10.9m/s | -58.6°C | 5.1% | 0hPa | 2.5V | 08:14:00 | 02:51:44 | 00:00:00 | |
| IW2NTF | 2026-09-03 13:26:50 | 44.81944 | 9.27266 | 135° | 27km/h | 17740m | -11.8m/s | -58.9°C | 5.3% | 0hPa | 2.5V | 08:14:36 | 02:51:34 | 00:00:00 | |
| DB0UT-7 | 2026-09-03 13:26:47 | 44.81935 | 9.27282 | 125° | 33km/h | 17719m | -9.9m/s | -58.9°C | 5.3% | 0hPa | 2.5V | 00:00:00 | 02:51:36 | 00:00:00 | |
| DO3MHA-11 | 2026-09-03 13:26:45 | 44.81944 | 9.27266 | 136° | 26km/h | 17740m | -11.8m/s | -58.8°C | 5.3% | 0hPa | 2.5V | 00:00:00 | 02:51:34 | 00:00:00 | |
| IW2NTF | 2026-09-03 13:26:40 | 44.81985 | 9.27193 | 121° | 29km/h | 17857m | -10.4m/s | -58.8°C | 5.4% | 0hPa | 2.5V | 08:14:46 | 02:51:24 | 00:00:00 | |
| DO3MHA-11 | 2026-09-03 13:26:35 | 44.81985 | 9.27193 | 122° | 31km/h | 17857m | -10.3m/s | -58.7°C | 5.4% | 0hPa | 2.5V | 00:00:00 | 02:51:24 | 00:00:00 | |
| RDZBGO | 2026-09-03 13:26:34 | 44.81985 | 9.27193 | 122° | 29km/h | 17857m | -10.4m/s | -58.8°C | 1.9% | 0hPa | 2.5V | 08:15:00 | 00:00:00 | 00:00:00 | |
| IW2NTF | 2026-09-03 13:26:30 | 44.82045 | 9.27122 | 160° | 46km/h | 17970m | -12.1m/s | -57.9°C | 5.2% | 0hPa | 2.5V | 08:14:56 | 02:51:14 | 00:00:00 | |
| DO3MHA-11 | 2026-09-03 13:26:25 | 44.82045 | 9.27121 | 161° | 38km/h | 17970m | -12.1m/s | -57.9°C | 5.2% | 0hPa | 2.5V | 00:00:00 | 02:51:14 | 00:00:00 | |
| IW2NTF | 2026-09-03 13:26:18 | 44.82146 | 9.27066 | 143° | 37km/h | 18100m | -12.6m/s | -57.1°C | 4.6% | 0hPa | 2.6V | 08:15:08 | 02:51:02 | 00:00:00 | |
| DB0UT-7 | 2026-09-03 13:26:17 | 44.82123 | 9.27092 | 149° | 27km/h | 18058m | -11.7m/s | -57.5°C | 4.9% | 0hPa | 2.6V | 00:00:00 | 00:00:00 | 00:00:00 | |
| DO3MHA-11 | 2026-09-03 13:26:15 | 44.82133 | 9.27081 | 139° | 42km/h | 18078m | -9.8m/s | -57.4°C | 4.7% | 0hPa | 2.6V | 00:00:00 | 02:51:04 | 00:00:00 | |
| RDZBGO | 2026-09-03 13:26:14 | 44.82133 | 9.27081 | 139° | 29km/h | 18078m | -9.9m/s | -57.4°C | 1.7% | 0hPa | 2.6V | 08:15:00 | 00:00:00 | 00:00:00 | |
| IW2NTF | 2026-09-03 13:26:08 | 44.82244 | 9.27038 | 189° | 26km/h | 18204m | -10.6m/s | -57°C | 4.7% | 0hPa | 2.6V | 08:15:18 | 02:50:52 | 00:00:00 | |
| DO3MHA-11 | 2026-09-03 13:26:05 | 44.82229 | 9.27036 | 184° | 20km/h | 18182m | -11.5m/s | -56.9°C | 4.6% | 0hPa | 2.6V | 00:00:00 | 02:50:54 | 00:00:00 | |
| IW2NTF | 2026-09-03 13:25:58 | 44.82273 | 9.27009 | 143° | 29km/h | 18307m | -9.6m/s | -57.6°C | 4.7% | 0hPa | 2.6V | 08:15:28 | 02:50:42 | 00:00:00 | |
| RDZBGO | 2026-09-03 13:25:53 | 44.82268 | 9.27016 | 135° | 27km/h | 18297m | -9.7m/s | -57.6°C | 1.6% | 0hPa | 2.6V | 08:16:00 | 00:00:00 | 00:00:00 | |
| IW2NTF | 2026-09-03 13:25:48 | 44.82307 | 9.26981 | 83° | 13km/h | 18413m | -11.8m/s | -58.1°C | 5% | 0hPa | 2.6V | 08:15:38 | 02:50:32 | 00:00:00 | |
| DB0UT-7 | 2026-09-03 13:25:47 | 44.82304 | 9.26991 | 168° | 29km/h | 18371m | -11.8m/s | -57.8°C | 4.8% | 0hPa | 2.6V | 00:00:00 | 02:50:36 | 00:00:00 | |
| IW2NTF | 2026-09-03 13:25:38 | 44.82330 | 9.26906 | 149° | 33km/h | 18518m | -10.2m/s | -58.4°C | 5.1% | 0hPa | 2.6V | 08:15:48 | 02:50:22 | 00:00:00 | |
| RDZBGO | 2026-09-03 13:25:32 | 44.82330 | 9.26906 | 150° | 33km/h | 18519m | -10.2m/s | -58.4°C | 1.8% | 0hPa | 2.6V | 08:16:00 | 00:00:00 | 00:00:00 | |
| IW2NTF | 2026-09-03 13:25:28 | 44.82375 | 9.26815 | 104° | 42km/h | 18622m | -10.2m/s | -58.2°C | 5% | 0hPa | 2.6V | 08:15:58 | 02:50:12 | 00:00:00 | |
| IW2NTF | 2026-09-03 13:25:18 | 44.82452 | 9.26710 | 163° | 35km/h | 18726m | -9.4m/s | -57.9°C | 5% | 0hPa | 2.6V | 08:16:08 | 02:50:02 | 00:00:00 | |
| DB0UT-7 | 2026-09-03 13:25:17 | 44.82414 | 9.26734 | 146° | 26km/h | 18687m | -9.0m/s | -58.4°C | 5.3% | 0hPa | 2.6V | 00:00:00 | 00:00:00 | 00:00:00 | |
| RDZBGO | 2026-09-03 13:25:11 | 44.82460 | 9.26707 | 164° | 31km/h | 18736m | -9.9m/s | -57.7°C | 1.7% | 0hPa | 2.6V | 08:16:00 | 00:00:00 | 00:00:00 | |
| IW2NTF | 2026-09-03 13:25:08 | 44.82518 | 9.26681 | 160° | 24km/h | 18830m | -9.7m/s | -57.7°C | 5% | 0hPa | 2.6V | 08:16:18 | 02:49:52 | 00:00:00 | |
| IW2NTF | 2026-09-03 13:24:58 | 44.82563 | 9.26635 | 142° | 18km/h | 18940m | -11.9m/s | -57.4°C | 4.9% | 0hPa | 2.6V | 08:16:28 | 02:49:42 | 00:00:00 | |
| RDZBGO | 2026-09-03 13:24:51 | 44.82566 | 9.26632 | 158° | 18km/h | 18951m | -9.5m/s | -57.4°C | 1.7% | 0hPa | 2.6V | 08:17:00 | 00:00:00 | 00:00:00 | |
| DL2OL | 2026-09-03 13:24:50 | 44.82571 | 9.26630 | 174° | 18km/h | 18962m | -10.7m/s | -57.3°C | 1.6% | 0hPa | 2.6V | 08:17:00 | 00:00:00 | 00:00:00 | |
| IW2NTF | 2026-09-03 13:24:48 | 44.82593 | 9.26651 | 209° | 2km/h | 19050m | -9.6m/s | -57.2°C | 5% | 0hPa | 2.6V | 08:16:38 | 02:49:32 | 00:00:00 | |
| DB0UT-7 | 2026-09-03 13:24:47 | 44.82589 | 9.26637 | 231° | 16km/h | 19006m | -9.9m/s | -57.3°C | 5.0% | 0hPa | 2.6V | 08:16:00 | 02:49:36 | 00:00:00 | |
| IW2NTF | 2026-09-03 13:24:38 | 44.82632 | 9.26618 | 196° | 16km/h | 19158m | -10.9m/s | -56.6°C | 4.7% | 0hPa | 2.6V | 08:16:48 | 02:49:22 | 00:00:00 | |
| RDZBGO | 2026-09-03 13:24:31 | 44.82636 | 9.26620 | 222° | 15km/h | 19170m | -12.0m/s | -56.6°C | 1.5% | 0hPa | 2.6V | 08:17:00 | 00:00:00 | 00:00:00 | |
| IW2NTF | 2026-09-03 13:24:28 | 44.82634 | 9.26626 | 123° | 16km/h | 19269m | -9.6m/s | -56.4°C | 4.5% | 0hPa | 2.6V | 08:16:58 | 02:49:12 | 00:00:00 | |
| IW2NTF | 2026-09-03 13:24:18 | 44.82653 | 9.26619 | 345° | 15km/h | 19380m | -12.3m/s | -56.6°C | 4.6% | 0hPa | 2.5V | 08:17:08 | 02:49:02 | 00:00:00 | |
| DB0UT-7 | 2026-09-03 13:24:17 | 44.82656 | 9.26610 | 195° | 20km/h | 19337m | -11.1m/s | -56.4°C | 4.5% | 0hPa | 2.6V | 00:00:00 | 00:00:00 | 00:00:00 | |
| DL2OL | 2026-09-03 13:24:16 | 44.82656 | 9.26610 | 195° | 9km/h | 19337m | -11.1m/s | -56.5°C | 1.5% | 0hPa | 2.6V | 00:00:00 | 00:00:00 | 00:00:00 | |
| DO3MHA-11 | 2026-09-03 13:24:10 | 44.82645 | 9.26618 | 62° | 20km/h | 19414m | -11.6m/s | -56.6°C | 4.6% | 0hPa | 2.6V | 00:00:00 | 02:48:59 | 00:00:00 | |
| IW2NTF | 2026-09-03 13:24:08 | 44.82674 | 9.26599 | 188° | 27km/h | 19490m | -14m/s | -56.9°C | 4.9% | 0hPa | 2.5V | 08:17:18 | 02:48:52 | 00:00:00 | |
| DO3MHA-11 | 2026-09-03 13:24:00 | 44.82689 | 9.26612 | 243° | 22km/h | 19525m | -9.9m/s | -56.8°C | 4.9% | 0hPa | 2.5V | 00:00:00 | 02:48:49 | 00:00:00 | |
| IW2NTF | 2026-09-03 13:23:58 | 44.82671 | 9.26632 | 32° | 24km/h | 19606m | -10.5m/s | -56°C | 4.2% | 0hPa | 2.5V | 08:17:28 | 02:48:42 | 00:00:00 | |
| DO3MHA-11 | 2026-09-03 13:23:50 | 44.82662 | 9.26606 | 88° | 24km/h | 19636m | -9.6m/s | -56.1°C | 4.4% | 0hPa | 2.6V | 00:00:00 | 02:48:39 | 00:00:00 | |
| RDZBGO | 2026-09-03 13:23:49 | 44.82662 | 9.26606 | 89° | 35km/h | 19636m | -9.6m/s | -56.2°C | 1.4% | 0hPa | 2.6V | 08:17:00 | 00:00:00 | 00:00:00 | |
| IW2NTF | 2026-09-03 13:23:48 | 44.82692 | 9.26560 | 197° | 13km/h | 19715m | -10.9m/s | -56.4°C | 4.9% | 0hPa | 2.6V | 08:17:38 | 02:48:32 | 00:00:00 | |
| DB0UT-7 | 2026-09-03 13:23:47 | 44.82670 | 9.26573 | 130° | 29km/h | 19670m | -12.8m/s | -56.3°C | 4.7% | 0hPa | 2.5V | 00:00:00 | 02:48:36 | 00:00:00 | |
| DL2OL | 2026-09-03 13:23:41 | 44.82695 | 9.26561 | 237° | 7km/h | 19726m | -11.0m/s | -56.5°C | 1.6% | 0hPa | 2.5V | 00:00:00 | 00:00:00 | 00:00:00 | |
| DO3MHA-11 | 2026-09-03 13:23:40 | 44.82692 | 9.26564 | 7° | 40km/h | 19747m | -11.0m/s | -56.6°C | 4.8% | 0hPa | 2.5V | 08:17:00 | 02:48:29 | 00:00:00 | |
| IW2NTF | 2026-09-03 13:23:38 | 44.82669 | 9.26485 | 95° | 53km/h | 19825m | -11.6m/s | -56.9°C | 4.7% | 0hPa | 2.6V | 08:17:48 | 02:48:22 | 00:00:00 | |
| DO3MHA-11 | 2026-09-03 13:23:30 | 44.82682 | 9.26433 | 123° | 40km/h | 19861m | -11.7m/s | -56.8°C | 4.9% | 0hPa | 2.5V | 00:00:00 | 02:48:19 | 00:00:00 | |
| RDZBGO | 2026-09-03 13:23:28 | 44.82689 | 9.26419 | 134° | 47km/h | 19872m | -10.1m/s | -56.7°C | 1.6% | 0hPa | 2.5V | 08:17:00 | 00:00:00 | 00:00:00 | |
| IW2NTF | 2026-09-03 13:23:28 | 44.82730 | 9.26398 | 195° | 11km/h | 19936m | -10.9m/s | -55.6°C | 4.7% | 0hPa | 2.5V | 08:17:58 | 02:48:12 | 00:00:00 | |
| DF1GD-15 | 2026-09-03 13:23:24 | 44.82721 | 9.26396 | 179° | 22km/h | 19914m | -11.8m/s | -55.8°C | 1.6% | 0hPa | 2.5V | 08:18:00 | 00:00:00 | 00:00:00 | |
| IW2NTF | 2026-09-03 13:23:18 | 44.82730 | 9.26315 | 125° | 46km/h | 20045m | -10.9m/s | -55.2°C | 4.3% | 0hPa | 2.5V | 08:18:08 | 02:48:02 | 00:00:00 | |
| DB0UT-7 | 2026-09-03 13:23:17 | 44.82722 | 9.26372 | 75° | 33km/h | 20003m | -10.0m/s | -55.3°C | 4.3% | 0hPa | 2.6V | 00:00:00 | 00:00:00 | 00:00:00 | |
| IW2NTF | 2026-09-03 13:23:08 | 44.82793 | 9.26312 | 280° | 11km/h | 20151m | -10.1m/s | -54.4°C | 4.4% | 0hPa | 2.5V | 08:18:18 | 02:47:52 | 00:00:00 | |
| RDZBGO | 2026-09-03 13:23:07 | 44.82772 | 9.26288 | 193° | 33km/h | 20099m | -11.2m/s | -54.6°C | 1.4% | 0hPa | 2.6V | 08:18:00 | 00:00:00 | 00:00:00 | |
| DL2OL | 2026-09-03 13:23:06 | 44.82780 | 9.26292 | 206° | 29km/h | 20109m | -9.9m/s | -54.5°C | 1.4% | 0hPa | 2.6V | 08:18:00 | 00:00:00 | 00:00:00 | |
| NBG1-10 | 2026-09-03 13:23:03 | 44.82793 | 9.26312 | 281° | 29km/h | 20151m | -10.0m/s | -54.3°C | 4.4% | 0hPa | 2.6V | 00:00:00 | 02:47:52 | 00:00:00 | |
| IW2NTF | 2026-09-03 13:22:58 | 44.82767 | 9.26239 | 111° | 46km/h | 20256m | -10.5m/s | -54.5°C | 4.2% | 0hPa | 2.6V | 08:18:28 | 02:47:42 | 00:00:00 | |
| IW2NTF | 2026-09-03 13:22:48 | 44.82833 | 9.26215 | 237° | 26km/h | 20359m | -10.3m/s | -53.5°C | 4% | 0hPa | 2.5V | 08:18:38 | 02:47:32 | 00:00:00 | |
| DB0UT-7 | 2026-09-03 13:22:47 | 44.82811 | 9.26194 | 189° | 26km/h | 20318m | -9.4m/s | -53.7°C | 4.0% | 0hPa | 2.5V | 00:00:00 | 02:47:36 | 00:00:00 | |
| RDZBGO | 2026-09-03 13:22:46 | 44.82811 | 9.26194 | 189° | 31km/h | 20318m | -9.4m/s | -53.8°C | 1.3% | 0hPa | 2.5V | 08:18:00 | 00:00:00 | 00:00:00 | |
| DF1GD-15 | 2026-09-03 13:22:43 | 44.82829 | 9.26207 | 226° | 27km/h | 20348m | -10.6m/s | 0°C | 0% | 0hPa | 2.5V | 08:18:00 | 00:00:00 | 00:00:00 | |
| DO3MHA-11 | 2026-09-03 13:22:37 | 44.82830 | 9.26258 | 334° | 24km/h | 20422m | -9.9m/s | -53.6°C | 4.0% | 0hPa | 2.5V | 00:00:00 | 02:47:26 | 00:00:00 | |
| IW2NTF | 2026-09-03 13:22:36 | 44.82804 | 9.26235 | 73° | 26km/h | 20483m | -10.3m/s | -54.1°C | 4% | 0hPa | 2.5V | 08:18:50 | 02:47:20 | 00:00:00 | |
| DL2OL | 2026-09-03 13:22:31 | 44.82806 | 9.26243 | 63° | 26km/h | 20472m | -10.7m/s | -54.1°C | 1.2% | 0hPa | 2.5V | 00:00:00 | 00:00:00 | 00:00:00 | |
| NBG1-10 | 2026-09-03 13:22:30 | 44.82802 | 9.26226 | 84° | 27km/h | 20494m | -10.9m/s | -54.1°C | 4.1% | 0hPa | 2.5V | 08:18:00 | 02:47:19 | 00:00:00 | |
| DO3MHA-11 | 2026-09-03 13:22:27 | 44.82806 | 9.26201 | 125° | 27km/h | 20524m | -9.7m/s | -54.1°C | 4.0% | 0hPa | 2.6V | 00:00:00 | 02:47:16 | 00:00:00 | |
| IW2NTF | 2026-09-03 13:22:26 | 44.82843 | 9.26188 | 200° | 29km/h | 20587m | -10.7m/s | -54.1°C | 4% | 0hPa | 2.6V | 08:19:00 | 02:47:10 | 00:00:00 | |
| RDZBGO | 2026-09-03 13:22:25 | 44.82810 | 9.26195 | 143° | 26km/h | 20534m | -9.9m/s | -54.1°C | 1.3% | 0hPa | 2.6V | 08:19:00 | 00:00:00 | 00:00:00 | |
| DF1GD-15 | 2026-09-03 13:22:22 | 44.82829 | 9.26185 | 176° | 27km/h | 20565m | -11.1m/s | 0°C | 0% | 0hPa | 2.6V | 00:00:00 | 00:00:00 | 00:00:00 | |
| DB0UT-7 | 2026-09-03 13:22:17 | 44.82859 | 9.26217 | 265° | 29km/h | 20628m | -9.6m/s | -54.3°C | 4.2% | 0hPa | 2.6V | 00:00:00 | 00:00:00 | 00:00:00 | |
| IW2NTF | 2026-09-03 13:22:16 | 44.82835 | 9.26269 | 332° | 31km/h | 20688m | -10.3m/s | -54.4°C | 4.2% | 0hPa | 2.6V | 08:19:10 | 02:47:00 | 00:00:00 | |
| DO3MHA-11 | 2026-09-03 13:22:07 | 44.82807 | 9.26274 | 15° | 26km/h | 20728m | -9.8m/s | -54.6°C | 4.3% | 0hPa | 2.6V | 00:00:00 | 02:46:56 | 00:00:00 | |
| IW2NTF | 2026-09-03 13:22:06 | 44.82781 | 9.26237 | 70° | 26km/h | 20786m | -9.7m/s | -54.6°C | 4.2% | 0hPa | 2.6V | 08:19:20 | 02:46:50 | 00:00:00 | |
| RDZBGO | 2026-09-03 13:22:04 | 44.82796 | 9.26266 | 40° | 24km/h | 20747m | -9.6m/s | -54.7°C | 1.4% | 0hPa | 2.6V | 08:19:00 | 00:00:00 | 00:00:00 | |
| DO3MHA-11 | 2026-09-03 13:21:57 | 44.82780 | 9.26200 | 103° | 35km/h | 20826m | -9.5m/s | -54.6°C | 4.3% | 0hPa | 2.6V | 00:00:00 | 02:46:46 | 00:00:00 | |
| IW2NTF | 2026-09-03 13:21:56 | 44.82803 | 9.26144 | 129° | 35km/h | 20883m | -9.2m/s | -54.7°C | 4.4% | 0hPa | 2.6V | 08:19:30 | 02:46:40 | 00:00:00 | |
| DB0UT-7 | 2026-09-03 13:21:47 | 44.82829 | 9.26106 | 139° | 27km/h | 20921m | -9.9m/s | -54.2°C | 4.3% | 0hPa | 2.5V | 00:00:00 | 02:46:36 | 00:00:00 | |
| IW2NTF | 2026-09-03 13:21:46 | 44.82883 | 9.26053 | 155° | 42km/h | 20980m | -9.8m/s | -53.4°C | 4% | 0hPa | 2.5V | 08:19:40 | 02:46:30 | 00:00:00 | |
| DO3MHA-11 | 2026-09-03 13:21:46 | 44.82837 | 9.26096 | 140° | 40km/h | 20931m | -9.4m/s | -54.0°C | 4.2% | 0hPa | 2.7V | 00:00:00 | 02:46:35 | 00:00:00 | |
| RDZBGO | 2026-09-03 13:21:44 | 44.82845 | 9.26086 | 143° | 44km/h | 20941m | -9.8m/s | -53.9°C | 1.3% | 0hPa | 2.7V | 08:20:00 | 00:00:00 | 00:00:00 | |
| IW2NTF | 2026-09-03 13:21:36 | 44.82951 | 9.26051 | 201° | 20km/h | 21078m | -9.8m/s | -53.5°C | 4% | 0hPa | 2.7V | 08:19:50 | 02:46:20 | 00:00:00 | |
| DO3MHA-11 | 2026-09-03 13:21:36 | 44.82925 | 9.26042 | 185° | 15km/h | 21029m | -9.3m/s | -53.6°C | 4.0% | 0hPa | 2.6V | 08:19:00 | 02:46:25 | 00:00:00 | |
| IW2NTF | 2026-09-03 13:21:26 | 44.82990 | 9.26088 | 228° | 16km/h | 21178m | -9.6m/s | -53.4°C | 4% | 0hPa | 2.5V | 08:20:00 | 02:46:10 | 00:00:00 | |
| NBG1-10 | 2026-09-03 13:21:24 | 44.82980 | 9.26075 | 218° | 16km/h | 21149m | -9.8m/s | -53.5°C | 4.1% | 0hPa | 2.5V | 00:00:00 | 02:46:13 | 00:00:00 | |
| RDZBGO | 2026-09-03 13:21:23 | 44.82980 | 9.26075 | 219° | 18km/h | 21149m | -9.8m/s | -53.6°C | 1.3% | 0hPa | 2.5V | 08:20:00 | 00:00:00 | 00:00:00 | |
| DB0UT-7 | 2026-09-03 13:21:17 | 44.82997 | 9.26107 | 261° | 18km/h | 21218m | -10.3m/s | -53.3°C | 4.0% | 0hPa | 2.5V | 00:00:00 | 00:00:00 | 00:00:00 | |
| IW2NTF | 2026-09-03 13:21:16 | 44.82990 | 9.26133 | 315° | 15km/h | 21278m | -9.8m/s | -53.4°C | 3.9% | 0hPa | 2.5V | 08:20:10 | 02:46:00 | 00:00:00 | |
| DO3MHA-11 | 2026-09-03 13:21:11 | 44.82990 | 9.26132 | 316° | 18km/h | 21279m | -9.8m/s | -53.4°C | 3.9% | 0hPa | 2.6V | 00:00:00 | 02:46:00 | 00:00:00 | |
| IW2NTF | 2026-09-03 13:21:04 | 44.82955 | 9.26173 | 331° | 20km/h | 21381m | -10.2m/s | -53.7°C | 4.1% | 0hPa | 2.6V | 08:20:20 | 02:45:50 | 00:00:00 | |
| RDZBGO | 2026-09-03 13:21:02 | 44.82963 | 9.26166 | 325° | 20km/h | 21361m | -10.4m/s | -53.6°C | 1.3% | 0hPa | 2.5V | 08:20:00 | 00:00:00 | 00:00:00 | |
| DO3MHA-11 | 2026-09-03 13:21:01 | 44.82955 | 9.26173 | 332° | 20km/h | 21381m | -10.1m/s | -53.7°C | 4.1% | 0hPa | 2.5V | 00:00:00 | 02:45:50 | 00:00:00 | |
| DL2OL | 2026-09-03 13:20:55 | 44.82931 | 9.26184 | 354° | 20km/h | 21432m | -10.1m/s | -53.8°C | 1.2% | 0hPa | 2.5V | 08:20:00 | 00:00:00 | 00:00:00 | |
| IW2NTF | 2026-09-03 13:20:53 | 44.82903 | 9.26182 | 8° | 24km/h | 21483m | -10.1m/s | -53.8°C | 4% | 0hPa | 2.5V | 08:20:30 | 02:45:40 | 00:00:00 | |
| DO3MHA-11 | 2026-09-03 13:20:51 | 44.82903 | 9.26182 | 9° | 26km/h | 21483m | -10.0m/s | -53.8°C | 4.0% | 0hPa | 2.5V | 00:00:00 | 02:45:40 | 00:00:00 | |
| DB0UT-7 | 2026-09-03 13:20:47 | 44.82877 | 9.26177 | 10° | 33km/h | 21524m | -10.2m/s | -53.6°C | 4.0% | 0hPa | 2.6V | 00:00:00 | 02:45:36 | 00:00:00 | |
| IW2NTF | 2026-09-03 13:20:42 | 44.82838 | 9.26162 | 19° | 27km/h | 21584m | -9.9m/s | -53.7°C | 4.1% | 0hPa | 2.6V | 08:20:40 | 02:45:30 | 00:00:00 | |
| DO3MHA-11 | 2026-09-03 13:20:41 | 44.82838 | 9.26162 | 20° | 33km/h | 21584m | -9.9m/s | -53.6°C | 4.1% | 0hPa | 2.5V | 00:00:00 | 02:45:30 | 00:00:00 | |
| DL2OL | 2026-09-03 13:20:34 | 44.82796 | 9.26135 | 35° | 35km/h | 21646m | -10.4m/s | -53.8°C | 1.3% | 0hPa | 2.5V | 08:21:00 | 00:00:00 | 00:00:00 | |
| IW2NTF | 2026-09-03 13:20:32 | 44.82761 | 9.26075 | 67° | 38km/h | 21709m | -10.5m/s | -54°C | 4.2% | 0hPa | 2.5V | 08:20:52 | 02:45:18 | 00:00:00 | |
| DO3MHA-11 | 2026-09-03 13:20:31 | 44.82770 | 9.26099 | 57° | 37km/h | 21688m | -10.2m/s | -53.8°C | 4.1% | 0hPa | 2.6V | 00:00:00 | 02:45:20 | 00:00:00 | |
| IW2NTF | 2026-09-03 13:20:22 | 44.82764 | 9.25949 | 114° | 35km/h | 21810m | -10.3m/s | -53.9°C | 4.3% | 0hPa | 2.6V | 08:21:02 | 02:45:08 | 00:00:00 | |
| DO3MHA-11 | 2026-09-03 13:20:21 | 44.82758 | 9.25972 | 106° | 35km/h | 21790m | -10.3m/s | -54.0°C | 4.3% | 0hPa | 2.6V | 00:00:00 | 02:45:10 | 00:00:00 | |
| DB0UT-7 | 2026-09-03 13:20:17 | 44.82773 | 9.25927 | 125° | 31km/h | 21831m | -10.5m/s | -53.6°C | 4.1% | 0hPa | 2.5V | 08:21:00 | 00:00:00 | 00:00:00 | |
| IW2NTF | 2026-09-03 13:20:10 | 44.82826 | 9.25876 | 162° | 33km/h | 21911m | -10.2m/s | -53.1°C | 4.1% | 0hPa | 2.5V | 08:21:12 | 02:44:58 | 00:00:00 | |
| NBG1-10 | 2026-09-03 13:20:08 | 44.82834 | 9.25873 | 165° | 27km/h | 21922m | -10.2m/s | -53.1°C | 4.0% | 0hPa | 2.5V | 00:00:00 | 02:44:57 | 00:00:00 | |
| IW2NTF | 2026-09-03 13:20:00 | 44.82905 | 9.25871 | 199° | 31km/h | 22012m | -10m/s | -52.8°C | 3.9% | 0hPa | 2.5V | 08:21:22 | 02:44:48 | 00:00:00 | |
| DL2OL | 2026-09-03 13:19:59 | 44.82898 | 9.25868 | 196° | 31km/h | 22003m | -10.1m/s | -52.8°C | 1.2% | 0hPa | 2.7V | 08:22:00 | 00:00:00 | 00:00:00 | |
| DO3MHA-11 | 2026-09-03 13:19:51 | 44.82955 | 9.25919 | 233° | 24km/h | 22094m | -9.9m/s | -52.7°C | 3.9% | 0hPa | 2.7V | 08:21:00 | 02:44:40 | 00:00:00 | |
| IW2NTF | 2026-09-03 13:19:51 | 44.82961 | 9.25934 | 248° | 24km/h | 22114m | -10m/s | -52.8°C | 3.9% | 0hPa | 2.6V | 08:21:32 | 02:44:38 | 00:00:00 | |
| DB0UT-7 | 2026-09-03 13:19:47 | 44.82964 | 9.25951 | 257° | 29km/h | 22134m | -9.9m/s | -52.7°C | 3.9% | 0hPa | 2.6V | 00:00:00 | 02:44:36 | 00:00:00 | |
| IW2NTF | 2026-09-03 13:19:41 | 44.82967 | 9.26018 | 279° | 26km/h | 22213m | -9.9m/s | -52.5°C | 3.8% | 0hPa | 2.6V | 08:21:42 | 02:44:28 | 00:00:00 | |
| RDZBGO | 2026-09-03 13:19:39 | 44.82968 | 9.26009 | 275° | 26km/h | 22203m | -10.2m/s | -52.6°C | 1.2% | 0hPa | 2.5V | 08:22:00 | 00:00:00 | 00:00:00 | |
| NBG1-10 | 2026-09-03 13:19:34 | 44.82954 | 9.26061 | 309° | 29km/h | 22265m | -10.0m/s | -52.5°C | 3.8% | 0hPa | 2.5V | 00:00:00 | 02:44:23 | 00:00:00 | |
| DO3MHA-11 | 2026-09-03 13:19:31 | 44.82938 | 9.26082 | 327° | 33km/h | 22296m | -10.6m/s | -52.4°C | 3.7% | 0hPa | 2.5V | 00:00:00 | 02:44:20 | 00:00:00 | |
| DO3MHA-11 | 2026-09-03 13:19:21 | 44.82857 | 9.26106 | 3° | 31km/h | 22402m | -10.5m/s | -53.2°C | 4.0% | 0hPa | 2.5V | 00:00:00 | 02:44:10 | 00:00:00 | |
| DB0UT-7 | 2026-09-03 13:19:17 | 44.82825 | 9.26100 | 9° | 24km/h | 22444m | -10.6m/s | -53.4°C | 4.2% | 0hPa | 2.5V | 00:00:00 | 00:00:00 | 00:00:00 | |
| DL2OL | 2026-09-03 13:19:12 | 44.82794 | 9.26094 | 6° | 31km/h | 22488m | -10.7m/s | -53.3°C | 1.3% | 0hPa | 2.5V | 08:22:00 | 00:00:00 | 00:00:00 | |
| DO3MHA-11 | 2026-09-03 13:19:11 | 44.82779 | 9.26093 | 2° | 24km/h | 22509m | -10.9m/s | -53.3°C | 4.1% | 0hPa | 2.5V | 00:00:00 | 02:44:00 | 00:00:00 | |
| IW2NTF | 2026-09-03 13:19:08 | 44.82726 | 9.26096 | 354° | 18km/h | 22608m | -11.4m/s | -52.9°C | 3.9% | 0hPa | 2.5V | 08:22:19 | 02:43:51 | 00:00:00 | |
| DO3MHA-11 | 2026-09-03 13:19:01 | 44.82721 | 9.26096 | 355° | 20km/h | 22620m | -11.0m/s | -52.9°C | 3.9% | 0hPa | 2.5V | 00:00:00 | 02:43:50 | 00:00:00 | |
| RDZBGO | 2026-09-03 13:18:59 | 44.82717 | 9.26097 | 354° | 18km/h | 22630m | -11.1m/s | -52.9°C | 1.2% | 0hPa | 2.5V | 08:22:00 | 00:00:00 | 00:00:00 | |
| IW2NTF | 2026-09-03 13:18:57 | 44.82676 | 9.26102 | 5° | 24km/h | 22719m | -11.3m/s | -52.5°C | 3.8% | 0hPa | 2.5V | 08:22:29 | 02:43:41 | 00:00:00 | |
| DO3MHA-11 | 2026-09-03 13:18:51 | 44.82669 | 9.26101 | 8° | 24km/h | 22731m | -11.5m/s | -52.4°C | 3.9% | 0hPa | 2.5V | 00:00:00 | 02:43:40 | 00:00:00 | |
| IW2NTF | 2026-09-03 13:18:47 | 44.82616 | 9.26080 | 24° | 24km/h | 22832m | -11.3m/s | -52.9°C | 4% | 0hPa | 2.6V | 08:22:39 | 02:43:31 | 00:00:00 | |
| DB0UT-7 | 2026-09-03 13:18:47 | 44.82645 | 9.26095 | 14° | 24km/h | 22775m | -11.0m/s | -52.5°C | 3.9% | 0hPa | 2.5V | 00:00:00 | 02:43:36 | 00:00:00 | |
| DO3MHA-11 | 2026-09-03 13:18:41 | 44.82611 | 9.26077 | 31° | 20km/h | 22843m | -11.5m/s | -52.9°C | 4.0% | 0hPa | 2.7V | 00:00:00 | 02:43:30 | 00:00:00 | |
| RDZBGO | 2026-09-03 13:18:38 | 44.82603 | 9.26067 | 50° | 20km/h | 22866m | -11.3m/s | -52.9°C | 1.2% | 0hPa | 2.7V | 08:22:00 | 00:00:00 | 00:00:00 | |
| IW2NTF | 2026-09-03 13:18:37 | 44.82587 | 9.26024 | 70° | 20km/h | 22943m | -11m/s | -52.7°C | 3.9% | 0hPa | 2.7V | 08:22:49 | 02:43:21 | 00:00:00 | |
| DO3MHA-11 | 2026-09-03 13:18:31 | 44.82586 | 9.26017 | 75° | 24km/h | 22954m | -10.9m/s | -52.6°C | 3.9% | 0hPa | 2.5V | 00:00:00 | 02:43:20 | 00:00:00 | |
| IW2NTF | 2026-09-03 13:18:28 | 44.82582 | 9.25939 | 96° | 27km/h | 23054m | -11.1m/s | -52.5°C | 4% | 0hPa | 2.5V | 08:22:59 | 02:43:11 | 00:00:00 | |
| NBG1-10 | 2026-09-03 13:18:28 | 44.82582 | 9.25994 | 80° | 27km/h | 22988m | -11.1m/s | -52.5°C | 3.9% | 0hPa | 2.7V | 00:00:00 | 02:43:17 | 00:00:00 | |
| DL2OL | 2026-09-03 13:18:27 | 44.82582 | 9.25994 | 81° | 24km/h | 22988m | -11.1m/s | -52.5°C | 1.2% | 0hPa | 2.7V | 08:22:00 | 00:00:00 | 00:00:00 | |
| DO3MHA-11 | 2026-09-03 13:18:21 | 44.82583 | 9.25930 | 99° | 26km/h | 23066m | -11.1m/s | -52.5°C | 4.0% | 0hPa | 2.7V | 08:23:00 | 02:43:10 | 00:00:00 | |
| IW2NTF | 2026-09-03 13:18:17 | 44.82604 | 9.25854 | 128° | 27km/h | 23165m | -11.3m/s | -52.1°C | 3.9% | 0hPa | 2.6V | 08:23:09 | 02:43:01 | 00:00:00 | |
| DB0UT-7 | 2026-09-03 13:18:17 | 44.82589 | 9.25895 | 109° | 27km/h | 23110m | -10.9m/s | -52.5°C | 4.1% | 0hPa | 2.7V | 00:00:00 | 00:00:00 | 00:00:00 | |
| DO3MHA-11 | 2026-09-03 13:18:11 | 44.82609 | 9.25847 | 137° | 31km/h | 23177m | -11.2m/s | -51.9°C | 3.8% | 0hPa | 2.7V | 00:00:00 | 02:43:00 | 00:00:00 | |
| IW2NTF | 2026-09-03 13:18:08 | 44.82673 | 9.25834 | 213° | 27km/h | 23279m | -11.4m/s | -51.6°C | 3.6% | 0hPa | 2.7V | 08:23:19 | 02:42:51 | 00:00:00 | |
| DO3MHA-11 | 2026-09-03 13:18:01 | 44.82679 | 9.25841 | 226° | 26km/h | 23290m | -11.2m/s | -51.6°C | 3.7% | 0hPa | 2.7V | 00:00:00 | 02:42:50 | 00:00:00 | |
| IW2NTF | 2026-09-03 13:17:57 | 44.82669 | 9.25905 | 337° | 26km/h | 23393m | -11.7m/s | -52°C | 3.7% | 0hPa | 2.7V | 08:23:29 | 02:42:41 | 00:00:00 | |
| RDZBGO | 2026-09-03 13:17:56 | 44.82687 | 9.25873 | 278° | 24km/h | 23336m | -11.6m/s | -51.8°C | 1.1% | 0hPa | 2.6V | 08:23:00 | 00:00:00 | 00:00:00 | |
| NBG1-10 | 2026-09-03 13:17:55 | 44.82683 | 9.25888 | 301° | 38km/h | 23359m | -11.5m/s | -51.8°C | 3.7% | 0hPa | 2.6V | 00:00:00 | 02:42:44 | 00:00:00 | |
| DO3MHA-11 | 2026-09-03 13:17:51 | 44.82662 | 9.25908 | 349° | 31km/h | 23405m | -11.9m/s | -52.1°C | 3.7% | 0hPa | 2.6V | 00:00:00 | 02:42:40 | 00:00:00 | |
| IW2NTF | 2026-09-03 13:17:47 | 44.82615 | 9.25854 | 82° | 33km/h | 23510m | -12m/s | -52.6°C | 3.8% | 0hPa | 2.5V | 08:23:39 | 02:42:31 | 00:00:00 | |
| DB0UT-7 | 2026-09-03 13:17:47 | 44.82634 | 9.25900 | 33° | 42km/h | 23451m | -11.8m/s | -52.3°C | 3.8% | 0hPa | 2.5V | 00:00:00 | 02:42:36 | 00:00:00 | |
| DO3MHA-11 | 2026-09-03 13:17:41 | 44.82614 | 9.25842 | 92° | 38km/h | 23522m | -12.5m/s | -52.6°C | 3.8% | 0hPa | 2.5V | 00:00:00 | 02:42:30 | 00:00:00 | |
| DL2OL | 2026-09-03 13:17:40 | 44.82614 | 9.25842 | 93° | 35km/h | 23522m | -12.6m/s | -52.7°C | 1.1% | 0hPa | 2.5V | 08:23:00 | 00:00:00 | 00:00:00 | |
| IW2NTF | 2026-09-03 13:17:37 | 44.82673 | 9.25782 | 194° | 40km/h | 23632m | -12.1m/s | -53.2°C | 3.9% | 0hPa | 2.5V | 08:23:49 | 02:42:21 | 00:00:00 | |
| RDZBGO | 2026-09-03 13:17:36 | 44.82627 | 9.25797 | 135° | 37km/h | 23573m | -12.4m/s | -53.0°C | 1.2% | 0hPa | 2.5V | 08:23:00 | 00:00:00 | 00:00:00 | |
| DO3MHA-11 | 2026-09-03 13:17:31 | 44.82682 | 9.25787 | 208° | 51km/h | 23645m | -12.2m/s | -53.2°C | 3.9% | 0hPa | 2.5V | 00:00:00 | 02:42:20 | 00:00:00 | |
| IW2NTF | 2026-09-03 13:17:27 | 44.82712 | 9.25926 | 298° | 51km/h | 23757m | -12.7m/s | -53.8°C | 4.4% | 0hPa | 2.5V | 08:23:59 | 02:42:11 | 00:00:00 | |
| DO3MHA-11 | 2026-09-03 13:17:21 | 44.82705 | 9.25942 | 309° | 44km/h | 23770m | -13.3m/s | -53.6°C | 4.4% | 0hPa | 2.5V | 00:00:00 | 02:42:10 | 00:00:00 | |
| IW2NTF | 2026-09-03 13:17:17 | 44.82623 | 9.25932 | 74° | 38km/h | 23889m | -12.6m/s | -53°C | 4% | 0hPa | 2.6V | 08:24:09 | 02:42:01 | 00:00:00 | |
| RDZBGO | 2026-09-03 13:17:15 | 44.82651 | 9.25969 | 13° | 42km/h | 23837m | -13.0m/s | -53.2°C | 1.2% | 0hPa | 2.6V | 08:24:00 | 00:00:00 | 00:00:00 | |
| DO3MHA-11 | 2026-09-03 13:17:11 | 44.82621 | 9.25920 | 87° | 33km/h | 23902m | -12.6m/s | -52.9°C | 4.0% | 0hPa | 2.6V | 00:00:00 | 02:42:00 | 00:00:00 | |
| IW2NTF | 2026-09-03 13:17:07 | 44.82669 | 9.25912 | 250° | 37km/h | 24018m | -13.1m/s | -52.7°C | 4% | 0hPa | 2.6V | 08:24:19 | 02:41:51 | 00:00:00 | |
| DO3MHA-11 | 2026-09-03 13:17:01 | 44.82671 | 9.25926 | 269° | 46km/h | 24031m | -14.1m/s | -52.6°C | 4.0% | 0hPa | 2.5V | 00:00:00 | 02:41:50 | 00:00:00 | |
| IW2NTF | 2026-09-03 13:16:57 | 44.82597 | 9.25981 | 40° | 46km/h | 24153m | -14.2m/s | -52.5°C | 4.1% | 0hPa | 2.5V | 08:24:29 | 02:41:41 | 00:00:00 | |
| RDZBGO | 2026-09-03 13:16:54 | 44.82629 | 9.25992 | 351° | 47km/h | 24112m | -14.8m/s | -52.6°C | 1.2% | 0hPa | 2.6V | 08:24:00 | 00:00:00 | 00:00:00 | |
| DO3MHA-11 | 2026-09-03 13:16:51 | 44.82589 | 9.25970 | 51° | 46km/h | 24168m | -14.4m/s | -52.4°C | 4.0% | 0hPa | 2.6V | 08:24:00 | 02:41:40 | 00:00:00 | |
| IW2NTF | 2026-09-03 13:16:48 | 44.82629 | 9.25874 | 188° | 44km/h | 24295m | -14m/s | -52.1°C | 3.9% | 0hPa | 2.5V | 08:24:39 | 02:41:31 | 00:00:00 | |
| DB0UT-7 | 2026-09-03 13:16:47 | 44.82584 | 9.25912 | 113° | 42km/h | 24225m | -14.8m/s | -52.0°C | 3.8% | 0hPa | 2.5V | 00:00:00 | 02:41:36 | 00:00:00 | |
| DO3MHA-11 | 2026-09-03 13:16:41 | 44.82639 | 9.25877 | 202° | 46km/h | 24309m | -13.9m/s | -52.0°C | 3.9% | 0hPa | 2.5V | 00:00:00 | 02:41:30 | 00:00:00 | |
| IW2NTF | 2026-09-03 13:16:37 | 44.82624 | 9.25956 | 3° | 44km/h | 24437m | -15.3m/s | -51.4°C | 3.8% | 0hPa | 2.5V | 08:24:49 | 02:41:21 | 00:00:00 | |
| RDZBGO | 2026-09-03 13:16:34 | 44.82652 | 9.25941 | 314° | 40km/h | 24394m | -14.8m/s | -51.6°C | 1.1% | 0hPa | 2.5V | 08:25:00 | 00:00:00 | 00:00:00 | |
| IW2NTF | 2026-09-03 13:16:27 | 44.82604 | 9.25853 | 172° | 40km/h | 24592m | -16.5m/s | -51.5°C | 3.7% | 0hPa | 2.5V | 08:24:59 | 02:41:11 | 00:00:00 | |
| IW2NTF | 2026-09-03 13:16:17 | 44.82605 | 9.25962 | 343° | 57km/h | 24753m | -15.7m/s | -51.5°C | 3.9% | 0hPa | 2.5V | 08:25:09 | 02:41:01 | 00:00:00 | |
| DB0UT-7 | 2026-09-03 13:16:17 | 44.82639 | 9.25895 | 263° | 42km/h | 24673m | -16.3m/s | -51.4°C | 3.8% | 0hPa | 2.5V | 00:00:00 | 00:00:00 | 00:00:00 | |
| NBG1-10 | 2026-09-03 13:16:15 | 44.82635 | 9.25927 | 296° | 53km/h | 24706m | -16.1m/s | -51.3°C | 3.9% | 0hPa | 2.5V | 00:00:00 | 02:41:04 | 00:00:00 | |
| DL2OL | 2026-09-03 13:16:13 | 44.82628 | 9.25942 | 314° | 51km/h | 24722m | -15.9m/s | -51.4°C | 1.1% | 0hPa | 2.5V | 00:00:00 | 00:00:00 | 00:00:00 | |
| IW2NTF | 2026-09-03 13:16:07 | 44.82537 | 9.25894 | 158° | 13km/h | 24914m | -15.7m/s | -51.3°C | 3.8% | 0hPa | 2.5V | 08:25:19 | 02:40:51 | 00:00:00 | |
| IW2NTF | 2026-09-03 13:15:58 | 44.82479 | 9.25924 | 34° | 51km/h | 25083m | -18m/s | -51.1°C | 4% | 0hPa | 2.6V | 08:25:29 | 02:40:41 | 00:00:00 | |
| RDZBGO | 2026-09-03 13:15:53 | 44.82503 | 9.25936 | 6° | 49km/h | 25048m | -18.4m/s | -51.2°C | 1.2% | 0hPa | 2.5V | 08:25:00 | 00:00:00 | 00:00:00 | |
| IW2NTF | 2026-09-03 13:15:47 | 44.82490 | 9.25784 | 167° | 44km/h | 25253m | -16.7m/s | -49.7°C | 3.4% | 0hPa | 2.5V | 08:25:39 | 02:40:31 | 00:00:00 | |
| DB0UT-7 | 2026-09-03 13:15:47 | 44.82453 | 9.25845 | 98° | 35km/h | 25168m | -16.9m/s | -50.2°C | 3.6% | 0hPa | 2.6V | 08:25:00 | 02:40:36 | 00:00:00 | |
| DO3MHA-11 | 2026-09-03 13:15:45 | 44.82462 | 9.25812 | 126° | 40km/h | 25202m | -16.7m/s | -49.9°C | 3.5% | 0hPa | 2.6V | 00:00:00 | 02:40:34 | 00:00:00 | |
| IW2NTF | 2026-09-03 13:15:37 | 44.82508 | 9.25856 | 343° | 35km/h | 25413m | -16.8m/s | -49.6°C | 3.5% | 0hPa | 2.6V | 08:25:49 | 02:40:21 | 00:00:00 | |
| DO3MHA-11 | 2026-09-03 13:15:35 | 44.82525 | 9.25833 | 293° | 31km/h | 25365m | -16.0m/s | -49.8°C | 3.6% | 0hPa | 2.5V | 00:00:00 | 02:40:24 | 00:00:00 | |
| RDZBGO | 2026-09-03 13:15:32 | 44.82515 | 9.25851 | 328° | 33km/h | 25397m | -15.8m/s | -49.7°C | 1.0% | 0hPa | 2.6V | 08:26:00 | 00:00:00 | 00:00:00 | |
| DL2OL | 2026-09-03 13:15:29 | 44.82490 | 9.25856 | 17° | 35km/h | 25444m | -16.2m/s | -49.6°C | 1.0% | 0hPa | 2.6V | 00:00:00 | 00:00:00 | 00:00:00 | |
| IW2NTF | 2026-09-03 13:15:27 | 44.82471 | 9.25784 | 144° | 16km/h | 25568m | -15.3m/s | -50°C | 3.6% | 0hPa | 2.6V | 08:25:59 | 02:40:11 | 00:00:00 | |
| DO3MHA-11 | 2026-09-03 13:15:22 | 44.82471 | 9.25784 | 145° | 26km/h | 25568m | -15.3m/s | -49.9°C | 3.6% | 0hPa | 2.5V | 00:00:00 | 02:40:11 | 00:00:00 | |
| IW2NTF | 2026-09-03 13:15:18 | 44.82425 | 9.25820 | 8° | 51km/h | 25722m | -16.4m/s | -49.3°C | 3.6% | 0hPa | 2.5V | 08:26:09 | 02:40:01 | 00:00:00 | |
| DB0UT-7 | 2026-09-03 13:15:17 | 44.82471 | 9.25804 | 312° | 42km/h | 25646m | -16.1m/s | -49.8°C | 3.6% | 0hPa | 2.5V | 00:00:00 | 00:00:00 | 00:00:00 | |
| DO3MHA-11 | 2026-09-03 13:15:12 | 44.82425 | 9.25820 | 9° | 55km/h | 25722m | -16.4m/s | -49.3°C | 3.6% | 0hPa | 2.5V | 00:00:00 | 02:40:01 | 00:00:00 | |
| IW2NTF | 2026-09-03 13:15:06 | 44.82360 | 9.25668 | 120° | 44km/h | 25898m | -15.9m/s | -48.8°C | 3.2% | 0hPa | 2.5V | 08:26:20 | 02:39:50 | 00:00:00 | |
| DO3MHA-11 | 2026-09-03 13:15:02 | 44.82355 | 9.25682 | 107° | 35km/h | 25882m | -15.6m/s | -48.8°C | 3.3% | 0hPa | 2.6V | 00:00:00 | 02:39:51 | 00:00:00 | |
| IW2NTF | 2026-09-03 13:14:57 | 44.82410 | 9.25671 | 299° | 29km/h | 26062m | -15.7m/s | -48.9°C | 3.4% | 0hPa | 2.5V | 08:26:30 | 02:39:40 | 00:00:00 | |
| DO3MHA-11 | 2026-09-03 13:14:52 | 44.82412 | 9.25662 | 275° | 42km/h | 26047m | -15.7m/s | -48.9°C | 3.4% | 0hPa | 2.6V | 00:00:00 | 02:39:41 | 00:00:00 | |
| RDZBGO | 2026-09-03 13:14:51 | 44.82412 | 9.25662 | 275° | 24km/h | 26047m | -15.7m/s | -49.0°C | 1.0% | 0hPa | 2.6V | 08:27:00 | 00:00:00 | 00:00:00 | |
| DB0UT-7 | 2026-09-03 13:14:47 | 44.82379 | 9.25699 | 347° | 40km/h | 26126m | -16.9m/s | -48.9°C | 3.3% | 0hPa | 2.6V | 00:00:00 | 02:39:36 | 00:00:00 | |
| DL2OL | 2026-09-03 13:14:45 | 44.82367 | 9.25701 | 360° | 49km/h | 26142m | -17.1m/s | -48.9°C | 1.0% | 0hPa | 2.6V | 00:00:00 | 00:00:00 | 00:00:00 | |
| IW2NTF | 2026-09-03 13:14:44 | 44.82288 | 9.25644 | 56° | 51km/h | 26260m | -16.7m/s | -49.1°C | 3.4% | 0hPa | 2.6V | 08:26:42 | 02:39:28 | 00:00:00 | |
| DO3MHA-11 | 2026-09-03 13:14:42 | 44.82317 | 9.25683 | 30° | 51km/h | 26211m | -17.4m/s | -49.1°C | 3.4% | 0hPa | 2.5V | 00:00:00 | 02:39:31 | 00:00:00 | |
| IW2NTF | 2026-09-03 13:14:34 | 44.82309 | 9.25514 | 168° | 29km/h | 26428m | -16.9m/s | -49.2°C | 3.4% | 0hPa | 2.5V | 08:26:52 | 02:39:18 | 00:00:00 | |
| DO3MHA-11 | 2026-09-03 13:14:32 | 44.82288 | 9.25536 | 124° | 44km/h | 26377m | -16.9m/s | -49.2°C | 3.4% | 0hPa | 2.6V | 08:26:00 | 02:39:21 | 00:00:00 | |
| RDZBGO | 2026-09-03 13:14:31 | 44.82288 | 9.25535 | 125° | 42km/h | 26377m | -16.9m/s | -49.3°C | 1.0% | 0hPa | 2.6V | 08:27:00 | 00:00:00 | 00:00:00 | |
| IW2NTF | 2026-09-03 13:14:20 | 44.82265 | 9.25517 | 53° | 51km/h | 26658m | -16.9m/s | -49°C | 3.5% | 0hPa | 2.6V | 08:27:06 | 02:39:04 | 00:00:00 | |
| DB0UT-7 | 2026-09-03 13:14:17 | 44.82284 | 9.25542 | 31° | 46km/h | 26626m | -17.1m/s | -49.1°C | 3.5% | 0hPa | 2.5V | 00:00:00 | 00:00:00 | 00:00:00 | |
| DO3MHA-11 | 2026-09-03 13:14:10 | 44.82256 | 9.25427 | 112° | 40km/h | 26741m | -16.5m/s | -48.7°C | 3.4% | 0hPa | 2.5V | 00:00:00 | 02:38:59 | 00:00:00 | |
| DO3MHA-11 | 2026-09-03 13:13:56 | 44.82278 | 9.25464 | 12° | 53km/h | 26973m | -18.2m/s | -48.5°C | 3.4% | 0hPa | 2.5V | 00:00:00 | 02:38:45 | 00:00:00 | |
| IW2NTF | 2026-09-03 13:13:52 | 44.82239 | 9.25398 | 84° | 53km/h | 27059m | -16.9m/s | -48.6°C | 3.4% | 0hPa | 2.5V | 08:27:30 | 02:38:40 | 00:00:00 | |
| NBG1-10 | 2026-09-03 13:13:51 | 44.82239 | 9.25398 | 85° | 51km/h | 27059m | -16.9m/s | -48.6°C | 3.4% | 0hPa | 2.6V | 00:00:00 | 02:38:40 | 00:00:00 | |
| RDZBGO | 2026-09-03 13:13:49 | 44.82239 | 9.25379 | 99° | 55km/h | 27077m | -17.5m/s | -48.6°C | 1.0% | 0hPa | 2.6V | 08:28:00 | 00:00:00 | 00:00:00 | |
| DB0UT-7 | 2026-09-03 13:13:47 | 44.82258 | 9.25332 | 143° | 51km/h | 27127m | -17.1m/s | -48.5°C | 3.3% | 0hPa | 2.6V | 00:00:00 | 02:38:36 | 00:00:00 | |
| DO3MHA-11 | 2026-09-03 13:13:46 | 44.82269 | 9.25323 | 157° | 55km/h | 27145m | -18.0m/s | -48.5°C | 3.4% | 0hPa | 2.6V | 00:00:00 | 02:38:35 | 00:00:00 | |
| IW2NTF | 2026-09-03 13:13:42 | 44.82319 | 9.25410 | 310° | 44km/h | 27297m | -16.1m/s | -48°C | 3.3% | 0hPa | 2.6V | 08:27:44 | 02:38:26 | 00:00:00 | |
| IW2NTF | 2026-09-03 13:13:32 | 44.82236 | 9.25317 | 101° | 60km/h | 27465m | -17.4m/s | -48.4°C | 3.4% | 0hPa | 2.6V | 08:27:54 | 02:38:16 | 00:00:00 | |
| DO3MHA-11 | 2026-09-03 13:13:29 | 44.82237 | 9.25361 | 78° | 55km/h | 27432m | -16.7m/s | -48.4°C | 3.4% | 0hPa | 2.6V | 00:00:00 | 02:38:18 | 00:00:00 | |
| RDZBGO | 2026-09-03 13:13:28 | 44.82237 | 9.25361 | 79° | 66km/h | 27432m | -16.7m/s | -48.4°C | 1.0% | 0hPa | 2.6V | 08:28:00 | 00:00:00 | 00:00:00 | |
| IW2NTF | 2026-09-03 13:13:21 | 44.82312 | 9.25273 | 286° | 31km/h | 27648m | -17.2m/s | -47.6°C | 3.2% | 0hPa | 2.6V | 08:28:05 | 02:38:05 | 00:00:00 | |
| DO3MHA-11 | 2026-09-03 13:13:19 | 44.82305 | 9.25246 | 215° | 40km/h | 27598m | -17.0m/s | -47.6°C | 3.2% | 0hPa | 2.7V | 00:00:00 | 02:38:08 | 00:00:00 | |
| NBG1-10 | 2026-09-03 13:13:18 | 44.82310 | 9.25254 | 239° | 49km/h | 27615m | -16.4m/s | -47.5°C | 3.1% | 0hPa | 2.7V | 00:00:00 | 02:38:07 | 00:00:00 | |
| DB0UT-7 | 2026-09-03 13:13:17 | 44.82312 | 9.25263 | 259° | 53km/h | 27631m | -17.2m/s | -47.5°C | 3.2% | 0hPa | 2.5V | 00:00:00 | 00:00:00 | 00:00:00 | |
| IW2NTF | 2026-09-03 13:13:11 | 44.82215 | 9.25217 | 77° | 75km/h | 27820m | -17.8m/s | -47.9°C | 3.4% | 0hPa | 2.5V | 08:28:15 | 02:37:55 | 00:00:00 | |
| DO3MHA-11 | 2026-09-03 13:13:09 | 44.82242 | 9.25278 | 42° | 71km/h | 27766m | -18.1m/s | -47.8°C | 3.4% | 0hPa | 2.5V | 00:00:00 | 02:37:58 | 00:00:00 | |
| RDZBGO | 2026-09-03 13:13:08 | 44.82242 | 9.25278 | 42° | 60km/h | 27766m | -18.1m/s | -47.9°C | 1.0% | 0hPa | 2.6V | 08:28:00 | 00:00:00 | 00:00:00 | |
| IW2NTF | 2026-09-03 13:13:01 | 44.82310 | 9.25062 | 194° | 55km/h | 27995m | -18.1m/s | -47.4°C | 3.2% | 0hPa | 2.6V | 08:28:25 | 02:37:45 | 00:00:00 | |
| DO3MHA-11 | 2026-09-03 13:12:59 | 44.82266 | 9.25069 | 158° | 51km/h | 27945m | -16.3m/s | -47.9°C | 3.3% | 0hPa | 2.6V | 00:00:00 | 02:37:48 | 00:00:00 | |
| IW2NTF | 2026-09-03 13:12:51 | 44.82288 | 9.25118 | 36° | 53km/h | 28169m | -20.3m/s | -47.3°C | 3.2% | 0hPa | 2.6V | 08:28:35 | 02:37:35 | 00:00:00 | |
| DO3MHA-11 | 2026-09-03 13:12:49 | 44.82319 | 9.25129 | 343° | 60km/h | 28114m | -17.8m/s | -47.1°C | 3.2% | 0hPa | 2.5V | 00:00:00 | 02:37:38 | 00:00:00 | |
| DB0UT-7 | 2026-09-03 13:12:47 | 44.82299 | 9.25127 | 23° | 57km/h | 28150m | -19.2m/s | -47.2°C | 3.2% | 0hPa | 2.5V | 00:00:00 | 02:37:36 | 00:00:00 | |
| IW2NTF | 2026-09-03 13:12:41 | 44.82335 | 9.24933 | 170° | 71km/h | 28352m | -18.9m/s | -47.6°C | 3.3% | 0hPa | 2.5V | 08:28:45 | 02:37:25 | 00:00:00 | |
| DO3MHA-11 | 2026-09-03 13:12:39 | 44.82287 | 9.24969 | 135° | 57km/h | 28295m | -18.2m/s | -47.6°C | 3.3% | 0hPa | 2.6V | 08:28:00 | 02:37:28 | 00:00:00 | |
| DL2OL | 2026-09-03 13:12:36 | 44.82318 | 9.24940 | 158° | 73km/h | 28333m | -20.3m/s | -47.7°C | 1.0% | 0hPa | 2.6V | 00:00:00 | 00:00:00 | 00:00:00 | |
| RDZBGO | 2026-09-03 13:12:27 | 44.82384 | 9.24989 | 330° | 33km/h | 28488m | -17.3m/s | 0°C | 0% | 0hPa | 2.6V | 08:28:00 | 00:00:00 | 00:00:00 | |
| DO3MHA-11 | 2026-09-03 13:12:20 | 44.82317 | 9.24913 | 89° | 66km/h | 28634m | -18.2m/s | -46.4°C | 3.2% | 0hPa | 2.6V | 00:00:00 | 02:37:09 | 00:00:00 | |
| DB0UT-7 | 2026-09-03 13:12:17 | 44.82332 | 9.24847 | 125° | 60km/h | 28691m | -19.0m/s | -45.8°C | 3.0% | 0hPa | 2.6V | 00:00:00 | 00:00:00 | 00:00:00 | |
| DO3MHA-11 | 2026-09-03 13:12:10 | 44.82420 | 9.24802 | 213° | 47km/h | 28822m | -17.5m/s | -45.7°C | 3.1% | 0hPa | 2.6V | 00:00:00 | 02:36:59 | 00:00:00 | |
| RDZBGO | 2026-09-03 13:12:07 | 44.82432 | 9.24821 | 252° | 35km/h | 28857m | -17.9m/s | 0°C | 0% | 0hPa | 2.6V | 00:00:00 | 00:00:00 | 00:00:00 | |
| DO3MHA-11 | 2026-09-03 13:11:59 | 44.82354 | 9.24884 | 8° | 62km/h | 29014m | -19.4m/s | -44.9°C | 3.0% | 0hPa | 2.6V | 00:00:00 | 02:36:48 | 00:00:00 | |
| IW2NTF | 2026-09-03 13:11:58 | 44.82283 | 9.24809 | 69° | 62km/h | 29127m | -18m/s | -44.5°C | 2.9% | 0hPa | 2.6V | 08:29:28 | 02:36:42 | 00:00:00 | |
| NBG1-10 | 2026-09-03 13:11:54 | 44.82290 | 9.24828 | 57° | 62km/h | 29108m | -19.9m/s | -44.6°C | 2.9% | 0hPa | 2.5V | 00:00:00 | 02:36:43 | 00:00:00 | |
| DO3MHA-11 | 2026-09-03 13:11:49 | 44.82277 | 9.24720 | 101° | 69km/h | 29200m | -18.7m/s | -44.1°C | 2.8% | 0hPa | 2.5V | 00:00:00 | 02:36:38 | 00:00:00 | |
| IW2NTF | 2026-09-03 13:11:48 | 44.82330 | 9.24596 | 140° | 64km/h | 29311m | -18m/s | -44.1°C | 2.8% | 0hPa | 2.5V | 08:29:38 | 02:36:32 | 00:00:00 | |
| DB0UT-7 | 2026-09-03 13:11:47 | 44.82288 | 9.24674 | 115° | 51km/h | 29236m | -18.9m/s | -43.9°C | 2.7% | 0hPa | 2.7V | 00:00:00 | 02:36:36 | 00:00:00 | |
| RDZBGO | 2026-09-03 13:11:46 | 44.82288 | 9.24674 | 116° | 71km/h | 29236m | -18.9m/s | 0°C | 0% | 0hPa | 2.7V | 00:00:00 | 00:00:00 | 00:00:00 | |
| IW2NTF | 2026-09-03 13:11:38 | 44.82472 | 9.24583 | 200° | 71km/h | 29486m | -18.5m/s | -44.1°C | 2.7% | 0hPa | 2.7V | 08:30:00 | 02:36:22 | 00:00:00 | |
| IW2NTF | 2026-09-03 13:11:28 | 44.82600 | 9.24616 | 164° | 22km/h | 29685m | -18.8m/s | -44°C | 2.8% | 0hPa | 2.6V | 08:30:00 | 02:36:12 | 00:00:00 | |
| DO3MHA-11 | 2026-09-03 13:11:28 | 44.82552 | 9.24619 | 189° | 24km/h | 29582m | -20.2m/s | -44.2°C | 2.9% | 0hPa | 2.5V | 00:00:00 | 02:36:17 | 00:00:00 | |
| DL2OL | 2026-09-03 13:11:27 | 44.82552 | 9.24619 | 190° | 57km/h | 29582m | -20.3m/s | -44.3°C | 0.8% | 0hPa | 2.5V | 00:00:00 | 00:00:00 | 00:00:00 | |
| NBG1-10 | 2026-09-03 13:11:21 | 44.82607 | 9.24615 | 225° | 11km/h | 29725m | -22.8m/s | -44.1°C | 2.8% | 0hPa | 2.5V | 00:00:00 | 02:36:10 | 00:00:00 | |
| DB0UT-7 | 2026-09-03 13:11:17 | 44.82616 | 9.24635 | 228° | 29km/h | 29818m | -25.5m/s | -43.9°C | 2.7% | 0hPa | 2.5V | 00:00:00 | 00:00:00 | 08:30:00 | |
| DO3MHA-11 | 2026-09-03 13:11:07 | 44.82684 | 9.24586 | 115° | 22km/h | 30025m | -18.6m/s | -43.4°C | 2.6% | 0hPa | 2.7V | 00:00:00 | 02:35:56 | 00:00:00 | |
| IW2NTF | 2026-09-03 13:10:59 | 44.82740 | 9.24648 | 279° | 5km/h | 30366m | -28.9m/s | -44.1°C | 2.8% | 0hPa | 2.7V | 08:30:00 | 02:35:43 | 00:00:00 | |
| IW2NTF | 2026-09-03 13:10:49 | 44.82729 | 9.24643 | 200° | 11km/h | 30378m | 4.6m/s | -44.1°C | 2.9% | 0hPa | 2.7V | 08:30:00 | 02:35:33 | 00:00:00 | |
| DB0UT-7 | 2026-09-03 13:10:47 | 44.82727 | 9.24643 | 34° | 11km/h | 30393m | 4.0m/s | -44.3°C | 2.9% | 0hPa | 2.6V | 00:00:00 | 02:35:36 | 00:00:00 | |
| PG1ADW-2 | 2026-09-03 13:10:46 | 44.82726 | 9.24642 | 105° | 13km/h | 30388m | 5.1m/s | 0°C | 0% | 0hPa | 2.6V | 00:00:00 | 00:00:00 | 00:00:00 | |
| DL2OL | 2026-09-03 13:10:43 | 44.82729 | 9.24643 | 201° | 11km/h | 30378m | 4.6m/s | -44.1°C | 0.8% | 0hPa | 2.6V | 00:00:00 | 00:00:00 | 00:00:00 | |
| NBG1-10 | 2026-09-03 13:10:40 | 44.82738 | 9.24654 | 260° | 22km/h | 30359m | 4.7m/s | -44.2°C | 2.9% | 0hPa | 2.6V | 00:00:00 | 02:35:29 | 00:00:00 | |
| IW2NTF | 2026-09-03 13:10:39 | 44.82742 | 9.24662 | 174° | 11km/h | 30331m | 4.3m/s | -44.1°C | 2.9% | 0hPa | 2.7V | 08:30:00 | 02:35:23 | 00:00:00 | |
| IW2NTF | 2026-09-03 13:10:29 | 44.82760 | 9.24698 | 198° | 16km/h | 30286m | 4.5m/s | -44.2°C | 2.8% | 0hPa | 2.6V | 08:30:00 | 02:35:13 | 00:00:00 | |
| DO3MHA-11 | 2026-09-03 13:10:23 | 44.82764 | 9.24699 | 181° | 24km/h | 30282m | 4.3m/s | -44.2°C | 2.8% | 0hPa | 2.7V | 00:00:00 | 02:35:12 | 00:00:00 | |
| IW2NTF | 2026-09-03 13:10:20 | 44.82782 | 9.24739 | 228° | 29km/h | 30242m | 4.1m/s | -43.9°C | 2.8% | 0hPa | 2.7V | 08:30:00 | 02:35:03 | 00:00:00 | |
| DB0UT-7 | 2026-09-03 13:10:17 | 44.82773 | 9.24712 | 260° | 20km/h | 30256m | 4.7m/s | -43.9°C | 2.8% | 0hPa | 2.7V | 00:00:00 | 00:00:00 | 00:00:00 | |
| DO3MHA-11 | 2026-09-03 13:10:13 | 44.82787 | 9.24745 | 215° | 22km/h | 30238m | 4.2m/s | -43.9°C | 2.8% | 0hPa | 2.7V | 00:00:00 | 02:35:02 | 08:30:00 | |
| IW2NTF | 2026-09-03 13:10:06 | 44.82808 | 9.24767 | 236° | 26km/h | 30197m | 5.1m/s | -43.8°C | 2.9% | 0hPa | 2.7V | 08:30:00 | 02:34:53 | 00:00:00 | |
| DO3MHA-11 | 2026-09-03 13:10:03 | 44.82812 | 9.24775 | 229° | 26km/h | 30192m | 4.8m/s | -43.8°C | 2.9% | 0hPa | 2.6V | 00:00:00 | 02:34:52 | 00:00:00 | |
| DL2OL | 2026-09-03 13:10:00 | 44.82822 | 9.24790 | 225° | 27km/h | 30183m | 4.6m/s | -43.9°C | 0.8% | 0hPa | 2.6V | 00:00:00 | 00:00:00 | 00:00:00 | |
| IW2NTF | 2026-09-03 13:09:59 | 44.82846 | 9.24828 | 225° | 22km/h | 30150m | 4.8m/s | -43.7°C | 2.8% | 0hPa | 2.6V | 08:30:00 | 02:34:43 | 00:00:00 | |
| DO3MHA-11 | 2026-09-03 13:09:53 | 44.82850 | 9.24834 | 224° | 24km/h | 30146m | 4.3m/s | -43.6°C | 2.8% | 0hPa | 2.6V | 00:00:00 | 02:34:42 | 00:00:00 | |
| IW2NTF | 2026-09-03 13:09:49 | 44.82893 | 9.24878 | 201° | 35km/h | 30104m | 5m/s | -43.6°C | 2.8% | 0hPa | 2.6V | 08:30:00 | 02:34:33 | 00:00:00 | |
| DB0UT-7 | 2026-09-03 13:09:47 | 44.82873 | 9.24865 | 214° | 26km/h | 30119m | 3.7m/s | -43.7°C | 2.7% | 0hPa | 2.7V | 00:00:00 | 02:34:36 | 00:00:00 | |
| DO3MHA-11 | 2026-09-03 13:09:43 | 44.82901 | 9.24882 | 202° | 26km/h | 30100m | 3.9m/s | -43.5°C | 2.8% | 0hPa | 2.6V | 00:00:00 | 02:34:32 | 00:00:00 | |
| PG1ADW-2 | 2026-09-03 13:09:42 | 44.82909 | 9.24887 | 205° | 26km/h | 30096m | 3.5m/s | 0°C | 0% | 0hPa | 2.6V | 00:00:00 | 00:00:00 | 00:00:00 | |
| IW2NTF | 2026-09-03 13:09:39 | 44.82940 | 9.24917 | 192° | 26km/h | 30058m | 4.9m/s | -43.3°C | 2.7% | 0hPa | 2.6V | 08:30:00 | 02:34:23 | 00:00:00 | |
| DO3MHA-11 | 2026-09-03 13:09:31 | 44.82962 | 9.24922 | 194° | 29km/h | 30045m | 4.7m/s | -43.4°C | 2.8% | 0hPa | 2.6V | 00:00:00 | 02:34:20 | 00:00:00 | |
| IW2NTF | 2026-09-03 13:09:29 | 44.82998 | 9.24952 | 203° | 27km/h | 30012m | 5.3m/s | -43.6°C | 2.7% | 0hPa | 2.6V | 08:30:00 | 02:34:13 | 00:00:00 | |
| PG1ADW-2 | 2026-09-03 13:09:21 | 44.83020 | 9.24958 | 181° | 26km/h | 29998m | 4.0m/s | 0°C | 0% | 0hPa | 2.6V | 00:00:00 | 00:00:00 | 00:00:00 | |
| IW2NTF | 2026-09-03 13:09:19 | 44.83062 | 9.24946 | 168° | 26km/h | 29965m | 5m/s | -44°C | 2.8% | 0hPa | 2.6V | 08:30:00 | 02:34:03 | 00:00:00 | |
| DB0UT-7 | 2026-09-03 13:09:17 | 44.83045 | 9.24953 | 162° | 18km/h | 29979m | 3.7m/s | -43.7°C | 2.8% | 0hPa | 2.6V | 00:00:00 | 00:00:00 | 00:00:00 | |
| DO3MHA-11 | 2026-09-03 13:09:16 | 44.83050 | 9.24950 | 162° | 22km/h | 29975m | 4.0m/s | -43.8°C | 2.8% | 0hPa | 2.6V | 00:00:00 | 02:34:05 | 00:00:00 | |
| DL2OL | 2026-09-03 13:09:15 | 44.83050 | 9.24951 | 162° | 20km/h | 29975m | 4.0m/s | -43.8°C | 0.8% | 0hPa | 2.6V | 00:00:00 | 00:00:00 | 00:00:00 | |
| NBG1-10 | 2026-09-03 13:09:11 | 44.83081 | 9.24944 | 185° | 18km/h | 29952m | 4.1m/s | -44.0°C | 2.8% | 0hPa | 2.6V | 00:00:00 | 02:34:00 | 00:00:00 | |
| IW2NTF | 2026-09-03 13:09:09 | 44.83111 | 9.24960 | 185° | 24km/h | 29918m | 5.3m/s | -44.2°C | 2.8% | 0hPa | 2.6V | 08:30:00 | 02:33:53 | 00:00:00 | |
| DO3MHA-11 | 2026-09-03 13:09:06 | 44.83101 | 9.24956 | 210° | 20km/h | 29929m | 4.2m/s | -44.0°C | 2.8% | 0hPa | 2.7V | 00:00:00 | 02:33:55 | 00:00:00 | |
| IW2NTF | 2026-09-03 13:08:58 | 44.83155 | 9.24945 | 170° | 16km/h | 29869m | 4.5m/s | -44°C | 2.8% | 0hPa | 2.6V | 08:30:00 | 02:33:43 | 00:00:00 | |
| DO3MHA-11 | 2026-09-03 13:08:56 | 44.83148 | 9.24947 | 157° | 18km/h | 29880m | 5.2m/s | -44.1°C | 2.9% | 0hPa | 2.7V | 00:00:00 | 02:33:45 | 00:00:00 | |
| DB0UT-7 | 2026-09-03 13:08:47 | 44.83180 | 9.24937 | 153° | 16km/h | 29836m | 5.6m/s | -43.9°C | 2.8% | 0hPa | 2.7V | 00:00:00 | 02:33:36 | 00:00:00 | |
| IW2NTF | 2026-09-03 13:08:41 | 44.83215 | 9.24934 | 245° | 16km/h | 29797m | 4.2m/s | -44.1°C | 2.9% | 0hPa | 2.7V | 08:30:00 | 02:33:28 | 00:00:00 | |
| IW2NTF | 2026-09-03 13:08:33 | 44.83249 | 9.24945 | 235° | 11km/h | 29745m | 4.5m/s | -43.9°C | 2.8% | 0hPa | 2.6V | 08:30:00 | 02:33:17 | 00:00:00 | |
| DL2OL | 2026-09-03 13:08:31 | 44.83242 | 9.24940 | 165° | 15km/h | 29764m | 5.3m/s | -44.3°C | 0.8% | 0hPa | 2.6V | 00:00:00 | 00:00:00 | 00:00:00 | |
| NBG1-10 | 2026-09-03 13:08:23 | 44.83266 | 9.24953 | 180° | 24km/h | 29721m | 4.6m/s | -44.0°C | 2.8% | 0hPa | 2.6V | 00:00:00 | 02:33:12 | 00:00:00 | |
| IW2NTF | 2026-09-03 13:08:21 | 44.83281 | 9.24958 | 207° | 16km/h | 29696m | 4.1m/s | -43.8°C | 2.7% | 0hPa | 2.6V | 08:30:00 | 02:33:07 | 00:00:00 | |
| DB0UT-7 | 2026-09-03 13:08:17 | 44.83286 | 9.24961 | 205° | 24km/h | 29692m | 5.3m/s | -43.9°C | 2.7% | 0hPa | 2.6V | 00:00:00 | 00:00:00 | 00:00:00 | |
| DO3MHA-11 | 2026-09-03 13:08:14 | 44.83305 | 9.24970 | 197° | 24km/h | 29676m | 4.2m/s | -44.1°C | 2.7% | 0hPa | 2.7V | 00:00:00 | 02:33:03 | 00:00:00 | |
| IW2NTF | 2026-09-03 13:08:13 | 44.83329 | 9.24985 | 197° | 15km/h | 29648m | 4.3m/s | -44.4°C | 2.9% | 0hPa | 2.7V | 08:30:00 | 02:32:57 | 00:00:00 | |
| DO3MHA-11 | 2026-09-03 13:08:02 | 44.83373 | 9.25001 | 203° | 26km/h | 29619m | 5.2m/s | -44.4°C | 2.9% | 0hPa | 2.6V | 00:00:00 | 02:32:51 | 08:30:00 | |
| IW2NTF | 2026-09-03 13:07:58 | 44.83407 | 9.25016 | 176° | 26km/h | 29588m | 4.9m/s | -44.3°C | 2.8% | 0hPa | 2.6V | 08:30:00 | 02:32:45 | 00:00:00 | |
| DO3MHA-11 | 2026-09-03 13:07:52 | 44.83436 | 9.25016 | 192° | 20km/h | 29571m | 4.6m/s | -44.2°C | 2.9% | 0hPa | 2.6V | 00:00:00 | 02:32:41 | 00:00:00 | |
| OE5DRO-10 | 2026-09-03 13:07:51 | 44.83442 | 9.25019 | 201° | 20km/h | 29566m | 5.3m/s | -44.2°C | 2.8% | 0hPa | 2.6V | 00:00:00 | 00:00:00 | 00:00:00 | |
| IW2NTF | 2026-09-03 13:07:48 | 44.83468 | 9.25028 | 176° | 26km/h | 29531m | 4.9m/s | -44.2°C | 2.8% | 0hPa | 2.6V | 08:30:00 | 02:32:33 | 00:00:00 | |
| NBG1-10 | 2026-09-03 13:07:48 | 44.83452 | 9.25027 | 215° | 20km/h | 29551m | 4.5m/s | -44.2°C | 2.8% | 0hPa | 2.7V | 00:00:00 | 02:32:37 | 08:30:00 | |
| DB0UT-7 | 2026-09-03 13:07:47 | 44.83455 | 9.25028 | 195° | 20km/h | 29546m | 4.3m/s | -44.3°C | 2.8% | 0hPa | 2.7V | 00:00:00 | 02:32:36 | 00:00:00 | |
| DO3MHA-11 | 2026-09-03 13:07:41 | 44.83488 | 9.25030 | 193° | 16km/h | 29517m | 4.9m/s | -44.1°C | 2.8% | 0hPa | 2.7V | 00:00:00 | 02:32:30 | 00:00:00 | |
| IW2NTF | 2026-09-03 13:07:38 | 44.83509 | 9.25028 | 150° | 18km/h | 29481m | 5.4m/s | -44.4°C | 2.9% | 0hPa | 2.7V | 08:30:00 | 02:32:23 | 00:00:00 | |
| OE5DRO-10 | 2026-09-03 13:07:32 | 44.83519 | 9.25022 | 168° | 20km/h | 29471m | 4.5m/s | 0°C | 0% | 0hPa | 2.6V | 00:00:00 | 00:00:00 | 00:00:00 | |
| DO3MHA-11 | 2026-09-03 13:07:31 | 44.83526 | 9.25021 | 178° | 22km/h | 29467m | 4.6m/s | -44.3°C | 2.9% | 0hPa | 2.6V | 00:00:00 | 02:32:20 | 00:00:00 | |
| IW2NTF | 2026-09-03 13:07:28 | 44.83557 | 9.25018 | 125° | 26km/h | 29432m | 5.8m/s | -44.3°C | 2.9% | 0hPa | 2.6V | 08:30:00 | 02:32:13 | 00:00:00 | |
| DO3MHA-11 | 2026-09-03 13:07:21 | 44.83570 | 9.24991 | 128° | 18km/h | 29419m | 4.4m/s | -44.2°C | 2.8% | 0hPa | 2.6V | 00:00:00 | 02:32:10 | 00:00:00 | |
| IW2NTF | 2026-09-03 13:07:18 | 44.83597 | 9.24977 | 158° | 16km/h | 29384m | 5.1m/s | -44.2°C | 2.9% | 0hPa | 2.6V | 08:30:00 | 02:32:03 | 00:00:00 | |
| DB0UT-7 | 2026-09-03 13:07:17 | 44.83586 | 9.24976 | 192° | 20km/h | 29399m | 4.3m/s | -44.2°C | 2.8% | 0hPa | 2.6V | 00:00:00 | 00:00:00 | 00:00:00 | |
| NBG1-10 | 2026-09-03 13:07:15 | 44.83593 | 9.24978 | 182° | 18km/h | 29390m | 4.9m/s | -44.2°C | 2.9% | 0hPa | 2.6V | 00:00:00 | 02:32:04 | 00:00:00 | |
| OE5DRO-10 | 2026-09-03 13:07:13 | 44.83601 | 9.24973 | 141° | 20km/h | 29380m | 4.8m/s | 0°C | 0% | 0hPa | 2.6V | 00:00:00 | 00:00:00 | 00:00:00 | |
| DO3MHA-11 | 2026-09-03 13:07:11 | 44.83608 | 9.24961 | 121° | 22km/h | 29370m | 5.0m/s | -44.1°C | 2.8% | 0hPa | 2.6V | 00:00:00 | 02:32:00 | 00:00:00 | |
| IW2NTF | 2026-09-03 13:07:08 | 44.83627 | 9.24920 | 144° | 22km/h | 29335m | 5.8m/s | -44°C | 2.8% | 0hPa | 2.6V | 08:30:00 | 02:31:53 | 00:00:00 | |
| DL2OL | 2026-09-03 13:07:02 | 44.83632 | 9.24915 | 147° | 26km/h | 29330m | 5.4m/s | -44.0°C | 0.8% | 0hPa | 2.7V | 00:00:00 | 00:00:00 | 00:00:00 | |
| IW2NTF | 2026-09-03 13:06:58 | 44.83656 | 9.24872 | 106° | 24km/h | 29286m | 5.6m/s | -44.1°C | 2.8% | 0hPa | 2.7V | 08:30:00 | 02:31:43 | 00:00:00 | |
| OE5DRO-10 | 2026-09-03 13:06:54 | 44.83656 | 9.24872 | 107° | 20km/h | 29287m | 5.6m/s | 0°C | 0% | 0hPa | 2.7V | 00:00:00 | 00:00:00 | 00:00:00 | |
| DO3MHA-11 | 2026-09-03 13:06:49 | 44.83670 | 9.24828 | 116° | 18km/h | 29263m | 5.4m/s | -44.1°C | 2.7% | 0hPa | 2.7V | 00:00:00 | 02:31:38 | 00:00:00 | |
| IW2NTF | 2026-09-03 13:06:48 | 44.83676 | 9.24808 | 112° | 16km/h | 29239m | 5.3m/s | -44.3°C | 2.8% | 0hPa | 2.7V | 08:30:00 | 02:31:33 | 00:00:00 | |
| DB0UT-7 | 2026-09-03 13:06:47 | 44.83673 | 9.24819 | 113° | 20km/h | 29253m | 4.1m/s | -44.3°C | 2.8% | 0hPa | 2.6V | 00:00:00 | 02:31:36 | 08:30:00 | |
| NBG1-10 | 2026-09-03 13:06:42 | 44.83679 | 9.24795 | 110° | 20km/h | 29229m | 4.4m/s | -44.3°C | 2.8% | 0hPa | 2.7V | 00:00:00 | 02:31:31 | 00:00:00 | |
| IW2NTF | 2026-09-03 13:06:38 | 44.83690 | 9.24741 | 96° | 24km/h | 29193m | 4.8m/s | -44.4°C | 2.8% | 0hPa | 2.7V | 08:30:00 | 02:31:23 | 00:00:00 | |
| DO3MHA-11 | 2026-09-03 13:06:38 | 44.83685 | 9.24767 | 108° | 22km/h | 29211m | 4.1m/s | -44.3°C | 2.8% | 0hPa | 2.7V | 00:00:00 | 02:31:27 | 00:00:00 | |
| OE5DRO-10 | 2026-09-03 13:06:35 | 44.83689 | 9.24748 | 104° | 22km/h | 29198m | 4.6m/s | 0°C | 0% | 0hPa | 2.7V | 00:00:00 | 00:00:00 | 00:00:00 | |
| IW2NTF | 2026-09-03 13:06:28 | 44.83680 | 9.24679 | 108° | 24km/h | 29148m | 4.7m/s | -44.9°C | 2.9% | 0hPa | 2.7V | 08:30:00 | 02:31:13 | 00:00:00 | |
| DO3MHA-11 | 2026-09-03 13:06:28 | 44.83678 | 9.24698 | 47° | 20km/h | 29166m | 4.0m/s | -44.7°C | 2.8% | 0hPa | 2.7V | 00:00:00 | 02:31:17 | 08:30:00 | |
| IW2NTF | 2026-09-03 13:06:19 | 44.83653 | 9.24615 | 39° | 11km/h | 29104m | 4.1m/s | -45.1°C | 3% | 0hPa | 2.6V | 08:30:00 | 02:31:03 | 00:00:00 | |
| DO3MHA-11 | 2026-09-03 13:06:18 | 44.83668 | 9.24623 | 33° | 20km/h | 29122m | 4.8m/s | -45.0°C | 2.9% | 0hPa | 2.6V | 00:00:00 | 02:31:07 | 00:00:00 | |
| DB0UT-7 | 2026-09-03 13:06:17 | 44.83663 | 9.24620 | 20° | 20km/h | 29117m | 4.5m/s | -45.0°C | 2.9% | 0hPa | 2.6V | 00:00:00 | 00:00:00 | 00:00:00 | |
| OE5DRO-10 | 2026-09-03 13:06:16 | 44.83659 | 9.24618 | 12° | 18km/h | 29113m | 4.3m/s | 0°C | 0% | 0hPa | 2.6V | 00:00:00 | 00:00:00 | 00:00:00 | |
| IW2NTF | 2026-09-03 13:06:08 | 44.83622 | 9.24555 | 43° | 16km/h | 29059m | 4.5m/s | -45.1°C | 2.8% | 0hPa | 2.6V | 08:30:00 | 02:30:53 | 00:00:00 | |
| DO3MHA-11 | 2026-09-03 13:06:08 | 44.83636 | 9.24576 | 51° | 22km/h | 29077m | 4.3m/s | -45.2°C | 2.9% | 0hPa | 2.6V | 00:00:00 | 02:30:57 | 00:00:00 | |
| IW2NTF | 2026-09-03 13:05:58 | 44.83594 | 9.24507 | 90° | 29km/h | 29007m | 4.4m/s | -45.1°C | 2.9% | 0hPa | 2.6V | 08:30:00 | 02:30:41 | 00:00:00 | |
| DO3MHA-11 | 2026-09-03 13:05:58 | 44.83597 | 9.24536 | 17° | 16km/h | 29034m | 4.0m/s | -45.2°C | 2.9% | 0hPa | 2.6V | 00:00:00 | 02:30:47 | 00:00:00 | |
| OE5DRO-10 | 2026-09-03 13:05:57 | 44.83594 | 9.24534 | 23° | 16km/h | 29029m | 4.2m/s | 0°C | 0% | 0hPa | 2.6V | 00:00:00 | 00:00:00 | 00:00:00 | |
| IW2NTF | 2026-09-03 13:05:53 | 44.83565 | 9.24469 | 83° | 7km/h | 28969m | 4.4m/s | -45.6°C | 2.9% | 0hPa | 2.6V | 08:30:00 | 02:30:32 | 00:00:00 | |
| DB0UT-7 | 2026-09-03 13:05:47 | 44.83576 | 9.24469 | 9° | 20km/h | 28986m | 5.0m/s | -45.2°C | 2.8% | 0hPa | 2.7V | 00:00:00 | 02:30:36 | 00:00:00 | |
| DO3MHA-11 | 2026-09-03 13:05:44 | 44.83565 | 9.24471 | 3° | 24km/h | 28973m | 3.5m/s | -45.5°C | 2.9% | 0hPa | 2.7V | 00:00:00 | 02:30:33 | 00:00:00 | |
| IW2NTF | 2026-09-03 13:05:34 | 44.83562 | 9.24377 | 59° | 5km/h | 28920m | 4.6m/s | -46°C | 3% | 0hPa | 2.7V | 08:30:00 | 02:30:22 | 00:00:00 | |
| DO3MHA-11 | 2026-09-03 13:05:34 | 44.83563 | 9.24380 | 83° | 20km/h | 28926m | 4.7m/s | -46.0°C | 3.0% | 0hPa | 2.7V | 00:00:00 | 02:30:23 | 00:00:00 | |
| IW2NTF | 2026-09-03 13:05:27 | 44.83556 | 9.24332 | 119° | 26km/h | 28871m | 3.8m/s | -45.9°C | 3.1% | 0hPa | 2.7V | 08:30:00 | 02:30:11 | 00:00:00 | |
| DO3MHA-11 | 2026-09-03 13:05:22 | 44.83556 | 9.24332 | 120° | 11km/h | 28871m | 3.8m/s | -45.9°C | 3.1% | 0hPa | 2.7V | 00:00:00 | 02:30:11 | 00:00:00 | |
| DB0UT-7 | 2026-09-03 13:05:17 | 44.83557 | 9.24307 | 41° | 13km/h | 28849m | 5.3m/s | -46.2°C | 3.0% | 0hPa | 2.7V | 00:00:00 | 00:00:00 | 00:00:00 | |
| IW2NTF | 2026-09-03 13:05:14 | 44.83558 | 9.24302 | 118° | 11km/h | 28824m | 5.2m/s | -46.4°C | 3% | 0hPa | 2.7V | 08:30:00 | 02:30:01 | 00:00:00 | |
| DO3MHA-11 | 2026-09-03 13:05:12 | 44.83558 | 9.24302 | 119° | 15km/h | 28825m | 5.2m/s | -46.3°C | 3.0% | 0hPa | 2.6V | 00:00:00 | 02:30:01 | 00:00:00 | |
| IW2NTF | 2026-09-03 13:05:07 | 44.83581 | 9.24263 | 336° | 4km/h | 28778m | 4.2m/s | -46.4°C | 3% | 0hPa | 2.6V | 08:30:00 | 02:29:51 | 00:00:00 | |
| DO3MHA-11 | 2026-09-03 13:05:02 | 44.83581 | 9.24263 | 337° | 18km/h | 28778m | 4.1m/s | -46.3°C | 3.0% | 0hPa | 2.6V | 00:00:00 | 02:29:51 | 00:00:00 | |
| IW2NTF | 2026-09-03 13:04:54 | 44.83609 | 9.24229 | 107° | 15km/h | 28734m | 4m/s | -46.5°C | 3% | 0hPa | 2.6V | 08:30:00 | 02:29:41 | 00:00:00 | |
| DO3MHA-11 | 2026-09-03 13:04:50 | 44.83610 | 9.24223 | 98° | 11km/h | 28725m | 5.5m/s | -46.6°C | 3.1% | 0hPa | 2.7V | 00:00:00 | 02:29:39 | 08:30:00 | |
| IW2NTF | 2026-09-03 13:04:47 | 44.83610 | 9.24206 | 94° | 26km/h | 28688m | 4m/s | -47°C | 3.1% | 0hPa | 2.6V | 08:30:00 | 02:29:31 | 00:00:00 | |
| DB0UT-7 | 2026-09-03 13:04:47 | 44.83610 | 9.24225 | 253° | 18km/h | 28711m | 3.5m/s | -46.9°C | 3.1% | 0hPa | 2.7V | 00:00:00 | 02:29:36 | 00:00:00 | |
| DO3MHA-11 | 2026-09-03 13:04:40 | 44.83613 | 9.24188 | 114° | 18km/h | 28680m | 4.6m/s | -47.1°C | 3.2% | 0hPa | 2.7V | 00:00:00 | 02:29:29 | 00:00:00 | |
| IW2NTF | 2026-09-03 13:04:34 | 44.83619 | 9.24157 | 64° | 22km/h | 28646m | 4.1m/s | -47°C | 3.1% | 0hPa | 2.7V | 08:30:00 | 02:29:21 | 00:00:00 | |
| DL2OL | 2026-09-03 13:04:33 | 44.83621 | 9.24163 | 52° | 16km/h | 28650m | 3.9m/s | -46.9°C | 0.9% | 0hPa | 2.7V | 00:00:00 | 00:00:00 | 00:00:00 | |
| DO3MHA-11 | 2026-09-03 13:04:30 | 44.83616 | 9.24140 | 91° | 24km/h | 28637m | 4.9m/s | -47.3°C | 3.2% | 0hPa | 2.7V | 00:00:00 | 02:29:19 | 00:00:00 | |
| IW2NTF | 2026-09-03 13:04:27 | 44.83635 | 9.24074 | 100° | 18km/h | 28599m | 4.4m/s | -47.5°C | 3.3% | 0hPa | 2.7V | 08:30:00 | 02:29:11 | 00:00:00 | |
| DO3MHA-11 | 2026-09-03 13:04:20 | 44.83636 | 9.24063 | 108° | 22km/h | 28591m | 4.8m/s | -47.6°C | 3.4% | 0hPa | 2.6V | 00:00:00 | 02:29:09 | 00:00:00 | |
| DB0UT-7 | 2026-09-03 13:04:17 | 44.83643 | 9.24051 | 140° | 24km/h | 28576m | 4.1m/s | -47.5°C | 3.4% | 0hPa | 2.7V | 00:00:00 | 00:00:00 | 00:00:00 | |
| IW2NTF | 2026-09-03 13:04:14 | 44.83656 | 9.24015 | 105° | 31km/h | 28551m | 4.7m/s | -47.7°C | 3.4% | 0hPa | 2.7V | 08:30:00 | 02:29:01 | 00:00:00 | |
| DO3MHA-11 | 2026-09-03 13:04:10 | 44.83661 | 9.23994 | 116° | 26km/h | 28541m | 5.4m/s | -47.4°C | 3.4% | 0hPa | 2.6V | 00:00:00 | 02:28:59 | 00:00:00 | |
| IW2NTF | 2026-09-03 13:04:07 | 44.83677 | 9.23926 | 98° | 20km/h | 28503m | 4.5m/s | -47.5°C | 3.3% | 0hPa | 2.6V | 08:30:00 | 02:28:51 | 00:00:00 | |
| DO3MHA-11 | 2026-09-03 13:04:00 | 44.83681 | 9.23913 | 123° | 26km/h | 28493m | 5.2m/s | -47.5°C | 3.4% | 0hPa | 2.6V | 00:00:00 | 02:28:49 | 00:00:00 | |
| IW2NTF | 2026-09-03 13:03:54 | 44.83704 | 9.23847 | 115° | 22km/h | 28453m | 5.3m/s | -47.6°C | 3.3% | 0hPa | 2.6V | 08:30:00 | 02:28:41 | 00:00:00 | |
| DO3MHA-11 | 2026-09-03 13:03:49 | 44.83711 | 9.23827 | 108° | 24km/h | 28439m | 5.3m/s | -47.7°C | 3.3% | 0hPa | 2.7V | 00:00:00 | 02:28:38 | 00:00:00 | |
| DL2OL | 2026-09-03 13:03:48 | 44.83711 | 9.23827 | 108° | 20km/h | 28439m | 5.3m/s | -47.8°C | 1.0% | 0hPa | 2.6V | 00:00:00 | 00:00:00 | 00:00:00 | |
| IW2NTF | 2026-09-03 13:03:47 | 44.83726 | 9.23773 | 132° | 26km/h | 28404m | 4.3m/s | -47.8°C | 3.3% | 0hPa | 2.6V | 08:30:00 | 02:28:31 | 00:00:00 | |
| DB0UT-7 | 2026-09-03 13:03:47 | 44.83712 | 9.23812 | 96° | 20km/h | 28428m | 4.6m/s | -47.8°C | 3.3% | 0hPa | 2.6V | 00:00:00 | 02:28:36 | 00:00:00 | |
| DO3MHA-11 | 2026-09-03 13:03:38 | 44.83739 | 9.23746 | 112° | 18km/h | 28384m | 4.4m/s | -47.9°C | 3.3% | 0hPa | 2.7V | 00:00:00 | 02:28:27 | 00:00:00 | |
| IW2NTF | 2026-09-03 13:03:34 | 44.83750 | 9.23719 | 114° | 18km/h | 28354m | 5.6m/s | -47.8°C | 3.3% | 0hPa | 2.7V | 08:30:00 | 02:28:21 | 00:00:00 | |
| DO3MHA-11 | 2026-09-03 13:03:28 | 44.83757 | 9.23688 | 114° | 18km/h | 28335m | 4.9m/s | -47.5°C | 3.3% | 0hPa | 2.7V | 00:00:00 | 02:28:17 | 00:00:00 | |
| IW2NTF | 2026-09-03 13:03:27 | 44.83772 | 9.23660 | 97° | 15km/h | 28305m | 5.7m/s | -47.5°C | 3.4% | 0hPa | 2.7V | 08:30:00 | 02:28:11 | 00:00:00 | |
| DB0UT-7 | 2026-09-03 13:03:17 | 44.83771 | 9.23628 | 105° | 20km/h | 28280m | 5.4m/s | -47.7°C | 3.3% | 0hPa | 2.6V | 00:00:00 | 00:00:00 | 00:00:00 | |
| IW2NTF | 2026-09-03 13:03:14 | 44.83783 | 9.23599 | 114° | 24km/h | 28254m | 5.6m/s | -47.7°C | 3.3% | 0hPa | 2.6V | 08:30:00 | 02:28:01 | 00:00:00 | |
| IW2NTF | 2026-09-03 13:03:07 | 44.83794 | 9.23535 | 114° | 24km/h | 28205m | 5m/s | -47.2°C | 3.3% | 0hPa | 2.6V | 08:30:00 | 02:27:51 | 00:00:00 | |
| DL2OL | 2026-09-03 13:03:02 | 44.83792 | 9.23543 | 111° | 20km/h | 28210m | 5.2m/s | -47.2°C | 1.0% | 0hPa | 2.7V | 00:00:00 | 00:00:00 | 00:00:00 | |
| IW2NTF | 2026-09-03 13:02:58 | 44.83825 | 9.23476 | 94° | 20km/h | 28153m | 4.3m/s | -47.4°C | 3.1% | 0hPa | 2.7V | 08:30:00 | 02:27:41 | 00:00:00 | |
| IW2NTF | 2026-09-03 13:02:48 | 44.83860 | 9.23407 | 125° | 26km/h | 28103m | 5.1m/s | -47°C | 3.3% | 0hPa | 2.7V | 08:30:00 | 02:27:31 | 00:00:00 | |
| DB0UT-7 | 2026-09-03 13:02:47 | 44.83837 | 9.23447 | 139° | 24km/h | 28129m | 4.8m/s | -47.1°C | 3.2% | 0hPa | 2.6V | 00:00:00 | 02:27:36 | 00:00:00 | |
| DO3MHA-11 | 2026-09-03 13:02:43 | 44.83856 | 9.23415 | 124° | 22km/h | 28109m | 4.4m/s | -46.9°C | 3.3% | 0hPa | 2.6V | 00:00:00 | 02:27:32 | 00:00:00 | |
| IW2NTF | 2026-09-03 13:02:38 | 44.83875 | 9.23346 | 135° | 27km/h | 28053m | 5.8m/s | -47.1°C | 3.1% | 0hPa | 2.6V | 08:30:00 | 02:27:21 | 00:00:00 | |
| DO3MHA-11 | 2026-09-03 13:02:33 | 44.83871 | 9.23353 | 124° | 27km/h | 28059m | 5.9m/s | -47.1°C | 3.0% | 0hPa | 2.6V | 00:00:00 | 02:27:22 | 00:00:00 | |
| IW2NTF | 2026-09-03 13:02:28 | 44.83906 | 9.23272 | 85° | 13km/h | 28003m | 4.1m/s | -47.4°C | 3.2% | 0hPa | 2.6V | 08:30:00 | 02:27:11 | 00:00:00 | |
| DO3MHA-11 | 2026-09-03 13:02:23 | 44.83906 | 9.23277 | 84° | 24km/h | 28008m | 5.0m/s | -47.3°C | 3.2% | 0hPa | 2.7V | 00:00:00 | 02:27:12 | 00:00:00 | |
| DL2OL | 2026-09-03 13:02:20 | 44.83906 | 9.23267 | 98° | 13km/h | 28000m | 4.2m/s | -47.5°C | 1.0% | 0hPa | 2.7V | 00:00:00 | 00:00:00 | 00:00:00 | |
| DB0UT-7 | 2026-09-03 13:02:17 | 44.83914 | 9.23239 | 121° | 27km/h | 27979m | 4.6m/s | -47.5°C | 3.3% | 0hPa | 2.7V | 00:00:00 | 00:00:00 | 08:30:00 | |
| IW2NTF | 2026-09-03 13:02:11 | 44.83941 | 9.23195 | 112° | 18km/h | 27951m | 4.3m/s | -47.9°C | 3.3% | 0hPa | 2.6V | 08:30:00 | 02:27:00 | 00:00:00 | |
| DO3MHA-11 | 2026-09-03 13:02:03 | 44.83925 | 9.23124 | 89° | 27km/h | 27910m | 4.2m/s | -47.7°C | 3.3% | 0hPa | 2.6V | 00:00:00 | 02:26:52 | 00:00:00 | |
| IW2NTF | 2026-09-03 13:02:01 | 44.83937 | 9.23061 | 106° | 29km/h | 27879m | 5.6m/s | -47.6°C | 3.3% | 0hPa | 2.7V | 08:30:00 | 02:26:46 | 00:00:00 | |
| DO3MHA-11 | 2026-09-03 13:01:53 | 44.83936 | 9.23025 | 70° | 27km/h | 27858m | 5.8m/s | -47.6°C | 3.3% | 0hPa | 2.7V | 00:00:00 | 02:26:42 | 00:00:00 | |
| DB0UT-7 | 2026-09-03 13:01:47 | 44.83926 | 9.22974 | 105° | 22km/h | 27828m | 4.2m/s | -47.5°C | 3.3% | 0hPa | 2.7V | 00:00:00 | 02:26:36 | 00:00:00 | |
| DO3MHA-11 | 2026-09-03 13:01:43 | 44.83933 | 9.22932 | 95° | 26km/h | 27809m | 4.8m/s | -47.6°C | 3.3% | 0hPa | 2.7V | 00:00:00 | 02:26:32 | 00:00:00 | |
| DL2OL | 2026-09-03 13:01:34 | 44.83921 | 9.22863 | 84° | 18km/h | 27770m | 5.3m/s | -47.5°C | 0.9% | 0hPa | 2.7V | 00:00:00 | 00:00:00 | 00:00:00 | |
| DO3MHA-11 | 2026-09-03 13:01:33 | 44.83922 | 9.22847 | 101° | 22km/h | 27760m | 4.7m/s | -47.5°C | 3.3% | 0hPa | 2.7V | 00:00:00 | 02:26:22 | 08:30:00 | |
| IW2NTF | 2026-09-03 13:01:31 | 44.83930 | 9.22818 | 113° | 18km/h | 27740m | 4.6m/s | -47.5°C | 3.4% | 0hPa | 2.6V | 08:30:00 | 02:26:18 | 00:00:00 | |
| DO3MHA-11 | 2026-09-03 13:01:23 | 44.83927 | 9.22776 | 64° | 16km/h | 27710m | 5.0m/s | -47.3°C | 3.3% | 0hPa | 2.6V | 00:00:00 | 02:26:12 | 00:00:00 | |
| IW2NTF | 2026-09-03 13:01:20 | 44.83920 | 9.22738 | 112° | 18km/h | 27673m | 4.4m/s | -47.3°C | 3.3% | 0hPa | 2.6V | 08:30:00 | 02:26:05 | 00:00:00 | |
| DB0UT-7 | 2026-09-03 13:01:17 | 44.83918 | 9.22745 | 105° | 22km/h | 27678m | 4.9m/s | -47.4°C | 3.3% | 0hPa | 2.7V | 00:00:00 | 00:00:00 | 00:00:00 | |
| DO3MHA-11 | 2026-09-03 13:01:13 | 44.83925 | 9.22722 | 103° | 20km/h | 27659m | 4.8m/s | -47.1°C | 3.3% | 0hPa | 2.7V | 00:00:00 | 02:26:02 | 00:00:00 | |
| DO3MHA-11 | 2026-09-03 13:01:02 | 44.83906 | 9.22652 | 101° | 22km/h | 27605m | 5.5m/s | -46.9°C | 3.2% | 0hPa | 2.7V | 00:00:00 | 02:25:51 | 00:00:00 | |
| IW2NTF | 2026-09-03 13:00:52 | 44.83879 | 9.22554 | 89° | 26km/h | 27541m | 5.1m/s | -47.2°C | 3.3% | 0hPa | 2.6V | 08:30:00 | 02:25:38 | 00:00:00 | |
| DO3MHA-11 | 2026-09-03 13:00:52 | 44.83884 | 9.22581 | 61° | 22km/h | 27556m | 5.5m/s | -47.0°C | 3.2% | 0hPa | 2.7V | 00:00:00 | 02:25:41 | 00:00:00 | |
| DO3MHA-11 | 2026-09-03 13:00:42 | 44.83877 | 9.22504 | 65° | 20km/h | 27506m | 4.5m/s | -47.4°C | 3.2% | 0hPa | 2.7V | 00:00:00 | 02:25:31 | 00:00:00 | |
| IW2NTF | 2026-09-03 13:00:38 | 44.83857 | 9.22449 | 94° | 20km/h | 27461m | 5.1m/s | -47.2°C | 3.3% | 0hPa | 2.7V | 08:30:00 | 02:25:22 | 00:00:00 | |
| DL2OL | 2026-09-03 13:00:34 | 44.83856 | 9.22464 | 86° | 20km/h | 27470m | 5.1m/s | -47.3°C | 0% | 0hPa | 2.6V | 00:00:00 | 00:00:00 | 00:00:00 | |
| DO3MHA-11 | 2026-09-03 13:00:31 | 44.83857 | 9.22437 | 87° | 13km/h | 27450m | 4.9m/s | -47.2°C | 3.3% | 0hPa | 2.6V | 00:00:00 | 02:25:20 | 00:00:00 | |
| IW2NTF | 2026-09-03 13:00:28 | 44.83846 | 9.22404 | 38° | 13km/h | 27410m | 4.6m/s | -47.2°C | 3.2% | 0hPa | 2.6V | 08:30:00 | 02:25:12 | 00:00:00 | |
| DO3MHA-11 | 2026-09-03 13:00:21 | 44.83842 | 9.22396 | 66° | 16km/h | 27401m | 5.4m/s | -47.3°C | 3.2% | 0hPa | 2.6V | 00:00:00 | 02:25:10 | 00:00:00 | |
| IW2NTF | 2026-09-03 13:00:20 | 44.83834 | 9.22351 | 44° | 11km/h | 27362m | 4.4m/s | -47.5°C | 3.2% | 0hPa | 2.6V | 08:30:00 | 02:25:02 | 00:00:00 | |
| DB0UT-7 | 2026-09-03 13:00:18 | 44.83840 | 9.22368 | 87° | 13km/h | 27381m | 4.8m/s | -47.5°C | 3.2% | 0hPa | 2.6V | 00:00:00 | 00:00:00 | 00:00:00 | |
| DO3MHA-11 | 2026-09-03 13:00:11 | 44.83830 | 9.22344 | 68° | 15km/h | 27352m | 5.4m/s | -47.4°C | 3.3% | 0hPa | 2.6V | 00:00:00 | 02:25:00 | 00:00:00 | |
| IW2NTF | 2026-09-03 13:00:07 | 44.83833 | 9.22304 | 113° | 16km/h | 27311m | 4.9m/s | -47.4°C | 3.2% | 0hPa | 2.6V | 08:30:00 | 02:24:52 | 00:00:00 | |
| DO3MHA-11 | 2026-09-03 13:00:01 | 44.83836 | 9.22295 | 111° | 13km/h | 27302m | 4.4m/s | -47.4°C | 3.3% | 0hPa | 2.7V | 00:00:00 | 02:24:50 | 08:30:00 | |
| IW2NTF | 2026-09-03 12:59:58 | 44.83825 | 9.22275 | 79° | 18km/h | 27263m | 4.5m/s | -47.2°C | 3.1% | 0hPa | 2.6V | 08:30:00 | 02:24:42 | 00:00:00 | |
| IW2NTF | 2026-09-03 12:59:48 | 44.83832 | 9.22252 | 150° | 2km/h | 27213m | 5.7m/s | -47.3°C | 3.3% | 0hPa | 2.6V | 08:30:00 | 02:24:32 | 00:00:00 | |
| DO3MHA-11 | 2026-09-03 12:59:48 | 44.83825 | 9.22257 | 146° | 7km/h | 27239m | 4.7m/s | -47.2°C | 3.1% | 0hPa | 2.7V | 00:00:00 | 02:24:37 | 00:00:00 | |
| DB0UT-7 | 2026-09-03 12:59:47 | 44.83826 | 9.22256 | 156° | 9km/h | 27234m | 5.6m/s | -47.3°C | 3.1% | 0hPa | 2.7V | 00:00:00 | 02:24:36 | 00:00:00 | |
| DO3MHA-11 | 2026-09-03 12:59:38 | 44.83832 | 9.22240 | 104° | 18km/h | 27190m | 5.4m/s | -47.5°C | 3.2% | 0hPa | 2.7V | 00:00:00 | 02:24:27 | 00:00:00 | |
| IW2NTF | 2026-09-03 12:59:37 | 44.83847 | 9.22223 | 253° | 5km/h | 27157m | 4.3m/s | -47.6°C | 3.2% | 0hPa | 2.7V | 08:30:00 | 02:24:20 | 00:00:00 | |
| IW2NTF | 2026-09-03 12:59:22 | 44.83844 | 9.22204 | 152° | 4km/h | 27110m | 5.5m/s | -47.6°C | 3.3% | 0hPa | 2.7V | 08:30:00 | 02:24:10 | 00:00:00 | |
| DO3MHA-11 | 2026-09-03 12:59:21 | 44.83844 | 9.22203 | 153° | 5km/h | 27110m | 5.4m/s | -47.5°C | 3.3% | 0hPa | 2.7V | 00:00:00 | 02:24:10 | 00:00:00 | |
| DB0UT-7 | 2026-09-03 12:59:18 | 44.83848 | 9.22206 | 263° | 9km/h | 27090m | 5.4m/s | -47.6°C | 3.4% | 0hPa | 2.7V | 00:00:00 | 00:00:00 | 00:00:00 | |
| NBG1-10 | 2026-09-03 12:59:15 | 44.83847 | 9.22212 | 292° | 11km/h | 27081m | 3.6m/s | -47.5°C | 3.3% | 0hPa | 2.7V | 00:00:00 | 02:24:04 | 00:00:00 | |
| IW2NTF | 2026-09-03 12:59:11 | 44.83844 | 9.22208 | 94° | 13km/h | 27062m | 4.5m/s | -47.5°C | 3.2% | 0hPa | 2.7V | 08:30:00 | 02:24:00 | 00:00:00 | |
| DO3MHA-11 | 2026-09-03 12:59:10 | 44.83845 | 9.22203 | 108° | 9km/h | 27058m | 4.2m/s | -47.5°C | 3.2% | 0hPa | 2.7V | 00:00:00 | 02:23:59 | 00:00:00 | |
| IW2NTF | 2026-09-03 12:59:02 | 44.83848 | 9.22196 | 60° | 7km/h | 27016m | 4.2m/s | -47.8°C | 3.3% | 0hPa | 2.7V | 08:30:00 | 02:23:50 | 00:00:00 | |
| DO3MHA-11 | 2026-09-03 12:59:00 | 44.83847 | 9.22193 | 85° | 13km/h | 27012m | 4.6m/s | -47.7°C | 3.3% | 0hPa | 2.7V | 00:00:00 | 02:23:49 | 00:00:00 | |
| IW2NTF | 2026-09-03 12:58:56 | 44.83865 | 9.22163 | 125° | 13km/h | 26968m | 4.6m/s | -47.6°C | 3.3% | 0hPa | 2.7V | 08:30:00 | 02:23:40 | 00:00:00 | |
| DO3MHA-11 | 2026-09-03 12:58:50 | 44.83867 | 9.22159 | 142° | 16km/h | 26964m | 5.6m/s | -47.6°C | 3.3% | 0hPa | 2.7V | 00:00:00 | 02:23:39 | 00:00:00 | |
| DB0UT-7 | 2026-09-03 12:58:47 | 44.83875 | 9.22154 | 149° | 15km/h | 26950m | 4.5m/s | -47.6°C | 3.2% | 0hPa | 2.6V | 00:00:00 | 02:23:36 | 00:00:00 | |
| IW2NTF | 2026-09-03 12:58:42 | 44.83889 | 9.22117 | 118° | 24km/h | 26920m | 4.7m/s | -47.6°C | 3.3% | 0hPa | 2.6V | 08:30:00 | 02:23:30 | 00:00:00 | |
| NBG1-10 | 2026-09-03 12:58:42 | 44.83886 | 9.22125 | 116° | 31km/h | 26925m | 5.5m/s | -47.7°C | 3.3% | 0hPa | 2.6V | 00:00:00 | 02:23:31 | 00:00:00 | |
| DO3MHA-11 | 2026-09-03 12:58:40 | 44.83891 | 9.22110 | 118° | 15km/h | 26916m | 4.1m/s | -47.5°C | 3.3% | 0hPa | 2.6V | 00:00:00 | 02:23:29 | 00:00:00 | |
| IW2NTF | 2026-09-03 12:58:36 | 44.83897 | 9.22069 | 127° | 9km/h | 26874m | 3.5m/s | -47.8°C | 3.3% | 0hPa | 2.6V | 08:30:00 | 02:23:20 | 00:00:00 | |
| DO3MHA-11 | 2026-09-03 12:58:30 | 44.83898 | 9.22066 | 112° | 13km/h | 26870m | 5.1m/s | -47.8°C | 3.2% | 0hPa | 2.7V | 00:00:00 | 02:23:19 | 00:00:00 | |
| IW2NTF | 2026-09-03 12:58:19 | 44.83902 | 9.22009 | 53° | 9km/h | 26818m | 4.3m/s | -47.8°C | 3.2% | 0hPa | 2.7V | 08:30:00 | 02:23:08 | 00:00:00 | |
| DB0UT-7 | 2026-09-03 12:58:17 | 44.83899 | 9.22005 | 52° | 15km/h | 26808m | 5.2m/s | -47.8°C | 3.2% | 0hPa | 2.6V | 00:00:00 | 00:00:00 | 00:00:00 | |
| IW2NTF | 2026-09-03 12:58:14 | 44.83886 | 9.21973 | 65° | 9km/h | 26771m | 5.3m/s | -48°C | 3.3% | 0hPa | 2.6V | 08:30:00 | 02:22:58 | 00:00:00 | |
| IW2NTF | 2026-09-03 12:58:04 | 44.83863 | 9.21936 | 28° | 20km/h | 26725m | 5.2m/s | -48.2°C | 3.4% | 0hPa | 2.6V | 08:30:00 | 02:22:48 | 00:00:00 | |
| IW2NTF | 2026-09-03 12:57:54 | 44.83831 | 9.21898 | 63° | 13km/h | 26678m | 4.7m/s | -48.3°C | 3.4% | 0hPa | 2.6V | 08:30:00 | 02:22:38 | 00:00:00 | |
| DB0UT-7 | 2026-09-03 12:57:47 | 44.83829 | 9.21891 | 64° | 15km/h | 26669m | 4.3m/s | -48.2°C | 3.4% | 0hPa | 2.7V | 00:00:00 | 02:22:36 | 08:30:00 | |
| IW2NTF | 2026-09-03 12:57:44 | 44.83825 | 9.21865 | 116° | 11km/h | 26631m | 4.3m/s | -48.5°C | 3.3% | 0hPa | 2.7V | 08:30:00 | 02:22:28 | 00:00:00 | |
| IW2NTF | 2026-09-03 12:57:34 | 44.83840 | 9.21820 | 115° | 11km/h | 26586m | 4.8m/s | -48.7°C | 3.4% | 0hPa | 2.7V | 08:30:00 | 02:22:18 | 00:00:00 | |
| IW2NTF | 2026-09-03 12:57:19 | 44.83842 | 9.21761 | 124° | 22km/h | 26540m | 5.3m/s | -48.7°C | 3.4% | 0hPa | 2.6V | 08:30:00 | 02:22:08 | 00:00:00 | |
| DB0UT-7 | 2026-09-03 12:57:17 | 44.83849 | 9.21748 | 127° | 22km/h | 26531m | 3.7m/s | -48.7°C | 3.4% | 0hPa | 2.7V | 00:00:00 | 00:00:00 | 00:00:00 | |
| IW2NTF | 2026-09-03 12:57:14 | 44.83844 | 9.21695 | 72° | 27km/h | 26493m | 3.9m/s | -48.8°C | 3.4% | 0hPa | 2.7V | 08:30:00 | 02:21:58 | 00:00:00 | |
| DO3MHA-11 | 2026-09-03 12:57:11 | 44.83849 | 9.21713 | 65° | 27km/h | 26502m | 5.1m/s | -48.9°C | 3.4% | 0hPa | 2.6V | 00:00:00 | 02:22:00 | 00:00:00 | |
| IW2NTF | 2026-09-03 12:57:04 | 44.83848 | 9.21603 | 72° | 24km/h | 26448m | 5.5m/s | -48.8°C | 3.4% | 0hPa | 2.6V | 08:30:00 | 02:21:48 | 00:00:00 | |
| DO3MHA-11 | 2026-09-03 12:56:59 | 44.83847 | 9.21603 | 73° | 20km/h | 26448m | 5.5m/s | -48.7°C | 3.4% | 0hPa | 2.6V | 00:00:00 | 02:21:48 | 00:00:00 | |
| IW2NTF | 2026-09-03 12:56:54 | 44.83831 | 9.21542 | 89° | 18km/h | 26400m | 4.7m/s | -48.9°C | 3.4% | 0hPa | 2.6V | 08:30:00 | 02:21:38 | 00:00:00 | |
| DO3MHA-11 | 2026-09-03 12:56:49 | 44.83830 | 9.21542 | 90° | 18km/h | 26400m | 4.7m/s | -48.8°C | 3.4% | 0hPa | 2.6V | 00:00:00 | 02:21:38 | 00:00:00 | |
| DB0UT-7 | 2026-09-03 12:56:47 | 44.83828 | 9.21530 | 61° | 18km/h | 26392m | 3.7m/s | -48.9°C | 3.5% | 0hPa | 2.7V | 00:00:00 | 02:21:36 | 00:00:00 | |
| IW2NTF | 2026-09-03 12:56:44 | 44.83801 | 9.21491 | 43° | 15km/h | 26355m | 4.1m/s | -48.9°C | 3.5% | 0hPa | 2.7V | 08:30:00 | 02:21:28 | 00:00:00 | |
| DO3MHA-11 | 2026-09-03 12:56:36 | 44.83795 | 9.21474 | 71° | 18km/h | 26341m | 4.3m/s | -48.9°C | 3.5% | 0hPa | 2.6V | 00:00:00 | 02:21:25 | 00:00:00 | |
| IW2NTF | 2026-09-03 12:56:34 | 44.83774 | 9.21447 | 15° | 18km/h | 26309m | 5.1m/s | -48.9°C | 3.5% | 0hPa | 2.6V | 08:30:00 | 02:21:18 | 00:00:00 | |
| DO3MHA-11 | 2026-09-03 12:56:25 | 44.83756 | 9.21437 | 21° | 16km/h | 26291m | 5.2m/s | -48.8°C | 3.4% | 0hPa | 2.6V | 00:00:00 | 02:21:14 | 00:00:00 | |
| IW2NTF | 2026-09-03 12:56:24 | 44.83738 | 9.21417 | 57° | 18km/h | 26263m | 3.9m/s | -48.8°C | 3.4% | 0hPa | 2.6V | 08:30:00 | 02:21:08 | 00:00:00 | |
| DB0UT-7 | 2026-09-03 12:56:17 | 44.83732 | 9.21408 | 33° | 15km/h | 26255m | 5.3m/s | -48.8°C | 3.4% | 0hPa | 2.6V | 00:00:00 | 00:00:00 | 00:00:00 | |
| IW2NTF | 2026-09-03 12:56:14 | 44.83701 | 9.21395 | 40° | 13km/h | 26217m | 4.9m/s | -48.8°C | 3.5% | 0hPa | 2.7V | 08:30:00 | 02:20:58 | 00:00:00 | |
| DO3MHA-11 | 2026-09-03 12:56:14 | 44.83719 | 9.21404 | 2° | 15km/h | 26241m | 4.0m/s | -48.7°C | 3.4% | 0hPa | 2.7V | 00:00:00 | 02:21:03 | 00:00:00 | |
| IW2NTF | 2026-09-03 12:56:04 | 44.83666 | 9.21363 | 4° | 20km/h | 26171m | 3.7m/s | -48.9°C | 3.4% | 0hPa | 2.6V | 08:30:00 | 02:20:48 | 00:00:00 | |
| DO3MHA-11 | 2026-09-03 12:56:04 | 44.83688 | 9.21378 | 50° | 18km/h | 26194m | 4.6m/s | -48.7°C | 3.5% | 0hPa | 2.6V | 00:00:00 | 02:20:53 | 00:00:00 | |
| DO3MHA-11 | 2026-09-03 12:55:54 | 44.83650 | 9.21349 | 70° | 11km/h | 26149m | 3.9m/s | -48.6°C | 3.4% | 0hPa | 2.6V | 00:00:00 | 02:20:43 | 00:00:00 | |
| IW2NTF | 2026-09-03 12:55:49 | 44.83641 | 9.21335 | 17° | 9km/h | 26126m | 4.5m/s | -48.8°C | 3.4% | 0hPa | 2.6V | 08:30:00 | 02:20:38 | 00:00:00 | |
| DB0UT-7 | 2026-09-03 12:55:47 | 44.83636 | 9.21332 | 39° | 11km/h | 26116m | 4.9m/s | -48.6°C | 3.4% | 0hPa | 2.7V | 00:00:00 | 02:20:36 | 00:00:00 | |
| IW2NTF | 2026-09-03 12:55:43 | 44.83620 | 9.21300 | 76° | 16km/h | 26075m | 4.3m/s | -48.6°C | 3.4% | 0hPa | 2.7V | 08:30:00 | 02:20:27 | 00:00:00 | |
| DO3MHA-11 | 2026-09-03 12:55:43 | 44.83629 | 9.21319 | 43° | 13km/h | 26099m | 5.1m/s | -48.6°C | 3.4% | 0hPa | 2.6V | 00:00:00 | 02:20:32 | 08:30:00 | |
| DO3MHA-11 | 2026-09-03 12:55:33 | 44.83612 | 9.21283 | 4° | 11km/h | 26053m | 4.1m/s | -48.9°C | 3.5% | 0hPa | 2.6V | 00:00:00 | 02:20:22 | 00:00:00 | |
| IW2NTF | 2026-09-03 12:55:29 | 44.83601 | 9.21275 | 76° | 11km/h | 26030m | 4.5m/s | -48.9°C | 3.4% | 0hPa | 2.6V | 08:30:00 | 02:20:17 | 00:00:00 | |
| IW2NTF | 2026-09-03 12:55:23 | 44.83605 | 9.21237 | 42° | 4km/h | 25984m | 4.2m/s | -48.7°C | 3.4% | 0hPa | 2.7V | 08:30:00 | 02:20:07 | 00:00:00 | |
| DO3MHA-11 | 2026-09-03 12:55:23 | 44.83602 | 9.21256 | 106° | 9km/h | 26008m | 5.3m/s | -48.9°C | 3.4% | 0hPa | 2.6V | 00:00:00 | 02:20:12 | 00:00:00 | |
| DB0UT-7 | 2026-09-03 12:55:17 | 44.83604 | 9.21236 | 26° | 18km/h | 25980m | 3.5m/s | -48.6°C | 3.4% | 0hPa | 2.6V | 00:00:00 | 00:00:00 | 00:00:00 | |
| DO3MHA-11 | 2026-09-03 12:55:13 | 44.83600 | 9.21224 | 82° | 13km/h | 25962m | 4.4m/s | -48.5°C | 3.4% | 0hPa | 2.6V | 00:00:00 | 02:20:02 | 00:00:00 | |
| IW2NTF | 2026-09-03 12:55:09 | 44.83596 | 9.21204 | 31° | 7km/h | 25939m | 4.2m/s | -48.5°C | 3.3% | 0hPa | 2.6V | 08:30:00 | 02:19:57 | 00:00:00 | |
| IW2NTF | 2026-09-03 12:55:04 | 44.83574 | 9.21156 | 69° | 16km/h | 25893m | 5.1m/s | -48.7°C | 3.4% | 0hPa | 2.6V | 08:30:00 | 02:19:47 | 00:00:00 | |
| DO3MHA-11 | 2026-09-03 12:55:04 | 44.83584 | 9.21186 | 62° | 20km/h | 25917m | 4.3m/s | -48.5°C | 3.3% | 0hPa | 2.7V | 00:00:00 | 02:19:52 | 00:00:00 | |
| IW2NTF | 2026-09-03 12:54:49 | 44.83528 | 9.21106 | 52° | 31km/h | 25846m | 4m/s | -49.1°C | 3.4% | 0hPa | 2.7V | 08:30:00 | 02:19:37 | 00:00:00 | |
| DB0UT-7 | 2026-09-03 12:54:47 | 44.83524 | 9.21097 | 61° | 22km/h | 25842m | 3.9m/s | -49.1°C | 3.4% | 0hPa | 2.6V | 00:00:00 | 02:19:36 | 00:00:00 | |
| IW2NTF | 2026-09-03 12:54:43 | 44.83488 | 9.21038 | 30° | 27km/h | 25802m | 4.4m/s | -49.2°C | 3.4% | 0hPa | 2.6V | 08:30:00 | 02:19:27 | 00:00:00 | |
| DO3MHA-11 | 2026-09-03 12:54:40 | 44.83500 | 9.21049 | 35° | 22km/h | 25810m | 4.6m/s | -49.0°C | 3.4% | 0hPa | 2.6V | 00:00:00 | 02:19:29 | 00:00:00 | |
| IW2NTF | 2026-09-03 12:54:29 | 44.83459 | 9.20986 | 53° | 16km/h | 25754m | 4.8m/s | -49.5°C | 3.4% | 0hPa | 2.7V | 08:30:00 | 02:19:17 | 00:00:00 | |
| IW2NTF | 2026-09-03 12:54:23 | 44.83407 | 9.20960 | 46° | 18km/h | 25707m | 4.8m/s | -49.6°C | 3.6% | 0hPa | 2.6V | 08:30:00 | 02:19:07 | 00:00:00 | |
| DO3MHA-11 | 2026-09-03 12:54:20 | 44.83415 | 9.20967 | 21° | 20km/h | 25717m | 4.8m/s | -49.6°C | 3.6% | 0hPa | 2.7V | 00:00:00 | 02:19:09 | 00:00:00 | |
| IW2NTF | 2026-09-03 12:54:09 | 44.83359 | 9.20939 | 359° | 31km/h | 25661m | 4.8m/s | -49.5°C | 3.5% | 0hPa | 2.7V | 08:30:00 | 02:18:57 | 00:00:00 | |
| IW2NTF | 2026-09-03 12:54:03 | 44.83298 | 9.20930 | 347° | 26km/h | 25615m | 3.9m/s | -49.4°C | 3.5% | 0hPa | 2.6V | 08:30:00 | 02:18:47 | 00:00:00 | |
| DO3MHA-11 | 2026-09-03 12:54:00 | 44.83311 | 9.20928 | 2° | 15km/h | 25625m | 5.1m/s | -49.3°C | 3.5% | 0hPa | 2.6V | 00:00:00 | 02:18:49 | 00:00:00 | |
| IW2NTF | 2026-09-03 12:53:49 | 44.83249 | 9.20942 | 6° | 22km/h | 25571m | 4.8m/s | -49.8°C | 3.5% | 0hPa | 2.6V | 08:30:00 | 02:18:37 | 00:00:00 | |
| DB0UT-7 | 2026-09-03 12:53:47 | 44.83243 | 9.20942 | 351° | 18km/h | 25566m | 5.0m/s | -49.7°C | 3.6% | 0hPa | 2.7V | 00:00:00 | 02:18:36 | 00:00:00 | |
| IW2NTF | 2026-09-03 12:53:43 | 44.83210 | 9.20970 | 335° | 9km/h | 25524m | 5.4m/s | -49.5°C | 3.6% | 0hPa | 2.7V | 08:30:00 | 02:18:27 | 00:00:00 | |
| IW2NTF | 2026-09-03 12:53:28 | 44.83180 | 9.20986 | 303° | 13km/h | 25476m | 5.2m/s | -49.6°C | 3.4% | 0hPa | 2.6V | 08:30:00 | 02:18:17 | 00:00:00 | |
| IW2NTF | 2026-09-03 12:53:23 | 44.83173 | 9.20997 | 349° | 11km/h | 25429m | 4m/s | -49.7°C | 3.4% | 0hPa | 2.6V | 08:30:00 | 02:18:07 | 00:00:00 | |
| DO3MHA-11 | 2026-09-03 12:53:20 | 44.83177 | 9.20996 | 5° | 9km/h | 25439m | 5.5m/s | -49.5°C | 3.5% | 0hPa | 2.6V | 00:00:00 | 02:18:09 | 00:00:00 | |
| IW2NTF | 2026-09-03 12:53:09 | 44.83167 | 9.21025 | 215° | 7km/h | 25384m | 5.1m/s | -49.7°C | 3.4% | 0hPa | 2.6V | 08:30:00 | 02:17:57 | 00:00:00 | |
| DO3MHA-11 | 2026-09-03 12:53:09 | 44.83165 | 9.21023 | 239° | 9km/h | 25389m | 4.0m/s | -49.6°C | 3.4% | 0hPa | 2.7V | 00:00:00 | 02:17:58 | 00:00:00 | |
| IW2NTF | 2026-09-03 12:53:03 | 44.83182 | 9.21034 | 218° | 4km/h | 25336m | 4.2m/s | -49.5°C | 3.5% | 0hPa | 2.7V | 08:30:00 | 02:17:47 | 00:00:00 | |
| IW2NTF | 2026-09-03 12:52:49 | 44.83204 | 9.21017 | 116° | 9km/h | 25289m | 5m/s | -49.5°C | 3.4% | 0hPa | 2.6V | 08:30:00 | 02:17:37 | 00:00:00 | |
| DB0UT-7 | 2026-09-03 12:52:48 | 44.83204 | 9.21017 | 117° | 15km/h | 25289m | 4.9m/s | -49.4°C | 3.4% | 0hPa | 2.6V | 00:00:00 | 00:00:00 | 08:30:00 | |
| IW2NTF | 2026-09-03 12:52:43 | 44.83203 | 9.20991 | 75° | 13km/h | 25243m | 4.6m/s | -49.9°C | 3.5% | 0hPa | 2.6V | 08:30:00 | 02:17:27 | 00:00:00 | |
| DO3MHA-11 | 2026-09-03 12:52:35 | 44.83202 | 9.20978 | 108° | 20km/h | 25230m | 5.3m/s | -49.9°C | 3.5% | 0hPa | 2.7V | 00:00:00 | 02:17:24 | 00:00:00 | |
| IW2NTF | 2026-09-03 12:52:29 | 44.83200 | 9.20919 | 52° | 22km/h | 25187m | 5.2m/s | -50.2°C | 3.6% | 0hPa | 2.7V | 08:30:00 | 02:17:15 | 00:00:00 | |
| DO3MHA-11 | 2026-09-03 12:52:25 | 44.83197 | 9.20913 | 55° | 18km/h | 25183m | 4.6m/s | -50.2°C | 3.6% | 0hPa | 2.7V | 00:00:00 | 02:17:14 | 00:00:00 | |
| IW2NTF | 2026-09-03 12:52:16 | 44.83181 | 9.20860 | 46° | 20km/h | 25142m | 4.5m/s | -50.5°C | 3.6% | 0hPa | 2.7V | 08:30:00 | 02:17:05 | 00:00:00 | |
| DO3MHA-11 | 2026-09-03 12:52:15 | 44.83177 | 9.20854 | 49° | 26km/h | 25138m | 4.5m/s | -50.5°C | 3.6% | 0hPa | 2.7V | 00:00:00 | 02:17:04 | 00:00:00 | |
| IW2NTF | 2026-09-03 12:52:06 | 44.83139 | 9.20794 | 43° | 29km/h | 25095m | 4.9m/s | -51°C | 3.6% | 0hPa | 2.7V | 08:30:00 | 02:16:55 | 00:00:00 | |
| DO3MHA-11 | 2026-09-03 12:52:04 | 44.83127 | 9.20779 | 39° | 31km/h | 25087m | 4.0m/s | -51.1°C | 3.7% | 0hPa | 2.6V | 00:00:00 | 02:16:53 | 00:00:00 | |
| IW2NTF | 2026-09-03 12:51:57 | 44.83064 | 9.20733 | 26° | 35km/h | 25042m | 4.9m/s | -51.1°C | 3.7% | 0hPa | 2.6V | 08:30:00 | 02:16:44 | 00:00:00 | |
| DO3MHA-11 | 2026-09-03 12:51:54 | 44.83056 | 9.20728 | 28° | 31km/h | 25038m | 4.0m/s | -51.1°C | 3.7% | 0hPa | 2.6V | 00:00:00 | 02:16:43 | 00:00:00 | |
| DB0UT-7 | 2026-09-03 12:51:48 | 44.83010 | 9.20690 | 26° | 29km/h | 25012m | 5.3m/s | -51.1°C | 3.7% | 0hPa | 2.6V | 00:00:00 | 00:00:00 | 00:00:00 | |
| IW2NTF | 2026-09-03 12:51:47 | 44.82979 | 9.20680 | 13° | 31km/h | 24988m | 4.8m/s | -51.4°C | 3.8% | 0hPa | 2.6V | 08:30:00 | 02:16:32 | 00:00:00 | |
| DO3MHA-11 | 2026-09-03 12:51:44 | 44.82986 | 9.20682 | 10° | 33km/h | 24994m | 5.1m/s | -51.3°C | 3.7% | 0hPa | 2.6V | 00:00:00 | 02:16:33 | 08:30:00 | |
| NBG1-10 | 2026-09-03 12:51:37 | 44.82927 | 9.20664 | 10° | 24km/h | 24960m | 4.6m/s | -51.3°C | 3.6% | 0hPa | 2.6V | 00:00:00 | 02:16:26 | 08:30:00 | |
| IW2NTF | 2026-09-03 12:51:36 | 44.82896 | 9.20661 | 351° | 27km/h | 24941m | 5.3m/s | -51.6°C | 3.8% | 0hPa | 2.7V | 08:30:00 | 02:16:22 | 00:00:00 | |
| DO3MHA-11 | 2026-09-03 12:51:34 | 44.82903 | 9.20660 | 360° | 31km/h | 24946m | 3.8m/s | -51.4°C | 3.8% | 0hPa | 2.7V | 00:00:00 | 02:16:23 | 00:00:00 | |
| IW2NTF | 2026-09-03 12:51:26 | 44.82820 | 9.20677 | 351° | 29km/h | 24896m | 4.8m/s | -51.8°C | 3.8% | 0hPa | 2.7V | 08:30:00 | 02:16:12 | 00:00:00 | |
| DO3MHA-11 | 2026-09-03 12:51:24 | 44.82827 | 9.20676 | 360° | 22km/h | 24901m | 4.7m/s | -51.7°C | 3.8% | 0hPa | 2.7V | 00:00:00 | 02:16:13 | 00:00:00 | |
| DB0UT-7 | 2026-09-03 12:51:18 | 44.82795 | 9.20692 | 340° | 15km/h | 24874m | 5.0m/s | -51.9°C | 3.9% | 0hPa | 2.7V | 00:00:00 | 02:16:07 | 00:00:00 | |
| IW2NTF | 2026-09-03 12:51:16 | 44.82772 | 9.20700 | 336° | 16km/h | 24850m | 5m/s | -51.9°C | 3.9% | 0hPa | 2.7V | 08:30:00 | 02:16:02 | 00:00:00 | |
| DO3MHA-11 | 2026-09-03 12:51:15 | 44.82776 | 9.20697 | 345° | 18km/h | 24855m | 5.4m/s | -51.9°C | 3.9% | 0hPa | 2.7V | 00:00:00 | 02:16:03 | 00:00:00 | |
| IW2NTF | 2026-09-03 12:51:06 | 44.82733 | 9.20727 | 319° | 13km/h | 24804m | 4.3m/s | -51.8°C | 3.8% | 0hPa | 2.7V | 08:30:00 | 02:15:52 | 00:00:00 | |
| NBG1-10 | 2026-09-03 12:51:04 | 44.82736 | 9.20724 | 316° | 11km/h | 24808m | 3.7m/s | -51.8°C | 3.8% | 0hPa | 2.6V | 00:00:00 | 02:15:53 | 00:00:00 | |
| IW2NTF | 2026-09-03 12:50:56 | 44.82708 | 9.20753 | 323° | 9km/h | 24757m | 4.5m/s | -52°C | 3.9% | 0hPa | 2.6V | 08:30:00 | 02:15:42 | 00:00:00 | |
| DO3MHA-11 | 2026-09-03 12:50:54 | 44.82709 | 9.20751 | 317° | 11km/h | 24762m | 5.0m/s | -51.9°C | 3.9% | 0hPa | 2.7V | 00:00:00 | 02:15:43 | 00:00:00 | |
| DB0UT-7 | 2026-09-03 12:50:48 | 44.82701 | 9.20767 | 300° | 11km/h | 24735m | 4.0m/s | -52.1°C | 4.0% | 0hPa | 2.7V | 00:00:00 | 00:00:00 | 00:00:00 | |
| IW2NTF | 2026-09-03 12:50:46 | 44.82690 | 9.20782 | 310° | 9km/h | 24712m | 5.2m/s | -52.1°C | 3.9% | 0hPa | 2.7V | 08:30:00 | 02:15:32 | 00:00:00 | |
| DO3MHA-11 | 2026-09-03 12:50:44 | 44.82692 | 9.20779 | 323° | 9km/h | 24717m | 3.9m/s | -52.1°C | 4.0% | 0hPa | 2.7V | 00:00:00 | 02:15:33 | 00:00:00 | |
| IW2NTF | 2026-09-03 12:50:36 | 44.82674 | 9.20803 | 310° | 15km/h | 24667m | 4m/s | -51.9°C | 3.9% | 0hPa | 2.6V | 08:30:00 | 02:15:22 | 00:00:00 | |
| DO3MHA-11 | 2026-09-03 12:50:34 | 44.82677 | 9.20799 | 315° | 9km/h | 24672m | 4.9m/s | -52.0°C | 4.0% | 0hPa | 2.6V | 00:00:00 | 02:15:23 | 00:00:00 | |
| NBG1-10 | 2026-09-03 12:50:31 | 44.82669 | 9.20810 | 327° | 9km/h | 24659m | 5.2m/s | -52.0°C | 3.9% | 0hPa | 2.6V | 00:00:00 | 02:15:20 | 00:00:00 | |
| IW2NTF | 2026-09-03 12:50:27 | 44.82657 | 9.20817 | 350° | 9km/h | 24624m | 5.2m/s | -52.1°C | 3.9% | 0hPa | 2.6V | 08:30:00 | 02:15:12 | 00:00:00 | |
| DO3MHA-11 | 2026-09-03 12:50:24 | 44.82659 | 9.20816 | 333° | 11km/h | 24628m | 3.9m/s | -52.0°C | 3.8% | 0hPa | 2.7V | 00:00:00 | 02:15:13 | 00:00:00 | |
| DB0UT-7 | 2026-09-03 12:50:18 | 44.82638 | 9.20815 | 352° | 7km/h | 24601m | 4.6m/s | -52.2°C | 4.0% | 0hPa | 2.7V | 00:00:00 | 02:15:07 | 00:00:00 | |
| IW2NTF | 2026-09-03 12:50:14 | 44.82629 | 9.20820 | 318° | 7km/h | 24579m | 4m/s | -52.2°C | 4% | 0hPa | 2.7V | 08:30:00 | 02:15:02 | 00:00:00 | |
| DO3MHA-11 | 2026-09-03 12:50:14 | 44.82630 | 9.20819 | 337° | 9km/h | 24583m | 3.9m/s | -52.1°C | 4.0% | 0hPa | 2.6V | 00:00:00 | 02:15:03 | 08:30:00 | |
| IW2NTF | 2026-09-03 12:50:04 | 44.82610 | 9.20835 | 350° | 7km/h | 24534m | 3.8m/s | -51.9°C | 3.9% | 0hPa | 2.6V | 08:30:00 | 02:14:52 | 00:00:00 | |
| DO3MHA-11 | 2026-09-03 12:50:04 | 44.82612 | 9.20835 | 349° | 5km/h | 24538m | 4.3m/s | -52.0°C | 3.9% | 0hPa | 2.6V | 00:00:00 | 02:14:53 | 00:00:00 | |
| DL2OL | 2026-09-03 12:50:01 | 44.82608 | 9.20835 | 3° | 5km/h | 24530m | 5.0m/s | 0°C | 0% | 0hPa | 2.6V | 00:00:00 | 00:00:00 | 00:00:00 | |
| NBG1-10 | 2026-09-03 12:49:58 | 44.82606 | 9.20834 | 224° | 7km/h | 24512m | 5.2m/s | -51.8°C | 3.8% | 0hPa | 2.6V | 00:00:00 | 02:14:47 | 00:00:00 | |
| IW2NTF | 2026-09-03 12:49:54 | 44.82606 | 9.20842 | 5° | 9km/h | 24489m | 4.5m/s | -51.9°C | 3.9% | 0hPa | 2.6V | 08:30:00 | 02:14:42 | 00:00:00 | |
| DO3MHA-11 | 2026-09-03 12:49:54 | 44.82608 | 9.20841 | 336° | 7km/h | 24495m | 5.1m/s | -51.8°C | 4.0% | 0hPa | 2.6V | 00:00:00 | 02:14:43 | 00:00:00 | |
| DB0UT-7 | 2026-09-03 12:49:48 | 44.82595 | 9.20841 | 308° | 5km/h | 24468m | 4.1m/s | -52.2°C | 3.9% | 0hPa | 2.6V | 00:00:00 | 00:00:00 | 00:00:00 | |
| IW2NTF | 2026-09-03 12:49:44 | 44.82597 | 9.20838 | 108° | 7km/h | 24446m | 3.9m/s | -52°C | 3.8% | 0hPa | 2.6V | 08:30:00 | 02:14:32 | 00:00:00 | |
| DO3MHA-11 | 2026-09-03 12:49:44 | 44.82597 | 9.20840 | 117° | 5km/h | 24450m | 4.1m/s | -52.0°C | 3.8% | 0hPa | 2.6V | 00:00:00 | 02:14:33 | 00:00:00 | |
| IW2NTF | 2026-09-03 12:49:34 | 44.82599 | 9.20820 | 143° | 7km/h | 24401m | 4.3m/s | -52.4°C | 4% | 0hPa | 2.6V | 08:30:00 | 02:14:22 | 00:00:00 | |
| NBG1-10 | 2026-09-03 12:49:25 | 44.82600 | 9.20800 | 42° | 7km/h | 24367m | 4.7m/s | -52.5°C | 3.9% | 0hPa | 2.7V | 00:00:00 | 02:14:14 | 00:00:00 | |
| IW2NTF | 2026-09-03 12:49:24 | 44.82598 | 9.20798 | 39° | 5km/h | 24358m | 3.8m/s | -52.4°C | 3.9% | 0hPa | 2.7V | 08:30:00 | 02:14:12 | 00:00:00 | |
| DO3MHA-11 | 2026-09-03 12:49:24 | 44.82599 | 9.20799 | 33° | 5km/h | 24362m | 3.9m/s | -52.5°C | 3.9% | 0hPa | 2.7V | 00:00:00 | 02:14:13 | 00:00:00 | |
| DB0UT-7 | 2026-09-03 12:49:18 | 44.82593 | 9.20786 | 71° | 2km/h | 24336m | 5.2m/s | -52.6°C | 4.0% | 0hPa | 2.7V | 00:00:00 | 02:14:07 | 00:00:00 | |
| IW2NTF | 2026-09-03 12:49:14 | 44.82589 | 9.20785 | 13° | 7km/h | 24313m | 3.9m/s | -52.7°C | 3.9% | 0hPa | 2.7V | 08:30:00 | 02:14:02 | 00:00:00 | |
| DO3MHA-11 | 2026-09-03 12:49:14 | 44.82591 | 9.20785 | 12° | 7km/h | 24318m | 4.6m/s | -52.6°C | 4.0% | 0hPa | 2.6V | 00:00:00 | 02:14:03 | 00:00:00 | |
| IW2NTF | 2026-09-03 12:49:04 | 44.82576 | 9.20779 | 162° | 4km/h | 24269m | 5.2m/s | -52.9°C | 4% | 0hPa | 2.7V | 08:30:00 | 02:13:52 | 00:00:00 | |
| DO3MHA-11 | 2026-09-03 12:49:04 | 44.82576 | 9.20780 | 72° | 7km/h | 24275m | 4.7m/s | -52.8°C | 4.0% | 0hPa | 2.7V | 00:00:00 | 02:13:53 | 00:00:00 | |
| IW2NTF | 2026-09-03 12:48:54 | 44.82570 | 9.20800 | 307° | 15km/h | 24226m | 3.9m/s | -53.1°C | 4.2% | 0hPa | 2.7V | 08:30:00 | 02:13:42 | 00:00:00 | |
| DO3MHA-11 | 2026-09-03 12:48:54 | 44.82572 | 9.20796 | 310° | 7km/h | 24230m | 4.4m/s | -53.1°C | 4.2% | 0hPa | 2.6V | 00:00:00 | 02:13:43 | 00:00:00 | |
| NBG1-10 | 2026-09-03 12:48:52 | 44.82568 | 9.20804 | 313° | 15km/h | 24222m | 4.0m/s | -53.1°C | 4.2% | 0hPa | 2.6V | 00:00:00 | 02:13:41 | 00:00:00 | |
| IW2NTF | 2026-09-03 12:48:44 | 44.82564 | 9.20818 | 291° | 7km/h | 24182m | 4.9m/s | -53.2°C | 4.1% | 0hPa | 2.6V | 08:30:00 | 02:13:32 | 00:00:00 | |
| DO3MHA-11 | 2026-09-03 12:48:44 | 44.82564 | 9.20815 | 261° | 13km/h | 24187m | 4.6m/s | -53.2°C | 4.1% | 0hPa | 2.6V | 00:00:00 | 02:13:33 | 08:30:00 | |
| DB0UT-7 | 2026-09-03 12:48:39 | 44.82554 | 9.20830 | 325° | 20km/h | 24163m | 4.5m/s | -52.9°C | 4.0% | 0hPa | 2.6V | 00:00:00 | 00:00:00 | 00:00:00 | |
| IW2NTF | 2026-09-03 12:48:34 | 44.82539 | 9.20836 | 311° | 2km/h | 24136m | 5.3m/s | -53°C | 4% | 0hPa | 2.6V | 08:30:00 | 02:13:22 | 00:00:00 | |
| DO3MHA-11 | 2026-09-03 12:48:34 | 44.82539 | 9.20836 | 10° | 9km/h | 24141m | 4.4m/s | -52.9°C | 4.0% | 0hPa | 2.6V | 00:00:00 | 02:13:23 | 00:00:00 | |
| IW2NTF | 2026-09-03 12:48:24 | 44.82521 | 9.20857 | 339° | 20km/h | 24090m | 3.9m/s | -53.3°C | 4% | 0hPa | 2.6V | 08:30:00 | 02:13:12 | 00:00:00 | |
| DO3MHA-11 | 2026-09-03 12:48:24 | 44.82525 | 9.20854 | 334° | 13km/h | 24095m | 4.0m/s | -53.2°C | 4.1% | 0hPa | 2.6V | 00:00:00 | 02:13:13 | 00:00:00 | |
| IW2NTF | 2026-09-03 12:48:14 | 44.82500 | 9.20871 | 310° | 9km/h | 24044m | 3.9m/s | -53.4°C | 4.2% | 0hPa | 2.6V | 08:30:00 | 02:13:02 | 00:00:00 | |
| DO3MHA-11 | 2026-09-03 12:48:14 | 44.82501 | 9.20869 | 298° | 15km/h | 24049m | 4.6m/s | -53.3°C | 4.3% | 0hPa | 2.6V | 00:00:00 | 02:13:03 | 00:00:00 | |
| IW2NTF | 2026-09-03 12:48:04 | 44.82470 | 9.20897 | 309° | 11km/h | 23999m | 4.7m/s | -53.3°C | 4.2% | 0hPa | 2.7V | 08:30:00 | 02:12:52 | 00:00:00 | |
| DO3MHA-11 | 2026-09-03 12:48:04 | 44.82472 | 9.20894 | 333° | 13km/h | 24005m | 5.0m/s | -53.3°C | 4.1% | 0hPa | 2.7V | 00:00:00 | 02:12:53 | 00:00:00 | |
| IW2NTF | 2026-09-03 12:47:54 | 44.82448 | 9.20927 | 312° | 15km/h | 23954m | 4.4m/s | -53.4°C | 4.1% | 0hPa | 2.7V | 08:30:00 | 02:12:42 | 00:00:00 | |
| DO3MHA-11 | 2026-09-03 12:47:54 | 44.82451 | 9.20923 | 312° | 16km/h | 23959m | 4.5m/s | -53.4°C | 4.1% | 0hPa | 2.6V | 00:00:00 | 02:12:43 | 00:00:00 | |
| IW2NTF | 2026-09-03 12:47:47 | 44.82418 | 9.20984 | 310° | 24km/h | 23899m | 4.9m/s | -53.3°C | 4.2% | 0hPa | 2.6V | 08:30:00 | 02:12:30 | 00:00:00 | |
| DO3MHA-11 | 2026-09-03 12:47:44 | 44.82428 | 9.20967 | 299° | 22km/h | 23913m | 5.1m/s | -53.4°C | 4.3% | 0hPa | 2.7V | 00:00:00 | 02:12:33 | 00:00:00 | |
| IW2NTF | 2026-09-03 12:47:35 | 44.82398 | 9.21045 | 256° | 18km/h | 23852m | 4.3m/s | -53.4°C | 4.2% | 0hPa | 2.7V | 08:30:00 | 02:12:20 | 00:00:00 | |
| DO3MHA-11 | 2026-09-03 12:47:34 | 44.82397 | 9.21029 | 288° | 16km/h | 23868m | 4.3m/s | -53.4°C | 4.1% | 0hPa | 2.6V | 00:00:00 | 02:12:23 | 00:00:00 | |
| IW2NTF | 2026-09-03 12:47:26 | 44.82383 | 9.21122 | 298° | 22km/h | 23806m | 4.1m/s | -53.5°C | 4.2% | 0hPa | 2.6V | 08:30:00 | 02:12:10 | 00:00:00 | |
| DB0UT-7 | 2026-09-03 12:47:19 | 44.82378 | 9.21136 | 285° | 22km/h | 23799m | 4.6m/s | -53.4°C | 4.2% | 0hPa | 2.7V | 00:00:00 | 02:12:08 | 08:30:00 | |
| IW2NTF | 2026-09-03 12:47:14 | 44.82378 | 9.21199 | 285° | 22km/h | 23763m | 4.2m/s | -53.3°C | 4.2% | 0hPa | 2.6V | 08:30:00 | 02:12:00 | 00:00:00 | |
| IW2NTF | 2026-09-03 12:47:06 | 44.82387 | 9.21275 | 239° | 24km/h | 23716m | 3.7m/s | -53.1°C | 4.2% | 0hPa | 2.6V | 08:30:00 | 02:11:50 | 00:00:00 | |
| NBG1-10 | 2026-09-03 12:47:06 | 44.82377 | 9.21240 | 263° | 7km/h | 23740m | 5.1m/s | -53.2°C | 4.3% | 0hPa | 2.6V | 00:00:00 | 02:11:55 | 00:00:00 | |
| IW2NTF | 2026-09-03 12:46:54 | 44.82394 | 9.21350 | 249° | 16km/h | 23672m | 4.9m/s | -53°C | 4.2% | 0hPa | 2.6V | 08:30:00 | 02:11:40 | 00:00:00 | |
| DB0UT-7 | 2026-09-03 12:46:49 | 44.82397 | 9.21360 | 235° | 15km/h | 23663m | 3.9m/s | -52.8°C | 4.2% | 0hPa | 2.6V | 00:00:00 | 00:00:00 | 00:00:00 | |
| IW2NTF | 2026-09-03 12:46:46 | 44.82415 | 9.21403 | 281° | 11km/h | 23627m | 3.7m/s | -52.7°C | 4% | 0hPa | 2.6V | 08:30:00 | 02:11:30 | 00:00:00 | |
| DO3MHA-11 | 2026-09-03 12:46:35 | 44.82417 | 9.21435 | 247° | 13km/h | 23601m | 5.0m/s | -52.3°C | 4.0% | 0hPa | 2.7V | 00:00:00 | 02:11:24 | 00:00:00 | |
| IW2NTF | 2026-09-03 12:46:34 | 44.82428 | 9.21449 | 212° | 18km/h | 23582m | 5m/s | -52.3°C | 4.1% | 0hPa | 2.7V | 08:30:00 | 02:11:20 | 00:00:00 | |
| DO3MHA-11 | 2026-09-03 12:46:25 | 44.82441 | 9.21462 | 267° | 13km/h | 23557m | 3.6m/s | -52.5°C | 4.0% | 0hPa | 2.7V | 00:00:00 | 02:11:14 | 08:30:00 | |
| IW2NTF | 2026-09-03 12:46:23 | 44.82446 | 9.21478 | 227° | 18km/h | 23538m | 4m/s | -52.3°C | 4% | 0hPa | 2.6V | 08:30:00 | 02:11:10 | 00:00:00 | |
| DB0UT-7 | 2026-09-03 12:46:19 | 44.82453 | 9.21485 | 205° | 7km/h | 23530m | 4.8m/s | -52.2°C | 4.0% | 0hPa | 2.7V | 00:00:00 | 02:11:08 | 00:00:00 | |
| DO3MHA-11 | 2026-09-03 12:46:15 | 44.82463 | 9.21488 | 202° | 9km/h | 23511m | 5.1m/s | -52.1°C | 4.0% | 0hPa | 2.7V | 00:00:00 | 02:11:04 | 00:00:00 | |
| IW2NTF | 2026-09-03 12:46:12 | 44.82469 | 9.21490 | 168° | 7km/h | 23492m | 4.6m/s | -52.1°C | 4% | 0hPa | 2.7V | 08:30:00 | 02:11:00 | 00:00:00 | |
| IW2NTF | 2026-09-03 12:46:07 | 44.82491 | 9.21489 | 159° | 4km/h | 23446m | 5m/s | -51.9°C | 4% | 0hPa | 2.7V | 08:30:00 | 02:10:50 | 00:00:00 | |
| DO3MHA-11 | 2026-09-03 12:46:05 | 44.82484 | 9.21493 | 176° | 5km/h | 23465m | 5.1m/s | -51.9°C | 4.0% | 0hPa | 2.7V | 00:00:00 | 02:10:54 | 00:00:00 | |
| DO3MHA-11 | 2026-09-03 12:45:55 | 44.82495 | 9.21483 | 133° | 7km/h | 23420m | 3.9m/s | -51.7°C | 3.9% | 0hPa | 2.7V | 00:00:00 | 02:10:44 | 00:00:00 | |
| IW2NTF | 2026-09-03 12:45:51 | 44.82504 | 9.21481 | 170° | 7km/h | 23401m | 4.3m/s | -51.7°C | 3.9% | 0hPa | 2.6V | 08:30:00 | 02:10:40 | 00:00:00 | |
| DB0UT-7 | 2026-09-03 12:45:49 | 44.82506 | 9.21478 | 105° | 9km/h | 23392m | 4.0m/s | -51.6°C | 3.9% | 0hPa | 2.7V | 00:00:00 | 00:00:00 | 00:00:00 | |
| IW2NTF | 2026-09-03 12:45:46 | 44.82507 | 9.21459 | 105° | 15km/h | 23357m | 4.2m/s | -51.4°C | 3.9% | 0hPa | 2.6V | 08:30:00 | 02:10:30 | 00:00:00 | |
| DO3MHA-11 | 2026-09-03 12:45:44 | 44.82505 | 9.21469 | 100° | 11km/h | 23370m | 3.7m/s | -51.5°C | 3.8% | 0hPa | 2.7V | 00:00:00 | 02:10:33 | 00:00:00 | |
| IW2NTF | 2026-09-03 12:45:36 | 44.82519 | 9.21426 | 107° | 4km/h | 23311m | 4.8m/s | -51.3°C | 3.8% | 0hPa | 2.7V | 08:30:00 | 02:10:20 | 00:00:00 | |
| DO3MHA-11 | 2026-09-03 12:45:33 | 44.82518 | 9.21430 | 102° | 9km/h | 23321m | 4.0m/s | -51.4°C | 3.8% | 0hPa | 2.6V | 00:00:00 | 02:10:22 | 00:00:00 | |
| IW2NTF | 2026-09-03 12:45:26 | 44.82520 | 9.21399 | 125° | 5km/h | 23267m | 5.1m/s | -51.5°C | 3.8% | 0hPa | 2.6V | 08:30:00 | 02:10:10 | 00:00:00 | |
| DO3MHA-11 | 2026-09-03 12:45:22 | 44.82519 | 9.21401 | 136° | 5km/h | 23272m | 3.8m/s | -51.4°C | 3.8% | 0hPa | 2.6V | 00:00:00 | 02:10:11 | 00:00:00 | |
| DB0UT-7 | 2026-09-03 12:45:19 | 44.82521 | 9.21395 | 108° | 5km/h | 23258m | 4.0m/s | -51.5°C | 3.8% | 0hPa | 2.6V | 00:00:00 | 02:10:08 | 00:00:00 | |
| IW2NTF | 2026-09-03 12:45:12 | 44.82523 | 9.21383 | 198° | 5km/h | 23213m | 4.2m/s | -51.5°C | 3.8% | 0hPa | 2.6V | 08:30:00 | 02:09:58 | 00:00:00 | |
| IW2NTF | 2026-09-03 12:45:04 | 44.82521 | 9.21381 | 338° | 5km/h | 23170m | 4.3m/s | -51.8°C | 3.9% | 0hPa | 2.6V | 08:30:00 | 02:09:48 | 00:00:00 | |
| DO3MHA-11 | 2026-09-03 12:45:02 | 44.82525 | 9.21380 | 28° | 5km/h | 23183m | 5.1m/s | -51.5°C | 3.9% | 0hPa | 2.6V | 00:00:00 | 02:09:51 | 00:00:00 | |
| DO3MHA-11 | 2026-09-03 12:44:52 | 44.82519 | 9.21390 | 226° | 5km/h | 23140m | 4.1m/s | -51.8°C | 3.9% | 0hPa | 2.6V | 00:00:00 | 02:09:41 | 08:30:00 | |
| DB0UT-7 | 2026-09-03 12:44:49 | 44.82518 | 9.21389 | 29° | 5km/h | 23126m | 3.8m/s | -51.8°C | 3.9% | 0hPa | 2.6V | 00:00:00 | 00:00:00 | 00:00:00 | |
| IW2NTF | 2026-09-03 12:44:48 | 44.82514 | 9.21388 | 8° | 7km/h | 23117m | 4.8m/s | -51.9°C | 3.8% | 0hPa | 2.6V | 08:30:00 | 02:09:36 | 00:00:00 | |
| DO3MHA-11 | 2026-09-03 12:44:42 | 44.82505 | 9.21388 | 6° | 4km/h | 23095m | 4.1m/s | -52.1°C | 4.0% | 0hPa | 2.6V | 00:00:00 | 02:09:31 | 00:00:00 | |
| DL2OL | 2026-09-03 12:44:40 | 44.82503 | 9.21388 | 359° | 5km/h | 23090m | 4.7m/s | 0°C | 0% | 0hPa | 2.6V | 00:00:00 | 00:00:00 | 00:00:00 | |
| DO3MHA-11 | 2026-09-03 12:44:32 | 44.82498 | 9.21382 | 19° | 5km/h | 23051m | 4.1m/s | -52.1°C | 3.9% | 0hPa | 2.6V | 00:00:00 | 02:09:21 | 00:00:00 | |
| NBG1-10 | 2026-09-03 12:44:23 | 44.82495 | 9.21387 | 247° | 5km/h | 23012m | 4.5m/s | -52.3°C | 4.0% | 0hPa | 2.6V | 00:00:00 | 02:09:12 | 00:00:00 | |
| DO3MHA-11 | 2026-09-03 12:44:12 | 44.82491 | 9.21391 | 220° | 7km/h | 22965m | 4.9m/s | -52.1°C | 3.9% | 0hPa | 2.6V | 00:00:00 | 02:09:01 | 00:00:00 | |
| DB0UT-7 | 2026-09-03 12:44:07 | 44.82501 | 9.21404 | 223° | 7km/h | 22942m | 4.1m/s | -52.1°C | 4.0% | 0hPa | 2.6V | 00:00:00 | 02:08:56 | 00:00:00 | |
| DO3MHA-11 | 2026-09-03 12:44:02 | 44.82503 | 9.21410 | 316° | 5km/h | 22922m | 3.8m/s | -52.1°C | 3.9% | 0hPa | 2.6V | 00:00:00 | 02:08:51 | 00:00:00 | |
| DL2OL | 2026-09-03 12:43:56 | 44.82503 | 9.21407 | 199° | 7km/h | 22900m | 5.1m/s | 0°C | 0% | 0hPa | 2.6V | 00:00:00 | 00:00:00 | 00:00:00 | |
| DO3MHA-11 | 2026-09-03 12:43:52 | 44.82519 | 9.21416 | 193° | 7km/h | 22878m | 4.0m/s | -52.4°C | 4.0% | 0hPa | 2.6V | 00:00:00 | 02:08:41 | 00:00:00 | |
| NBG1-10 | 2026-09-03 12:43:50 | 44.82525 | 9.21418 | 195° | 4km/h | 22870m | 4.8m/s | -52.4°C | 4.1% | 0hPa | 2.6V | 00:00:00 | 02:08:39 | 00:00:00 | |
| IW2NTF | 2026-09-03 12:43:48 | 44.82531 | 9.21420 | 90° | 5km/h | 22848m | 4.2m/s | -52.5°C | 4% | 0hPa | 2.6V | 08:30:00 | 02:08:34 | 00:00:00 | |
| DO3MHA-11 | 2026-09-03 12:43:42 | 44.82532 | 9.21416 | 191° | 4km/h | 22835m | 4.6m/s | -52.6°C | 4.0% | 0hPa | 2.6V | 00:00:00 | 02:08:31 | 00:00:00 | |
| IW2NTF | 2026-09-03 12:43:38 | 44.82544 | 9.21423 | 232° | 5km/h | 22800m | 4.5m/s | -52.6°C | 4% | 0hPa | 2.6V | 08:30:00 | 02:08:23 | 00:00:00 | |
| IW2NTF | 2026-09-03 12:43:29 | 44.82548 | 9.21425 | 194° | 4km/h | 22756m | 5m/s | -52.5°C | 4% | 0hPa | 2.7V | 08:30:00 | 02:08:13 | 00:00:00 | |
| DO3MHA-11 | 2026-09-03 12:43:25 | 44.82547 | 9.21424 | 205° | 4km/h | 22761m | 4.1m/s | -52.4°C | 4.0% | 0hPa | 2.7V | 00:00:00 | 02:08:14 | 00:00:00 | |
| DO3MHA-11 | 2026-09-03 12:43:15 | 44.82556 | 9.21423 | 130° | 9km/h | 22718m | 4.0m/s | -52.6°C | 4.0% | 0hPa | 2.7V | 00:00:00 | 02:08:04 | 08:30:00 | |
| NBG1-10 | 2026-09-03 12:43:13 | 44.82558 | 9.21422 | 183° | 11km/h | 22709m | 5.0m/s | -52.4°C | 3.9% | 0hPa | 2.6V | 00:00:00 | 02:08:02 | 08:30:00 | |
| IW2NTF | 2026-09-03 12:43:08 | 44.82578 | 9.21427 | 196° | 7km/h | 22673m | 4.3m/s | -52.5°C | 4.1% | 0hPa | 2.6V | 08:30:00 | 02:07:54 | 00:00:00 | |
| DB0UT-7 | 2026-09-03 12:43:07 | 44.82574 | 9.21426 | 188° | 11km/h | 22683m | 4.3m/s | -52.5°C | 4.0% | 0hPa | 2.6V | 00:00:00 | 02:07:56 | 00:00:00 | |
| DO3MHA-11 | 2026-09-03 12:43:05 | 44.82578 | 9.21427 | 197° | 13km/h | 22674m | 4.3m/s | -52.5°C | 4.1% | 0hPa | 2.6V | 00:00:00 | 02:07:54 | 00:00:00 | |
| IW2NTF | 2026-09-03 12:42:58 | 44.82606 | 9.21422 | 177° | 16km/h | 22630m | 4.6m/s | -52.5°C | 3.9% | 0hPa | 2.6V | 08:30:00 | 02:07:44 | 00:00:00 | |
| DO3MHA-11 | 2026-09-03 12:42:55 | 44.82606 | 9.21422 | 178° | 11km/h | 22630m | 4.5m/s | -52.4°C | 3.9% | 0hPa | 2.7V | 00:00:00 | 02:07:44 | 00:00:00 | |
| IW2NTF | 2026-09-03 12:42:46 | 44.82647 | 9.21429 | 185° | 11km/h | 22568m | 4.9m/s | -52.6°C | 3.9% | 0hPa | 2.7V | 08:30:00 | 02:07:30 | 00:00:00 | |
| DO3MHA-11 | 2026-09-03 12:42:44 | 44.82637 | 9.21425 | 198° | 11km/h | 22581m | 4.5m/s | -52.4°C | 3.9% | 0hPa | 2.6V | 00:00:00 | 02:07:33 | 00:00:00 | |
| NBG1-10 | 2026-09-03 12:42:40 | 44.82649 | 9.21428 | 168° | 7km/h | 22563m | 4.6m/s | -52.6°C | 3.9% | 0hPa | 2.6V | 00:00:00 | 02:07:29 | 00:00:00 | |
| DB0UT-7 | 2026-09-03 12:42:37 | 44.82655 | 9.21425 | 171° | 7km/h | 22551m | 4.6m/s | -52.6°C | 4.1% | 0hPa | 2.6V | 00:00:00 | 00:00:00 | 08:30:00 | |
| DO3MHA-11 | 2026-09-03 12:42:33 | 44.82660 | 9.21431 | 249° | 5km/h | 22532m | 5.1m/s | -52.8°C | 4.1% | 0hPa | 2.7V | 00:00:00 | 02:07:22 | 00:00:00 | |
| IW2NTF | 2026-09-03 12:42:26 | 44.82664 | 9.21442 | 159° | 4km/h | 22496m | 4.5m/s | -52.9°C | 4% | 0hPa | 2.7V | 08:30:00 | 02:07:14 | 00:00:00 | |
| DO3MHA-11 | 2026-09-03 12:42:23 | 44.82666 | 9.21441 | 168° | 7km/h | 22488m | 3.8m/s | -52.7°C | 4.0% | 0hPa | 2.7V | 00:00:00 | 02:07:12 | 00:00:00 | |
| IW2NTF | 2026-09-03 12:42:16 | 44.82676 | 9.21458 | 269° | 7km/h | 22453m | 4.6m/s | -52.9°C | 3.9% | 0hPa | 2.7V | 08:30:00 | 02:07:04 | 00:00:00 | |
| DO3MHA-11 | 2026-09-03 12:42:13 | 44.82675 | 9.21464 | 287° | 7km/h | 22444m | 4.3m/s | -52.8°C | 4.0% | 0hPa | 2.7V | 00:00:00 | 02:07:02 | 00:00:00 | |
| DB0UT-7 | 2026-09-03 12:42:07 | 44.82668 | 9.21476 | 318° | 11km/h | 22416m | 4.6m/s | -52.7°C | 4.2% | 0hPa | 2.7V | 00:00:00 | 02:06:56 | 00:00:00 | |
| IW2NTF | 2026-09-03 12:42:06 | 44.82664 | 9.21482 | 315° | 7km/h | 22402m | 5.3m/s | -53°C | 4.1% | 0hPa | 2.7V | 08:30:00 | 02:06:53 | 00:00:00 | |
| DO3MHA-11 | 2026-09-03 12:42:03 | 44.82662 | 9.21484 | 321° | 7km/h | 22398m | 4.3m/s | -52.9°C | 4.1% | 0hPa | 2.7V | 00:00:00 | 02:06:52 | 00:00:00 | |
| IW2NTF | 2026-09-03 12:41:56 | 44.82649 | 9.21525 | 302° | 9km/h | 22357m | 3.3m/s | -53°C | 4.1% | 0hPa | 2.7V | 08:30:00 | 02:06:43 | 00:00:00 | |
| IW2NTF | 2026-09-03 12:41:48 | 44.82640 | 9.21558 | 275° | 9km/h | 22308m | 4.9m/s | -52.8°C | 4% | 0hPa | 2.7V | 08:30:00 | 02:06:32 | 00:00:00 | |
| IW2NTF | 2026-09-03 12:41:38 | 44.82643 | 9.21582 | 267° | 7km/h | 22263m | 3.9m/s | -52.5°C | 4% | 0hPa | 2.7V | 08:30:00 | 02:06:22 | 00:00:00 | |
| DB0UT-7 | 2026-09-03 12:41:37 | 44.82641 | 9.21577 | 218° | 11km/h | 22281m | 4.4m/s | -52.6°C | 4.0% | 0hPa | 2.7V | 00:00:00 | 00:00:00 | 00:00:00 | |
| NBG1-10 | 2026-09-03 12:41:34 | 44.82642 | 9.21580 | 260° | 11km/h | 22267m | 4.3m/s | -52.5°C | 4.0% | 0hPa | 2.7V | 00:00:00 | 02:06:23 | 00:00:00 | |
| DL2OL | 2026-09-03 12:41:32 | 44.82643 | 9.21582 | 269° | 7km/h | 22263m | 3.9m/s | 0°C | 0% | 0hPa | 2.7V | 00:00:00 | 00:00:00 | 00:00:00 | |
| IW2NTF | 2026-09-03 12:41:28 | 44.82657 | 9.21592 | 184° | 15km/h | 22214m | 4.5m/s | -52.6°C | 3.9% | 0hPa | 2.7V | 08:30:00 | 02:06:12 | 00:00:00 | |
| DO3MHA-11 | 2026-09-03 12:41:24 | 44.82653 | 9.21591 | 193° | 9km/h | 22219m | 5.3m/s | -52.5°C | 3.9% | 0hPa | 2.7V | 00:00:00 | 02:06:13 | 00:00:00 | |
| IW2NTF | 2026-09-03 12:41:18 | 44.82682 | 9.21600 | 186° | 16km/h | 22169m | 4.6m/s | -53°C | 4.1% | 0hPa | 2.7V | 08:30:00 | 02:06:02 | 00:00:00 | |
| DO3MHA-11 | 2026-09-03 12:41:14 | 44.82679 | 9.21600 | 181° | 18km/h | 22174m | 4.0m/s | -52.9°C | 4.1% | 0hPa | 2.7V | 00:00:00 | 02:06:03 | 08:30:00 | |
| IW2NTF | 2026-09-03 12:41:07 | 44.82725 | 9.21606 | 160° | 11km/h | 22123m | 3.8m/s | -52.9°C | 4.1% | 0hPa | 2.7V | 08:30:00 | 02:05:52 | 00:00:00 | |
| DB0UT-7 | 2026-09-03 12:41:07 | 44.82712 | 9.21611 | 176° | 15km/h | 22142m | 4.2m/s | -52.9°C | 4.2% | 0hPa | 2.6V | 00:00:00 | 02:05:56 | 00:00:00 | |
| DO3MHA-11 | 2026-09-03 12:41:04 | 44.82722 | 9.21607 | 161° | 15km/h | 22128m | 4.4m/s | -52.8°C | 4.1% | 0hPa | 2.7V | 00:00:00 | 02:05:53 | 00:00:00 | |
| NBG1-10 | 2026-09-03 12:41:01 | 44.82731 | 9.21602 | 157° | 15km/h | 22115m | 5.2m/s | -52.9°C | 4.1% | 0hPa | 2.7V | 00:00:00 | 02:05:50 | 00:00:00 | |
| IW2NTF | 2026-09-03 12:40:58 | 44.82761 | 9.21600 | 157° | 13km/h | 22078m | 4.7m/s | -52.8°C | 4.1% | 0hPa | 2.7V | 08:30:00 | 02:05:42 | 00:00:00 | |
| DO3MHA-11 | 2026-09-03 12:40:54 | 44.82758 | 9.21601 | 176° | 15km/h | 22083m | 5.0m/s | -52.9°C | 4.1% | 0hPa | 2.7V | 00:00:00 | 02:05:43 | 00:00:00 | |
| IW2NTF | 2026-09-03 12:40:47 | 44.82793 | 9.21569 | 163° | 16km/h | 22032m | 4.7m/s | -52.9°C | 4.1% | 0hPa | 2.7V | 08:30:00 | 02:05:32 | 00:00:00 | |
| DO3MHA-11 | 2026-09-03 12:40:44 | 44.82789 | 9.21571 | 158° | 15km/h | 22038m | 5.1m/s | -52.8°C | 4.1% | 0hPa | 2.7V | 00:00:00 | 02:05:33 | 00:00:00 | |
| DB0UT-7 | 2026-09-03 12:40:37 | 44.82813 | 9.21553 | 130° | 13km/h | 22006m | 4.9m/s | -52.8°C | 4.0% | 0hPa | 2.7V | 00:00:00 | 00:00:00 | 00:00:00 | |
| IW2NTF | 2026-09-03 12:40:36 | 44.82819 | 9.21537 | 112° | 15km/h | 21987m | 5.2m/s | -52.8°C | 4% | 0hPa | 2.7V | 08:30:00 | 02:05:22 | 00:00:00 | |
| DO3MHA-11 | 2026-09-03 12:40:34 | 44.82817 | 9.21541 | 113° | 11km/h | 21993m | 4.0m/s | -52.8°C | 4.0% | 0hPa | 2.7V | 00:00:00 | 02:05:23 | 00:00:00 | |
| NBG1-10 | 2026-09-03 12:40:28 | 44.82828 | 9.21521 | 167° | 11km/h | 21965m | 4.0m/s | -52.9°C | 4.0% | 0hPa | 2.7V | 00:00:00 | 02:05:17 | 00:00:00 | |
| IW2NTF | 2026-09-03 12:40:26 | 44.82840 | 9.21509 | 127° | 15km/h | 21943m | 3.8m/s | -53°C | 4.1% | 0hPa | 2.7V | 08:30:00 | 02:05:12 | 00:00:00 | |
| DO3MHA-11 | 2026-09-03 12:40:24 | 44.82837 | 9.21513 | 133° | 15km/h | 21947m | 3.8m/s | -52.9°C | 4.0% | 0hPa | 2.7V | 00:00:00 | 02:05:13 | 00:00:00 | |
| IW2NTF | 2026-09-03 12:40:16 | 44.82848 | 9.21465 | 84° | 11km/h | 21898m | 4.3m/s | -53.3°C | 4.1% | 0hPa | 2.7V | 08:30:00 | 02:05:02 | 00:00:00 | |
| DO3MHA-11 | 2026-09-03 12:40:14 | 44.82848 | 9.21469 | 86° | 13km/h | 21903m | 5.2m/s | -53.2°C | 4.1% | 0hPa | 2.7V | 00:00:00 | 02:05:03 | 00:00:00 | |
| IW2NTF | 2026-09-03 12:40:09 | 44.82855 | 9.21425 | 101° | 13km/h | 21854m | 5.1m/s | -53.3°C | 4.1% | 0hPa | 2.7V | 08:30:00 | 02:04:52 | 00:00:00 | |
| DB0UT-7 | 2026-09-03 12:40:07 | 44.82851 | 9.21438 | 114° | 11km/h | 21872m | 5.1m/s | -53.3°C | 4.1% | 0hPa | 2.6V | 00:00:00 | 02:04:56 | 00:00:00 | |
| DO3MHA-11 | 2026-09-03 12:40:02 | 44.82855 | 9.21420 | 93° | 7km/h | 21849m | 4.4m/s | -53.2°C | 4.1% | 0hPa | 2.6V | 00:00:00 | 02:04:51 | 00:00:00 | |
| IW2NTF | 2026-09-03 12:39:56 | 44.82848 | 9.21398 | 9° | 4km/h | 21796m | 4m/s | -53.8°C | 4.2% | 0hPa | 2.6V | 08:30:00 | 02:04:39 | 00:00:00 | |
| NBG1-10 | 2026-09-03 12:39:55 | 44.82853 | 9.21402 | 44° | 9km/h | 21818m | 4.8m/s | -53.3°C | 4.0% | 0hPa | 2.6V | 00:00:00 | 02:04:44 | 00:00:00 | |
| DO3MHA-11 | 2026-09-03 12:39:52 | 44.82850 | 9.21399 | 26° | 7km/h | 21805m | 4.5m/s | -53.6°C | 4.1% | 0hPa | 2.6V | 00:00:00 | 02:04:41 | 00:00:00 | |
| DO3MHA-11 | 2026-09-03 12:39:42 | 44.82840 | 9.21377 | 53° | 11km/h | 21760m | 4.5m/s | -53.9°C | 4.3% | 0hPa | 2.6V | 00:00:00 | 02:04:31 | 08:30:00 | |
| IW2NTF | 2026-09-03 12:39:41 | 44.82835 | 9.21368 | 50° | 11km/h | 21747m | 4m/s | -53.9°C | 4.3% | 0hPa | 2.7V | 08:30:00 | 02:04:28 | 00:00:00 | |
| DO3MHA-11 | 2026-09-03 12:39:32 | 44.82823 | 9.21349 | 67° | 11km/h | 21717m | 4.1m/s | -53.7°C | 4.2% | 0hPa | 2.6V | 00:00:00 | 02:04:21 | 00:00:00 | |
| IW2NTF | 2026-09-03 12:39:31 | 44.82814 | 9.21337 | 49° | 11km/h | 21695m | 5m/s | -53.8°C | 4.3% | 0hPa | 2.6V | 08:30:00 | 02:04:16 | 00:00:00 | |
| DO3MHA-11 | 2026-09-03 12:39:22 | 44.82810 | 9.21320 | 85° | 9km/h | 21673m | 3.8m/s | -53.7°C | 4.4% | 0hPa | 2.6V | 00:00:00 | 02:04:11 | 00:00:00 | |
| IW2NTF | 2026-09-03 12:39:20 | 44.82808 | 9.21300 | 53° | 9km/h | 21641m | 4.5m/s | -53.6°C | 4.3% | 0hPa | 2.6V | 08:30:00 | 02:04:04 | 00:00:00 | |
| DO3MHA-11 | 2026-09-03 12:39:12 | 44.82805 | 9.21290 | 79° | 9km/h | 21627m | 4.3m/s | -53.5°C | 4.2% | 0hPa | 2.6V | 00:00:00 | 02:04:01 | 00:00:00 | |
| IW2NTF | 2026-09-03 12:39:10 | 44.82809 | 9.21263 | 107° | 7km/h | 21596m | 3.5m/s | -53.2°C | 4.1% | 0hPa | 2.6V | 08:30:00 | 02:03:54 | 00:00:00 | |
| DB0UT-7 | 2026-09-03 12:39:03 | 44.82808 | 9.21260 | 352° | 7km/h | 21583m | 4.7m/s | -53.1°C | 4.1% | 0hPa | 2.6V | 00:00:00 | 00:00:00 | 00:00:00 | |
| IW2NTF | 2026-09-03 12:39:00 | 44.82796 | 9.21249 | 82° | 5km/h | 21553m | 4.2m/s | -53.1°C | 4% | 0hPa | 2.6V | 08:30:00 | 02:03:44 | 00:00:00 | |
| DO3MHA-11 | 2026-09-03 12:38:52 | 44.82797 | 9.21241 | 97° | 11km/h | 21540m | 4.9m/s | -53.1°C | 4.1% | 0hPa | 2.6V | 00:00:00 | 02:03:41 | 00:00:00 | |
| IW2NTF | 2026-09-03 12:38:50 | 44.82790 | 9.21230 | 26° | 7km/h | 21509m | 4.4m/s | -53.3°C | 4.1% | 0hPa | 2.6V | 08:30:00 | 02:03:34 | 00:00:00 | |
| NBG1-10 | 2026-09-03 12:38:49 | 44.82796 | 9.21232 | 55° | 5km/h | 21527m | 4.9m/s | -53.1°C | 4.1% | 0hPa | 2.6V | 00:00:00 | 02:03:38 | 00:00:00 | |
| IW2NTF | 2026-09-03 12:38:40 | 44.82785 | 9.21208 | 91° | 5km/h | 21468m | 4.7m/s | -53.5°C | 4.2% | 0hPa | 2.6V | 08:30:00 | 02:03:24 | 00:00:00 | |
| DB0UT-7 | 2026-09-03 12:38:32 | 44.82785 | 9.21206 | 8° | 5km/h | 21456m | 4.5m/s | -53.5°C | 4.2% | 0hPa | 2.6V | 00:00:00 | 02:03:21 | 00:00:00 | |
| IW2NTF | 2026-09-03 12:38:30 | 44.82780 | 9.21205 | 120° | 4km/h | 21427m | 4.8m/s | -53.5°C | 4.2% | 0hPa | 2.6V | 08:30:00 | 02:03:14 | 00:00:00 | |
| NBG1-10 | 2026-09-03 12:38:16 | 44.82781 | 9.21185 | 37° | 4km/h | 21389m | 3.5m/s | -53.3°C | 4.2% | 0hPa | 2.6V | 00:00:00 | 02:03:05 | 08:30:00 | |
| IW2NTF | 2026-09-03 12:38:15 | 44.82776 | 9.21184 | 328° | 4km/h | 21377m | 3.7m/s | -53.3°C | 4.1% | 0hPa | 2.7V | 08:30:00 | 02:03:02 | 00:00:00 | |
| IW2NTF | 2026-09-03 12:38:03 | 44.82771 | 9.21185 | 354° | 5km/h | 21331m | 4.7m/s | -53.2°C | 4.1% | 0hPa | 2.6V | 08:30:00 | 02:02:51 | 00:00:00 | |
| DB0UT-7 | 2026-09-03 12:38:02 | 44.82771 | 9.21185 | 355° | 5km/h | 21331m | 4.6m/s | -53.2°C | 4.1% | 0hPa | 2.6V | 00:00:00 | 00:00:00 | 00:00:00 | |
| IW2NTF | 2026-09-03 12:37:53 | 44.82767 | 9.21171 | 329° | 2km/h | 21287m | 4.5m/s | -53.3°C | 4% | 0hPa | 2.6V | 08:30:00 | 02:02:41 | 00:00:00 | |
| NBG1-10 | 2026-09-03 12:37:43 | 44.82760 | 9.21176 | 131° | 16km/h | 21251m | 3.9m/s | -53.4°C | 4.2% | 0hPa | 2.6V | 00:00:00 | 02:02:32 | 00:00:00 | |
| IW2NTF | 2026-09-03 12:37:40 | 44.82759 | 9.21168 | 105° | 5km/h | 21224m | 3.6m/s | -53.4°C | 4.1% | 0hPa | 2.6V | 08:30:00 | 02:02:26 | 00:00:00 | |
| DB0UT-7 | 2026-09-03 12:37:32 | 44.82762 | 9.21153 | 115° | 13km/h | 21203m | 4.5m/s | -53.1°C | 4.0% | 0hPa | 2.6V | 00:00:00 | 02:02:21 | 08:30:00 | |
| IW2NTF | 2026-09-03 12:37:29 | 44.82776 | 9.21125 | 127° | 9km/h | 21163m | 4.4m/s | -53.2°C | 4.1% | 0hPa | 2.7V | 08:30:00 | 02:02:12 | 00:00:00 | |
| DO3MHA-11 | 2026-09-03 12:37:23 | 44.82776 | 9.21125 | 128° | 11km/h | 21164m | 4.4m/s | -53.1°C | 4.1% | 0hPa | 2.7V | 00:00:00 | 02:02:12 | 00:00:00 | |
| IW2NTF | 2026-09-03 12:37:17 | 44.82796 | 9.21092 | 155° | 20km/h | 21115m | 4.5m/s | -53.1°C | 4% | 0hPa | 2.6V | 08:30:00 | 02:02:01 | 00:00:00 | |
| DO3MHA-11 | 2026-09-03 12:37:08 | 44.82812 | 9.21079 | 142° | 20km/h | 21097m | 3.7m/s | -53.0°C | 4.1% | 0hPa | 2.6V | 00:00:00 | 02:01:57 | 00:00:00 | |
| IW2NTF | 2026-09-03 12:37:03 | 44.82818 | 9.21043 | 83° | 15km/h | 21071m | 4.8m/s | -53.1°C | 3.9% | 0hPa | 2.6V | 08:30:00 | 02:01:51 | 00:00:00 | |
| DB0UT-7 | 2026-09-03 12:37:02 | 44.82818 | 9.21043 | 84° | 18km/h | 21071m | 4.7m/s | -53.0°C | 3.9% | 0hPa | 2.7V | 00:00:00 | 00:00:00 | 00:00:00 | |
| DO3MHA-11 | 2026-09-03 12:36:53 | 44.82838 | 9.21000 | 130° | 16km/h | 21031m | 3.8m/s | -53.2°C | 4.1% | 0hPa | 2.7V | 00:00:00 | 02:01:42 | 00:00:00 | |
| DO3MHA-11 | 2026-09-03 12:36:43 | 44.82851 | 9.20939 | 121° | 18km/h | 20988m | 4.4m/s | -53.5°C | 4.0% | 0hPa | 2.7V | 00:00:00 | 02:01:32 | 08:30:00 | |
| NBG1-10 | 2026-09-03 12:36:41 | 44.82856 | 9.20927 | 127° | 16km/h | 20979m | 4.0m/s | -53.6°C | 3.9% | 0hPa | 2.6V | 00:00:00 | 02:01:30 | 00:00:00 | |
| DO3MHA-11 | 2026-09-03 12:36:33 | 44.82877 | 9.20886 | 113° | 16km/h | 20944m | 4.6m/s | -54.1°C | 4.1% | 0hPa | 2.6V | 00:00:00 | 02:01:22 | 00:00:00 | |
| DB0UT-7 | 2026-09-03 12:36:32 | 44.82878 | 9.20882 | 118° | 15km/h | 20939m | 4.9m/s | -54.3°C | 4.2% | 0hPa | 2.6V | 00:00:00 | 02:01:21 | 00:00:00 | |
| DO3MHA-11 | 2026-09-03 12:36:23 | 44.82901 | 9.20837 | 122° | 16km/h | 20900m | 4.4m/s | -54.9°C | 4.4% | 0hPa | 2.6V | 00:00:00 | 02:01:12 | 00:00:00 | |
| DO3MHA-11 | 2026-09-03 12:36:13 | 44.82912 | 9.20786 | 92° | 9km/h | 20856m | 4.1m/s | -54.8°C | 4.4% | 0hPa | 2.6V | 00:00:00 | 02:01:02 | 00:00:00 | |
| NBG1-10 | 2026-09-03 12:36:08 | 44.82915 | 9.20768 | 116° | 5km/h | 20834m | 3.8m/s | -54.8°C | 4.4% | 0hPa | 2.6V | 00:00:00 | 02:00:57 | 00:00:00 | |
| IW2NTF | 2026-09-03 12:36:03 | 44.82912 | 9.20759 | 114° | 4km/h | 20808m | 4.8m/s | -54.9°C | 4.4% | 0hPa | 2.6V | 08:30:00 | 02:00:51 | 00:00:00 | |
| DO3MHA-11 | 2026-09-03 12:36:03 | 44.82912 | 9.20760 | 79° | 2km/h | 20813m | 4.7m/s | -54.8°C | 4.4% | 0hPa | 2.6V | 00:00:00 | 02:00:52 | 00:00:00 | |
| DB0UT-7 | 2026-09-03 12:36:02 | 44.82912 | 9.20759 | 115° | 5km/h | 20808m | 4.7m/s | -54.8°C | 4.4% | 0hPa | 2.6V | 00:00:00 | 00:00:00 | 00:00:00 | |
| IW2NTF | 2026-09-03 12:35:57 | 44.82912 | 9.20766 | 318° | 2km/h | 20765m | 4.7m/s | -55.2°C | 4.5% | 0hPa | 2.6V | 08:30:00 | 02:00:41 | 00:00:00 | |
| DO3MHA-11 | 2026-09-03 12:35:53 | 44.82913 | 9.20765 | 284° | 4km/h | 20770m | 4.3m/s | -55.1°C | 4.5% | 0hPa | 2.7V | 00:00:00 | 02:00:42 | 00:00:00 | |
| IW2NTF | 2026-09-03 12:35:45 | 44.82921 | 9.20771 | 239° | 9km/h | 20722m | 4.9m/s | -55.1°C | 4.5% | 0hPa | 2.7V | 08:30:00 | 02:00:31 | 00:00:00 | |
| DO3MHA-11 | 2026-09-03 12:35:43 | 44.82920 | 9.20768 | 237° | 7km/h | 20727m | 4.1m/s | -55.1°C | 4.5% | 0hPa | 2.7V | 00:00:00 | 02:00:32 | 00:00:00 | |
| NBG1-10 | 2026-09-03 12:35:35 | 44.82927 | 9.20786 | 210° | 4km/h | 20694m | 4.6m/s | -54.8°C | 4.6% | 0hPa | 2.7V | 00:00:00 | 02:00:24 | 00:00:00 | |
| IW2NTF | 2026-09-03 12:35:33 | 44.82930 | 9.20787 | 202° | 4km/h | 20682m | 4.5m/s | -54.9°C | 4.5% | 0hPa | 2.7V | 08:30:00 | 02:00:21 | 00:00:00 | |
| DB0UT-7 | 2026-09-03 12:35:32 | 44.82930 | 9.20787 | 203° | 4km/h | 20682m | 4.5m/s | -54.8°C | 4.5% | 0hPa | 2.7V | 00:00:00 | 02:00:21 | 00:00:00 | |
| IW2NTF | 2026-09-03 12:35:27 | 44.82938 | 9.20791 | 309° | 4km/h | 20640m | 4.3m/s | -54.9°C | 4.4% | 0hPa | 2.7V | 08:30:00 | 02:00:11 | 00:00:00 | |
| DO3MHA-11 | 2026-09-03 12:35:23 | 44.82939 | 9.20790 | 313° | 5km/h | 20644m | 3.5m/s | -54.8°C | 4.4% | 0hPa | 2.6V | 00:00:00 | 02:00:12 | 00:00:00 | |
| IW2NTF | 2026-09-03 12:35:14 | 44.82940 | 9.20807 | 218° | 7km/h | 20599m | 4.3m/s | -54.5°C | 4.4% | 0hPa | 2.6V | 08:30:00 | 02:00:01 | 00:00:00 | |
| DO3MHA-11 | 2026-09-03 12:35:13 | 44.82938 | 9.20806 | 217° | 4km/h | 20603m | 3.4m/s | -54.5°C | 4.5% | 0hPa | 2.6V | 00:00:00 | 02:00:02 | 08:30:00 | |
| IW2NTF | 2026-09-03 12:35:04 | 44.82937 | 9.20813 | 305° | 7km/h | 20559m | 3.9m/s | -54.4°C | 4.3% | 0hPa | 2.6V | 08:30:00 | 01:59:51 | 00:00:00 | |
| DO3MHA-11 | 2026-09-03 12:35:03 | 44.82938 | 9.20811 | 318° | 7km/h | 20563m | 4.4m/s | -54.4°C | 4.3% | 0hPa | 2.6V | 00:00:00 | 01:59:52 | 00:00:00 | |
| NBG1-10 | 2026-09-03 12:35:02 | 44.82937 | 9.20813 | 306° | 15km/h | 20559m | 3.9m/s | -54.3°C | 4.3% | 0hPa | 2.6V | 00:00:00 | 01:59:51 | 00:00:00 | |
| DB0UT-7 | 2026-09-03 12:35:00 | 44.82936 | 9.20818 | 263° | 13km/h | 20551m | 4.0m/s | -54.3°C | 4.3% | 0hPa | 2.6V | 00:00:00 | 00:00:00 | 00:00:00 | |
| IW2NTF | 2026-09-03 12:34:53 | 44.82944 | 9.20826 | 25° | 2km/h | 20519m | 4m/s | -54.2°C | 4.3% | 0hPa | 2.6V | 08:30:00 | 01:59:41 | 00:00:00 | |
| DO3MHA-11 | 2026-09-03 12:34:53 | 44.82945 | 9.20827 | 20° | 5km/h | 20523m | 3.4m/s | -54.1°C | 4.3% | 0hPa | 2.7V | 00:00:00 | 01:59:42 | 00:00:00 | |
| IW2NTF | 2026-09-03 12:34:47 | 44.82955 | 9.20838 | 187° | 9km/h | 20478m | 3.4m/s | -53.9°C | 4.2% | 0hPa | 2.7V | 08:30:00 | 01:59:31 | 00:00:00 | |
| DO3MHA-11 | 2026-09-03 12:34:43 | 44.82952 | 9.20838 | 195° | 5km/h | 20482m | 3.8m/s | -53.9°C | 4.2% | 0hPa | 2.6V | 00:00:00 | 01:59:32 | 00:00:00 | |
| IW2NTF | 2026-09-03 12:34:33 | 44.82962 | 9.20828 | 209° | 4km/h | 20437m | 3.3m/s | -53.9°C | 4.2% | 0hPa | 2.7V | 08:30:00 | 01:59:21 | 00:00:00 | |
| DO3MHA-11 | 2026-09-03 12:34:33 | 44.82961 | 9.20828 | 210° | 5km/h | 20441m | 3.8m/s | -53.8°C | 4.1% | 0hPa | 2.7V | 00:00:00 | 01:59:22 | 00:00:00 | |
| IW2NTF | 2026-09-03 12:34:27 | 44.82974 | 9.20825 | 109° | 5km/h | 20397m | 4.4m/s | -54°C | 4.1% | 0hPa | 2.7V | 08:30:00 | 01:59:11 | 00:00:00 | |
| DO3MHA-11 | 2026-09-03 12:34:23 | 44.82973 | 9.20827 | 77° | 11km/h | 20402m | 4.5m/s | -54.0°C | 4.2% | 0hPa | 2.6V | 00:00:00 | 01:59:12 | 00:00:00 | |
| DO3MHA-11 | 2026-09-03 12:34:13 | 44.82995 | 9.20804 | 148° | 11km/h | 20361m | 4.4m/s | -54.0°C | 4.2% | 0hPa | 2.6V | 00:00:00 | 01:59:02 | 00:00:00 | |
| IW2NTF | 2026-09-03 12:34:11 | 44.83002 | 9.20796 | 129° | 9km/h | 20349m | 4.1m/s | -54.2°C | 4.3% | 0hPa | 2.7V | 08:30:00 | 01:58:59 | 00:00:00 | |
| IW2NTF | 2026-09-03 12:34:05 | 44.83020 | 9.20767 | 121° | 18km/h | 20309m | 3.5m/s | -54.1°C | 4.2% | 0hPa | 2.7V | 08:30:00 | 01:58:49 | 00:00:00 | |
| DO3MHA-11 | 2026-09-03 12:34:03 | 44.83014 | 9.20779 | 126° | 15km/h | 20321m | 3.6m/s | -54.1°C | 4.2% | 0hPa | 2.6V | 00:00:00 | 01:58:52 | 00:00:00 | |
| DB0UT-7 | 2026-09-03 12:33:55 | 44.83028 | 9.20742 | 123° | 15km/h | 20288m | 4.2m/s | -54.0°C | 4.1% | 0hPa | 2.6V | 00:00:00 | 01:58:44 | 00:00:00 | |
| DO3MHA-11 | 2026-09-03 12:33:53 | 44.83032 | 9.20735 | 132° | 11km/h | 20281m | 3.6m/s | -54.1°C | 4.1% | 0hPa | 2.6V | 00:00:00 | 01:58:42 | 00:00:00 | |
| IW2NTF | 2026-09-03 12:33:51 | 44.83036 | 9.20729 | 124° | 5km/h | 20269m | 3m/s | -54.3°C | 4.2% | 0hPa | 2.6V | 08:30:00 | 01:58:39 | 00:00:00 | |
| IW2NTF | 2026-09-03 12:33:45 | 44.83048 | 9.20682 | 94° | 20km/h | 20229m | 4.4m/s | -54.9°C | 4.4% | 0hPa | 2.7V | 08:30:00 | 01:58:29 | 00:00:00 | |
| DO3MHA-11 | 2026-09-03 12:33:43 | 44.83048 | 9.20700 | 97° | 16km/h | 20241m | 3.6m/s | -54.7°C | 4.4% | 0hPa | 2.6V | 00:00:00 | 01:58:32 | 08:30:00 | |
| IW2NTF | 2026-09-03 12:33:33 | 44.83059 | 9.20626 | 106° | 13km/h | 20188m | 4.1m/s | -54.9°C | 4.4% | 0hPa | 2.7V | 08:30:00 | 01:58:19 | 00:00:00 | |
| DO3MHA-11 | 2026-09-03 12:33:33 | 44.83055 | 9.20641 | 116° | 16km/h | 20201m | 4.1m/s | -54.9°C | 4.3% | 0hPa | 2.6V | 00:00:00 | 01:58:22 | 00:00:00 | |
| DB0UT-7 | 2026-09-03 12:33:25 | 44.83065 | 9.20598 | 110° | 24km/h | 20169m | 4.1m/s | -54.8°C | 4.4% | 0hPa | 2.6V | 00:00:00 | 00:00:00 | 00:00:00 | |
| IW2NTF | 2026-09-03 12:33:23 | 44.83074 | 9.20570 | 120° | 20km/h | 20148m | 4.1m/s | -55°C | 4.3% | 0hPa | 2.6V | 08:30:00 | 01:58:09 | 00:00:00 | |
| DO3MHA-11 | 2026-09-03 12:33:23 | 44.83068 | 9.20586 | 108° | 16km/h | 20160m | 3.2m/s | -54.7°C | 4.3% | 0hPa | 2.6V | 00:00:00 | 01:58:12 | 00:00:00 | |
| IW2NTF | 2026-09-03 12:33:13 | 44.83093 | 9.20529 | 127° | 13km/h | 20109m | 4.5m/s | -55.1°C | 4.4% | 0hPa | 2.6V | 08:30:00 | 01:57:59 | 00:00:00 | |
| DO3MHA-11 | 2026-09-03 12:33:13 | 44.83087 | 9.20538 | 134° | 15km/h | 20120m | 4.4m/s | -54.9°C | 4.4% | 0hPa | 2.6V | 00:00:00 | 01:58:02 | 00:00:00 | |
| IW2NTF | 2026-09-03 12:33:03 | 44.83110 | 9.20483 | 151° | 11km/h | 20069m | 4.8m/s | -55.6°C | 4.5% | 0hPa | 2.6V | 08:30:00 | 01:57:49 | 00:00:00 | |
| DO3MHA-11 | 2026-09-03 12:33:03 | 44.83106 | 9.20492 | 111° | 13km/h | 20081m | 4.1m/s | -55.6°C | 4.5% | 0hPa | 2.7V | 00:00:00 | 01:57:52 | 00:00:00 | |
| IW2NTF | 2026-09-03 12:32:53 | 44.83139 | 9.20436 | 118° | 24km/h | 20029m | 4.4m/s | -55.5°C | 4.5% | 0hPa | 2.7V | 08:30:00 | 01:57:39 | 00:00:00 | |
| DO3MHA-11 | 2026-09-03 12:32:53 | 44.83129 | 9.20459 | 123° | 22km/h | 20041m | 4.8m/s | -55.6°C | 4.5% | 0hPa | 2.6V | 00:00:00 | 01:57:42 | 00:00:00 | |
| NBG1-10 | 2026-09-03 12:32:47 | 44.83146 | 9.20419 | 123° | 27km/h | 20017m | 4.1m/s | -55.7°C | 4.4% | 0hPa | 2.6V | 00:00:00 | 01:57:36 | 00:00:00 | |
| DO3MHA-11 | 2026-09-03 12:32:43 | 44.83158 | 9.20397 | 122° | 26km/h | 20001m | 4.4m/s | -55.9°C | 4.5% | 0hPa | 2.6V | 00:00:00 | 01:57:32 | 00:00:00 | |
| IW2NTF | 2026-09-03 12:32:41 | 44.83167 | 9.20376 | 126° | 24km/h | 19988m | 4.3m/s | -56.1°C | 4.4% | 0hPa | 2.7V | 08:30:00 | 01:57:29 | 00:00:00 | |
| IW2NTF | 2026-09-03 12:32:33 | 44.83204 | 9.20283 | 114° | 37km/h | 19948m | 3.3m/s | -56.3°C | 4.7% | 0hPa | 2.7V | 08:30:00 | 01:57:19 | 00:00:00 | |
| DO3MHA-11 | 2026-09-03 12:32:33 | 44.83194 | 9.20319 | 110° | 33km/h | 19960m | 3.7m/s | -56.3°C | 4.7% | 0hPa | 2.7V | 00:00:00 | 01:57:22 | 00:00:00 | |
| DO3MHA-11 | 2026-09-03 12:32:23 | 44.83226 | 9.20211 | 119° | 29km/h | 19921m | 3.1m/s | -56.5°C | 4.6% | 0hPa | 2.7V | 00:00:00 | 01:57:12 | 00:00:00 | |
| IW2NTF | 2026-09-03 12:32:21 | 44.83235 | 9.20181 | 107° | 31km/h | 19910m | 3.5m/s | -56.6°C | 4.5% | 0hPa | 2.7V | 08:30:00 | 01:57:09 | 00:00:00 | |
| DB0UT-7 | 2026-09-03 12:32:19 | 44.83237 | 9.20170 | 107° | 16km/h | 19906m | 4.4m/s | -56.6°C | 4.5% | 0hPa | 2.6V | 00:00:00 | 01:57:08 | 00:00:00 | |
| IW2NTF | 2026-09-03 12:32:13 | 44.83247 | 9.20088 | 103° | 24km/h | 19870m | 3.6m/s | -57.4°C | 5.1% | 0hPa | 2.6V | 08:30:00 | 01:56:59 | 00:00:00 | |
| DO3MHA-11 | 2026-09-03 12:32:13 | 44.83244 | 9.20112 | 93° | 27km/h | 19881m | 3.8m/s | -57.2°C | 4.9% | 0hPa | 2.7V | 00:00:00 | 01:57:02 | 08:30:00 | |
| DO3MHA-11 | 2026-09-03 12:32:03 | 44.83256 | 9.20018 | 95° | 26km/h | 19842m | 4.5m/s | -57.5°C | 4.9% | 0hPa | 2.6V | 00:00:00 | 01:56:52 | 00:00:00 | |
| IW2NTF | 2026-09-03 12:32:01 | 44.83257 | 9.19984 | 90° | 27km/h | 19831m | 4.2m/s | -57.3°C | 5% | 0hPa | 2.6V | 08:30:00 | 01:56:49 | 00:00:00 | |
| IW2NTF | 2026-09-03 12:31:53 | 44.83258 | 9.19907 | 94° | 22km/h | 19792m | 3.4m/s | -57.1°C | 5.1% | 0hPa | 2.6V | 08:30:00 | 01:56:39 | 00:00:00 | |
| DO3MHA-11 | 2026-09-03 12:31:53 | 44.83257 | 9.19931 | 86° | 22km/h | 19804m | 3.5m/s | -57.2°C | 5.1% | 0hPa | 2.7V | 00:00:00 | 01:56:42 | 00:00:00 | |
| DO3MHA-11 | 2026-09-03 12:31:43 | 44.83257 | 9.19853 | 88° | 18km/h | 19764m | 3.7m/s | -56.8°C | 4.8% | 0hPa | 2.7V | 00:00:00 | 01:56:32 | 00:00:00 | |
| IW2NTF | 2026-09-03 12:31:42 | 44.83255 | 9.19832 | 79° | 20km/h | 19752m | 3.9m/s | -56.9°C | 4.8% | 0hPa | 2.6V | 08:30:00 | 01:56:29 | 00:00:00 | |
| NBG1-10 | 2026-09-03 12:31:41 | 44.83256 | 9.19839 | 80° | 15km/h | 19756m | 4.0m/s | 0°C | 0% | 0hPa | 2.6V | 00:00:00 | 01:56:30 | 00:00:00 | |
| IW2NTF | 2026-09-03 12:31:31 | 44.83254 | 9.19760 | 85° | 18km/h | 19700m | 4m/s | -56.6°C | 4.8% | 0hPa | 2.6V | 08:30:00 | 01:56:17 | 00:00:00 | |
| IW2NTF | 2026-09-03 12:31:21 | 44.83253 | 9.19706 | 103° | 9km/h | 19658m | 3.6m/s | -56.3°C | 4.7% | 0hPa | 2.7V | 08:30:00 | 01:56:07 | 00:00:00 | |
| IW2NTF | 2026-09-03 12:31:11 | 44.83260 | 9.19664 | 105° | 13km/h | 19614m | 3.4m/s | -55.9°C | 4.6% | 0hPa | 2.7V | 08:30:00 | 01:55:57 | 00:00:00 | |
| NBG1-10 | 2026-09-03 12:31:08 | 44.83260 | 9.19664 | 106° | 9km/h | 19615m | 3.4m/s | 0°C | 0% | 0hPa | 2.7V | 00:00:00 | 01:55:57 | 00:00:00 | |
| IW2NTF | 2026-09-03 12:31:01 | 44.83276 | 9.19621 | 113° | 16km/h | 19570m | 3.2m/s | -56°C | 4.5% | 0hPa | 2.7V | 08:30:00 | 01:55:46 | 00:00:00 | |
| IW2NTF | 2026-09-03 12:30:51 | 44.83295 | 9.19594 | 139° | 11km/h | 19529m | 3.3m/s | -56.3°C | 4.6% | 0hPa | 2.7V | 08:30:00 | 01:55:36 | 00:00:00 | |
| IW2NTF | 2026-09-03 12:30:41 | 44.83328 | 9.19580 | 181° | 18km/h | 19487m | 3.2m/s | -56.4°C | 4.7% | 0hPa | 2.7V | 08:30:00 | 01:55:26 | 00:00:00 | |
| IW2NTF | 2026-09-03 12:30:32 | 44.83376 | 9.19575 | 185° | 22km/h | 19446m | 3.7m/s | -56.5°C | 4.7% | 0hPa | 2.6V | 08:30:00 | 01:55:16 | 00:00:00 | |
| DB0UT-7 | 2026-09-03 12:30:27 | 44.83376 | 9.19575 | 186° | 22km/h | 19447m | 3.7m/s | -56.5°C | 4.7% | 0hPa | 2.6V | 00:00:00 | 01:55:16 | 00:00:00 | |
| IW2NTF | 2026-09-03 12:30:21 | 44.83433 | 9.19572 | 161° | 22km/h | 19406m | 4.3m/s | -56.3°C | 4.7% | 0hPa | 2.6V | 08:30:00 | 01:55:06 | 00:00:00 | |
| IW2NTF | 2026-09-03 12:30:12 | 44.83492 | 9.19547 | 159° | 26km/h | 19365m | 3.8m/s | -56.1°C | 4.7% | 0hPa | 2.7V | 08:30:00 | 01:54:56 | 00:00:00 | |
| IW2NTF | 2026-09-03 12:30:01 | 44.83540 | 9.19536 | 201° | 18km/h | 19324m | 3.9m/s | -56°C | 4.5% | 0hPa | 2.7V | 08:30:00 | 01:54:46 | 00:00:00 | |
| DB0UT-7 | 2026-09-03 12:29:57 | 44.83540 | 9.19536 | 202° | 15km/h | 19325m | 3.8m/s | -55.9°C | 4.5% | 0hPa | 2.7V | 00:00:00 | 00:00:00 | 00:00:00 | |
| IW2NTF | 2026-09-03 12:29:51 | 44.83582 | 9.19534 | 159° | 20km/h | 19283m | 4.9m/s | -56.1°C | 4.7% | 0hPa | 2.7V | 08:30:00 | 01:54:36 | 00:00:00 | |
| IW2NTF | 2026-09-03 12:29:42 | 44.83612 | 9.19532 | 184° | 7km/h | 19243m | 4.7m/s | -56.3°C | 4.5% | 0hPa | 2.6V | 08:30:00 | 01:54:26 | 00:00:00 | |
| IW2NTF | 2026-09-03 12:29:31 | 44.83649 | 9.19528 | 186° | 16km/h | 19202m | 4.6m/s | -56.8°C | 4.7% | 0hPa | 2.6V | 08:30:00 | 01:54:16 | 00:00:00 | |
| DB0UT-7 | 2026-09-03 12:29:27 | 44.83649 | 9.19527 | 187° | 16km/h | 19202m | 4.5m/s | -56.7°C | 4.7% | 0hPa | 2.6V | 00:00:00 | 01:54:16 | 00:00:00 | |
| IW2NTF | 2026-09-03 12:29:21 | 44.83690 | 9.19524 | 168° | 20km/h | 19161m | 3.8m/s | -56.9°C | 4.7% | 0hPa | 2.6V | 08:30:00 | 01:54:06 | 00:00:00 | |
| IW2NTF | 2026-09-03 12:29:11 | 44.83735 | 9.19512 | 182° | 18km/h | 19119m | 3.9m/s | -57.4°C | 5% | 0hPa | 2.7V | 08:30:00 | 01:53:56 | 00:00:00 | |
| IW2NTF | 2026-09-03 12:29:01 | 44.83772 | 9.19512 | 205° | 13km/h | 19078m | 3.6m/s | -57.6°C | 4.9% | 0hPa | 2.7V | 08:30:00 | 01:53:46 | 00:00:00 | |
| DB0UT-7 | 2026-09-03 12:28:57 | 44.83772 | 9.19512 | 206° | 22km/h | 19078m | 3.6m/s | -57.5°C | 4.9% | 0hPa | 2.7V | 00:00:00 | 00:00:00 | 00:00:00 | |
| IW2NTF | 2026-09-03 12:28:51 | 44.83818 | 9.19518 | 162° | 22km/h | 19038m | 3.5m/s | -57.7°C | 4.9% | 0hPa | 2.7V | 08:30:00 | 01:53:36 | 00:00:00 | |
| IW2NTF | 2026-09-03 12:28:41 | 44.83867 | 9.19505 | 170° | 26km/h | 18998m | 3.5m/s | -58°C | 5.2% | 0hPa | 2.7V | 08:30:00 | 01:53:26 | 00:00:00 | |
| IW2NTF | 2026-09-03 12:28:31 | 44.83931 | 9.19455 | 146° | 31km/h | 18956m | 3.4m/s | -57.9°C | 4.9% | 0hPa | 2.7V | 08:30:00 | 01:53:16 | 00:00:00 | |
| DB0UT-7 | 2026-09-03 12:28:27 | 44.83930 | 9.19455 | 147° | 27km/h | 18956m | 3.3m/s | -57.8°C | 4.9% | 0hPa | 2.7V | 00:00:00 | 01:53:16 | 00:00:00 | |
| IW2NTF | 2026-09-03 12:28:21 | 44.83998 | 9.19423 | 157° | 26km/h | 18917m | 3.9m/s | -57.8°C | 5% | 0hPa | 2.7V | 08:30:00 | 01:53:06 | 00:00:00 | |
| IW2NTF | 2026-09-03 12:28:12 | 44.84062 | 9.19396 | 170° | 26km/h | 18877m | 4.2m/s | -58.3°C | 5.1% | 0hPa | 2.6V | 08:30:00 | 01:52:56 | 00:00:00 | |
| IW2NTF | 2026-09-03 12:28:02 | 44.84130 | 9.19360 | 154° | 29km/h | 18837m | 4.2m/s | -58.2°C | 5% | 0hPa | 2.6V | 08:30:00 | 01:52:46 | 00:00:00 | |
| DB0UT-7 | 2026-09-03 12:27:57 | 44.84130 | 9.19360 | 155° | 33km/h | 18838m | 4.1m/s | -58.1°C | 5.0% | 0hPa | 2.6V | 00:00:00 | 00:00:00 | 00:00:00 | |
| IW2NTF | 2026-09-03 12:27:51 | 44.84193 | 9.19317 | 136° | 33km/h | 18798m | 4.1m/s | -58.3°C | 5% | 0hPa | 2.7V | 08:30:00 | 01:52:36 | 00:00:00 | |
| DO3MHA-11 | 2026-09-03 12:27:45 | 44.84206 | 9.19301 | 141° | 35km/h | 18791m | 3.3m/s | -58.3°C | 5.0% | 0hPa | 2.7V | 00:00:00 | 01:52:34 | 00:00:00 | |
| IW2NTF | 2026-09-03 12:27:41 | 44.84262 | 9.19242 | 148° | 35km/h | 18760m | 3.8m/s | -59.2°C | 5.4% | 0hPa | 2.7V | 08:30:00 | 01:52:26 | 00:00:00 | |
| DO3MHA-11 | 2026-09-03 12:27:35 | 44.84275 | 9.19229 | 140° | 38km/h | 18752m | 3.7m/s | -59.2°C | 5.5% | 0hPa | 2.6V | 00:00:00 | 01:52:24 | 00:00:00 | |
| IW2NTF | 2026-09-03 12:27:31 | 44.84326 | 9.19142 | 129° | 42km/h | 18721m | 4.4m/s | -59.1°C | 5.5% | 0hPa | 2.7V | 08:30:00 | 01:52:16 | 00:00:00 | |
| DB0UT-7 | 2026-09-03 12:27:27 | 44.84326 | 9.19142 | 130° | 33km/h | 18721m | 4.3m/s | -59.1°C | 5.5% | 0hPa | 2.7V | 00:00:00 | 01:52:16 | 00:00:00 | |
| DO3MHA-11 | 2026-09-03 12:27:25 | 44.84339 | 9.19121 | 132° | 35km/h | 18713m | 2.8m/s | -59.0°C | 5.5% | 0hPa | 2.7V | 00:00:00 | 01:52:14 | 00:00:00 | |
| IW2NTF | 2026-09-03 12:27:19 | 44.84374 | 9.19037 | 123° | 35km/h | 18682m | 3.6m/s | -58.9°C | 5.3% | 0hPa | 2.7V | 08:30:00 | 01:52:06 | 00:00:00 | |
| DO3MHA-11 | 2026-09-03 12:27:15 | 44.84383 | 9.19017 | 124° | 33km/h | 18674m | 3.9m/s | -58.8°C | 5.2% | 0hPa | 2.6V | 00:00:00 | 01:52:04 | 00:00:00 | |
| IW2NTF | 2026-09-03 12:27:12 | 44.84423 | 9.18943 | 122° | 31km/h | 18642m | 3.8m/s | -58.8°C | 5.3% | 0hPa | 2.6V | 08:30:00 | 01:51:56 | 00:00:00 | |
| DO3MHA-11 | 2026-09-03 12:27:05 | 44.84432 | 9.18926 | 129° | 29km/h | 18634m | 3.8m/s | -58.6°C | 5.2% | 0hPa | 2.7V | 00:00:00 | 01:51:54 | 08:30:00 | |
| IW2NTF | 2026-09-03 12:27:01 | 44.84463 | 9.18858 | 133° | 29km/h | 18603m | 3.8m/s | -59°C | 5.3% | 0hPa | 2.6V | 08:30:00 | 01:51:46 | 00:00:00 | |
| DB0UT-7 | 2026-09-03 12:26:57 | 44.84463 | 9.18858 | 134° | 18km/h | 18603m | 3.8m/s | -59.0°C | 5.3% | 0hPa | 2.7V | 00:00:00 | 00:00:00 | 00:00:00 | |
| DO3MHA-11 | 2026-09-03 12:26:55 | 44.84473 | 9.18843 | 135° | 24km/h | 18595m | 4.6m/s | -59.0°C | 5.3% | 0hPa | 2.7V | 00:00:00 | 01:51:44 | 00:00:00 | |
| IW2NTF | 2026-09-03 12:26:49 | 44.84507 | 9.18794 | 118° | 20km/h | 18563m | 4.3m/s | -58.9°C | 5.3% | 0hPa | 2.7V | 08:30:00 | 01:51:36 | 00:00:00 | |
| DO3MHA-11 | 2026-09-03 12:26:44 | 44.84514 | 9.18774 | 126° | 16km/h | 18552m | 4.4m/s | -59.0°C | 5.4% | 0hPa | 2.7V | 00:00:00 | 01:51:33 | 00:00:00 | |
| IW2NTF | 2026-09-03 12:26:42 | 44.84539 | 9.18746 | 143° | 15km/h | 18524m | 4.8m/s | -58.8°C | 5.3% | 0hPa | 2.7V | 08:30:00 | 01:51:26 | 00:00:00 | |
| DO3MHA-11 | 2026-09-03 12:26:34 | 44.84546 | 9.18738 | 129° | 9km/h | 18512m | 4.8m/s | -58.6°C | 5.3% | 0hPa | 2.6V | 00:00:00 | 01:51:23 | 00:00:00 | |
| IW2NTF | 2026-09-03 12:26:32 | 44.84556 | 9.18720 | 127° | 9km/h | 18483m | 4.2m/s | -58.4°C | 5.3% | 0hPa | 2.7V | 08:30:00 | 01:51:16 | 00:00:00 | |
| DB0UT-7 | 2026-09-03 12:26:27 | 44.84556 | 9.18720 | 128° | 13km/h | 18483m | 4.1m/s | -58.4°C | 5.3% | 0hPa | 2.7V | 00:00:00 | 01:51:16 | 08:30:00 | |
| DO3MHA-11 | 2026-09-03 12:26:24 | 44.84563 | 9.18714 | 163° | 15km/h | 18470m | 4.6m/s | -58.4°C | 5.2% | 0hPa | 2.7V | 00:00:00 | 01:51:13 | 00:00:00 | |
| IW2NTF | 2026-09-03 12:26:19 | 44.84586 | 9.18699 | 144° | 15km/h | 18441m | 4m/s | -58.4°C | 5.3% | 0hPa | 2.7V | 08:30:00 | 01:51:06 | 00:00:00 | |
| DO3MHA-11 | 2026-09-03 12:26:14 | 44.84594 | 9.18687 | 122° | 15km/h | 18429m | 4.3m/s | -58.2°C | 5.1% | 0hPa | 2.6V | 00:00:00 | 01:51:03 | 00:00:00 | |
| IW2NTF | 2026-09-03 12:26:12 | 44.84615 | 9.18672 | 173° | 13km/h | 18401m | 4m/s | -58.1°C | 5.2% | 0hPa | 2.6V | 08:30:00 | 01:50:56 | 00:00:00 | |
| DO3MHA-11 | 2026-09-03 12:26:04 | 44.84626 | 9.18671 | 174° | 16km/h | 18389m | 4.2m/s | -57.8°C | 5.2% | 0hPa | 2.6V | 00:00:00 | 01:50:53 | 00:00:00 | |
| IW2NTF | 2026-09-03 12:26:01 | 44.84653 | 9.18657 | 162° | 20km/h | 18360m | 4.2m/s | -57.8°C | 5.1% | 0hPa | 2.6V | 08:30:00 | 01:50:46 | 00:00:00 | |
| DB0UT-7 | 2026-09-03 12:25:57 | 44.84653 | 9.18657 | 163° | 27km/h | 18361m | 4.1m/s | -57.8°C | 5.1% | 0hPa | 2.6V | 00:00:00 | 00:00:00 | 00:00:00 | |
| DO3MHA-11 | 2026-09-03 12:25:54 | 44.84668 | 9.18653 | 176° | 18km/h | 18348m | 4.7m/s | 0°C | 0% | 0hPa | 2.6V | 00:00:00 | 01:50:43 | 00:00:00 | |
| IW2NTF | 2026-09-03 12:25:50 | 44.84697 | 9.18642 | 160° | 18km/h | 18320m | 4.9m/s | -57.5°C | 5.1% | 0hPa | 2.6V | 08:30:00 | 01:50:36 | 00:00:00 | |
| IW2NTF | 2026-09-03 12:25:39 | 44.84747 | 9.18630 | 165° | 20km/h | 18277m | 5.1m/s | -57.1°C | 5% | 0hPa | 2.6V | 08:30:00 | 01:50:26 | 00:00:00 | |
| DO3MHA-11 | 2026-09-03 12:25:34 | 44.84761 | 9.18623 | 160° | 24km/h | 18265m | 4.6m/s | -57.0°C | 5.0% | 0hPa | 2.7V | 00:00:00 | 01:50:23 | 08:30:00 | |
| IW2NTF | 2026-09-03 12:25:32 | 44.84803 | 9.18612 | 175° | 29km/h | 18235m | 4.6m/s | -57°C | 4.8% | 0hPa | 2.6V | 08:30:00 | 01:50:16 | 00:00:00 | |
| DO3MHA-11 | 2026-09-03 12:25:24 | 44.84826 | 9.18611 | 177° | 33km/h | 18222m | 4.3m/s | -56.8°C | 4.9% | 0hPa | 2.6V | 00:00:00 | 01:50:13 | 00:00:00 | |
| IW2NTF | 2026-09-03 12:25:20 | 44.84883 | 9.18600 | 173° | 31km/h | 18194m | 4.1m/s | -56.7°C | 4.9% | 0hPa | 2.6V | 08:30:00 | 01:50:06 | 00:00:00 | |
| DB0UT-7 | 2026-09-03 12:25:15 | 44.84898 | 9.18596 | 167° | 40km/h | 18185m | 3.9m/s | -56.7°C | 4.9% | 0hPa | 2.6V | 00:00:00 | 01:50:04 | 00:00:00 | |
| DO3MHA-11 | 2026-09-03 12:25:14 | 44.84906 | 9.18593 | 167° | 33km/h | 18181m | 4.3m/s | -56.6°C | 4.8% | 0hPa | 2.6V | 00:00:00 | 01:50:03 | 00:00:00 | |
| IW2NTF | 2026-09-03 12:25:09 | 44.84959 | 9.18574 | 169° | 33km/h | 18153m | 4.4m/s | -56.6°C | 4.6% | 0hPa | 2.6V | 08:30:00 | 01:49:56 | 00:00:00 | |
| DO3MHA-11 | 2026-09-03 12:25:04 | 44.84987 | 9.18570 | 175° | 42km/h | 18141m | 4.3m/s | -56.4°C | 4.7% | 0hPa | 2.6V | 00:00:00 | 01:49:53 | 00:00:00 | |
| IW2NTF | 2026-09-03 12:25:02 | 44.85059 | 9.18548 | 168° | 40km/h | 18113m | 3.6m/s | -56.6°C | 4.9% | 0hPa | 2.7V | 08:30:00 | 01:49:46 | 00:00:00 | |
| DO3MHA-11 | 2026-09-03 12:24:54 | 44.85089 | 9.18534 | 158° | 49km/h | 18101m | 4.3m/s | -56.8°C | 4.9% | 0hPa | 2.7V | 00:00:00 | 01:49:43 | 00:00:00 | |
| IW2NTF | 2026-09-03 12:24:51 | 44.85167 | 9.18495 | 160° | 57km/h | 18070m | 4.1m/s | -56.9°C | 4.8% | 0hPa | 2.7V | 08:30:00 | 01:49:36 | 00:00:00 | |
| DB0UT-7 | 2026-09-03 12:24:45 | 44.85194 | 9.18482 | 163° | 44km/h | 18062m | 3.8m/s | -56.8°C | 4.8% | 0hPa | 2.6V | 00:00:00 | 00:00:00 | 00:00:00 | |
| DO3MHA-11 | 2026-09-03 12:24:44 | 44.85207 | 9.18476 | 161° | 47km/h | 18058m | 3.0m/s | -56.8°C | 4.8% | 0hPa | 2.7V | 00:00:00 | 01:49:33 | 00:00:00 | |
| IW2NTF | 2026-09-03 12:24:38 | 44.85283 | 9.18421 | 153° | 46km/h | 18030m | 3.5m/s | -56.7°C | 4.8% | 0hPa | 2.7V | 08:30:00 | 01:49:26 | 00:00:00 | |
| DO3MHA-11 | 2026-09-03 12:24:34 | 44.85315 | 9.18398 | 154° | 46km/h | 18019m | 3.8m/s | -56.5°C | 4.8% | 0hPa | 2.6V | 00:00:00 | 01:49:23 | 00:00:00 | |
| IW2NTF | 2026-09-03 12:24:28 | 44.85389 | 9.18347 | 149° | 44km/h | 17991m | 3.5m/s | -56.6°C | 4.7% | 0hPa | 2.7V | 08:30:00 | 01:49:16 | 00:00:00 | |
| DO3MHA-11 | 2026-09-03 12:24:24 | 44.85417 | 9.18326 | 154° | 42km/h | 17980m | 2.7m/s | -56.5°C | 4.7% | 0hPa | 2.6V | 00:00:00 | 01:49:13 | 00:00:00 | |
| IW2NTF | 2026-09-03 12:24:23 | 44.85485 | 9.18276 | 159° | 40km/h | 17954m | 3.7m/s | -57.1°C | 4.8% | 0hPa | 2.6V | 08:30:00 | 01:49:06 | 00:00:00 | |
| DO3MHA-11 | 2026-09-03 12:24:14 | 44.85514 | 9.18262 | 160° | 42km/h | 17943m | 4.3m/s | -57.2°C | 4.9% | 0hPa | 2.6V | 00:00:00 | 01:49:03 | 00:00:00 | |
| IW2NTF | 2026-09-03 12:24:12 | 44.85582 | 9.18219 | 146° | 40km/h | 17915m | 4m/s | -57.4°C | 4.9% | 0hPa | 2.6V | 08:30:00 | 01:48:56 | 00:00:00 | |
| DO3MHA-11 | 2026-09-03 12:24:04 | 44.85607 | 9.18192 | 143° | 37km/h | 17903m | 4.0m/s | -57.4°C | 4.9% | 0hPa | 2.6V | 00:00:00 | 01:48:53 | 08:30:00 | |
| DB0UT-7 | 2026-09-03 12:24:03 | 44.85615 | 9.18184 | 145° | 31km/h | 17899m | 4.2m/s | -57.4°C | 4.9% | 0hPa | 2.6V | 00:00:00 | 01:48:52 | 00:00:00 | |
| IW2NTF | 2026-09-03 12:23:58 | 44.85661 | 9.18138 | 144° | 35km/h | 17875m | 4.5m/s | -57.6°C | 4.9% | 0hPa | 2.6V | 08:30:00 | 01:48:46 | 00:00:00 | |
| DO3MHA-11 | 2026-09-03 12:23:54 | 44.85680 | 9.18116 | 138° | 33km/h | 17863m | 4.5m/s | -57.8°C | 5.0% | 0hPa | 2.6V | 00:00:00 | 01:48:43 | 00:00:00 | |
| IW2NTF | 2026-09-03 12:23:52 | 44.85722 | 9.18060 | 132° | 33km/h | 17835m | 3.8m/s | -58°C | 5.1% | 0hPa | 2.6V | 08:30:00 | 01:48:36 | 00:00:00 | |
| DO3MHA-11 | 2026-09-03 12:23:43 | 44.85743 | 9.18031 | 141° | 26km/h | 17820m | 3.4m/s | -58.0°C | 5.1% | 0hPa | 2.6V | 00:00:00 | 01:48:32 | 00:00:00 | |
| IW2NTF | 2026-09-03 12:23:42 | 44.85773 | 9.17992 | 143° | 26km/h | 17796m | 3.8m/s | -58.1°C | 5% | 0hPa | 2.6V | 08:30:00 | 01:48:26 | 00:00:00 | |
| DB0UT-7 | 2026-09-03 12:23:33 | 44.85793 | 9.17970 | 134° | 33km/h | 17782m | 3.6m/s | -58.4°C | 5.3% | 0hPa | 2.6V | 00:00:00 | 00:00:00 | 00:00:00 | |
| IW2NTF | 2026-09-03 12:23:28 | 44.85823 | 9.17926 | 131° | 33km/h | 17758m | 4.3m/s | -58.5°C | 5.3% | 0hPa | 2.6V | 08:30:00 | 01:48:16 | 00:00:00 | |
| IW2NTF | 2026-09-03 12:23:22 | 44.85882 | 9.17835 | 134° | 31km/h | 17720m | 3.4m/s | -58.4°C | 5.4% | 0hPa | 2.7V | 08:30:00 | 01:48:06 | 00:00:00 | |
| DO3MHA-11 | 2026-09-03 12:23:22 | 44.85854 | 9.17880 | 132° | 33km/h | 17740m | 4.3m/s | -58.4°C | 5.3% | 0hPa | 2.7V | 00:00:00 | 01:48:11 | 00:00:00 | |
| IW2NTF | 2026-09-03 12:23:10 | 44.85938 | 9.17757 | 141° | 33km/h | 17681m | 3.8m/s | -58.2°C | 5.2% | 0hPa | 2.7V | 08:30:00 | 01:47:56 | 00:00:00 | |
| DB0UT-7 | 2026-09-03 12:23:03 | 44.85965 | 9.17731 | 145° | 26km/h | 17667m | 4.4m/s | -58.1°C | 5.2% | 0hPa | 2.6V | 00:00:00 | 01:47:52 | 00:00:00 | |
| IW2NTF | 2026-09-03 12:23:00 | 44.85996 | 9.17694 | 132° | 24km/h | 17644m | 4.1m/s | -58.2°C | 5.2% | 0hPa | 2.7V | 08:30:00 | 01:47:46 | 00:00:00 | |
| DO3MHA-11 | 2026-09-03 12:22:53 | 44.86013 | 9.17666 | 136° | 27km/h | 17627m | 3.3m/s | -58.1°C | 5.1% | 0hPa | 2.7V | 00:00:00 | 01:47:42 | 00:00:00 | |
| IW2NTF | 2026-09-03 12:22:48 | 44.86044 | 9.17627 | 147° | 24km/h | 17605m | 4.3m/s | -58°C | 5.2% | 0hPa | 2.7V | 08:30:00 | 01:47:36 | 00:00:00 | |
| IW2NTF | 2026-09-03 12:22:42 | 44.86078 | 9.17566 | 128° | 22km/h | 17567m | 3.9m/s | -58.1°C | 5.2% | 0hPa | 2.6V | 08:30:00 | 01:47:26 | 00:00:00 | |
| IW2NTF | 2026-09-03 12:22:30 | 44.86124 | 9.17505 | 144° | 22km/h | 17521m | 4.1m/s | -57.9°C | 5.1% | 0hPa | 2.6V | 08:30:00 | 01:47:14 | 00:00:00 | |
| DO3MHA-11 | 2026-09-03 12:22:29 | 44.86107 | 9.17523 | 139° | 20km/h | 17537m | 3.6m/s | -57.9°C | 5.2% | 0hPa | 2.6V | 00:00:00 | 01:47:18 | 00:00:00 | |
| IW2NTF | 2026-09-03 12:22:18 | 44.86160 | 9.17461 | 165° | 16km/h | 17481m | 4m/s | -57.8°C | 5.2% | 0hPa | 2.6V | 08:30:00 | 01:47:04 | 00:00:00 | |
| DO3MHA-11 | 2026-09-03 12:22:16 | 44.86156 | 9.17463 | 159° | 22km/h | 17485m | 2.7m/s | -57.7°C | 5.2% | 0hPa | 2.6V | 00:00:00 | 01:47:05 | 00:00:00 | |
| IW2NTF | 2026-09-03 12:22:08 | 44.86211 | 9.17428 | 154° | 22km/h | 17441m | 3.9m/s | -57.6°C | 5.1% | 0hPa | 2.6V | 08:30:00 | 01:46:54 | 00:00:00 | |
| DB0UT-7 | 2026-09-03 12:22:07 | 44.86201 | 9.17434 | 151° | 29km/h | 17449m | 4.2m/s | -57.6°C | 5.1% | 0hPa | 2.7V | 00:00:00 | 00:00:00 | 00:00:00 | |
| DO3MHA-11 | 2026-09-03 12:22:06 | 44.86206 | 9.17431 | 152° | 24km/h | 17445m | 4.0m/s | -57.6°C | 5.2% | 0hPa | 2.7V | 00:00:00 | 01:46:55 | 00:00:00 | |
| IW2NTF | 2026-09-03 12:21:58 | 44.86269 | 9.17407 | 163° | 31km/h | 17400m | 3.7m/s | -57.4°C | 5% | 0hPa | 2.7V | 08:30:00 | 01:46:44 | 00:00:00 | |
| DO3MHA-11 | 2026-09-03 12:21:56 | 44.86262 | 9.17410 | 171° | 31km/h | 17404m | 4.1m/s | -57.4°C | 5.1% | 0hPa | 2.7V | 00:00:00 | 01:46:45 | 08:30:00 | |
| IW2NTF | 2026-09-03 12:21:48 | 44.86348 | 9.17380 | 176° | 29km/h | 17358m | 3.6m/s | -57.6°C | 5% | 0hPa | 2.7V | 08:30:00 | 01:46:34 | 00:00:00 | |
| DO3MHA-11 | 2026-09-03 12:21:46 | 44.86340 | 9.17381 | 177° | 33km/h | 17363m | 4.6m/s | -57.6°C | 5.0% | 0hPa | 2.6V | 00:00:00 | 01:46:35 | 00:00:00 | |
| DB0UT-7 | 2026-09-03 12:21:37 | 44.86414 | 9.17373 | 165° | 38km/h | 17326m | 4.0m/s | -57.7°C | 5.2% | 0hPa | 2.6V | 00:00:00 | 01:46:26 | 00:00:00 | |
| DO3MHA-11 | 2026-09-03 12:21:36 | 44.86423 | 9.17370 | 167° | 40km/h | 17322m | 4.1m/s | -57.7°C | 5.3% | 0hPa | 2.6V | 00:00:00 | 01:46:25 | 00:00:00 | |
| IW2NTF | 2026-09-03 12:21:36 | 44.86433 | 9.17367 | 168° | 40km/h | 17318m | 4.7m/s | -57.7°C | 5.2% | 0hPa | 2.7V | 08:30:00 | 01:46:24 | 00:00:00 | |
| IW2NTF | 2026-09-03 12:21:26 | 44.86557 | 9.17329 | 168° | 44km/h | 17268m | 3.6m/s | -57.6°C | 5.1% | 0hPa | 2.6V | 08:30:00 | 01:46:12 | 00:00:00 | |
| DO3MHA-11 | 2026-09-03 12:21:26 | 44.86525 | 9.17339 | 170° | 46km/h | 17281m | 4.0m/s | -57.5°C | 5.0% | 0hPa | 2.6V | 00:00:00 | 01:46:15 | 00:00:00 | |
| IW2NTF | 2026-09-03 12:21:16 | 44.86700 | 9.17291 | 166° | 51km/h | 17219m | 4.7m/s | -57.6°C | 5.2% | 0hPa | 2.6V | 08:30:00 | 01:46:00 | 00:00:00 | |
| DO3MHA-11 | 2026-09-03 12:21:16 | 44.86638 | 9.17308 | 167° | 49km/h | 17240m | 4.0m/s | -57.4°C | 5.2% | 0hPa | 2.6V | 00:00:00 | 01:46:05 | 00:00:00 | |
| IW2NTF | 2026-09-03 12:21:06 | 44.86823 | 9.17244 | 163° | 51km/h | 17178m | 3.6m/s | -57.6°C | 5.2% | 0hPa | 2.6V | 08:30:00 | 01:45:50 | 00:00:00 | |
| DO3MHA-11 | 2026-09-03 12:21:06 | 44.86762 | 9.17269 | 166° | 53km/h | 17199m | 4.0m/s | -57.5°C | 5.1% | 0hPa | 2.6V | 00:00:00 | 01:45:55 | 00:00:00 | |
| IW2NTF | 2026-09-03 12:20:56 | 44.86960 | 9.17187 | 158° | 60km/h | 17138m | 3.5m/s | -57.6°C | 5.2% | 0hPa | 2.6V | 08:30:00 | 01:45:40 | 00:00:00 | |
| DO3MHA-11 | 2026-09-03 12:20:56 | 44.86890 | 9.17215 | 167° | 58km/h | 17158m | 4.2m/s | -57.6°C | 5.2% | 0hPa | 2.6V | 00:00:00 | 01:45:45 | 00:00:00 | |
| IW2NTF | 2026-09-03 12:20:46 | 44.87095 | 9.17106 | 161° | 60km/h | 17099m | 3.4m/s | -57.5°C | 5.1% | 0hPa | 2.7V | 08:30:00 | 01:45:30 | 00:00:00 | |
| DB0UT-7 | 2026-09-03 12:20:42 | 44.87080 | 9.17113 | 161° | 60km/h | 17103m | 3.8m/s | -57.5°C | 5.1% | 0hPa | 2.7V | 00:00:00 | 00:00:00 | 08:30:00 | |
| IW2NTF | 2026-09-03 12:20:36 | 44.87238 | 9.17023 | 155° | 58km/h | 17060m | 3.6m/s | -57.6°C | 5.2% | 0hPa | 2.7V | 08:30:00 | 01:45:20 | 00:00:00 | |
| DO3MHA-11 | 2026-09-03 12:20:35 | 44.87182 | 9.17057 | 158° | 58km/h | 17076m | 3.8m/s | -57.4°C | 5.1% | 0hPa | 2.7V | 00:00:00 | 01:45:24 | 00:00:00 | |
| IW2NTF | 2026-09-03 12:20:26 | 44.87374 | 9.16929 | 152° | 62km/h | 17021m | 4.5m/s | -58°C | 5.2% | 0hPa | 2.7V | 08:30:00 | 01:45:10 | 00:00:00 | |
| IW2NTF | 2026-09-03 12:20:16 | 44.87509 | 9.16836 | 155° | 64km/h | 16982m | 4.2m/s | -58.1°C | 5.2% | 0hPa | 2.6V | 08:30:00 | 01:45:00 | 00:00:00 | |
| DO3MHA-11 | 2026-09-03 12:20:15 | 44.87453 | 9.16874 | 156° | 62km/h | 16997m | 4.3m/s | -58.0°C | 5.1% | 0hPa | 2.6V | 00:00:00 | 01:45:04 | 00:00:00 | |
| DB0UT-7 | 2026-09-03 12:20:12 | 44.87495 | 9.16845 | 154° | 66km/h | 16986m | 3.4m/s | -58.0°C | 5.2% | 0hPa | 2.6V | 00:00:00 | 01:45:01 | 00:00:00 | |
| IW2NTF | 2026-09-03 12:20:06 | 44.87656 | 9.16735 | 154° | 66km/h | 16944m | 4.6m/s | -59.1°C | 5.7% | 0hPa | 2.6V | 08:30:00 | 01:44:50 | 00:00:00 | |
| DO3MHA-11 | 2026-09-03 12:20:05 | 44.87597 | 9.16775 | 153° | 66km/h | 16959m | 4.2m/s | -58.7°C | 5.5% | 0hPa | 2.6V | 00:00:00 | 01:44:54 | 00:00:00 | |
| IW2NTF | 2026-09-03 12:19:56 | 44.87802 | 9.16615 | 146° | 68km/h | 16904m | 3.3m/s | -59.3°C | 5.7% | 0hPa | 2.6V | 08:30:00 | 01:44:40 | 00:00:00 | |
| DO3MHA-11 | 2026-09-03 12:19:55 | 44.87745 | 9.16668 | 149° | 68km/h | 16920m | 4.5m/s | -59.3°C | 5.7% | 0hPa | 2.6V | 00:00:00 | 01:44:44 | 00:00:00 | |
| IW2NTF | 2026-09-03 12:19:45 | 44.87935 | 9.16468 | 139° | 69km/h | 16866m | 3m/s | -59.5°C | 5.8% | 0hPa | 2.6V | 08:30:00 | 01:44:30 | 00:00:00 | |
| DO3MHA-11 | 2026-09-03 12:19:45 | 44.87883 | 9.16528 | 141° | 68km/h | 16881m | 3.4m/s | -59.4°C | 5.7% | 0hPa | 2.6V | 00:00:00 | 01:44:34 | 00:00:00 | |
| DB0UT-7 | 2026-09-03 12:19:42 | 44.87922 | 9.16484 | 141° | 69km/h | 16869m | 3.5m/s | -59.4°C | 5.8% | 0hPa | 2.6V | 00:00:00 | 00:00:00 | 00:00:00 | |
| IW2NTF | 2026-09-03 12:19:37 | 44.88065 | 9.16304 | 137° | 69km/h | 16828m | 3.4m/s | -59.9°C | 6% | 0hPa | 2.6V | 08:30:00 | 01:44:20 | 00:00:00 | |
| DO3MHA-11 | 2026-09-03 12:19:35 | 44.88013 | 9.16370 | 139° | 71km/h | 16843m | 3.1m/s | -59.9°C | 6.2% | 0hPa | 2.6V | 00:00:00 | 01:44:24 | 00:00:00 | |
| IW2NTF | 2026-09-03 12:19:25 | 44.88195 | 9.16121 | 130° | 71km/h | 16791m | 3.1m/s | -59.8°C | 6.2% | 0hPa | 2.6V | 08:30:00 | 01:44:10 | 00:00:00 | |
| DO3MHA-11 | 2026-09-03 12:19:25 | 44.88146 | 9.16197 | 135° | 71km/h | 16806m | 3.5m/s | -59.9°C | 6.0% | 0hPa | 2.7V | 00:00:00 | 01:44:14 | 00:00:00 | |
| IW2NTF | 2026-09-03 12:19:16 | 44.88308 | 9.15939 | 133° | 64km/h | 16753m | 4.4m/s | -60.1°C | 6.1% | 0hPa | 2.6V | 08:30:00 | 01:44:00 | 00:00:00 | |
| DO3MHA-11 | 2026-09-03 12:19:15 | 44.88263 | 9.16008 | 132° | 64km/h | 16769m | 2.9m/s | -59.9°C | 6.1% | 0hPa | 2.6V | 00:00:00 | 01:44:04 | 00:00:00 | |
| DB0UT-7 | 2026-09-03 12:19:12 | 44.88297 | 9.15956 | 134° | 62km/h | 16757m | 3.8m/s | -60.0°C | 6.1% | 0hPa | 2.6V | 00:00:00 | 01:44:01 | 00:00:00 | |
| IW2NTF | 2026-09-03 12:19:05 | 44.88410 | 9.15768 | 133° | 60km/h | 16715m | 3.6m/s | -60°C | 6.2% | 0hPa | 2.6V | 08:30:00 | 01:43:50 | 00:00:00 | |
| DO3MHA-11 | 2026-09-03 12:19:05 | 44.88369 | 9.15835 | 128° | 62km/h | 16730m | 4.1m/s | -60.0°C | 6.3% | 0hPa | 2.6V | 00:00:00 | 01:43:54 | 00:00:00 | |
| IW2NTF | 2026-09-03 12:18:56 | 44.88513 | 9.15593 | 129° | 66km/h | 16680m | 2.8m/s | -60.3°C | 6.4% | 0hPa | 2.6V | 08:30:00 | 01:43:40 | 00:00:00 | |
| DO3MHA-11 | 2026-09-03 12:18:53 | 44.88492 | 9.15630 | 127° | 51km/h | 16687m | 3.4m/s | -60.2°C | 6.2% | 0hPa | 2.7V | 00:00:00 | 01:43:42 | 08:30:00 | |
| IW2NTF | 2026-09-03 12:18:44 | 44.88607 | 9.15428 | 125° | 57km/h | 16645m | 3.6m/s | -60.3°C | 6.5% | 0hPa | 2.7V | 08:30:00 | 01:43:30 | 00:00:00 | |
| DB0UT-7 | 2026-09-03 12:18:42 | 44.88599 | 9.15445 | 127° | 53km/h | 16649m | 4.4m/s | -60.2°C | 6.4% | 0hPa | 2.7V | 00:00:00 | 00:00:00 | 00:00:00 | |
| IW2NTF | 2026-09-03 12:18:36 | 44.88691 | 9.15273 | 132° | 51km/h | 16609m | 2.6m/s | -60.6°C | 6.6% | 0hPa | 2.7V | 08:30:00 | 01:43:20 | 00:00:00 | |
| IW2NTF | 2026-09-03 12:18:24 | 44.88773 | 9.15128 | 124° | 55km/h | 16572m | 4.2m/s | -61°C | 6.8% | 0hPa | 2.7V | 08:30:00 | 01:43:10 | 00:00:00 | |
| IW2NTF | 2026-09-03 12:18:16 | 44.88852 | 9.14989 | 127° | 49km/h | 16537m | 4m/s | -61.1°C | 7.1% | 0hPa | 2.7V | 08:30:00 | 01:43:00 | 00:00:00 | |
| DB0UT-7 | 2026-09-03 12:18:12 | 44.88844 | 9.15003 | 131° | 44km/h | 16541m | 3.7m/s | -61.1°C | 7.1% | 0hPa | 2.6V | 00:00:00 | 01:43:01 | 00:00:00 | |
| IW2NTF | 2026-09-03 12:18:04 | 44.88923 | 9.14853 | 127° | 46km/h | 16501m | 3.7m/s | -61°C | 7.1% | 0hPa | 2.6V | 08:30:00 | 01:42:50 | 00:00:00 | |
| IW2NTF | 2026-09-03 12:17:56 | 44.88990 | 9.14734 | 129° | 40km/h | 16463m | 3.4m/s | -61.1°C | 7.2% | 0hPa | 2.6V | 08:30:00 | 01:42:40 | 00:00:00 | |
| DO3MHA-11 | 2026-09-03 12:17:51 | 44.88990 | 9.14734 | 130° | 38km/h | 16464m | 3.4m/s | -61.1°C | 7.2% | 0hPa | 2.6V | 00:00:00 | 01:42:40 | 00:00:00 | |
| IW2NTF | 2026-09-03 12:17:43 | 44.89052 | 9.14633 | 131° | 35km/h | 16426m | 4.2m/s | -61.2°C | 7.2% | 0hPa | 2.6V | 08:30:00 | 01:42:30 | 00:00:00 | |
| DB0UT-7 | 2026-09-03 12:17:42 | 44.89046 | 9.14642 | 134° | 38km/h | 16430m | 3.2m/s | -61.1°C | 7.2% | 0hPa | 2.6V | 00:00:00 | 00:00:00 | 00:00:00 | |
| DO3MHA-11 | 2026-09-03 12:17:41 | 44.89052 | 9.14633 | 132° | 38km/h | 16427m | 4.2m/s | -61.1°C | 7.2% | 0hPa | 2.6V | 00:00:00 | 01:42:30 | 00:00:00 | |
| IW2NTF | 2026-09-03 12:17:32 | 44.89120 | 9.14534 | 136° | 38km/h | 16389m | 3.6m/s | -61.2°C | 7.3% | 0hPa | 2.6V | 08:30:00 | 01:42:20 | 00:00:00 | |
| DO3MHA-11 | 2026-09-03 12:17:31 | 44.89121 | 9.14534 | 137° | 35km/h | 16389m | 3.5m/s | -61.2°C | 7.3% | 0hPa | 2.6V | 00:00:00 | 01:42:20 | 00:00:00 | |
| IW2NTF | 2026-09-03 12:17:22 | 44.89190 | 9.14456 | 142° | 38km/h | 16352m | 3.2m/s | -61.2°C | 7.2% | 0hPa | 2.6V | 08:30:00 | 01:42:10 | 00:00:00 | |
| DO3MHA-11 | 2026-09-03 12:17:21 | 44.89190 | 9.14456 | 143° | 42km/h | 16352m | 3.2m/s | -61.2°C | 7.2% | 0hPa | 2.6V | 00:00:00 | 01:42:10 | 00:00:00 | |
| IW2NTF | 2026-09-03 12:17:12 | 44.89270 | 9.14359 | 146° | 40km/h | 16314m | 3.6m/s | -61.5°C | 7.6% | 0hPa | 2.6V | 08:30:00 | 01:42:00 | 00:00:00 | |
| DB0UT-7 | 2026-09-03 12:17:12 | 44.89262 | 9.14368 | 145° | 49km/h | 16318m | 3.3m/s | -61.4°C | 7.5% | 0hPa | 2.6V | 00:00:00 | 01:42:01 | 00:00:00 | |
| DO3MHA-11 | 2026-09-03 12:17:11 | 44.89270 | 9.14360 | 147° | 44km/h | 16314m | 3.6m/s | -61.4°C | 7.6% | 0hPa | 2.6V | 00:00:00 | 01:42:00 | 00:00:00 | |
| IW2NTF | 2026-09-03 12:17:02 | 44.89366 | 9.14279 | 145° | 44km/h | 16276m | 4.3m/s | -61.7°C | 7.7% | 0hPa | 2.6V | 08:30:00 | 01:41:50 | 00:00:00 | |
| DO3MHA-11 | 2026-09-03 12:17:01 | 44.89366 | 9.14279 | 146° | 47km/h | 16277m | 4.2m/s | -61.7°C | 7.7% | 0hPa | 2.6V | 00:00:00 | 01:41:50 | 00:00:00 | |
| IW2NTF | 2026-09-03 12:16:52 | 44.89463 | 9.14181 | 142° | 49km/h | 16238m | 3.7m/s | -61.6°C | 7.6% | 0hPa | 2.7V | 08:30:00 | 01:41:40 | 00:00:00 | |
| DO3MHA-11 | 2026-09-03 12:16:51 | 44.89463 | 9.14181 | 143° | 53km/h | 16238m | 3.6m/s | -61.6°C | 7.6% | 0hPa | 2.7V | 00:00:00 | 01:41:40 | 00:00:00 | |
| IW2NTF | 2026-09-03 12:16:41 | 44.89590 | 9.14042 | 141° | 55km/h | 16191m | 3.1m/s | -61.7°C | 8% | 0hPa | 2.7V | 08:30:00 | 01:41:28 | 00:00:00 | |
| DB0UT-7 | 2026-09-03 12:16:41 | 44.89569 | 9.14067 | 143° | 62km/h | 16199m | 4.2m/s | 0°C | 0% | 0hPa | 2.7V | 00:00:00 | 00:00:00 | 00:00:00 | |
| IW2NTF | 2026-09-03 12:16:32 | 44.89702 | 9.13922 | 141° | 57km/h | 16153m | 3.4m/s | -61.9°C | 8.1% | 0hPa | 2.7V | 08:30:00 | 01:41:18 | 00:00:00 | |
| DO3MHA-11 | 2026-09-03 12:16:31 | 44.89680 | 9.13946 | 142° | 60km/h | 16160m | 4.2m/s | -61.8°C | 8.0% | 0hPa | 2.6V | 00:00:00 | 01:41:20 | 08:30:00 | |
| IW2NTF | 2026-09-03 12:16:21 | 44.89823 | 9.13772 | 137° | 69km/h | 16113m | 3.9m/s | -61.9°C | 8.2% | 0hPa | 2.6V | 08:30:00 | 01:41:08 | 00:00:00 | |
| DO3MHA-11 | 2026-09-03 12:16:21 | 44.89798 | 9.13806 | 137° | 68km/h | 16121m | 3.7m/s | -61.8°C | 8.2% | 0hPa | 2.6V | 00:00:00 | 01:41:10 | 00:00:00 | |
| IW2NTF | 2026-09-03 12:16:12 | 44.89946 | 9.13606 | 132° | 69km/h | 16075m | 2.9m/s | -61.9°C | 8.2% | 0hPa | 2.6V | 08:30:00 | 01:40:58 | 00:00:00 | |
| DB0UT-7 | 2026-09-03 12:16:11 | 44.89922 | 9.13642 | 135° | 73km/h | 16082m | 4.3m/s | 0°C | 0% | 0hPa | 2.6V | 00:00:00 | 01:41:00 | 00:00:00 | |
| IW2NTF | 2026-09-03 12:16:01 | 44.90067 | 9.13424 | 130° | 71km/h | 16038m | 2.8m/s | -62°C | 8.3% | 0hPa | 2.6V | 08:30:00 | 01:40:48 | 00:00:00 | |
| DO3MHA-11 | 2026-09-03 12:16:01 | 44.90043 | 9.13462 | 132° | 69km/h | 16045m | 4.0m/s | -61.9°C | 8.3% | 0hPa | 2.7V | 00:00:00 | 01:40:50 | 00:00:00 | |
| IW2NTF | 2026-09-03 12:15:51 | 44.90179 | 9.13235 | 126° | 69km/h | 16001m | 4.3m/s | -62.4°C | 8.6% | 0hPa | 2.7V | 08:30:00 | 01:40:38 | 00:00:00 | |
| DO3MHA-11 | 2026-09-03 12:15:51 | 44.90158 | 9.13274 | 128° | 68km/h | 16008m | 3.7m/s | -62.2°C | 8.6% | 0hPa | 2.7V | 00:00:00 | 01:40:40 | 00:00:00 | |
| IW2NTF | 2026-09-03 12:15:41 | 44.90276 | 9.13037 | 127° | 64km/h | 15965m | 3.5m/s | -62.6°C | 8.7% | 0hPa | 2.7V | 08:30:00 | 01:40:28 | 00:00:00 | |
| IW2NTF | 2026-09-03 12:15:31 | 44.90367 | 9.12822 | 116° | 68km/h | 15931m | 4m/s | -62.5°C | 8.5% | 0hPa | 2.7V | 08:30:00 | 01:40:18 | 00:00:00 | |
| DO3MHA-11 | 2026-09-03 12:15:31 | 44.90351 | 9.12866 | 119° | 68km/h | 15937m | 3.3m/s | -62.4°C | 8.7% | 0hPa | 2.6V | 00:00:00 | 01:40:20 | 00:00:00 | |
| IW2NTF | 2026-09-03 12:15:21 | 44.90449 | 9.12610 | 120° | 66km/h | 15896m | 4m/s | -62.5°C | 8.6% | 0hPa | 2.7V | 08:30:00 | 01:40:08 | 00:00:00 | |
| DO3MHA-11 | 2026-09-03 12:15:20 | 44.90440 | 9.12630 | 121° | 62km/h | 15900m | 3.7m/s | -62.5°C | 8.6% | 0hPa | 2.7V | 00:00:00 | 01:40:09 | 00:00:00 | |
| IW2NTF | 2026-09-03 12:15:11 | 44.90521 | 9.12414 | 120° | 62km/h | 15862m | 3.5m/s | -62.6°C | 8.7% | 0hPa | 2.7V | 08:30:00 | 01:39:58 | 00:00:00 | |
| DO3MHA-11 | 2026-09-03 12:15:10 | 44.90513 | 9.12433 | 121° | 58km/h | 15866m | 3.0m/s | 0°C | 0% | 0hPa | 2.7V | 00:00:00 | 01:39:59 | 00:00:00 | |
| IW2NTF | 2026-09-03 12:15:01 | 44.90585 | 9.12231 | 116° | 57km/h | 15827m | 3.4m/s | -62.4°C | 8.7% | 0hPa | 2.7V | 08:30:00 | 01:39:48 | 00:00:00 | |
| DO3MHA-11 | 2026-09-03 12:15:00 | 44.90579 | 9.12249 | 115° | 57km/h | 15831m | 4.3m/s | 0°C | 0% | 0hPa | 2.6V | 00:00:00 | 01:39:49 | 08:30:00 | |
| IW2NTF | 2026-09-03 12:14:51 | 44.90652 | 9.12057 | 119° | 53km/h | 15794m | 3.3m/s | -62.2°C | 8.7% | 0hPa | 2.6V | 08:30:00 | 01:39:38 | 00:00:00 | |
| DO3MHA-11 | 2026-09-03 12:14:50 | 44.90645 | 9.12073 | 119° | 53km/h | 15797m | 3.0m/s | 0°C | 0% | 0hPa | 2.6V | 00:00:00 | 01:39:39 | 00:00:00 | |
| IW2NTF | 2026-09-03 12:14:41 | 44.90718 | 9.11897 | 123° | 49km/h | 15761m | 3.9m/s | -62.2°C | 8.8% | 0hPa | 2.6V | 08:30:00 | 01:39:28 | 00:00:00 | |
| DO3MHA-11 | 2026-09-03 12:14:40 | 44.90711 | 9.11912 | 125° | 47km/h | 15764m | 2.6m/s | 0°C | 0% | 0hPa | 2.6V | 00:00:00 | 01:39:29 | 00:00:00 | |
| IW2NTF | 2026-09-03 12:14:31 | 44.90786 | 9.11755 | 124° | 51km/h | 15727m | 3.4m/s | -62.1°C | 8.7% | 0hPa | 2.6V | 08:30:00 | 01:39:18 | 00:00:00 | |
| DO3MHA-11 | 2026-09-03 12:14:30 | 44.90779 | 9.11770 | 124° | 51km/h | 15730m | 2.6m/s | 0°C | 0% | 0hPa | 2.6V | 00:00:00 | 01:39:19 | 00:00:00 | |
| IW2NTF | 2026-09-03 12:14:21 | 44.90864 | 9.11615 | 129° | 49km/h | 15691m | 4m/s | -62.1°C | 9.1% | 0hPa | 2.6V | 08:30:00 | 01:39:08 | 00:00:00 | |
| IW2NTF | 2026-09-03 12:14:10 | 44.90966 | 9.11452 | 135° | 47km/h | 15649m | 3.7m/s | -62.3°C | 9.1% | 0hPa | 2.6V | 08:30:00 | 01:38:56 | 00:00:00 | |
| IW2NTF | 2026-09-03 12:13:59 | 44.91067 | 9.11330 | 131° | 60km/h | 15612m | 3.4m/s | -62.3°C | 9.3% | 0hPa | 2.6V | 08:30:00 | 01:38:46 | 00:00:00 | |
| IW2NTF | 2026-09-03 12:13:49 | 44.91175 | 9.11200 | 144° | 62km/h | 15573m | 3.6m/s | -62.3°C | 9.4% | 0hPa | 2.6V | 08:30:00 | 01:38:36 | 00:00:00 | |
| IW2NTF | 2026-09-03 12:13:42 | 44.91298 | 9.11047 | 140° | 64km/h | 15534m | 4m/s | -62.5°C | 9.4% | 0hPa | 2.6V | 08:30:00 | 01:38:26 | 00:00:00 | |
| IW2NTF | 2026-09-03 12:13:29 | 44.91439 | 9.10892 | 141° | 73km/h | 15492m | 3.5m/s | -63°C | 9.9% | 0hPa | 2.6V | 08:30:00 | 01:38:16 | 00:00:00 | |
| IW2NTF | 2026-09-03 12:13:18 | 44.91588 | 9.10707 | 137° | 84km/h | 15455m | 3.7m/s | -62.9°C | 9.6% | 0hPa | 2.6V | 08:30:00 | 01:38:06 | 00:00:00 | |
| IW2NTF | 2026-09-03 12:13:08 | 44.91728 | 9.10493 | 130° | 80km/h | 15420m | 3.2m/s | -62.8°C | 9.8% | 0hPa | 2.6V | 08:30:00 | 01:37:56 | 00:00:00 | |
| IW2NTF | 2026-09-03 12:12:58 | 44.91865 | 9.10273 | 129° | 84km/h | 15385m | 3.3m/s | -62.5°C | 9.5% | 0hPa | 2.6V | 08:30:00 | 01:37:46 | 00:00:00 | |
| IW2NTF | 2026-09-03 12:12:48 | 44.92004 | 9.10047 | 127° | 82km/h | 15349m | 3.6m/s | -62.3°C | 9.5% | 0hPa | 2.6V | 08:30:00 | 01:37:36 | 00:00:00 | |
| IW2NTF | 2026-09-03 12:12:38 | 44.92149 | 9.09788 | 128° | 84km/h | 15309m | 3.2m/s | -62.1°C | 9.3% | 0hPa | 2.7V | 08:30:00 | 01:37:25 | 00:00:00 | |
| DO3MHA-11 | 2026-09-03 12:12:31 | 44.92213 | 9.09664 | 126° | 84km/h | 15291m | 3.5m/s | 0°C | 0% | 0hPa | 2.6V | 00:00:00 | 01:37:20 | 00:00:00 | |
| IW2NTF | 2026-09-03 12:12:28 | 44.92300 | 9.09491 | 123° | 82km/h | 15264m | 4.2m/s | -61.8°C | 9% | 0hPa | 2.6V | 08:30:00 | 01:37:13 | 00:00:00 | |
| DO3MHA-11 | 2026-09-03 12:12:20 | 44.92346 | 9.09396 | 125° | 84km/h | 15249m | 3.3m/s | 0°C | 0% | 0hPa | 2.6V | 00:00:00 | 01:37:09 | 00:00:00 | |
| IW2NTF | 2026-09-03 12:12:18 | 44.92422 | 9.09256 | 125° | 88km/h | 15226m | 3.2m/s | -61.5°C | 9% | 0hPa | 2.6V | 08:30:00 | 01:37:03 | 00:00:00 | |
| DO3MHA-11 | 2026-09-03 12:12:10 | 44.92472 | 9.09156 | 127° | 80km/h | 15212m | 3.7m/s | 0°C | 0% | 0hPa | 2.6V | 00:00:00 | 01:36:59 | 00:00:00 | |
| IW2NTF | 2026-09-03 12:12:06 | 44.92543 | 9.09015 | 126° | 78km/h | 15189m | 3.9m/s | -61.4°C | 9.1% | 0hPa | 2.6V | 08:30:00 | 01:36:53 | 00:00:00 | |
| IW2NTF | 2026-09-03 12:11:59 | 44.92655 | 9.08790 | 123° | 78km/h | 15151m | 3.2m/s | -61.1°C | 8.8% | 0hPa | 2.6V | 08:30:00 | 01:36:43 | 00:00:00 | |
| IW2NTF | 2026-09-03 12:11:47 | 44.92767 | 9.08570 | 124° | 75km/h | 15113m | 4.3m/s | -61.2°C | 9.1% | 0hPa | 2.6V | 08:30:00 | 01:36:33 | 00:00:00 | |
| DO3MHA-11 | 2026-09-03 12:11:40 | 44.92809 | 9.08480 | 124° | 71km/h | 15098m | 3.1m/s | 0°C | 0% | 0hPa | 2.6V | 00:00:00 | 01:36:29 | 00:00:00 | |
| IW2NTF | 2026-09-03 12:11:36 | 44.92874 | 9.08345 | 127° | 73km/h | 15076m | 2.8m/s | -61.2°C | 9.2% | 0hPa | 2.6V | 08:30:00 | 01:36:23 | 00:00:00 | |
| DO3MHA-11 | 2026-09-03 12:11:26 | 44.92953 | 9.08179 | 117° | 71km/h | 15046m | 4.1m/s | 0°C | 0% | 0hPa | 2.7V | 00:00:00 | 01:36:15 | 00:00:00 | |
| DO3MHA-11 | 2026-09-03 12:11:16 | 44.93039 | 9.07954 | 119° | 69km/h | 15010m | 3.9m/s | 0°C | 0% | 0hPa | 2.7V | 00:00:00 | 01:36:05 | 00:00:00 | |
| IW2NTF | 2026-09-03 12:11:11 | 44.93085 | 9.07822 | 115° | 71km/h | 14987m | 4.4m/s | -60.9°C | 9.3% | 0hPa | 2.7V | 08:30:00 | 01:35:59 | 00:00:00 | |
| IW2NTF | 2026-09-03 12:11:05 | 44.93156 | 9.07593 | 114° | 66km/h | 14950m | 3.8m/s | -60.8°C | 9.6% | 0hPa | 2.7V | 08:30:00 | 01:35:49 | 00:00:00 | |
| IW2NTF | 2026-09-03 12:10:51 | 44.93222 | 9.07381 | 113° | 66km/h | 14911m | 3.6m/s | -60.6°C | 9.7% | 0hPa | 2.7V | 08:30:00 | 01:35:39 | 00:00:00 | |
| IW2NTF | 2026-09-03 12:10:45 | 44.93288 | 9.07175 | 115° | 62km/h | 14873m | 3.6m/s | -60.6°C | 9.8% | 0hPa | 2.7V | 08:30:00 | 01:35:29 | 00:00:00 | |
| IW2NTF | 2026-09-03 12:10:31 | 44.93344 | 9.06977 | 108° | 55km/h | 14834m | 3.8m/s | -60.7°C | 10.3% | 0hPa | 2.7V | 08:30:00 | 01:35:19 | 00:00:00 | |
| IW2NTF | 2026-09-03 12:10:25 | 44.93385 | 9.06781 | 103° | 58km/h | 14797m | 4.2m/s | -60.6°C | 10% | 0hPa | 2.6V | 08:30:00 | 01:35:09 | 00:00:00 | |
| IW2NTF | 2026-09-03 12:10:11 | 44.93428 | 9.06585 | 110° | 58km/h | 14759m | 3.8m/s | -60.9°C | 10.2% | 0hPa | 2.6V | 08:30:00 | 01:34:59 | 00:00:00 | |
| IW2NTF | 2026-09-03 12:10:05 | 44.93488 | 9.06392 | 113° | 60km/h | 14721m | 3.4m/s | -61°C | 10% | 0hPa | 2.6V | 08:30:00 | 01:34:49 | 00:00:00 | |
| IW2NTF | 2026-09-03 12:09:51 | 44.93552 | 9.06200 | 118° | 58km/h | 14685m | 3.5m/s | -60.7°C | 9.9% | 0hPa | 2.6V | 08:30:00 | 01:34:39 | 00:00:00 | |
| IW2NTF | 2026-09-03 12:09:45 | 44.93624 | 9.06022 | 121° | 64km/h | 14645m | 3.9m/s | -60.5°C | 9.9% | 0hPa | 2.8V | 08:30:00 | 01:34:29 | 00:00:00 | |
| IW2NTF | 2026-09-03 12:09:31 | 44.93704 | 9.05850 | 124° | 51km/h | 14605m | 4.8m/s | -60.5°C | 10.1% | 0hPa | 2.7V | 08:30:00 | 01:34:19 | 00:00:00 | |
| IW2NTF | 2026-09-03 12:09:25 | 44.93792 | 9.05678 | 125° | 57km/h | 14564m | 3.2m/s | -60.1°C | 9.7% | 0hPa | 2.6V | 08:30:00 | 01:34:09 | 00:00:00 | |
| IW2NTF | 2026-09-03 12:09:11 | 44.93895 | 9.05503 | 135° | 68km/h | 14524m | 3.7m/s | -59.8°C | 10% | 0hPa | 2.6V | 08:30:00 | 01:33:59 | 00:00:00 | |
| IW2NTF | 2026-09-03 12:09:05 | 44.94010 | 9.05350 | 130° | 62km/h | 14485m | 4.4m/s | -59.6°C | 9.5% | 0hPa | 2.7V | 08:30:00 | 01:33:49 | 00:00:00 | |
| IW2NTF | 2026-09-03 12:08:51 | 44.94127 | 9.05181 | 140° | 68km/h | 14445m | 3.1m/s | -59.6°C | 10% | 0hPa | 2.6V | 08:30:00 | 01:33:39 | 00:00:00 | |
| IW2NTF | 2026-09-03 12:08:45 | 44.94251 | 9.05021 | 139° | 71km/h | 14408m | 3.8m/s | -59.8°C | 10.1% | 0hPa | 2.6V | 08:30:00 | 01:33:29 | 00:00:00 | |
| IW2NTF | 2026-09-03 12:08:31 | 44.94396 | 9.04857 | 136° | 78km/h | 14371m | 3.9m/s | -59.7°C | 10.5% | 0hPa | 2.8V | 08:30:00 | 01:33:19 | 00:00:00 | |
| IW2NTF | 2026-09-03 12:08:25 | 44.94546 | 9.04675 | 140° | 77km/h | 14335m | 3.5m/s | -59.6°C | 10.6% | 0hPa | 2.7V | 08:30:00 | 01:33:09 | 00:00:00 | |
| IW2NTF | 2026-09-03 12:08:11 | 44.94691 | 9.04490 | 137° | 73km/h | 14301m | 3.6m/s | -59.4°C | 10.7% | 0hPa | 2.6V | 08:30:00 | 01:32:59 | 00:00:00 | |
| IW2NTF | 2026-09-03 12:08:05 | 44.94829 | 9.04316 | 138° | 75km/h | 14267m | 3.5m/s | -59.4°C | 10.6% | 0hPa | 2.8V | 08:30:00 | 01:32:49 | 00:00:00 | |
| IW2NTF | 2026-09-03 12:07:51 | 44.94962 | 9.04152 | 139° | 69km/h | 14234m | 2.7m/s | -59.1°C | 10.7% | 0hPa | 2.6V | 08:30:00 | 01:32:39 | 00:00:00 | |
| IW2NTF | 2026-09-03 12:07:45 | 44.95088 | 9.03984 | 134° | 66km/h | 14201m | 3.7m/s | -59.1°C | 10.6% | 0hPa | 2.7V | 08:30:00 | 01:32:29 | 00:00:00 | |
| IW2NTF | 2026-09-03 12:07:31 | 44.95205 | 9.03824 | 135° | 60km/h | 14168m | 4m/s | -58.8°C | 10.6% | 0hPa | 2.8V | 08:30:00 | 01:32:19 | 00:00:00 | |
| IW2NTF | 2026-09-03 12:07:25 | 44.95316 | 9.03668 | 137° | 62km/h | 14134m | 2.7m/s | -58.9°C | 11.5% | 0hPa | 2.8V | 08:30:00 | 01:32:09 | 00:00:00 | |
| IW2NTF | 2026-09-03 12:07:11 | 44.95417 | 9.03519 | 136° | 58km/h | 14100m | 3.8m/s | -59.1°C | 12.1% | 0hPa | 2.8V | 08:30:00 | 01:31:59 | 00:00:00 | |
| IW2NTF | 2026-09-03 12:07:05 | 44.95539 | 9.03377 | 138° | 64km/h | 14066m | 2.7m/s | -59°C | 12.6% | 0hPa | 2.7V | 08:30:00 | 01:31:49 | 00:00:00 | |
| IW2NTF | 2026-09-03 12:06:51 | 44.95661 | 9.03220 | 135° | 69km/h | 14031m | 3.7m/s | -59°C | 13.5% | 0hPa | 2.8V | 08:30:00 | 01:31:39 | 00:00:00 | |
| IW2NTF | 2026-09-03 12:06:45 | 44.95800 | 9.03063 | 148° | 77km/h | 13992m | 5.5m/s | -60°C | 14.8% | 0hPa | 2.6V | 08:30:00 | 01:31:29 | 00:00:00 | |
| IW2NTF | 2026-09-03 12:06:31 | 44.95973 | 9.02911 | 144° | 84km/h | 13950m | 4.5m/s | -60.3°C | 15.7% | 0hPa | 2.8V | 08:30:00 | 01:31:19 | 00:00:00 | |
| IW2NTF | 2026-09-03 12:06:24 | 44.96147 | 9.02720 | 137° | 89km/h | 13916m | 3m/s | -60.1°C | 16% | 0hPa | 2.7V | 08:30:00 | 01:31:09 | 00:00:00 | |
| IW2NTF | 2026-09-03 12:06:11 | 44.96327 | 9.02522 | 140° | 89km/h | 13882m | 3.7m/s | -60°C | 16.1% | 0hPa | 2.8V | 08:30:00 | 01:30:59 | 00:00:00 | |
| IW2NTF | 2026-09-03 12:06:04 | 44.96502 | 9.02321 | 144° | 88km/h | 13847m | 3.3m/s | -59.9°C | 16.3% | 0hPa | 2.8V | 08:30:00 | 01:30:49 | 00:00:00 | |
| IW2NTF | 2026-09-03 12:05:51 | 44.96677 | 9.02122 | 139° | 88km/h | 13811m | 4m/s | -60.3°C | 17.1% | 0hPa | 2.7V | 08:30:00 | 01:30:39 | 00:00:00 | |
| IW2NTF | 2026-09-03 12:05:45 | 44.96845 | 9.01928 | 137° | 91km/h | 13775m | 4.2m/s | -60.2°C | 18.5% | 0hPa | 2.7V | 08:30:00 | 01:30:29 | 00:00:00 | |
| IW2NTF | 2026-09-03 12:05:31 | 44.97007 | 9.01713 | 137° | 84km/h | 13738m | 3.7m/s | -60.5°C | 21.8% | 0hPa | 2.8V | 08:30:00 | 01:30:19 | 00:00:00 | |
| IW2NTF | 2026-09-03 12:05:26 | 44.97171 | 9.01501 | 138° | 91km/h | 13701m | 3.4m/s | -60.5°C | 23.5% | 0hPa | 2.7V | 08:30:00 | 01:30:09 | 00:00:00 | |
| IW2NTF | 2026-09-03 12:05:11 | 44.97342 | 9.01288 | 138° | 88km/h | 13664m | 4.3m/s | -60.4°C | 25.8% | 0hPa | 2.7V | 08:30:00 | 01:29:59 | 00:00:00 | |
| IW2NTF | 2026-09-03 12:05:01 | 44.97507 | 9.01070 | 136° | 89km/h | 13627m | 3.4m/s | -60.6°C | 28.2% | 0hPa | 2.8V | 08:30:00 | 01:29:49 | 00:00:00 | |
| IW2NTF | 2026-09-03 12:04:51 | 44.97670 | 9.00860 | 139° | 93km/h | 13590m | 4.1m/s | -60.9°C | 29.4% | 0hPa | 2.7V | 08:30:00 | 01:29:39 | 00:00:00 | |
| IW2NTF | 2026-09-03 12:04:41 | 44.97853 | 9.00657 | 141° | 91km/h | 13554m | 3.6m/s | -61.1°C | 30.8% | 0hPa | 2.8V | 08:30:00 | 01:29:29 | 00:00:00 | |
| IW2NTF | 2026-09-03 12:04:31 | 44.98040 | 9.00452 | 143° | 99km/h | 13521m | 3.1m/s | -61°C | 29.5% | 0hPa | 2.8V | 08:30:00 | 01:29:19 | 00:00:00 | |
| IW2NTF | 2026-09-03 12:04:21 | 44.98237 | 9.00251 | 142° | 93km/h | 13486m | 3.9m/s | -61.1°C | 29.3% | 0hPa | 2.7V | 08:30:00 | 01:29:09 | 00:00:00 | |
| IW2NTF | 2026-09-03 12:04:11 | 44.98426 | 9.00045 | 141° | 93km/h | 13452m | 3.4m/s | -61.5°C | 31.7% | 0hPa | 2.8V | 08:30:00 | 01:28:59 | 00:00:00 | |
| IW2NTF | 2026-09-03 12:04:01 | 44.98606 | 8.99852 | 144° | 88km/h | 13419m | 3m/s | -62.2°C | 34.4% | 0hPa | 2.7V | 08:30:00 | 01:28:49 | 00:00:00 | |
| IW2NTF | 2026-09-03 12:03:54 | 44.98798 | 8.99658 | 144° | 93km/h | 13387m | 3.5m/s | -62.2°C | 34.2% | 0hPa | 2.7V | 08:30:00 | 01:28:39 | 00:00:00 | |
| IW2NTF | 2026-09-03 12:03:43 | 44.98999 | 8.99464 | 145° | 102km/h | 13351m | 4.3m/s | -62°C | 34.4% | 0hPa | 2.8V | 08:30:00 | 01:28:29 | 00:00:00 | |
| IW2NTF | 2026-09-03 12:03:31 | 44.99212 | 8.99258 | 146° | 100km/h | 13317m | 3.3m/s | -61.8°C | 33.7% | 0hPa | 2.8V | 08:30:00 | 01:28:19 | 00:00:00 | |
| IW2NTF | 2026-09-03 12:03:24 | 44.99418 | 8.99047 | 144° | 102km/h | 13283m | 3.8m/s | -61.6°C | 33.5% | 0hPa | 2.7V | 08:30:00 | 01:28:09 | 00:00:00 | |
| IW2NTF | 2026-09-03 12:03:13 | 44.99620 | 8.98834 | 141° | 99km/h | 13252m | 2.5m/s | -61.3°C | 32.6% | 0hPa | 2.7V | 08:30:00 | 01:27:59 | 00:00:00 | |
| IW2NTF | 2026-09-03 12:03:01 | 44.99826 | 8.98609 | 141° | 106km/h | 13219m | 4.2m/s | -61°C | 32.5% | 0hPa | 2.7V | 08:30:00 | 01:27:49 | 00:00:00 | |
| IW2NTF | 2026-09-03 12:02:54 | 45.00027 | 8.98389 | 142° | 102km/h | 13188m | 3.8m/s | -60.7°C | 32.5% | 0hPa | 2.8V | 08:30:00 | 01:27:39 | 00:00:00 | |
| IW2NTF | 2026-09-03 12:02:41 | 45.00228 | 8.98159 | 140° | 97km/h | 13155m | 2.9m/s | -60.5°C | 32.6% | 0hPa | 2.8V | 08:30:00 | 01:27:29 | 00:00:00 | |
| IW2NTF | 2026-09-03 12:02:31 | 45.00417 | 8.97935 | 139° | 102km/h | 13121m | 4.1m/s | -60.3°C | 33.5% | 0hPa | 2.8V | 08:30:00 | 01:27:19 | 00:00:00 | |
| IW2NTF | 2026-09-03 12:02:25 | 45.00607 | 8.97699 | 137° | 99km/h | 13088m | 3.6m/s | -60.4°C | 34.5% | 0hPa | 2.8V | 08:30:00 | 01:27:09 | 00:00:00 | |
| IW2NTF | 2026-09-03 12:02:11 | 45.00789 | 8.97462 | 136° | 91km/h | 13052m | 4.4m/s | -60.4°C | 37.3% | 0hPa | 2.7V | 08:30:00 | 01:26:59 | 00:00:00 | |
| IW2NTF | 2026-09-03 12:02:05 | 45.00956 | 8.97241 | 135° | 89km/h | 13016m | 3.3m/s | -60.6°C | 38.7% | 0hPa | 2.8V | 08:30:00 | 01:26:49 | 00:00:00 | |
| IW2NTF | 2026-09-03 12:01:51 | 45.01130 | 8.97033 | 139° | 91km/h | 12976m | 4.2m/s | -61°C | 39.8% | 0hPa | 2.8V | 08:30:00 | 01:26:39 | 00:00:00 | |
| IW2NTF | 2026-09-03 12:01:45 | 45.01315 | 8.96828 | 146° | 93km/h | 12937m | 4.8m/s | -62°C | 43.9% | 0hPa | 2.7V | 08:30:00 | 01:26:29 | 00:00:00 | |
| IW2NTF | 2026-09-03 12:01:31 | 45.01521 | 8.96633 | 147° | 99km/h | 12895m | 3.3m/s | -62.2°C | 42.9% | 0hPa | 2.8V | 08:30:00 | 01:26:19 | 00:00:00 | |
| IW2NTF | 2026-09-03 12:01:25 | 45.01756 | 8.96429 | 148° | 117km/h | 12855m | 3.9m/s | -61.9°C | 44.7% | 0hPa | 2.7V | 08:30:00 | 01:26:09 | 00:00:00 | |
| IW2NTF | 2026-09-03 12:01:11 | 45.02009 | 8.96223 | 150° | 117km/h | 12818m | 4.3m/s | -61.6°C | 44.2% | 0hPa | 2.7V | 08:30:00 | 01:25:59 | 00:00:00 | |
| IW2NTF | 2026-09-03 12:01:05 | 45.02268 | 8.96017 | 151° | 117km/h | 12781m | 3.7m/s | -61.8°C | 49.5% | 0hPa | 2.7V | 08:30:00 | 01:25:49 | 00:00:00 | |
| IW2NTF | 2026-09-03 12:00:51 | 45.02541 | 8.95822 | 155° | 120km/h | 12743m | 4.2m/s | -61.6°C | 47.8% | 0hPa | 2.7V | 08:30:00 | 01:25:39 | 00:00:00 | |
| IW2NTF | 2026-09-03 12:00:45 | 45.02804 | 8.95625 | 150° | 117km/h | 12707m | 3.9m/s | -61.3°C | 47.1% | 0hPa | 2.8V | 08:30:00 | 01:25:29 | 00:00:00 | |
| IW2NTF | 2026-09-03 12:00:35 | 45.03069 | 8.95411 | 148° | 120km/h | 12670m | 3.6m/s | -61.1°C | 48.2% | 0hPa | 2.8V | 08:30:00 | 01:25:19 | 00:00:00 | |
| IW2NTF | 2026-09-03 12:00:25 | 45.03329 | 8.95191 | 148° | 117km/h | 12633m | 2.9m/s | -60.8°C | 49% | 0hPa | 2.7V | 08:30:00 | 01:25:09 | 00:00:00 | |
| IW2NTF | 2026-09-03 12:00:15 | 45.03586 | 8.94961 | 146° | 124km/h | 12597m | 4m/s | -60.5°C | 49.7% | 0hPa | 2.7V | 08:30:00 | 01:24:59 | 00:00:00 | |
| IW2NTF | 2026-09-03 12:00:05 | 45.03838 | 8.94722 | 146° | 120km/h | 12560m | 3.5m/s | -60.3°C | 49.7% | 0hPa | 2.8V | 08:30:00 | 01:24:49 | 00:00:00 | |
| IW2NTF | 2026-09-03 11:59:55 | 45.04094 | 8.94488 | 146° | 113km/h | 12523m | 3.8m/s | -60°C | 52.4% | 0hPa | 2.7V | 08:30:00 | 01:24:39 | 00:00:00 | |
| IW2NTF | 2026-09-03 11:59:41 | 45.04335 | 8.94255 | 146° | 122km/h | 12488m | 2.3m/s | -59.8°C | 49.8% | 0hPa | 2.7V | 08:30:00 | 01:24:29 | 00:00:00 | |
| IW2NTF | 2026-09-03 11:59:30 | 45.04578 | 8.94036 | 147° | 113km/h | 12456m | 2.3m/s | -59.7°C | 51.9% | 0hPa | 2.8V | 08:30:00 | 01:24:19 | 00:00:00 | |
| IW2NTF | 2026-09-03 11:59:20 | 45.04868 | 8.93767 | 146° | 108km/h | 12420m | 3.6m/s | -59.7°C | 51.7% | 0hPa | 2.8V | 08:30:00 | 01:24:07 | 00:00:00 | |
| IW2NTF | 2026-09-03 11:59:10 | 45.05164 | 8.93458 | 142° | 111km/h | 12380m | 2.5m/s | -59.5°C | 53.8% | 0hPa | 2.8V | 08:30:00 | 01:23:54 | 00:00:00 | |
| IW2NTF | 2026-09-03 11:59:01 | 45.05389 | 8.93227 | 139° | 108km/h | 12351m | 2m/s | -59.4°C | 52.7% | 0hPa | 2.8V | 08:30:00 | 01:23:44 | 00:00:00 | |
| IW2NTF | 2026-09-03 11:58:48 | 45.05598 | 8.92990 | 143° | 102km/h | 12323m | 2.1m/s | -59.2°C | 54.3% | 0hPa | 2.7V | 08:30:00 | 01:23:34 | 00:00:00 | |
| IW2NTF | 2026-09-03 11:58:35 | 45.05849 | 8.92737 | 144° | 102km/h | 12290m | 3.2m/s | -59°C | 53.8% | 0hPa | 2.7V | 08:30:00 | 01:23:22 | 00:00:00 | |
| IW2NTF | 2026-09-03 11:58:28 | 45.06057 | 8.92529 | 145° | 95km/h | 12263m | 3.4m/s | -58.9°C | 55% | 0hPa | 2.8V | 08:30:00 | 01:23:12 | 00:00:00 | |
| IW2NTF | 2026-09-03 11:58:18 | 45.06258 | 8.92335 | 145° | 97km/h | 12236m | 3.7m/s | -58.8°C | 52.9% | 0hPa | 2.7V | 08:30:00 | 01:23:02 | 00:00:00 | |
| IW2NTF | 2026-09-03 11:58:05 | 45.06458 | 8.92156 | 145° | 91km/h | 12207m | 2.8m/s | -58.8°C | 53.5% | 0hPa | 2.8V | 08:30:00 | 01:22:52 | 00:00:00 | |
| IW2NTF | 2026-09-03 11:57:58 | 45.06652 | 8.91972 | 149° | 88km/h | 12178m | 4.2m/s | -58.7°C | 54.2% | 0hPa | 2.8V | 08:30:00 | 01:22:42 | 00:00:00 | |
| IW2NTF | 2026-09-03 11:57:46 | 45.06849 | 8.91810 | 155° | 102km/h | 12140m | 4.3m/s | -58.5°C | 51.9% | 0hPa | 2.8V | 08:30:00 | 01:22:32 | 00:00:00 | |
| IW2NTF | 2026-09-03 11:57:38 | 45.07058 | 8.91638 | 159° | 93km/h | 12101m | 3.8m/s | -58°C | 51.2% | 0hPa | 2.8V | 08:30:00 | 01:22:22 | 00:00:00 | |
| IW2NTF | 2026-09-03 11:57:25 | 45.07253 | 8.91494 | 150° | 93km/h | 12059m | 3.7m/s | -57.7°C | 47.2% | 0hPa | 2.8V | 08:30:00 | 01:22:12 | 00:00:00 | |
| IW2NTF | 2026-09-03 11:57:15 | 45.07450 | 8.91346 | 160° | 97km/h | 12014m | 6.3m/s | -57.4°C | 44.9% | 0hPa | 2.8V | 08:30:00 | 01:22:02 | 00:00:00 | |
| IW2NTF | 2026-09-03 11:57:09 | 45.07681 | 8.91221 | 159° | 93km/h | 11963m | 7m/s | -56.9°C | 42.8% | 0hPa | 2.7V | 08:30:00 | 01:21:52 | 00:00:00 | |
| IW2NTF | 2026-09-03 11:56:54 | 45.07906 | 8.91111 | 151° | 93km/h | 11915m | 5m/s | -56.5°C | 40.7% | 0hPa | 2.7V | 08:30:00 | 01:21:42 | 00:00:00 | |
| IW2NTF | 2026-09-03 11:56:48 | 45.08146 | 8.90987 | 165° | 91km/h | 11870m | 4.9m/s | -56.1°C | 40.6% | 0hPa | 2.8V | 08:30:00 | 01:21:32 | 00:00:00 | |
| IW2NTF | 2026-09-03 11:56:35 | 45.08374 | 8.90901 | 161° | 93km/h | 11815m | 5.9m/s | -55.6°C | 37.7% | 0hPa | 2.8V | 08:30:00 | 01:21:22 | 00:00:00 | |
| IW2NTF | 2026-09-03 11:56:28 | 45.08624 | 8.90801 | 163° | 102km/h | 11768m | 5.4m/s | -55.1°C | 36.9% | 0hPa | 2.7V | 08:30:00 | 01:21:12 | 00:00:00 | |
| IW2NTF | 2026-09-03 11:56:18 | 45.08857 | 8.90714 | 164° | 102km/h | 11726m | 4.7m/s | -54.7°C | 35% | 0hPa | 2.7V | 08:30:00 | 01:21:02 | 00:00:00 | |
| IW2NTF | 2026-09-03 11:56:09 | 45.09107 | 8.90626 | 166° | 97km/h | 11688m | 3.5m/s | -54.4°C | 35.7% | 0hPa | 2.8V | 08:30:00 | 01:20:52 | 00:00:00 | |
| IW2NTF | 2026-09-03 11:55:57 | 45.09348 | 8.90532 | 164° | 108km/h | 11645m | 4.2m/s | -54°C | 35.4% | 0hPa | 2.8V | 08:30:00 | 01:20:42 | 00:00:00 | |
| IW2NTF | 2026-09-03 11:55:44 | 45.09600 | 8.90460 | 166° | 108km/h | 11601m | 4.6m/s | -53.7°C | 35.3% | 0hPa | 2.8V | 08:30:00 | 01:20:32 | 00:00:00 | |
| IW2NTF | 2026-09-03 11:55:39 | 45.09856 | 8.90371 | 169° | 108km/h | 11564m | 4.9m/s | -53.3°C | 39.1% | 0hPa | 2.8V | 08:30:00 | 01:20:22 | 00:00:00 | |
| IW2NTF | 2026-09-03 11:55:24 | 45.10119 | 8.90296 | 169° | 113km/h | 11521m | 4.8m/s | -53.1°C | 42.2% | 0hPa | 2.7V | 08:30:00 | 01:20:12 | 00:00:00 | |
| IW2NTF | 2026-09-03 11:55:17 | 45.10388 | 8.90250 | 168° | 110km/h | 11480m | 4.2m/s | -52.7°C | 39.5% | 0hPa | 2.7V | 08:30:00 | 01:20:02 | 00:00:00 | |
| IW2NTF | 2026-09-03 11:55:07 | 45.10668 | 8.90184 | 170° | 108km/h | 11445m | 3.8m/s | -52.6°C | 42.9% | 0hPa | 2.8V | 08:30:00 | 01:19:52 | 00:00:00 | |
| IW2NTF | 2026-09-03 11:54:57 | 45.10942 | 8.90127 | 173° | 113km/h | 11408m | 3.6m/s | -52.3°C | 40.7% | 0hPa | 2.8V | 08:30:00 | 01:19:42 | 00:00:00 | |
| IW2NTF | 2026-09-03 11:54:47 | 45.11223 | 8.90055 | 171° | 117km/h | 11371m | 3.7m/s | -51.9°C | 38.3% | 0hPa | 2.7V | 08:30:00 | 01:19:32 | 00:00:00 | |
| IW2NTF | 2026-09-03 11:54:37 | 45.11515 | 8.89999 | 171° | 117km/h | 11336m | 4.2m/s | -51.7°C | 40% | 0hPa | 2.7V | 08:30:00 | 01:19:22 | 00:00:00 | |
| IW2NTF | 2026-09-03 11:54:26 | 45.11806 | 8.89927 | 172° | 122km/h | 11300m | 3.4m/s | -51.4°C | 42.2% | 0hPa | 2.7V | 08:30:00 | 01:19:12 | 00:00:00 | |
| IW2NTF | 2026-09-03 11:54:15 | 45.12099 | 8.89861 | 169° | 117km/h | 11264m | 3.8m/s | -51.1°C | 45.5% | 0hPa | 2.7V | 08:30:00 | 01:19:02 | 00:00:00 | |
| IW2NTF | 2026-09-03 11:54:05 | 45.12390 | 8.89792 | 170° | 117km/h | 11228m | 2.8m/s | -50.7°C | 45.4% | 0hPa | 2.8V | 08:30:00 | 01:18:52 | 00:00:00 | |
| IW2NTF | 2026-09-03 11:53:55 | 45.12666 | 8.89732 | 166° | 115km/h | 11190m | 3.6m/s | -50.6°C | 47.6% | 0hPa | 2.8V | 08:30:00 | 01:18:42 | 00:00:00 | |
| IW2NTF | 2026-09-03 11:53:38 | 45.13083 | 8.89619 | 168° | 108km/h | 11136m | 2.6m/s | -50.2°C | 45% | 0hPa | 2.8V | 08:30:00 | 01:18:27 | 00:00:00 | |
| IW2NTF | 2026-09-03 11:53:28 | 45.13359 | 8.89548 | 170° | 115km/h | 11102m | 3.9m/s | -50°C | 40.6% | 0hPa | 2.8V | 08:30:00 | 01:18:17 | 00:00:00 | |
| IW2NTF | 2026-09-03 11:53:19 | 45.13641 | 8.89478 | 172° | 111km/h | 11066m | 3.5m/s | -49.6°C | 36.9% | 0hPa | 2.8V | 08:30:00 | 01:18:07 | 00:00:00 | |
| IW2NTF | 2026-09-03 11:53:09 | 45.13919 | 8.89421 | 172° | 111km/h | 11030m | 3.7m/s | -49.4°C | 39.3% | 0hPa | 2.8V | 08:30:00 | 01:17:57 | 00:00:00 | |
| IW2NTF | 2026-09-03 11:52:59 | 45.14191 | 8.89357 | 168° | 106km/h | 10994m | 3m/s | -49.1°C | 37.7% | 0hPa | 2.8V | 08:30:00 | 01:17:47 | 00:00:00 | |
| IW2NTF | 2026-09-03 11:52:48 | 45.14464 | 8.89291 | 169° | 106km/h | 10961m | 3.6m/s | -48.8°C | 36.3% | 0hPa | 2.9V | 08:30:00 | 01:17:37 | 00:00:00 | |
| IW2NTF | 2026-09-03 11:52:43 | 45.14763 | 8.89218 | 171° | 108km/h | 10924m | 3.1m/s | -48.5°C | 35.8% | 0hPa | 2.9V | 08:30:00 | 01:17:26 | 00:00:00 | |
| IW2NTF | 2026-09-03 11:52:32 | 45.15032 | 8.89153 | 170° | 110km/h | 10891m | 4m/s | -48.2°C | 34.6% | 0hPa | 2.7V | 08:30:00 | 01:17:16 | 00:00:00 | |
| IW2NTF | 2026-09-03 11:52:18 | 45.15296 | 8.89091 | 169° | 106km/h | 10857m | 4m/s | -47.8°C | 32.9% | 0hPa | 2.7V | 08:30:00 | 01:17:06 | 00:00:00 | |
| IW2NTF | 2026-09-03 11:52:12 | 45.15621 | 8.89012 | 171° | 102km/h | 10818m | 3.6m/s | -47.4°C | 32.1% | 0hPa | 2.7V | 08:30:00 | 01:16:54 | 00:00:00 | |
| IW2NTF | 2026-09-03 11:51:59 | 45.15886 | 8.88948 | 168° | 110km/h | 10786m | 3.2m/s | -47.2°C | 30% | 0hPa | 2.7V | 08:30:00 | 01:16:44 | 00:00:00 | |
| IW2NTF | 2026-09-03 11:51:50 | 45.16149 | 8.88883 | 171° | 106km/h | 10754m | 3.4m/s | -46.9°C | 29.4% | 0hPa | 2.9V | 08:30:00 | 01:16:34 | 00:00:00 | |
| IW2NTF | 2026-09-03 11:51:39 | 45.16417 | 8.88822 | 170° | 106km/h | 10721m | 3.2m/s | -46.5°C | 27.8% | 0hPa | 2.9V | 08:30:00 | 01:16:24 | 00:00:00 | |
| IW2NTF | 2026-09-03 11:51:29 | 45.16679 | 8.88759 | 170° | 108km/h | 10688m | 3m/s | -46.2°C | 28.8% | 0hPa | 2.9V | 08:30:00 | 01:16:14 | 00:00:00 | |
| IW2NTF | 2026-09-03 11:51:15 | 45.17001 | 8.88679 | 170° | 106km/h | 10649m | 3.2m/s | -45.9°C | 28.4% | 0hPa | 2.9V | 08:30:00 | 01:16:02 | 00:00:00 | |
| IW2NTF | 2026-09-03 11:51:08 | 45.17266 | 8.88617 | 170° | 110km/h | 10616m | 3.4m/s | -45.6°C | 28.9% | 0hPa | 2.9V | 08:30:00 | 01:15:52 | 00:00:00 | |
| IW2NTF | 2026-09-03 11:50:57 | 45.17528 | 8.88548 | 169° | 104km/h | 10584m | 3.3m/s | -45.4°C | 26.8% | 0hPa | 2.9V | 08:30:00 | 01:15:42 | 00:00:00 | |
| IW2NTF | 2026-09-03 11:50:49 | 45.17790 | 8.88484 | 169° | 102km/h | 10552m | 3.9m/s | -45.1°C | 24.2% | 0hPa | 2.9V | 08:30:00 | 01:15:32 | 00:00:00 | |
| IW2NTF | 2026-09-03 11:50:39 | 45.18048 | 8.88421 | 170° | 106km/h | 10520m | 3.2m/s | -44.8°C | 24.5% | 0hPa | 2.8V | 08:30:00 | 01:15:22 | 00:00:00 | |
| IW2NTF | 2026-09-03 11:50:28 | 45.18303 | 8.88362 | 168° | 100km/h | 10488m | 2.6m/s | -44.7°C | 27.4% | 0hPa | 2.8V | 08:30:00 | 01:15:12 | 00:00:00 | |
| IW2NTF | 2026-09-03 11:50:19 | 45.18553 | 8.88300 | 170° | 100km/h | 10457m | 3.5m/s | -44.5°C | 29.9% | 0hPa | 2.9V | 08:30:00 | 01:15:02 | 00:00:00 | |
| IW2NTF | 2026-09-03 11:50:09 | 45.18804 | 8.88234 | 170° | 100km/h | 10424m | 2.6m/s | -44.2°C | 29.8% | 0hPa | 2.9V | 08:30:00 | 01:14:52 | 00:00:00 | |
| IW2NTF | 2026-09-03 11:49:59 | 45.19062 | 8.88161 | 167° | 100km/h | 10394m | 3m/s | -43.9°C | 29.3% | 0hPa | 2.9V | 08:30:00 | 01:14:42 | 00:00:00 | |
| IW2NTF | 2026-09-03 11:49:49 | 45.19318 | 8.88084 | 167° | 102km/h | 10362m | 3m/s | -43.6°C | 29.7% | 0hPa | 2.8V | 08:30:00 | 01:14:32 | 00:00:00 | |
| IW2NTF | 2026-09-03 11:49:39 | 45.19573 | 8.88005 | 167° | 106km/h | 10331m | 3.5m/s | -43.4°C | 30.3% | 0hPa | 2.9V | 08:30:00 | 01:14:22 | 00:00:00 | |
| IW2NTF | 2026-09-03 11:49:29 | 45.19827 | 8.87924 | 167° | 102km/h | 10300m | 3.6m/s | -43°C | 33.3% | 0hPa | 2.9V | 08:30:00 | 01:14:12 | 00:00:00 | |
| IW2NTF | 2026-09-03 11:49:19 | 45.20079 | 8.87845 | 167° | 102km/h | 10267m | 3m/s | -42.8°C | 36.7% | 0hPa | 2.8V | 08:30:00 | 01:14:02 | 00:00:00 | |
| IW2NTF | 2026-09-03 11:49:09 | 45.22178 | 8.87124 | 164° | 104km/h | 9996m | 2.6m/s | -40.6°C | 31.1% | 0hPa | 2.9V | 08:30:00 | 01:12:41 | 00:00:00 | |
| IW2NTF | 2026-09-03 11:49:03 | 45.22329 | 8.87068 | 164° | 102km/h | 9975m | 3.5m/s | -40.4°C | 31.8% | 0hPa | 2.9V | 08:30:00 | 01:12:35 | 00:00:00 | |
| IW2NTF | 2026-09-03 11:47:41 | 45.22573 | 8.86979 | 166° | 100km/h | 9941m | 2.7m/s | -40.2°C | 30.7% | 0hPa | 2.9V | 08:30:00 | 01:12:25 | 00:00:00 | |
| IW2NTF | 2026-09-03 11:47:30 | 45.22818 | 8.86892 | 165° | 99km/h | 9908m | 3.2m/s | -39.9°C | 30.2% | 0hPa | 2.9V | 08:30:00 | 01:12:15 | 00:00:00 | |
| IW2NTF | 2026-09-03 11:47:20 | 45.23059 | 8.86812 | 166° | 99km/h | 9876m | 3m/s | -39.5°C | 29.3% | 0hPa | 2.9V | 08:30:00 | 01:12:05 | 00:00:00 | |
| IW2NTF | 2026-09-03 11:47:10 | 45.23301 | 8.86727 | 168° | 99km/h | 9844m | 2.7m/s | -39.2°C | 31.2% | 0hPa | 2.8V | 08:30:00 | 01:11:55 | 00:00:00 | |
| IW2NTF | 2026-09-03 11:47:01 | 45.23544 | 8.86645 | 165° | 97km/h | 9810m | 2.4m/s | -38.9°C | 33.8% | 0hPa | 2.9V | 08:30:00 | 01:11:45 | 00:00:00 | |
| IW2NTF | 2026-09-03 11:46:50 | 45.23784 | 8.86566 | 164° | 100km/h | 9776m | 3.2m/s | -38.7°C | 43.9% | 0hPa | 2.8V | 08:30:00 | 01:11:35 | 00:00:00 | |
| IW2NTF | 2026-09-03 11:46:41 | 45.24023 | 8.86470 | 168° | 95km/h | 9742m | 3m/s | -38.4°C | 43.6% | 0hPa | 2.9V | 08:30:00 | 01:11:25 | 00:00:00 | |
| IW2NTF | 2026-09-03 11:46:31 | 45.24257 | 8.86393 | 164° | 97km/h | 9709m | 3.4m/s | -38.1°C | 42.5% | 0hPa | 2.8V | 08:30:00 | 01:11:15 | 00:00:00 | |
| IW2NTF | 2026-09-03 11:46:21 | 45.24486 | 8.86311 | 166° | 93km/h | 9677m | 2.4m/s | -37.8°C | 40.6% | 0hPa | 2.9V | 08:30:00 | 01:11:05 | 00:00:00 | |
| IW2NTF | 2026-09-03 11:46:11 | 45.24714 | 8.86231 | 166° | 93km/h | 9641m | 4.2m/s | -37.5°C | 37.5% | 0hPa | 2.8V | 08:30:00 | 01:10:55 | 00:00:00 | |
| IW2NTF | 2026-09-03 11:46:00 | 45.24940 | 8.86160 | 168° | 99km/h | 9605m | 3.2m/s | -37.2°C | 35.1% | 0hPa | 2.8V | 08:30:00 | 01:10:45 | 00:00:00 | |
| IW2NTF | 2026-09-03 11:45:51 | 45.25167 | 8.86086 | 165° | 93km/h | 9564m | 4m/s | -36.8°C | 31.7% | 0hPa | 2.9V | 08:30:00 | 01:10:35 | 00:00:00 | |
| IW2NTF | 2026-09-03 11:45:41 | 45.25388 | 8.86023 | 167° | 88km/h | 9526m | 2.9m/s | -36.4°C | 30.6% | 0hPa | 2.8V | 08:30:00 | 01:10:25 | 00:00:00 | |
| IW2NTF | 2026-09-03 11:45:31 | 45.25607 | 8.85965 | 169° | 86km/h | 9488m | 5.1m/s | -36.1°C | 29.5% | 0hPa | 2.9V | 08:30:00 | 01:10:15 | 00:00:00 | |
| IW2NTF | 2026-09-03 11:45:21 | 45.25830 | 8.85883 | 162° | 82km/h | 9448m | 5.2m/s | -35.8°C | 25.6% | 0hPa | 2.9V | 08:30:00 | 01:10:05 | 00:00:00 | |
| IW2NTF | 2026-09-03 11:45:11 | 45.26045 | 8.85826 | 168° | 84km/h | 9407m | 3.7m/s | -35.3°C | 25.4% | 0hPa | 2.9V | 08:30:00 | 01:09:55 | 00:00:00 | |
| IW2NTF | 2026-09-03 11:45:01 | 45.26252 | 8.85765 | 169° | 84km/h | 9368m | 5m/s | -35°C | 23.8% | 0hPa | 2.9V | 08:30:00 | 01:09:45 | 00:00:00 | |
| IW2NTF | 2026-09-03 11:44:50 | 45.26464 | 8.85714 | 171° | 80km/h | 9331m | 4.3m/s | -34.8°C | 24.3% | 0hPa | 2.8V | 08:30:00 | 01:09:35 | 00:00:00 | |
| IW2NTF | 2026-09-03 11:44:44 | 45.26669 | 8.85664 | 166° | 80km/h | 9297m | 3.1m/s | -34.5°C | 24.7% | 0hPa | 2.9V | 08:30:00 | 01:09:25 | 00:00:00 | |
| IW2NTF | 2026-09-03 11:44:29 | 45.26871 | 8.85601 | 168° | 86km/h | 9265m | 3.4m/s | -34.2°C | 24.6% | 0hPa | 2.9V | 08:30:00 | 01:09:15 | 00:00:00 | |
| IW2NTF | 2026-09-03 11:44:22 | 45.27072 | 8.85541 | 163° | 80km/h | 9233m | 3.5m/s | -33.9°C | 25.1% | 0hPa | 2.9V | 08:30:00 | 01:09:05 | 00:00:00 | |
| IW2NTF | 2026-09-03 11:44:08 | 45.27264 | 8.85466 | 168° | 78km/h | 9200m | 2.2m/s | -33.5°C | 25.2% | 0hPa | 2.8V | 08:30:00 | 01:08:55 | 00:00:00 | |
| IW2NTF | 2026-09-03 11:44:02 | 45.27456 | 8.85396 | 161° | 82km/h | 9169m | 2.9m/s | -33.3°C | 24.1% | 0hPa | 2.9V | 08:30:00 | 01:08:45 | 00:00:00 | |
| IW2NTF | 2026-09-03 11:43:49 | 45.27649 | 8.85318 | 165° | 77km/h | 9138m | 3.1m/s | -33°C | 24.4% | 0hPa | 2.9V | 08:30:00 | 01:08:35 | 00:00:00 | |
| IW2NTF | 2026-09-03 11:43:41 | 45.27844 | 8.85243 | 164° | 77km/h | 9106m | 3.6m/s | -32.8°C | 23.7% | 0hPa | 2.9V | 08:30:00 | 01:08:25 | 00:00:00 | |
| IW2NTF | 2026-09-03 11:43:29 | 45.28037 | 8.85163 | 163° | 82km/h | 9075m | 2.5m/s | -32.4°C | 23% | 0hPa | 2.9V | 08:30:00 | 01:08:15 | 00:00:00 | |
| IW2NTF | 2026-09-03 11:43:21 | 45.28230 | 8.85089 | 165° | 80km/h | 9043m | 3.8m/s | -32.1°C | 22.8% | 0hPa | 2.9V | 08:30:00 | 01:08:05 | 00:00:00 | |
| IW2NTF | 2026-09-03 11:43:09 | 45.28424 | 8.85006 | 163° | 80km/h | 9009m | 4.5m/s | -31.7°C | 21.7% | 0hPa | 2.9V | 08:30:00 | 01:07:55 | 00:00:00 | |
| IW2NTF | 2026-09-03 11:43:01 | 45.28615 | 8.84929 | 160° | 78km/h | 8975m | 4.1m/s | -31.4°C | 21.1% | 0hPa | 2.9V | 08:30:00 | 01:07:45 | 00:00:00 | |
| IW2NTF | 2026-09-03 11:42:48 | 45.28884 | 8.84801 | 163° | 77km/h | 8928m | 3.1m/s | -30.9°C | 20.6% | 0hPa | 2.9V | 08:30:00 | 01:07:31 | 00:00:00 | |
| IW2NTF | 2026-09-03 11:42:34 | 45.29078 | 8.84713 | 162° | 84km/h | 8893m | 2.4m/s | -30.7°C | 19.7% | 0hPa | 2.9V | 08:30:00 | 01:07:21 | 00:00:00 | |
| IW2NTF | 2026-09-03 11:42:28 | 45.29272 | 8.84627 | 162° | 78km/h | 8860m | 3m/s | -30.4°C | 19.1% | 0hPa | 2.8V | 08:30:00 | 01:07:11 | 00:00:00 | |
| IW2NTF | 2026-09-03 11:42:14 | 45.29499 | 8.84525 | 162° | 77km/h | 8818m | 3.5m/s | -30°C | 19.5% | 0hPa | 2.9V | 08:30:00 | 01:06:59 | 00:00:00 | |
| IW2NTF | 2026-09-03 11:42:01 | 45.29691 | 8.84437 | 160° | 77km/h | 8784m | 4m/s | -29.6°C | 19.9% | 0hPa | 2.9V | 08:30:00 | 01:06:49 | 00:00:00 | |
| IW2NTF | 2026-09-03 11:41:53 | 45.29874 | 8.84347 | 160° | 78km/h | 8751m | 3.4m/s | -29.4°C | 20.4% | 0hPa | 2.9V | 08:30:00 | 01:06:39 | 00:00:00 | |
| IW2NTF | 2026-09-03 11:41:42 | 45.30062 | 8.84258 | 160° | 77km/h | 8717m | 3.9m/s | -29.1°C | 20.8% | 0hPa | 2.9V | 08:30:00 | 01:06:29 | 00:00:00 | |
| IW2NTF | 2026-09-03 11:41:35 | 45.30276 | 8.84149 | 160° | 82km/h | 8681m | 3.7m/s | -28.7°C | 20.8% | 0hPa | 2.9V | 08:30:00 | 01:06:18 | 00:00:00 | |
| IW2NTF | 2026-09-03 11:41:24 | 45.30465 | 8.84053 | 161° | 78km/h | 8648m | 3.7m/s | -28.4°C | 20.5% | 0hPa | 2.8V | 08:30:00 | 01:06:08 | 00:00:00 | |
| IW2NTF | 2026-09-03 11:41:11 | 45.30664 | 8.83955 | 158° | 82km/h | 8613m | 3.7m/s | -28.2°C | 20.5% | 0hPa | 2.9V | 08:30:00 | 01:05:58 | 00:00:00 | |
| IW2NTF | 2026-09-03 11:41:04 | 45.30858 | 8.83847 | 158° | 86km/h | 8579m | 4m/s | -27.8°C | 20.6% | 0hPa | 2.9V | 08:30:00 | 01:05:48 | 00:00:00 | |
| IW2NTF | 2026-09-03 11:40:50 | 45.31054 | 8.83738 | 158° | 84km/h | 8545m | 4.1m/s | -27.6°C | 19.2% | 0hPa | 2.8V | 08:30:00 | 01:05:38 | 00:00:00 | |
| IW2NTF | 2026-09-03 11:40:44 | 45.31272 | 8.83606 | 155° | 84km/h | 8508m | 3.8m/s | -27.3°C | 18.1% | 0hPa | 2.9V | 08:30:00 | 01:05:27 | 00:00:00 | |
| IW2NTF | 2026-09-03 11:40:30 | 45.31473 | 8.83490 | 156° | 82km/h | 8475m | 2.7m/s | -27°C | 18.4% | 0hPa | 2.9V | 08:30:00 | 01:05:17 | 00:00:00 | |
| IW2NTF | 2026-09-03 11:40:24 | 45.31668 | 8.83365 | 154° | 84km/h | 8441m | 3.6m/s | -26.7°C | 18.5% | 0hPa | 2.9V | 08:30:00 | 01:05:07 | 00:00:00 | |
| IW2NTF | 2026-09-03 11:40:10 | 45.31863 | 8.83242 | 157° | 82km/h | 8408m | 3.9m/s | -26.5°C | 17.3% | 0hPa | 2.9V | 08:30:00 | 01:04:57 | 00:00:00 | |
| IW2NTF | 2026-09-03 11:40:00 | 45.32056 | 8.83127 | 157° | 86km/h | 8375m | 3.2m/s | -26.2°C | 18.4% | 0hPa | 2.8V | 08:30:00 | 01:04:47 | 00:00:00 | |
| IW2NTF | 2026-09-03 11:39:53 | 45.32249 | 8.83010 | 157° | 82km/h | 8342m | 3.5m/s | -25.9°C | 18% | 0hPa | 2.8V | 08:30:00 | 01:04:37 | 00:00:00 | |
| IW2NTF | 2026-09-03 11:39:42 | 45.32438 | 8.82888 | 155° | 82km/h | 8307m | 3.2m/s | -25.7°C | 17.9% | 0hPa | 2.8V | 08:30:00 | 01:04:27 | 00:00:00 | |
| IW2NTF | 2026-09-03 11:39:33 | 45.32621 | 8.82766 | 155° | 78km/h | 8274m | 3.6m/s | -25.4°C | 17.8% | 0hPa | 2.8V | 08:30:00 | 01:04:17 | 00:00:00 | |
| IW2NTF | 2026-09-03 11:39:21 | 45.32809 | 8.82641 | 153° | 82km/h | 8240m | 3.3m/s | -25°C | 17% | 0hPa | 2.9V | 08:30:00 | 01:04:07 | 00:00:00 | |
| IW2NTF | 2026-09-03 11:39:12 | 45.32993 | 8.82521 | 154° | 82km/h | 8208m | 3.9m/s | -24.8°C | 17.2% | 0hPa | 2.8V | 08:30:00 | 01:03:57 | 00:00:00 | |
| IW2NTF | 2026-09-03 11:39:02 | 45.33179 | 8.82399 | 157° | 82km/h | 8175m | 3.3m/s | -24.5°C | 16.9% | 0hPa | 2.9V | 08:30:00 | 01:03:47 | 00:00:00 | |
| IW2NTF | 2026-09-03 11:38:52 | 45.33362 | 8.82276 | 156° | 75km/h | 8140m | 3.7m/s | -24.2°C | 16% | 0hPa | 2.9V | 08:30:00 | 01:03:37 | 00:00:00 | |
| IW2NTF | 2026-09-03 11:38:42 | 45.33549 | 8.82157 | 154° | 80km/h | 8107m | 3.4m/s | -24.1°C | 15.7% | 0hPa | 2.9V | 08:30:00 | 01:03:27 | 00:00:00 | |
| IW2NTF | 2026-09-03 11:38:32 | 45.33728 | 8.82032 | 156° | 78km/h | 8075m | 3.2m/s | -23.8°C | 16.3% | 0hPa | 2.9V | 08:30:00 | 01:03:17 | 00:00:00 | |
| IW2NTF | 2026-09-03 11:38:22 | 45.33909 | 8.81915 | 154° | 77km/h | 8042m | 3.8m/s | -23.5°C | 16% | 0hPa | 2.8V | 08:30:00 | 01:03:07 | 00:00:00 | |
| IW2NTF | 2026-09-03 11:38:11 | 45.34079 | 8.81807 | 155° | 77km/h | 8011m | 2.8m/s | -23.1°C | 15.8% | 0hPa | 2.9V | 08:30:00 | 01:02:57 | 00:00:00 | |
| IW2NTF | 2026-09-03 11:38:02 | 45.34249 | 8.81697 | 158° | 75km/h | 7978m | 2.3m/s | -22.8°C | 15.3% | 0hPa | 2.9V | 08:30:00 | 01:02:47 | 00:00:00 | |
| IW2NTF | 2026-09-03 11:37:52 | 45.34418 | 8.81579 | 154° | 71km/h | 7946m | 3m/s | -22.6°C | 14.7% | 0hPa | 2.8V | 08:30:00 | 01:02:37 | 00:00:00 | |
| IW2NTF | 2026-09-03 11:37:41 | 45.34584 | 8.81472 | 155° | 69km/h | 7914m | 3.9m/s | -22.3°C | 14.4% | 0hPa | 2.9V | 08:30:00 | 01:02:27 | 00:00:00 | |
| IW2NTF | 2026-09-03 11:37:33 | 45.34753 | 8.81365 | 156° | 73km/h | 7882m | 2.5m/s | -22.1°C | 14.1% | 0hPa | 2.9V | 08:30:00 | 01:02:17 | 00:00:00 | |
| IW2NTF | 2026-09-03 11:37:23 | 45.34914 | 8.81256 | 154° | 69km/h | 7851m | 3.2m/s | -21.8°C | 14% | 0hPa | 2.9V | 08:30:00 | 01:02:07 | 00:00:00 | |
| IW2NTF | 2026-09-03 11:37:12 | 45.35076 | 8.81149 | 153° | 71km/h | 7818m | 3.5m/s | -21.6°C | 14% | 0hPa | 2.8V | 08:30:00 | 01:01:57 | 00:00:00 | |
| IW2NTF | 2026-09-03 11:37:03 | 45.35241 | 8.81045 | 155° | 69km/h | 7786m | 3.3m/s | -21.3°C | 14.3% | 0hPa | 2.9V | 08:30:00 | 01:01:47 | 00:00:00 | |
| IW2NTF | 2026-09-03 11:36:53 | 45.35401 | 8.80939 | 155° | 69km/h | 7757m | 3m/s | -20.9°C | 14% | 0hPa | 2.9V | 08:30:00 | 01:01:37 | 00:00:00 | |
| IW2NTF | 2026-09-03 11:36:44 | 45.35564 | 8.80837 | 156° | 69km/h | 7725m | 3.1m/s | -20.8°C | 15% | 0hPa | 2.8V | 08:30:00 | 01:01:27 | 00:00:00 | |
| IW2NTF | 2026-09-03 11:36:33 | 45.35721 | 8.80735 | 157° | 66km/h | 7694m | 3m/s | -20.6°C | 15.5% | 0hPa | 2.9V | 08:30:00 | 01:01:17 | 00:00:00 | |
| IW2NTF | 2026-09-03 11:36:23 | 45.35877 | 8.80636 | 159° | 66km/h | 7663m | 3.5m/s | -20.4°C | 15.2% | 0hPa | 2.9V | 08:30:00 | 01:01:07 | 00:00:00 | |
| IW2NTF | 2026-09-03 11:36:09 | 45.36030 | 8.80548 | 153° | 66km/h | 7633m | 2.4m/s | -20.1°C | 15.4% | 0hPa | 2.8V | 08:30:00 | 01:00:57 | 00:00:00 | |
| IW2NTF | 2026-09-03 11:36:00 | 45.36183 | 8.80466 | 155° | 68km/h | 7603m | 3m/s | -19.9°C | 15.3% | 0hPa | 2.9V | 08:30:00 | 01:00:47 | 00:00:00 | |
| IW2NTF | 2026-09-03 11:35:50 | 45.36341 | 8.80366 | 158° | 66km/h | 7575m | 3m/s | -19.6°C | 15% | 0hPa | 2.9V | 08:30:00 | 01:00:37 | 00:00:00 | |
| IW2NTF | 2026-09-03 11:35:38 | 45.36499 | 8.80276 | 156° | 69km/h | 7546m | 2.2m/s | -19.3°C | 15.2% | 0hPa | 2.9V | 08:30:00 | 01:00:27 | 00:00:00 | |
| IW2NTF | 2026-09-03 11:35:33 | 45.36654 | 8.80192 | 158° | 66km/h | 7516m | 2.3m/s | -19.1°C | 14.9% | 0hPa | 2.9V | 08:30:00 | 01:00:17 | 00:00:00 | |
| IW2NTF | 2026-09-03 11:35:24 | 45.36813 | 8.80098 | 157° | 68km/h | 7488m | 2.8m/s | -18.9°C | 14.4% | 0hPa | 2.9V | 08:30:00 | 01:00:07 | 00:00:00 | |
| IW2NTF | 2026-09-03 11:35:13 | 45.36969 | 8.80016 | 156° | 66km/h | 7456m | 3.6m/s | -18.6°C | 14% | 0hPa | 2.9V | 08:30:00 | 00:59:57 | 00:00:00 | |
| IW2NTF | 2026-09-03 11:35:04 | 45.37119 | 8.79927 | 156° | 64km/h | 7426m | 3.4m/s | -18.5°C | 14.1% | 0hPa | 2.9V | 08:30:00 | 00:59:47 | 00:00:00 | |
| IW2NTF | 2026-09-03 11:34:53 | 45.37269 | 8.79841 | 158° | 62km/h | 7396m | 2.6m/s | -18.2°C | 14.2% | 0hPa | 2.8V | 08:30:00 | 00:59:37 | 00:00:00 | |
| IW2NTF | 2026-09-03 11:34:43 | 45.37415 | 8.79750 | 156° | 62km/h | 7365m | 3.4m/s | -18°C | 14% | 0hPa | 2.9V | 08:30:00 | 00:59:27 | 00:00:00 | |
| IW2NTF | 2026-09-03 11:34:33 | 45.37561 | 8.79652 | 155° | 62km/h | 7335m | 3.7m/s | -17.7°C | 13.8% | 0hPa | 2.9V | 08:30:00 | 00:59:17 | 00:00:00 | |
| IW2NTF | 2026-09-03 11:34:24 | 45.37707 | 8.79564 | 157° | 64km/h | 7305m | 2.8m/s | -17.4°C | 13.2% | 0hPa | 3V | 08:30:00 | 00:59:07 | 00:00:00 | |
| IW2NTF | 2026-09-03 11:34:13 | 45.37852 | 8.79466 | 155° | 64km/h | 7274m | 3.5m/s | -17.2°C | 12.9% | 0hPa | 2.9V | 08:30:00 | 00:58:57 | 00:00:00 | |
| IW2NTF | 2026-09-03 11:34:01 | 45.38026 | 8.79347 | 154° | 66km/h | 7241m | 2.3m/s | -16.9°C | 12.5% | 0hPa | 3V | 08:30:00 | 00:58:45 | 00:00:00 | |
| IW2NTF | 2026-09-03 11:33:52 | 45.38177 | 8.79252 | 153° | 68km/h | 7213m | 2.4m/s | -16.7°C | 12.3% | 0hPa | 3V | 08:30:00 | 00:58:35 | 00:00:00 | |
| IW2NTF | 2026-09-03 11:33:41 | 45.38322 | 8.79153 | 153° | 66km/h | 7186m | 2.9m/s | -16.5°C | 12.1% | 0hPa | 2.9V | 08:30:00 | 00:58:25 | 00:00:00 | |
| IW2NTF | 2026-09-03 11:33:31 | 45.38473 | 8.79055 | 153° | 64km/h | 7157m | 3.1m/s | -16.2°C | 11.9% | 0hPa | 3V | 08:30:00 | 00:58:15 | 00:00:00 | |
| IW2NTF | 2026-09-03 11:33:21 | 45.38624 | 8.78944 | 151° | 66km/h | 7128m | 3.2m/s | -16°C | 12.1% | 0hPa | 3V | 08:30:00 | 00:58:05 | 00:00:00 | |
| IW2NTF | 2026-09-03 11:33:10 | 45.38810 | 8.78822 | 152° | 68km/h | 7093m | 3m/s | -15.8°C | 12.2% | 0hPa | 2.9V | 08:30:00 | 00:57:53 | 00:00:00 | |
| IW2NTF | 2026-09-03 11:33:00 | 45.38965 | 8.78703 | 154° | 71km/h | 7061m | 2.8m/s | -15.5°C | 12.2% | 0hPa | 3V | 08:30:00 | 00:57:43 | 00:00:00 | |
| IW2NTF | 2026-09-03 11:32:49 | 45.39119 | 8.78596 | 150° | 69km/h | 7032m | 3.7m/s | -15.3°C | 11.9% | 0hPa | 3V | 08:30:00 | 00:57:33 | 00:00:00 | |
| IW2NTF | 2026-09-03 11:32:37 | 45.39272 | 8.78490 | 156° | 68km/h | 7003m | 1.9m/s | -15.1°C | 12% | 0hPa | 3V | 08:30:00 | 00:57:23 | 00:00:00 | |
| IW2NTF | 2026-09-03 11:32:29 | 45.39425 | 8.78378 | 152° | 68km/h | 6975m | 3.5m/s | -14.9°C | 11.4% | 0hPa | 3V | 08:30:00 | 00:57:13 | 00:00:00 | |
| IW2NTF | 2026-09-03 11:32:20 | 45.39577 | 8.78270 | 154° | 68km/h | 6946m | 3m/s | -14.7°C | 11.4% | 0hPa | 3V | 08:30:00 | 00:57:03 | 00:00:00 | |
| IW2NTF | 2026-09-03 11:32:10 | 45.39726 | 8.78164 | 154° | 66km/h | 6917m | 3.5m/s | -14.5°C | 10.6% | 0hPa | 3V | 08:30:00 | 00:56:53 | 00:00:00 | |
| IW2NTF | 2026-09-03 11:32:00 | 45.39870 | 8.78057 | 153° | 60km/h | 6888m | 2.4m/s | -14.3°C | 10.2% | 0hPa | 3V | 08:30:00 | 00:56:43 | 00:00:00 | |
| IW2NTF | 2026-09-03 11:31:50 | 45.40014 | 8.77956 | 154° | 66km/h | 6859m | 3.6m/s | -14.2°C | 10.8% | 0hPa | 3V | 08:30:00 | 00:56:33 | 00:00:00 | |
| IW2NTF | 2026-09-03 11:31:39 | 45.40172 | 8.77843 | 153° | 60km/h | 6828m | 3.1m/s | -14°C | 8.6% | 0hPa | 3V | 08:30:00 | 00:56:22 | 00:00:00 | |
| IW2NTF | 2026-09-03 11:31:28 | 45.40306 | 8.77739 | 151° | 58km/h | 6799m | 3.4m/s | -14.2°C | 7.8% | 0hPa | 3V | 08:30:00 | 00:56:12 | 00:00:00 | |
| IW2NTF | 2026-09-03 11:31:15 | 45.40447 | 8.77639 | 152° | 62km/h | 6771m | 3m/s | -14.7°C | 18.8% | 0hPa | 3V | 08:30:00 | 00:56:02 | 00:00:00 | |
| IW2NTF | 2026-09-03 11:31:08 | 45.40583 | 8.77532 | 149° | 62km/h | 6743m | 2.8m/s | -15°C | 33.3% | 0hPa | 3V | 08:30:00 | 00:55:52 | 00:00:00 | |
| IW2NTF | 2026-09-03 11:30:58 | 45.40714 | 8.77417 | 142° | 60km/h | 6716m | 2.5m/s | -15°C | 42% | 0hPa | 3V | 08:30:00 | 00:55:42 | 00:00:00 | |
| IW2NTF | 2026-09-03 11:30:48 | 45.40845 | 8.77291 | 145° | 66km/h | 6689m | 2.6m/s | -14.9°C | 47.5% | 0hPa | 3V | 08:30:00 | 00:55:32 | 00:00:00 | |
| IW2NTF | 2026-09-03 11:30:38 | 45.40983 | 8.77155 | 144° | 64km/h | 6662m | 3.3m/s | -14.7°C | 49.1% | 0hPa | 3V | 08:30:00 | 00:55:22 | 00:00:00 | |
| IW2NTF | 2026-09-03 11:30:28 | 45.41120 | 8.77013 | 141° | 66km/h | 6635m | 2.8m/s | -14.5°C | 48.7% | 0hPa | 3V | 08:30:00 | 00:55:12 | 00:00:00 | |
| IW2NTF | 2026-09-03 11:30:18 | 45.41253 | 8.76871 | 143° | 64km/h | 6606m | 2.4m/s | -14.2°C | 48.1% | 0hPa | 3V | 08:30:00 | 00:55:02 | 00:00:00 | |
| IW2NTF | 2026-09-03 11:30:06 | 45.41407 | 8.76717 | 140° | 62km/h | 6570m | 3.5m/s | -13.8°C | 46.6% | 0hPa | 3V | 08:30:00 | 00:54:50 | 00:00:00 | |
| IW2NTF | 2026-09-03 11:29:57 | 45.41525 | 8.76584 | 142° | 64km/h | 6542m | 2.8m/s | -13.6°C | 46.4% | 0hPa | 3V | 08:30:00 | 00:54:40 | 00:00:00 | |
| IW2NTF | 2026-09-03 11:29:47 | 45.41645 | 8.76456 | 138° | 57km/h | 6512m | 3m/s | -13.3°C | 46.5% | 0hPa | 3V | 08:30:00 | 00:54:30 | 00:00:00 | |
| IW2NTF | 2026-09-03 11:29:36 | 45.41763 | 8.76322 | 144° | 57km/h | 6481m | 2.6m/s | -13.1°C | 45.9% | 0hPa | 3V | 08:30:00 | 00:54:20 | 00:00:00 | |
| IW2NTF | 2026-09-03 11:29:26 | 45.41872 | 8.76189 | 139° | 57km/h | 6451m | 2.8m/s | -12.9°C | 44.4% | 0hPa | 3V | 08:30:00 | 00:54:10 | 00:00:00 | |
| IW2NTF | 2026-09-03 11:29:17 | 45.41992 | 8.76057 | 140° | 60km/h | 6420m | 2.9m/s | -12.8°C | 47.4% | 0hPa | 3V | 08:30:00 | 00:54:00 | 00:00:00 | |
| IW2NTF | 2026-09-03 11:29:06 | 45.42097 | 8.75921 | 138° | 58km/h | 6390m | 3.5m/s | -12.6°C | 46.9% | 0hPa | 3V | 08:30:00 | 00:53:50 | 00:00:00 | |
| IW2NTF | 2026-09-03 11:28:57 | 45.42212 | 8.75790 | 143° | 57km/h | 6358m | 3.5m/s | -12.4°C | 50.3% | 0hPa | 3V | 08:30:00 | 00:53:40 | 00:00:00 | |
| IW2NTF | 2026-09-03 11:28:45 | 45.42333 | 8.75649 | 140° | 57km/h | 6324m | 2.5m/s | -12.2°C | 54.5% | 0hPa | 3V | 08:30:00 | 00:53:29 | 00:00:00 | |
| IW2NTF | 2026-09-03 11:28:36 | 45.42444 | 8.75521 | 140° | 57km/h | 6291m | 3.1m/s | -12°C | 54.2% | 0hPa | 3V | 08:30:00 | 00:53:19 | 00:00:00 | |
| IW2NTF | 2026-09-03 11:28:26 | 45.42554 | 8.75384 | 137° | 60km/h | 6259m | 3m/s | -11.7°C | 54.5% | 0hPa | 3V | 08:30:00 | 00:53:09 | 00:00:00 | |
| IW2NTF | 2026-09-03 11:28:16 | 45.42662 | 8.75249 | 139° | 53km/h | 6229m | 3.3m/s | -11.5°C | 54.6% | 0hPa | 3V | 08:30:00 | 00:52:59 | 00:00:00 | |
| IW2NTF | 2026-09-03 11:28:05 | 45.42767 | 8.75111 | 138° | 57km/h | 6199m | 3.9m/s | -11.3°C | 55.1% | 0hPa | 3V | 08:30:00 | 00:52:49 | 00:00:00 | |
| IW2NTF | 2026-09-03 11:27:55 | 45.42875 | 8.74983 | 140° | 53km/h | 6168m | 3.1m/s | -11.1°C | 55.4% | 0hPa | 3V | 08:30:00 | 00:52:39 | 00:00:00 | |
| IW2NTF | 2026-09-03 11:27:46 | 45.42988 | 8.74854 | 143° | 60km/h | 6137m | 3.8m/s | -10.8°C | 55.9% | 0hPa | 3V | 08:30:00 | 00:52:29 | 00:00:00 | |
| IW2NTF | 2026-09-03 11:27:33 | 45.43122 | 8.74697 | 143° | 58km/h | 6098m | 3.3m/s | -10.6°C | 54.5% | 0hPa | 3V | 08:30:00 | 00:52:17 | 00:00:00 | |
| IW2NTF | 2026-09-03 11:27:23 | 45.43237 | 8.74566 | 141° | 58km/h | 6065m | 3.1m/s | -10.4°C | 54.6% | 0hPa | 3V | 08:30:00 | 00:52:07 | 00:00:00 | |
| IW2NTF | 2026-09-03 11:27:14 | 45.43348 | 8.74431 | 137° | 57km/h | 6032m | 3m/s | -10.1°C | 54% | 0hPa | 3V | 08:30:00 | 00:51:57 | 00:00:00 | |
| IW2NTF | 2026-09-03 11:27:03 | 45.43464 | 8.74298 | 143° | 60km/h | 5998m | 4m/s | -9.8°C | 54% | 0hPa | 3V | 08:30:00 | 00:51:47 | 00:00:00 | |
| IW2NTF | 2026-09-03 11:26:53 | 45.43575 | 8.74160 | 138° | 58km/h | 5967m | 3.2m/s | -9.6°C | 54.8% | 0hPa | 3V | 08:30:00 | 00:51:37 | 00:00:00 | |
| IW2NTF | 2026-09-03 11:26:43 | 45.43689 | 8.74028 | 139° | 57km/h | 5935m | 3.3m/s | -9.4°C | 55% | 0hPa | 3V | 08:30:00 | 00:51:27 | 00:00:00 | |
| IW2NTF | 2026-09-03 11:26:28 | 45.43827 | 8.73870 | 141° | 60km/h | 5897m | 3.2m/s | -9.1°C | 56.6% | 0hPa | 3V | 08:30:00 | 00:51:15 | 00:00:00 | |
| IW2NTF | 2026-09-03 11:26:18 | 45.43946 | 8.73737 | 141° | 60km/h | 5863m | 4.1m/s | -8.8°C | 56.5% | 0hPa | 2.9V | 08:30:00 | 00:51:05 | 00:00:00 | |
| IW2NTF | 2026-09-03 11:26:08 | 45.44061 | 8.73597 | 135° | 62km/h | 5829m | 3m/s | -8.5°C | 57.3% | 0hPa | 3V | 08:30:00 | 00:50:55 | 00:00:00 | |
| IW2NTF | 2026-09-03 11:25:57 | 45.44173 | 8.73457 | 142° | 60km/h | 5799m | 3.5m/s | -8.3°C | 57.3% | 0hPa | 3V | 08:30:00 | 00:50:45 | 00:00:00 | |
| IW2NTF | 2026-09-03 11:25:51 | 45.44293 | 8.73308 | 137° | 60km/h | 5766m | 2.9m/s | -8.1°C | 55.1% | 0hPa | 3V | 08:30:00 | 00:50:35 | 00:00:00 | |
| IW2NTF | 2026-09-03 11:25:41 | 45.44411 | 8.73163 | 139° | 62km/h | 5735m | 3.3m/s | -7.8°C | 55.3% | 0hPa | 3V | 08:30:00 | 00:50:25 | 00:00:00 | |
| IW2NTF | 2026-09-03 11:25:26 | 45.44529 | 8.73020 | 142° | 60km/h | 5703m | 3.1m/s | -7.5°C | 54.6% | 0hPa | 3V | 08:30:00 | 00:50:15 | 00:00:00 | |
| IW2NTF | 2026-09-03 11:25:19 | 45.44674 | 8.72861 | 143° | 64km/h | 5665m | 3.3m/s | -7.2°C | 54% | 0hPa | 3V | 08:30:00 | 00:50:03 | 00:00:00 | |
| IW2NTF | 2026-09-03 11:25:08 | 45.44804 | 8.72719 | 144° | 57km/h | 5630m | 3m/s | -7°C | 52.4% | 0hPa | 3V | 08:30:00 | 00:49:52 | 00:00:00 | |
| IW2NTF | 2026-09-03 11:24:57 | 45.44935 | 8.72579 | 142° | 58km/h | 5594m | 3.4m/s | -6.6°C | 52.2% | 0hPa | 3V | 08:30:00 | 00:49:41 | 00:00:00 | |
| IW2NTF | 2026-09-03 11:24:43 | 45.45056 | 8.72448 | 143° | 58km/h | 5562m | 3.3m/s | -6.4°C | 53.9% | 0hPa | 3V | 08:30:00 | 00:49:31 | 00:00:00 | |
| IW2NTF | 2026-09-03 11:24:38 | 45.45172 | 8.72328 | 143° | 57km/h | 5530m | 3.4m/s | -6.1°C | 52% | 0hPa | 3V | 08:30:00 | 00:49:21 | 00:00:00 | |
| IW2NTF | 2026-09-03 11:24:27 | 45.45287 | 8.72202 | 141° | 58km/h | 5496m | 2.7m/s | -5.8°C | 51.6% | 0hPa | 3V | 08:30:00 | 00:49:11 | 00:00:00 | |
| IW2NTF | 2026-09-03 11:24:17 | 45.45404 | 8.72080 | 144° | 55km/h | 5462m | 2.9m/s | -5.5°C | 51.9% | 0hPa | 3V | 08:30:00 | 00:49:01 | 00:00:00 | |
| IW2NTF | 2026-09-03 11:24:03 | 45.45521 | 8.71960 | 143° | 57km/h | 5432m | 3.7m/s | -5.3°C | 53.9% | 0hPa | 3V | 08:30:00 | 00:48:51 | 00:00:00 | |
| IW2NTF | 2026-09-03 11:23:58 | 45.45638 | 8.71836 | 140° | 58km/h | 5399m | 2.2m/s | -5.1°C | 52.3% | 0hPa | 3V | 08:30:00 | 00:48:41 | 00:00:00 | |
| IW2NTF | 2026-09-03 11:23:47 | 45.45759 | 8.71721 | 144° | 57km/h | 5367m | 3m/s | -4.8°C | 51.4% | 0hPa | 3V | 08:30:00 | 00:48:31 | 00:00:00 | |
| IW2NTF | 2026-09-03 11:23:37 | 45.45880 | 8.71605 | 147° | 55km/h | 5336m | 3.5m/s | -4.6°C | 50.8% | 0hPa | 3V | 08:30:00 | 00:48:21 | 00:00:00 | |
| IW2NTF | 2026-09-03 11:23:27 | 45.46004 | 8.71489 | 146° | 58km/h | 5304m | 4m/s | -4.3°C | 49.3% | 0hPa | 3V | 08:30:00 | 00:48:11 | 00:00:00 | |
| IW2NTF | 2026-09-03 11:23:17 | 45.46127 | 8.71381 | 147° | 58km/h | 5273m | 3m/s | -4°C | 48.3% | 0hPa | 3V | 08:30:00 | 00:48:01 | 00:00:00 | |
| IW2NTF | 2026-09-03 11:23:07 | 45.46250 | 8.71271 | 146° | 58km/h | 5241m | 3.6m/s | -3.7°C | 47.5% | 0hPa | 3V | 08:30:00 | 00:47:51 | 00:00:00 | |
| IW2NTF | 2026-09-03 11:22:57 | 45.46369 | 8.71162 | 147° | 58km/h | 5208m | 3.5m/s | -3.4°C | 46.8% | 0hPa | 3V | 08:30:00 | 00:47:41 | 00:00:00 | |
| IW2NTF | 2026-09-03 11:22:48 | 45.46489 | 8.71052 | 145° | 53km/h | 5178m | 2.9m/s | -3.1°C | 46.5% | 0hPa | 3V | 08:30:00 | 00:47:31 | 00:00:00 | |
| IW2NTF | 2026-09-03 11:22:37 | 45.46608 | 8.70942 | 148° | 57km/h | 5146m | 3.8m/s | -2.8°C | 45.6% | 0hPa | 3V | 08:30:00 | 00:47:21 | 00:00:00 | |
| IW2NTF | 2026-09-03 11:22:27 | 45.46729 | 8.70830 | 149° | 57km/h | 5114m | 3.8m/s | -2.5°C | 44.4% | 0hPa | 3V | 08:30:00 | 00:47:11 | 00:00:00 | |
| IW2NTF | 2026-09-03 11:22:16 | 45.46854 | 8.70722 | 146° | 57km/h | 5082m | 4m/s | -2.3°C | 43.1% | 0hPa | 3V | 08:30:00 | 00:47:01 | 00:00:00 | |
| IW2NTF | 2026-09-03 11:22:07 | 45.46975 | 8.70613 | 145° | 55km/h | 5050m | 2.6m/s | -2.1°C | 43.7% | 0hPa | 3V | 08:30:00 | 00:46:51 | 00:00:00 | |
| IW2NTF | 2026-09-03 11:21:57 | 45.47093 | 8.70497 | 146° | 55km/h | 5018m | 2.8m/s | -1.8°C | 43.9% | 0hPa | 3V | 08:30:00 | 00:46:41 | 00:00:00 | |
| IW2NTF | 2026-09-03 11:21:47 | 45.47218 | 8.70388 | 148° | 57km/h | 4987m | 2.7m/s | -1.7°C | 44.6% | 0hPa | 3V | 08:30:00 | 00:46:31 | 00:00:00 | |
| IW2NTF | 2026-09-03 11:21:42 | 45.47290 | 8.70323 | 149° | 57km/h | 4968m | 3.3m/s | -1.6°C | 45.6% | 0hPa | 3V | 08:30:00 | 00:46:25 | 00:00:00 | |
| IW2NTF | 2026-09-03 11:21:35 | 45.47364 | 8.70260 | 150° | 57km/h | 4950m | 2.9m/s | -1.6°C | 47.8% | 0hPa | 3V | 08:30:00 | 00:46:19 | 00:00:00 | |
| IW2NTF | 2026-09-03 11:21:30 | 45.47438 | 8.70197 | 147° | 57km/h | 4931m | 3.6m/s | -1.5°C | 51.2% | 0hPa | 3V | 08:30:00 | 00:46:13 | 00:00:00 | |
| IW2NTF | 2026-09-03 11:21:16 | 45.47537 | 8.70120 | 155° | 57km/h | 4906m | 3.5m/s | -1.3°C | 50.7% | 0hPa | 3V | 08:30:00 | 00:46:05 | 00:00:00 | |
| IW2NTF | 2026-09-03 11:21:16 | 45.47600 | 8.70073 | 149° | 55km/h | 4891m | 2.9m/s | -1.2°C | 50.5% | 0hPa | 3V | 08:30:00 | 00:46:00 | 00:00:00 | |
| IW2NTF | 2026-09-03 11:21:11 | 45.47663 | 8.70025 | 154° | 62km/h | 4876m | 2.7m/s | -1°C | 49.7% | 0hPa | 3V | 08:30:00 | 00:45:55 | 00:00:00 | |
| IW2NTF | 2026-09-03 11:21:05 | 45.47742 | 8.69969 | 149° | 57km/h | 4858m | 3.1m/s | -0.9°C | 49.3% | 0hPa | 3V | 08:30:00 | 00:45:49 | 00:00:00 | |
| IW2NTF | 2026-09-03 11:21:00 | 45.47818 | 8.69911 | 153° | 58km/h | 4841m | 2.2m/s | -0.7°C | 48.8% | 0hPa | 3V | 08:30:00 | 00:45:43 | 00:00:00 | |
| IW2NTF | 2026-09-03 11:20:53 | 45.47896 | 8.69854 | 151° | 57km/h | 4821m | 3.5m/s | -0.6°C | 48.3% | 0hPa | 3V | 08:30:00 | 00:45:37 | 00:00:00 | |
| IW2NTF | 2026-09-03 11:20:47 | 45.47985 | 8.69791 | 156° | 57km/h | 4799m | 3.4m/s | -0.4°C | 47.6% | 0hPa | 3V | 08:30:00 | 00:45:30 | 00:00:00 | |
| IW2NTF | 2026-09-03 11:20:42 | 45.48049 | 8.69748 | 152° | 55km/h | 4785m | 3m/s | -0.3°C | 47.9% | 0hPa | 3V | 08:30:00 | 00:45:25 | 00:00:00 | |
| IW2NTF | 2026-09-03 11:20:36 | 45.48124 | 8.69691 | 153° | 57km/h | 4764m | 3.8m/s | -0.2°C | 47.8% | 0hPa | 3V | 08:30:00 | 00:45:19 | 00:00:00 | |
| IW2NTF | 2026-09-03 11:20:29 | 45.48198 | 8.69639 | 152° | 53km/h | 4746m | 3.7m/s | -0°C | 47.4% | 0hPa | 3V | 08:30:00 | 00:45:13 | 00:00:00 | |
| IW2NTF | 2026-09-03 11:20:23 | 45.48271 | 8.69584 | 149° | 55km/h | 4726m | 2.7m/s | 0.1°C | 46.4% | 0hPa | 3V | 08:30:00 | 00:45:07 | 00:00:00 | |
| IW2NTF | 2026-09-03 11:20:18 | 45.48339 | 8.69527 | 150° | 51km/h | 4708m | 2.9m/s | 0.3°C | 46% | 0hPa | 3V | 08:30:00 | 00:45:01 | 00:00:00 | |
| IW2NTF | 2026-09-03 11:20:11 | 45.48409 | 8.69474 | 151° | 51km/h | 4691m | 2.8m/s | 0.3°C | 47.6% | 0hPa | 3V | 08:30:00 | 00:44:55 | 00:00:00 | |
| IW2NTF | 2026-09-03 11:20:05 | 45.48477 | 8.69417 | 149° | 51km/h | 4670m | 2.5m/s | 0.5°C | 47.5% | 0hPa | 3V | 08:30:00 | 00:44:49 | 00:00:00 | |
| IW2NTF | 2026-09-03 11:19:59 | 45.48546 | 8.69359 | 147° | 53km/h | 4652m | 3.9m/s | 0.5°C | 48% | 0hPa | 3V | 08:30:00 | 00:44:43 | 00:00:00 | |
| IW2NTF | 2026-09-03 11:19:53 | 45.48614 | 8.69298 | 153° | 51km/h | 4632m | 3.6m/s | 0.7°C | 48.1% | 0hPa | 3V | 08:30:00 | 00:44:37 | 00:00:00 | |
| IW2NTF | 2026-09-03 11:19:47 | 45.48684 | 8.69251 | 155° | 53km/h | 4613m | 3.5m/s | 0.8°C | 48.1% | 0hPa | 3V | 08:30:00 | 00:44:31 | 00:00:00 | |
| IW2NTF | 2026-09-03 11:19:41 | 45.48756 | 8.69198 | 151° | 53km/h | 4593m | 3.2m/s | 1°C | 47.9% | 0hPa | 3V | 08:30:00 | 00:44:25 | 00:00:00 | |
| IW2NTF | 2026-09-03 11:19:36 | 45.48826 | 8.69143 | 151° | 55km/h | 4574m | 4.1m/s | 1.1°C | 47.5% | 0hPa | 3V | 08:30:00 | 00:44:19 | 00:00:00 | |
| IW2NTF | 2026-09-03 11:19:27 | 45.48920 | 8.69072 | 154° | 53km/h | 4546m | 3.5m/s | 1.4°C | 46.5% | 0hPa | 3V | 08:30:00 | 00:44:11 | 00:00:00 | |
| IW2NTF | 2026-09-03 11:19:21 | 45.48997 | 8.69026 | 158° | 55km/h | 4526m | 2.7m/s | 1.6°C | 45.7% | 0hPa | 3V | 08:30:00 | 00:44:05 | 00:00:00 | |
| IW2NTF | 2026-09-03 11:19:15 | 45.49071 | 8.68979 | 152° | 51km/h | 4507m | 4m/s | 1.7°C | 45% | 0hPa | 3V | 08:30:00 | 00:43:59 | 00:00:00 | |
| IW2NTF | 2026-09-03 11:19:09 | 45.49139 | 8.68930 | 152° | 53km/h | 4487m | 3.1m/s | 1.9°C | 44.8% | 0hPa | 3V | 08:30:00 | 00:43:53 | 00:00:00 | |
| IW2NTF | 2026-09-03 11:19:04 | 45.49213 | 8.68882 | 156° | 53km/h | 4467m | 3m/s | 2°C | 44.5% | 0hPa | 3V | 08:30:00 | 00:43:47 | 00:00:00 | |
| IW2NTF | 2026-09-03 11:18:57 | 45.49286 | 8.68835 | 154° | 55km/h | 4449m | 3.6m/s | 2.2°C | 44.8% | 0hPa | 3V | 08:30:00 | 00:43:41 | 00:00:00 | |
| IW2NTF | 2026-09-03 11:18:49 | 45.49386 | 8.68771 | 157° | 53km/h | 4424m | 3.2m/s | 2.3°C | 45.9% | 0hPa | 3V | 08:30:00 | 00:43:33 | 00:00:00 | |
| IW2NTF | 2026-09-03 11:18:43 | 45.49458 | 8.68721 | 153° | 53km/h | 4404m | 3.5m/s | 2.5°C | 45.5% | 0hPa | 3V | 08:30:00 | 00:43:27 | 00:00:00 | |
| IW2NTF | 2026-09-03 11:18:36 | 45.49532 | 8.68672 | 154° | 51km/h | 4384m | 4m/s | 2.7°C | 44.7% | 0hPa | 3V | 08:30:00 | 00:43:21 | 00:00:00 | |
| IW2NTF | 2026-09-03 11:18:31 | 45.49599 | 8.68619 | 151° | 49km/h | 4365m | 3.2m/s | 2.9°C | 44.2% | 0hPa | 3V | 08:30:00 | 00:43:15 | 00:00:00 | |
| IW2NTF | 2026-09-03 11:18:25 | 45.49669 | 8.68568 | 155° | 51km/h | 4345m | 3.2m/s | 3.1°C | 42.9% | 0hPa | 3V | 08:30:00 | 00:43:09 | 00:00:00 | |
| IW2NTF | 2026-09-03 11:18:20 | 45.49740 | 8.68519 | 150° | 53km/h | 4324m | 4.4m/s | 3.3°C | 42.1% | 0hPa | 3V | 08:30:00 | 00:43:03 | 00:00:00 | |
| IW2NTF | 2026-09-03 11:18:11 | 45.49828 | 8.68444 | 153° | 49km/h | 4296m | 3.4m/s | 3.6°C | 24.6% | 0hPa | 3V | 08:30:00 | 00:42:55 | 00:00:00 | |
| IW2NTF | 2026-09-03 11:18:05 | 45.49895 | 8.68393 | 149° | 49km/h | 4278m | 3.5m/s | 3.8°C | 12.4% | 0hPa | 3V | 08:30:00 | 00:42:49 | 00:00:00 | |
| IW2NTF | 2026-09-03 11:17:59 | 45.49962 | 8.68337 | 151° | 49km/h | 4259m | 3.9m/s | 3.9°C | 4% | 0hPa | 3V | 08:30:00 | 00:42:43 | 00:00:00 | |
| IW2NTF | 2026-09-03 11:17:53 | 45.50030 | 8.68289 | 152° | 51km/h | 4239m | 3.2m/s | 3.9°C | 3.3% | 0hPa | 3V | 08:30:00 | 00:42:37 | 00:00:00 | |
| IW2NTF | 2026-09-03 11:17:47 | 45.50098 | 8.68238 | 150° | 51km/h | 4219m | 3.5m/s | 4°C | 3.5% | 0hPa | 3V | 08:30:00 | 00:42:31 | 00:00:00 | |
| IW2NTF | 2026-09-03 11:17:41 | 45.50165 | 8.68184 | 149° | 51km/h | 4199m | 2.9m/s | 4.1°C | 3.6% | 0hPa | 3V | 08:30:00 | 00:42:25 | 00:00:00 | |
| IW2NTF | 2026-09-03 11:17:35 | 45.50232 | 8.68131 | 152° | 51km/h | 4182m | 2.8m/s | 4.1°C | 3.9% | 0hPa | 3V | 08:30:00 | 00:42:19 | 00:00:00 | |
| IW2NTF | 2026-09-03 11:17:29 | 45.50300 | 8.68086 | 156° | 51km/h | 4164m | 3.3m/s | 4.1°C | 3.4% | 0hPa | 3V | 08:30:00 | 00:42:13 | 00:00:00 | |
| IW2NTF | 2026-09-03 11:17:23 | 45.50373 | 8.68044 | 155° | 49km/h | 4145m | 3.4m/s | 4.2°C | 3.3% | 0hPa | 3V | 08:30:00 | 00:42:07 | 00:00:00 | |
| IW2NTF | 2026-09-03 11:17:17 | 45.50438 | 8.68003 | 157° | 44km/h | 4127m | 4.2m/s | 4.3°C | 3.2% | 0hPa | 3V | 08:30:00 | 00:42:01 | 00:00:00 | |
| IW2NTF | 2026-09-03 11:17:11 | 45.50510 | 8.67967 | 160° | 53km/h | 4108m | 3.2m/s | 4.3°C | 4% | 0hPa | 3V | 08:30:00 | 00:41:55 | 00:00:00 | |
| IW2NTF | 2026-09-03 11:17:05 | 45.50582 | 8.67929 | 158° | 47km/h | 4089m | 3.5m/s | 4°C | 9.6% | 0hPa | 3V | 08:30:00 | 00:41:49 | 00:00:00 | |
| IW2NTF | 2026-09-03 11:17:00 | 45.50652 | 8.67889 | 160° | 51km/h | 4069m | 3.9m/s | 3.7°C | 22.8% | 0hPa | 3V | 08:30:00 | 00:41:43 | 00:00:00 | |
| IW2NTF | 2026-09-03 11:16:53 | 45.50725 | 8.67851 | 155° | 49km/h | 4048m | 3.4m/s | 3.6°C | 28.3% | 0hPa | 3V | 08:30:00 | 00:41:37 | 00:00:00 | |
| IW2NTF | 2026-09-03 11:16:47 | 45.50793 | 8.67802 | 153° | 46km/h | 4026m | 4.6m/s | 3.5°C | 36.4% | 0hPa | 3V | 08:30:00 | 00:41:31 | 00:00:00 | |
| IW2NTF | 2026-09-03 11:16:39 | 45.50879 | 8.67760 | 159° | 44km/h | 3995m | 3.6m/s | 3.7°C | 37.4% | 0hPa | 3V | 08:30:00 | 00:41:23 | 00:00:00 | |
| IW2NTF | 2026-09-03 11:16:34 | 45.50939 | 8.67724 | 155° | 40km/h | 3974m | 4.4m/s | 3.5°C | 47.1% | 0hPa | 3V | 08:30:00 | 00:41:17 | 00:00:00 | |
| IW2NTF | 2026-09-03 11:16:27 | 45.50999 | 8.67693 | 164° | 44km/h | 3954m | 3.3m/s | 3.6°C | 42.7% | 0hPa | 3V | 08:30:00 | 00:41:11 | 00:00:00 | |
| IW2NTF | 2026-09-03 11:16:22 | 45.51060 | 8.67668 | 158° | 38km/h | 3936m | 3.8m/s | 3.8°C | 34.6% | 0hPa | 3V | 08:30:00 | 00:41:05 | 00:00:00 | |
| IW2NTF | 2026-09-03 11:16:15 | 45.51110 | 8.67636 | 159° | 35km/h | 3918m | 3.5m/s | 4°C | 34.4% | 0hPa | 3V | 08:30:00 | 00:40:59 | 00:00:00 | |
| IW2NTF | 2026-09-03 11:16:09 | 45.51164 | 8.67613 | 163° | 37km/h | 3899m | 2.4m/s | 4.2°C | 34.3% | 0hPa | 3V | 08:30:00 | 00:40:53 | 00:00:00 | |
| IW2NTF | 2026-09-03 11:16:03 | 45.51217 | 8.67587 | 166° | 33km/h | 3880m | 2.7m/s | 4.3°C | 33.5% | 0hPa | 3V | 08:30:00 | 00:40:47 | 00:00:00 | |
| IW2NTF | 2026-09-03 11:15:57 | 45.51266 | 8.67570 | 163° | 35km/h | 3862m | 2.9m/s | 4.4°C | 33.8% | 0hPa | 3V | 08:30:00 | 00:40:41 | 00:00:00 | |
| IW2NTF | 2026-09-03 11:15:51 | 45.51319 | 8.67547 | 163° | 35km/h | 3844m | 2.6m/s | 4.5°C | 34.9% | 0hPa | 3V | 08:30:00 | 00:40:35 | 00:00:00 | |
| IW2NTF | 2026-09-03 11:15:45 | 45.51369 | 8.67526 | 161° | 33km/h | 3825m | 4.3m/s | 4.6°C | 31.8% | 0hPa | 3V | 08:30:00 | 00:40:29 | 00:00:00 | |
| IW2NTF | 2026-09-03 11:15:39 | 45.51418 | 8.67499 | 159° | 37km/h | 3807m | 2.6m/s | 4.7°C | 31.7% | 0hPa | 3V | 08:30:00 | 00:40:23 | 00:00:00 | |
| IW2NTF | 2026-09-03 11:15:33 | 45.51470 | 8.67473 | 160° | 35km/h | 3790m | 3m/s | 4.8°C | 23.2% | 0hPa | 3V | 08:30:00 | 00:40:17 | 00:00:00 | |
| IW2NTF | 2026-09-03 11:15:27 | 45.51516 | 8.67445 | 158° | 31km/h | 3772m | 3.1m/s | 4.8°C | 31.8% | 0hPa | 3V | 08:30:00 | 00:40:11 | 00:00:00 | |
| IW2NTF | 2026-09-03 11:15:21 | 45.51564 | 8.67419 | 159° | 37km/h | 3754m | 3.9m/s | 4.9°C | 39.1% | 0hPa | 3V | 08:30:00 | 00:40:05 | 00:00:00 | |
| IW2NTF | 2026-09-03 11:15:16 | 45.51614 | 8.67388 | 156° | 33km/h | 3736m | 3.5m/s | 5°C | 41.6% | 0hPa | 3V | 08:30:00 | 00:39:59 | 00:00:00 | |
| IW2NTF | 2026-09-03 11:15:10 | 45.51658 | 8.67361 | 157° | 35km/h | 3718m | 3.3m/s | 5.1°C | 44.9% | 0hPa | 3V | 08:30:00 | 00:39:53 | 00:00:00 | |
| IW2NTF | 2026-09-03 11:15:03 | 45.51708 | 8.67330 | 153° | 37km/h | 3700m | 3.4m/s | 5.1°C | 48.5% | 0hPa | 3V | 08:30:00 | 00:39:47 | 00:00:00 | |
| IW2NTF | 2026-09-03 11:14:58 | 45.51753 | 8.67297 | 156° | 33km/h | 3680m | 3m/s | 5°C | 52.7% | 0hPa | 3V | 08:30:00 | 00:39:41 | 00:00:00 | |
| IW2NTF | 2026-09-03 11:14:51 | 45.51797 | 8.67269 | 147° | 33km/h | 3662m | 2.5m/s | 5.1°C | 55% | 0hPa | 3V | 08:30:00 | 00:39:35 | 00:00:00 | |
| IW2NTF | 2026-09-03 11:14:45 | 45.51842 | 8.67237 | 157° | 31km/h | 3644m | 3.9m/s | 5.2°C | 54.7% | 0hPa | 3V | 08:30:00 | 00:39:29 | 00:00:00 | |
| IW2NTF | 2026-09-03 11:14:39 | 45.51884 | 8.67213 | 159° | 27km/h | 3625m | 3.1m/s | 5.4°C | 54.2% | 0hPa | 3V | 08:30:00 | 00:39:23 | 00:00:00 | |
| IW2NTF | 2026-09-03 11:14:33 | 45.51928 | 8.67189 | 158° | 33km/h | 3607m | 3.6m/s | 5.5°C | 52.5% | 0hPa | 3V | 08:30:00 | 00:39:17 | 00:00:00 | |
| IW2NTF | 2026-09-03 11:14:28 | 45.51969 | 8.67160 | 153° | 29km/h | 3588m | 3m/s | 5.7°C | 51.2% | 0hPa | 3V | 08:30:00 | 00:39:11 | 00:00:00 | |
| IW2NTF | 2026-09-03 11:14:21 | 45.52013 | 8.67128 | 154° | 37km/h | 3566m | 4.1m/s | 5.9°C | 50.3% | 0hPa | 3V | 08:30:00 | 00:39:05 | 00:00:00 | |
| IW2NTF | 2026-09-03 11:14:15 | 45.52056 | 8.67096 | 147° | 27km/h | 3544m | 3.5m/s | 6.1°C | 49.9% | 0hPa | 3V | 08:30:00 | 00:38:59 | 00:00:00 | |
| IW2NTF | 2026-09-03 11:14:10 | 45.52097 | 8.67063 | 149° | 35km/h | 3524m | 3m/s | 6.3°C | 49.4% | 0hPa | 3V | 08:30:00 | 00:38:53 | 00:00:00 | |
| IW2NTF | 2026-09-03 11:14:03 | 45.52141 | 8.67027 | 150° | 33km/h | 3507m | 4.2m/s | 6.5°C | 46.9% | 0hPa | 3V | 08:30:00 | 00:38:47 | 00:00:00 | |
| IW2NTF | 2026-09-03 11:13:58 | 45.52182 | 8.66990 | 147° | 31km/h | 3486m | 3.5m/s | 6.7°C | 43.6% | 0hPa | 3V | 08:30:00 | 00:38:41 | 00:00:00 | |
| IW2NTF | 2026-09-03 11:13:51 | 45.52222 | 8.66963 | 154° | 31km/h | 3466m | 3.2m/s | 6.9°C | 42.5% | 0hPa | 3V | 08:30:00 | 00:38:35 | 00:00:00 | |
| IW2NTF | 2026-09-03 11:13:45 | 45.52264 | 8.66932 | 145° | 29km/h | 3446m | 3.9m/s | 7.1°C | 37.2% | 0hPa | 3V | 08:30:00 | 00:38:29 | 00:00:00 | |
| IW2NTF | 2026-09-03 11:13:39 | 45.52301 | 8.66898 | 146° | 27km/h | 3425m | 4.1m/s | 7.2°C | 36.2% | 0hPa | 3V | 08:30:00 | 00:38:23 | 00:00:00 | |
| IW2NTF | 2026-09-03 11:13:33 | 45.52333 | 8.66869 | 156° | 24km/h | 3404m | 4m/s | 7.5°C | 28.9% | 0hPa | 3V | 08:30:00 | 00:38:17 | 00:00:00 | |
| IW2NTF | 2026-09-03 11:13:27 | 45.52374 | 8.66837 | 141° | 29km/h | 3384m | 3.2m/s | 7.6°C | 22.1% | 0hPa | 3V | 08:30:00 | 00:38:11 | 00:00:00 | |
| IW2NTF | 2026-09-03 11:13:19 | 45.52405 | 8.66803 | 131° | 24km/h | 3358m | 3.8m/s | 7.6°C | 19.8% | 0hPa | 3V | 08:30:00 | 00:38:03 | 00:00:00 | |
| IW2NTF | 2026-09-03 11:13:13 | 45.52436 | 8.66768 | 147° | 26km/h | 3333m | 3.4m/s | 7.8°C | 15% | 0hPa | 3V | 08:30:00 | 00:37:57 | 00:00:00 | |
| IW2NTF | 2026-09-03 11:13:07 | 45.52463 | 8.66737 | 149° | 18km/h | 3310m | 3.6m/s | 8°C | 13.3% | 0hPa | 3V | 08:30:00 | 00:37:51 | 00:00:00 | |
| IW2NTF | 2026-09-03 11:13:00 | 45.52490 | 8.66715 | 154° | 24km/h | 3289m | 3.1m/s | 8.1°C | 11.9% | 0hPa | 3V | 08:30:00 | 00:37:45 | 00:00:00 | |
| IW2NTF | 2026-09-03 11:12:55 | 45.52518 | 8.66695 | 160° | 22km/h | 3271m | 3m/s | 8.3°C | 11.8% | 0hPa | 3V | 08:30:00 | 00:37:39 | 00:00:00 | |
| IW2NTF | 2026-09-03 11:12:49 | 45.52546 | 8.66672 | 147° | 20km/h | 3251m | 4.2m/s | 8.5°C | 10.4% | 0hPa | 3V | 08:30:00 | 00:37:33 | 00:00:00 | |
| IW2NTF | 2026-09-03 11:12:44 | 45.52577 | 8.66647 | 155° | 24km/h | 3229m | 3.6m/s | 8.6°C | 9.3% | 0hPa | 3V | 08:30:00 | 00:37:27 | 00:00:00 | |
| IW2NTF | 2026-09-03 11:12:37 | 45.52617 | 8.66630 | 158° | 24km/h | 3210m | 2.1m/s | 8.6°C | 9% | 0hPa | 3V | 08:30:00 | 00:37:21 | 00:00:00 | |
| IW2NTF | 2026-09-03 11:12:30 | 45.52648 | 8.66611 | 164° | 26km/h | 3187m | 3.4m/s | 8.8°C | 9.3% | 0hPa | 3V | 08:30:00 | 00:37:15 | 00:00:00 | |
| IW2NTF | 2026-09-03 11:12:20 | 45.52684 | 8.66593 | 166° | 22km/h | 3166m | 3m/s | 8.8°C | 9.9% | 0hPa | 3V | 08:30:00 | 00:37:09 | 00:00:00 | |
| IW2NTF | 2026-09-03 11:12:20 | 45.52721 | 8.66572 | 148° | 16km/h | 3139m | 3m/s | 9°C | 10.2% | 0hPa | 3V | 08:30:00 | 00:37:01 | 00:00:00 | |
| IW2NTF | 2026-09-03 11:12:14 | 45.52748 | 8.66556 | 160° | 22km/h | 3118m | 3.1m/s | 9.1°C | 11.9% | 0hPa | 3V | 08:30:00 | 00:36:55 | 00:00:00 | |
| IW2NTF | 2026-09-03 11:12:05 | 45.52778 | 8.66543 | 156° | 18km/h | 3100m | 3.3m/s | 9.1°C | 13.6% | 0hPa | 3V | 08:30:00 | 00:36:49 | 00:00:00 | |
| IW2NTF | 2026-09-03 11:11:59 | 45.52802 | 8.66531 | 157° | 16km/h | 3080m | 3.3m/s | 9.2°C | 14.3% | 0hPa | 3V | 08:30:00 | 00:36:43 | 00:00:00 | |
| IW2NTF | 2026-09-03 11:11:53 | 45.52831 | 8.66513 | 152° | 24km/h | 3062m | 2.7m/s | 9.3°C | 15.3% | 0hPa | 3V | 08:30:00 | 00:36:37 | 00:00:00 | |
| IW2NTF | 2026-09-03 11:11:47 | 45.52855 | 8.66509 | 164° | 7km/h | 3037m | 6.8m/s | 9.3°C | 17.8% | 0hPa | 3V | 08:30:00 | 00:36:31 | 00:00:00 | |
| IW2NTF | 2026-09-03 11:11:41 | 45.52870 | 8.66495 | 152° | 13km/h | 3005m | 5.2m/s | 9.5°C | 21.7% | 0hPa | 3V | 08:30:00 | 00:36:25 | 00:00:00 | |
| IW2NTF | 2026-09-03 11:11:35 | 45.52885 | 8.66488 | 169° | 9km/h | 2979m | 4.6m/s | 9.6°C | 25% | 0hPa | 3V | 08:30:00 | 00:36:19 | 00:00:00 | |
| IW2NTF | 2026-09-03 11:11:29 | 45.52901 | 8.66488 | 181° | 15km/h | 2954m | 3.7m/s | 9.7°C | 25.8% | 0hPa | 3V | 08:30:00 | 00:36:13 | 00:00:00 | |
| IW2NTF | 2026-09-03 11:11:20 | 45.52917 | 8.66490 | 192° | 7km/h | 2935m | 3.6m/s | 9.8°C | 27.2% | 0hPa | 3V | 08:30:00 | 00:36:07 | 00:00:00 | |
| IW2NTF | 2026-09-03 11:11:15 | 45.52938 | 8.66497 | 195° | 11km/h | 2911m | 4.1m/s | 9.9°C | 28.4% | 0hPa | 3V | 08:30:00 | 00:35:59 | 00:00:00 | |
| IW2NTF | 2026-09-03 11:11:08 | 45.52951 | 8.66506 | 194° | 15km/h | 2891m | 3.1m/s | 10°C | 28.7% | 0hPa | 3V | 08:30:00 | 00:35:53 | 00:00:00 | |
| IW2NTF | 2026-09-03 11:11:03 | 45.52979 | 8.66500 | 164° | 16km/h | 2871m | 2.8m/s | 10.1°C | 28.9% | 0hPa | 3V | 08:30:00 | 00:35:47 | 00:00:00 | |
| IW2NTF | 2026-09-03 11:10:58 | 45.52985 | 8.66502 | 286° | 5km/h | 2848m | 2.5m/s | 10.3°C | 29.1% | 0hPa | 3V | 08:30:00 | 00:35:41 | 00:00:00 | |
| IW2NTF | 2026-09-03 11:10:51 | 45.53002 | 8.66507 | 178° | 18km/h | 2827m | 4m/s | 10.4°C | 29.7% | 0hPa | 3V | 08:30:00 | 00:35:35 | 00:00:00 | |
| IW2NTF | 2026-09-03 11:10:45 | 45.53020 | 8.66512 | 144° | 4km/h | 2801m | 6.2m/s | 10.5°C | 30.5% | 0hPa | 3V | 08:30:00 | 00:35:29 | 00:00:00 | |
| IW2NTF | 2026-09-03 11:10:39 | 45.53025 | 8.66493 | 136° | 5km/h | 2771m | 3.8m/s | 10.5°C | 33.3% | 0hPa | 3V | 08:30:00 | 00:35:23 | 00:00:00 | |
| IW2NTF | 2026-09-03 11:10:33 | 45.53033 | 8.66484 | 117° | 9km/h | 2749m | 3m/s | 10.4°C | 36.4% | 0hPa | 3V | 08:30:00 | 00:35:17 | 00:00:00 | |
| IW2NTF | 2026-09-03 11:10:26 | 45.53041 | 8.66468 | 125° | 11km/h | 2731m | 3m/s | 10.5°C | 36.4% | 0hPa | 3V | 08:30:00 | 00:35:11 | 00:00:00 | |
| IW2NTF | 2026-09-03 11:10:19 | 45.53054 | 8.66449 | 145° | 11km/h | 2706m | 2.7m/s | 10.7°C | 36.2% | 0hPa | 3V | 08:30:00 | 00:35:03 | 00:00:00 | |
| IW2NTF | 2026-09-03 11:10:13 | 45.53064 | 8.66434 | 125° | 9km/h | 2688m | 2.7m/s | 10.7°C | 36.3% | 0hPa | 3V | 08:30:00 | 00:34:57 | 00:00:00 | |
| IW2NTF | 2026-09-03 11:10:06 | 45.53073 | 8.66417 | 123° | 7km/h | 2670m | 3.3m/s | 10.8°C | 35.5% | 0hPa | 3V | 08:30:00 | 00:34:51 | 00:00:00 | |
| IW2NTF | 2026-09-03 11:10:01 | 45.53080 | 8.66404 | 133° | 9km/h | 2652m | 3.9m/s | 10.9°C | 35% | 0hPa | 3V | 08:30:00 | 00:34:45 | 00:00:00 | |
| IW2NTF | 2026-09-03 11:09:55 | 45.53089 | 8.66392 | 136° | 7km/h | 2633m | 2.9m/s | 11°C | 34.4% | 0hPa | 3V | 08:30:00 | 00:34:39 | 00:00:00 | |
| IW2NTF | 2026-09-03 11:09:49 | 45.53096 | 8.66376 | 111° | 9km/h | 2615m | 3.5m/s | 10.9°C | 31% | 0hPa | 3V | 08:30:00 | 00:34:33 | 00:00:00 | |
| IW2NTF | 2026-09-03 11:09:43 | 45.53101 | 8.66360 | 115° | 7km/h | 2596m | 3.6m/s | 10.7°C | 31.3% | 0hPa | 3V | 08:30:00 | 00:34:27 | 00:00:00 | |
| IW2NTF | 2026-09-03 11:09:38 | 45.53119 | 8.66350 | 171° | 16km/h | 2576m | 3.9m/s | 10.9°C | 29.1% | 0hPa | 3V | 08:30:00 | 00:34:21 | 00:00:00 | |
| IW2NTF | 2026-09-03 11:09:31 | 45.53133 | 8.66332 | 111° | 13km/h | 2547m | 4.7m/s | 11.1°C | 26.5% | 0hPa | 3V | 08:30:00 | 00:34:15 | 00:00:00 | |
| IW2NTF | 2026-09-03 11:09:25 | 45.53137 | 8.66306 | 113° | 11km/h | 2520m | 4.9m/s | 11.3°C | 27% | 0hPa | 3V | 08:30:00 | 00:34:09 | 00:00:00 | |
| IW2NTF | 2026-09-03 11:09:19 | 45.53157 | 8.66288 | 157° | 16km/h | 2491m | 4.1m/s | 11.5°C | 27.1% | 0hPa | 3V | 08:30:00 | 00:34:03 | 00:00:00 | |
| IW2NTF | 2026-09-03 11:09:12 | 45.53172 | 8.66285 | 186° | 7km/h | 2460m | 5.2m/s | 11.7°C | 30.6% | 0hPa | 3V | 08:30:00 | 00:33:57 | 00:00:00 | |
| IW2NTF | 2026-09-03 11:09:07 | 45.53188 | 8.66273 | 142° | 11km/h | 2429m | 5.3m/s | 11.8°C | 36.8% | 0hPa | 3V | 08:30:00 | 00:33:51 | 00:00:00 | |
| IW2NTF | 2026-09-03 11:09:01 | 45.53191 | 8.66259 | 83° | 5km/h | 2397m | 5.5m/s | 12°C | 40% | 0hPa | 3V | 08:30:00 | 00:33:45 | 00:00:00 | |
| IW2NTF | 2026-09-03 11:08:55 | 45.53197 | 8.66243 | 107° | 13km/h | 2367m | 5.1m/s | 12.2°C | 39.8% | 0hPa | 3V | 08:30:00 | 00:33:39 | 00:00:00 | |
| IW2NTF | 2026-09-03 11:08:49 | 45.53197 | 8.66227 | 107° | 2km/h | 2343m | 4.6m/s | 12.3°C | 44.1% | 0hPa | 3V | 08:30:00 | 00:33:33 | 00:00:00 | |
| IW2NTF | 2026-09-03 11:08:44 | 45.53199 | 8.66215 | 109° | 11km/h | 2321m | 2.7m/s | 12.4°C | 49% | 0hPa | 3V | 08:30:00 | 00:33:27 | 00:00:00 | |
| IW2NTF | 2026-09-03 11:08:37 | 45.53200 | 8.66197 | 103° | 7km/h | 2300m | 3.2m/s | 12.5°C | 52.1% | 0hPa | 3V | 08:30:00 | 00:33:21 | 00:00:00 | |
| IW2NTF | 2026-09-03 11:08:31 | 45.53199 | 8.66184 | 83° | 9km/h | 2279m | 3.5m/s | 12.6°C | 52.5% | 0hPa | 3V | 08:30:00 | 00:33:15 | 00:00:00 | |
| IW2NTF | 2026-09-03 11:08:25 | 45.53199 | 8.66165 | 63° | 9km/h | 2258m | 3.2m/s | 12.8°C | 52.3% | 0hPa | 3V | 08:30:00 | 00:33:09 | 00:00:00 | |
| IW2NTF | 2026-09-03 11:08:19 | 45.53199 | 8.66149 | 102° | 5km/h | 2239m | 3.4m/s | 12.9°C | 52.8% | 0hPa | 3V | 08:30:00 | 00:33:03 | 00:00:00 | |
| IW2NTF | 2026-09-03 11:08:12 | 45.53197 | 8.66136 | 91° | 9km/h | 2220m | 3.1m/s | 13.1°C | 52.4% | 0hPa | 3V | 08:30:00 | 00:32:57 | 00:00:00 | |
| IW2NTF | 2026-09-03 11:08:07 | 45.53193 | 8.66111 | 107° | 9km/h | 2200m | 3.1m/s | 13.3°C | 52.3% | 0hPa | 3V | 08:30:00 | 00:32:51 | 00:00:00 | |
| IW2NTF | 2026-09-03 11:08:01 | 45.53205 | 8.66103 | 165° | 11km/h | 2185m | 3.3m/s | 13.3°C | 52.1% | 0hPa | 3V | 08:30:00 | 00:32:45 | 00:00:00 | |
| IW2NTF | 2026-09-03 11:07:55 | 45.53209 | 8.66092 | 73° | 13km/h | 2158m | 6.9m/s | 13.6°C | 50.1% | 0hPa | 3V | 08:30:00 | 00:32:39 | 00:00:00 | |
| IW2NTF | 2026-09-03 11:07:49 | 45.53210 | 8.66060 | 96° | 15km/h | 2122m | 4m/s | 13.9°C | 48.5% | 0hPa | 3V | 08:30:00 | 00:32:33 | 00:00:00 | |
| IW2NTF | 2026-09-03 11:07:42 | 45.53213 | 8.66030 | 106° | 16km/h | 2096m | 4.2m/s | 14.2°C | 46.8% | 0hPa | 3V | 08:30:00 | 00:32:27 | 00:00:00 | |
| IW2NTF | 2026-09-03 11:07:32 | 45.53210 | 8.65998 | 40° | 16km/h | 2068m | 4.3m/s | 14.4°C | 45.8% | 0hPa | 3V | 08:30:00 | 00:32:21 | 00:00:00 | |
| IW2NTF | 2026-09-03 11:07:32 | 45.53194 | 8.65984 | 38° | 9km/h | 2046m | 5.4m/s | 14.6°C | 45.1% | 0hPa | 3V | 08:30:00 | 00:32:16 | 00:00:00 | |
| IW2NTF | 2026-09-03 11:07:26 | 45.53184 | 8.65960 | 45° | 15km/h | 2017m | 4.5m/s | 14.9°C | 43% | 0hPa | 3V | 08:30:00 | 00:32:10 | 00:00:00 | |
| IW2NTF | 2026-09-03 11:07:20 | 45.53169 | 8.65945 | 28° | 9km/h | 1996m | 5.1m/s | 15.1°C | 42% | 0hPa | 3V | 08:30:00 | 00:32:04 | 00:00:00 | |
| IW2NTF | 2026-09-03 11:07:14 | 45.53166 | 8.65943 | 17° | 5km/h | 1988m | 3.2m/s | 15.2°C | 41.5% | 0hPa | 3V | 08:30:00 | 00:32:02 | 00:00:00 | |
| IW2NTF | 2026-09-03 11:07:14 | 45.53164 | 8.65941 | 42° | 7km/h | 1981m | 4.3m/s | 15.3°C | 40.8% | 0hPa | 3V | 08:30:00 | 00:32:00 | 00:00:00 | |
| IW2NTF | 2026-09-03 11:07:14 | 45.53161 | 8.65936 | 44° | 11km/h | 1974m | 3.6m/s | 15.3°C | 40% | 0hPa | 3V | 08:30:00 | 00:31:58 | 00:00:00 | |
| IW2NTF | 2026-09-03 11:07:08 | 45.53156 | 8.65930 | 39° | 13km/h | 1967m | 3.4m/s | 15.4°C | 37% | 0hPa | 3V | 08:30:00 | 00:31:56 | 00:00:00 | |
| IW2NTF | 2026-09-03 11:07:08 | 45.53152 | 8.65925 | 38° | 11km/h | 1960m | 2.5m/s | 15.5°C | 37.1% | 0hPa | 3V | 08:30:00 | 00:31:54 | 00:00:00 | |
| IW2NTF | 2026-09-03 11:07:08 | 45.53146 | 8.65921 | 26° | 11km/h | 1954m | 3.1m/s | 15.5°C | 36.5% | 0hPa | 3V | 08:30:00 | 00:31:52 | 00:00:00 | |
| IW2NTF | 2026-09-03 11:07:02 | 45.53142 | 8.65918 | 35° | 7km/h | 1948m | 3.9m/s | 15.6°C | 36.7% | 0hPa | 3V | 08:30:00 | 00:31:50 | 00:00:00 | |
| IW2NTF | 2026-09-03 11:07:02 | 45.53140 | 8.65915 | 61° | 5km/h | 1942m | 3.7m/s | 15.6°C | 35.4% | 0hPa | 3V | 08:30:00 | 00:31:48 | 00:00:00 | |
| IW2NTF | 2026-09-03 11:07:02 | 45.53138 | 8.65911 | 42° | 5km/h | 1936m | 2.9m/s | 15.7°C | 35% | 0hPa | 3V | 08:30:00 | 00:31:46 | 00:00:00 | |
| IW2NTF | 2026-09-03 11:06:56 | 45.53135 | 8.65909 | 13° | 7km/h | 1930m | 3.8m/s | 15.7°C | 34.3% | 0hPa | 3V | 08:30:00 | 00:31:44 | 00:00:00 | |
| IW2NTF | 2026-09-03 11:06:56 | 45.53132 | 8.65907 | 36° | 5km/h | 1923m | 3.9m/s | 15.8°C | 34.1% | 0hPa | 3V | 08:30:00 | 00:31:42 | 00:00:00 | |
| IW2NTF | 2026-09-03 11:06:56 | 45.53130 | 8.65904 | 50° | 7km/h | 1916m | 3.1m/s | 15.9°C | 34% | 0hPa | 3V | 08:30:00 | 00:31:40 | 00:00:00 | |
| IW2NTF | 2026-09-03 11:06:50 | 45.53127 | 8.65902 | 4° | 9km/h | 1909m | 3.2m/s | 15.9°C | 33% | 0hPa | 3V | 08:30:00 | 00:31:38 | 00:00:00 | |
| IW2NTF | 2026-09-03 11:06:50 | 45.53122 | 8.65902 | 353° | 7km/h | 1902m | 4.5m/s | 16°C | 32.8% | 0hPa | 3V | 08:30:00 | 00:31:36 | 00:00:00 | |
| IW2NTF | 2026-09-03 11:06:50 | 45.53120 | 8.65901 | 41° | 4km/h | 1894m | 3m/s | 16.1°C | 32.7% | 0hPa | 3V | 08:30:00 | 00:31:34 | 00:00:00 | |
| IW2NTF | 2026-09-03 11:06:44 | 45.53118 | 8.65898 | 35° | 7km/h | 1887m | 4.4m/s | 16.1°C | 32.7% | 0hPa | 3V | 08:30:00 | 00:31:32 | 00:00:00 | |
| IW2NTF | 2026-09-03 11:06:44 | 45.53115 | 8.65896 | 21° | 9km/h | 1881m | 2.7m/s | 16.1°C | 33.2% | 0hPa | 3V | 08:30:00 | 00:31:30 | 00:00:00 | |
| IW2NTF | 2026-09-03 11:06:44 | 45.53111 | 8.65894 | 21° | 5km/h | 1874m | 3.7m/s | 16.1°C | 33.2% | 0hPa | 3V | 08:30:00 | 00:31:28 | 00:00:00 | |
| IW2NTF | 2026-09-03 11:06:38 | 45.53105 | 8.65894 | 352° | 4km/h | 1860m | 3.4m/s | 16.2°C | 33.6% | 0hPa | 3V | 08:30:00 | 00:31:24 | 00:00:00 | |
| IW2NTF | 2026-09-03 11:06:38 | 45.53104 | 8.65893 | 40° | 2km/h | 1853m | 2.7m/s | 16.3°C | 33.9% | 0hPa | 3V | 08:30:00 | 00:31:22 | 00:00:00 | |
| IW2NTF | 2026-09-03 11:06:32 | 45.53103 | 8.65891 | 50° | 4km/h | 1847m | 4m/s | 16.3°C | 33.9% | 0hPa | 3V | 08:30:00 | 00:31:20 | 00:00:00 | |
| IW2NTF | 2026-09-03 11:06:32 | 45.53101 | 8.65889 | 45° | 5km/h | 1841m | 2.5m/s | 16.4°C | 34% | 0hPa | 3V | 08:30:00 | 00:31:18 | 00:00:00 | |
| IW2NTF | 2026-09-03 11:06:32 | 45.53099 | 8.65887 | 16° | 4km/h | 1836m | 3.1m/s | 16.4°C | 34% | 0hPa | 3V | 08:30:00 | 00:31:16 | 00:00:00 | |
| IW2NTF | 2026-09-03 11:06:26 | 45.53098 | 8.65886 | 32° | 4km/h | 1829m | 3.7m/s | 16.5°C | 33.8% | 0hPa | 3V | 08:30:00 | 00:31:14 | 00:00:00 | |
| IW2NTF | 2026-09-03 11:06:26 | 45.53097 | 8.65884 | 88° | 5km/h | 1822m | 3.3m/s | 16.5°C | 33.8% | 0hPa | 3V | 08:30:00 | 00:31:12 | 00:00:00 | |
| IW2NTF | 2026-09-03 11:06:26 | 45.53097 | 8.65881 | 77° | 2km/h | 1814m | 3.8m/s | 16.6°C | 33.7% | 0hPa | 3V | 08:30:00 | 00:31:10 | 00:00:00 | |
| IW2NTF | 2026-09-03 11:06:20 | 45.53096 | 8.65879 | 51° | 4km/h | 1806m | 4.8m/s | 16.7°C | 33.4% | 0hPa | 3V | 08:30:00 | 00:31:08 | 00:00:00 | |
| IW2NTF | 2026-09-03 11:06:20 | 45.53095 | 8.65878 | 350° | 2km/h | 1799m | 4.2m/s | 16.8°C | 33.3% | 0hPa | 3V | 08:30:00 | 00:31:06 | 00:00:00 | |
| IW2NTF | 2026-09-03 11:06:20 | 45.53095 | 8.65879 | 271° | 4km/h | 1793m | 3.1m/s | 16.8°C | 33.2% | 0hPa | 3V | 08:30:00 | 00:31:04 | 00:00:00 | |
| IW2NTF | 2026-09-03 11:06:15 | 45.53094 | 8.65881 | 327° | 4km/h | 1786m | 3.4m/s | 16.9°C | 33.2% | 0hPa | 3V | 08:30:00 | 00:31:02 | 00:00:00 | |
| IW2NTF | 2026-09-03 11:06:15 | 45.53092 | 8.65881 | 3° | 4km/h | 1780m | 3.5m/s | 16.9°C | 33.1% | 0hPa | 3V | 08:30:00 | 00:31:00 | 00:00:00 | |
| IW2NTF | 2026-09-03 11:06:15 | 45.53091 | 8.65881 | 4° | 4km/h | 1774m | 3.5m/s | 17°C | 32.9% | 0hPa | 3V | 08:30:00 | 00:30:58 | 00:00:00 | |
| IW2NTF | 2026-09-03 11:06:08 | 45.53089 | 8.65882 | 325° | 5km/h | 1768m | 2.8m/s | 17.1°C | 32.9% | 0hPa | 3V | 08:30:00 | 00:30:56 | 00:00:00 | |
| IW2NTF | 2026-09-03 11:06:08 | 45.53088 | 8.65885 | 293° | 4km/h | 1761m | 2.7m/s | 17.1°C | 32.8% | 0hPa | 3V | 08:30:00 | 00:30:54 | 00:00:00 | |
| IW2NTF | 2026-09-03 11:06:08 | 45.53088 | 8.65886 | 168° | 2km/h | 1754m | 3.7m/s | 17.2°C | 32.6% | 0hPa | 3V | 08:30:00 | 00:30:52 | 00:00:00 | |
| IW2NTF | 2026-09-03 11:06:02 | 45.53089 | 8.65885 | 132° | 2km/h | 1748m | 4.3m/s | 17.2°C | 32.6% | 0hPa | 3V | 08:30:00 | 00:30:50 | 00:00:00 | |
| IW2NTF | 2026-09-03 11:06:02 | 45.53090 | 8.65885 | 268° | 2km/h | 1740m | 3.3m/s | 17.3°C | 32.5% | 0hPa | 3V | 08:30:00 | 00:30:48 | 00:00:00 | |
| IW2NTF | 2026-09-03 11:06:02 | 45.53090 | 8.65886 | 341° | 0km/h | 1732m | 4.5m/s | 17.4°C | 32.3% | 0hPa | 3V | 08:30:00 | 00:30:46 | 00:00:00 | |
| IW2NTF | 2026-09-03 11:05:56 | 45.53089 | 8.65886 | 319° | 4km/h | 1725m | 3.9m/s | 17.4°C | 32.2% | 0hPa | 3V | 08:30:00 | 00:30:44 | 00:00:00 | |
| IW2NTF | 2026-09-03 11:05:56 | 45.53088 | 8.65890 | 298° | 5km/h | 1717m | 3.1m/s | 17.5°C | 32.1% | 0hPa | 3V | 08:30:00 | 00:30:42 | 00:00:00 | |
| IW2NTF | 2026-09-03 11:05:56 | 45.53087 | 8.65892 | 326° | 2km/h | 1710m | 3.6m/s | 17.6°C | 32% | 0hPa | 3V | 08:30:00 | 00:30:40 | 00:00:00 | |
| IW2NTF | 2026-09-03 11:05:50 | 45.53086 | 8.65892 | 71° | 2km/h | 1704m | 4m/s | 17.6°C | 31.8% | 0hPa | 3V | 08:30:00 | 00:30:38 | 00:00:00 | |
| IW2NTF | 2026-09-03 11:05:50 | 45.53086 | 8.65891 | 132° | 2km/h | 1697m | 4.1m/s | 17.7°C | 31.7% | 0hPa | 3V | 08:30:00 | 00:30:36 | 00:00:00 | |
| IW2NTF | 2026-09-03 11:05:50 | 45.53088 | 8.65891 | 171° | 4km/h | 1689m | 3.4m/s | 17.8°C | 31.7% | 0hPa | 3V | 08:30:00 | 00:30:34 | 00:00:00 | |
| IW2NTF | 2026-09-03 11:05:44 | 45.53089 | 8.65890 | 97° | 4km/h | 1681m | 4m/s | 17.9°C | 31.6% | 0hPa | 3V | 08:30:00 | 00:30:32 | 00:00:00 | |
| IW2NTF | 2026-09-03 11:05:44 | 45.53088 | 8.65888 | 6° | 4km/h | 1675m | 4.9m/s | 17.9°C | 31.5% | 0hPa | 3V | 08:30:00 | 00:30:30 | 00:00:00 | |
| IW2NTF | 2026-09-03 11:05:44 | 45.53086 | 8.65889 | 6° | 4km/h | 1666m | 3m/s | 18°C | 31.4% | 0hPa | 3V | 08:30:00 | 00:30:28 | 00:00:00 | |
| IW2NTF | 2026-09-03 11:05:38 | 45.53085 | 8.65888 | 23° | 4km/h | 1661m | 3.6m/s | 18°C | 31.4% | 0hPa | 3V | 08:30:00 | 00:30:26 | 00:00:00 | |
| IW2NTF | 2026-09-03 11:05:38 | 45.53082 | 8.65883 | 79° | 11km/h | 1654m | 3.5m/s | 18.1°C | 31.2% | 0hPa | 3V | 08:30:00 | 00:30:24 | 00:00:00 | |
| IW2NTF | 2026-09-03 11:05:38 | 45.53080 | 8.65875 | 67° | 13km/h | 1647m | 3.5m/s | 18.1°C | 31.1% | 0hPa | 3V | 08:30:00 | 00:30:22 | 00:00:00 | |
| IW2NTF | 2026-09-03 11:05:32 | 45.53079 | 8.65869 | 77° | 5km/h | 1640m | 3.5m/s | 18.2°C | 31.1% | 0hPa | 3V | 08:30:00 | 00:30:20 | 00:00:00 | |
| IW2NTF | 2026-09-03 11:05:32 | 45.53080 | 8.65868 | 225° | 4km/h | 1633m | 6m/s | 18.2°C | 31% | 0hPa | 3V | 08:30:00 | 00:30:18 | 00:00:00 | |
| IW2NTF | 2026-09-03 11:05:32 | 45.53080 | 8.65869 | 196° | 4km/h | 1622m | 6.6m/s | 18.3°C | 30.8% | 0hPa | 3V | 08:30:00 | 00:30:16 | 00:00:00 | |
| IW2NTF | 2026-09-03 11:05:26 | 45.53083 | 8.65868 | 146° | 5km/h | 1612m | 3.5m/s | 18.4°C | 30.7% | 0hPa | 3V | 08:30:00 | 00:30:14 | 00:00:00 | |
| IW2NTF | 2026-09-03 11:05:26 | 45.53084 | 8.65867 | 184° | 2km/h | 1604m | 4.6m/s | 18.5°C | 30.5% | 0hPa | 3V | 08:30:00 | 00:30:12 | 00:00:00 | |
| IW2NTF | 2026-09-03 11:05:26 | 45.53085 | 8.65868 | 242° | 2km/h | 1597m | 3m/s | 18.5°C | 30.4% | 0hPa | 3V | 08:30:00 | 00:30:10 | 00:00:00 | |
| IW2NTF | 2026-09-03 11:05:20 | 45.53085 | 8.65868 | 49° | 0km/h | 1590m | 3m/s | 18.6°C | 30.3% | 0hPa | 3V | 08:30:00 | 00:30:08 | 00:00:00 | |
| IW2NTF | 2026-09-03 11:05:20 | 45.53084 | 8.65869 | 284° | 4km/h | 1584m | 3.8m/s | 18.6°C | 30.2% | 0hPa | 3V | 08:30:00 | 00:30:06 | 00:00:00 | |
| IW2NTF | 2026-09-03 11:05:20 | 45.53084 | 8.65871 | 214° | 0km/h | 1577m | 3.7m/s | 18.6°C | 30.2% | 0hPa | 3V | 08:30:00 | 00:30:04 | 00:00:00 | |
| IW2NTF | 2026-09-03 11:05:14 | 45.53084 | 8.65871 | 226° | 2km/h | 1571m | 4m/s | 18.7°C | 30.1% | 0hPa | 3V | 08:30:00 | 00:30:02 | 00:00:00 | |
| IW2NTF | 2026-09-03 11:05:14 | 45.53085 | 8.65871 | 163° | 2km/h | 1565m | 3.1m/s | 18.7°C | 30% | 0hPa | 3V | 08:30:00 | 00:30:00 | 00:00:00 | |
| IW2NTF | 2026-09-03 11:05:14 | 45.53086 | 8.65871 | 169° | 4km/h | 1558m | 2.9m/s | 18.7°C | 29.6% | 0hPa | 3V | 08:30:00 | 00:29:58 | 00:00:00 | |
| IW2NTF | 2026-09-03 11:05:08 | 45.53088 | 8.65871 | 213° | 4km/h | 1552m | 3.3m/s | 18.7°C | 29.3% | 0hPa | 3V | 08:30:00 | 00:29:56 | 00:00:00 | |
| IW2NTF | 2026-09-03 11:05:08 | 45.53090 | 8.65873 | 250° | 5km/h | 1544m | 4.1m/s | 18.6°C | 0% | 0hPa | 3V | 08:30:00 | 00:29:54 | 00:00:00 | |
| IW2NTF | 2026-09-03 11:05:08 | 45.53090 | 8.65878 | 263° | 5km/h | 1536m | 4m/s | 18.6°C | 0% | 0hPa | 3V | 08:30:00 | 00:29:52 | 00:00:00 | |
| IW2NTF | 2026-09-03 11:05:02 | 45.53090 | 8.65880 | 280° | 2km/h | 1530m | 2.4m/s | 18.7°C | 0% | 0hPa | 3V | 08:30:00 | 00:29:50 | 00:00:00 | |
| IW2NTF | 2026-09-03 11:05:02 | 45.53090 | 8.65880 | 246° | 0km/h | 1525m | 3.6m/s | 18.6°C | 0% | 0hPa | 3V | 08:30:00 | 00:29:48 | 00:00:00 | |
| IW2NTF | 2026-09-03 11:05:02 | 45.53090 | 8.65882 | 352° | 2km/h | 1519m | 3.4m/s | 18.6°C | 0% | 0hPa | 3V | 08:30:00 | 00:29:46 | 00:00:00 | |
| IW2NTF | 2026-09-03 11:04:56 | 45.53090 | 8.65882 | 240° | 5km/h | 1513m | 3.1m/s | 18.6°C | 0% | 0hPa | 3V | 08:30:00 | 00:29:44 | 00:00:00 | |
| IW2NTF | 2026-09-03 11:04:56 | 45.53091 | 8.65887 | 263° | 11km/h | 1507m | 3.2m/s | 18.7°C | 0% | 0hPa | 3V | 08:30:00 | 00:29:42 | 00:00:00 | |
| IW2NTF | 2026-09-03 11:04:56 | 45.53092 | 8.65897 | 257° | 16km/h | 1501m | 3.4m/s | 18.7°C | 0% | 0hPa | 3V | 08:30:00 | 00:29:40 | 00:00:00 | |
| IW2NTF | 2026-09-03 11:04:50 | 45.53095 | 8.65909 | 241° | 16km/h | 1497m | 1.5m/s | 18.8°C | 0% | 0hPa | 3V | 08:30:00 | 00:29:38 | 00:00:00 | |
| IW2NTF | 2026-09-03 11:04:50 | 45.53099 | 8.65918 | 235° | 15km/h | 1491m | 5.1m/s | 18.8°C | 0% | 0hPa | 3V | 08:30:00 | 00:29:36 | 00:00:00 | |
| IW2NTF | 2026-09-03 11:04:50 | 45.53102 | 8.65924 | 226° | 7km/h | 1481m | 4.3m/s | 18.7°C | 0% | 0hPa | 3V | 08:30:00 | 00:29:34 | 00:00:00 | |
| IW2NTF | 2026-09-03 11:04:44 | 45.53104 | 8.65926 | 210° | 7km/h | 1472m | 5.5m/s | 18.8°C | 0% | 0hPa | 3V | 08:30:00 | 00:29:32 | 00:00:00 | |
| IW2NTF | 2026-09-03 11:04:44 | 45.53108 | 8.65930 | 228° | 11km/h | 1463m | 3.2m/s | 18.9°C | 0% | 0hPa | 3V | 08:30:00 | 00:29:30 | 00:00:00 | |
| IW2NTF | 2026-09-03 11:04:44 | 45.53112 | 8.65936 | 228° | 11km/h | 1457m | 3.3m/s | 19°C | 0% | 0hPa | 3V | 08:30:00 | 00:29:28 | 00:00:00 | |
| IW2NTF | 2026-09-03 11:04:38 | 45.53115 | 8.65942 | 224° | 9km/h | 1451m | 2.9m/s | 19°C | 0% | 0hPa | 3V | 08:30:00 | 00:29:26 | 00:00:00 | |
| IW2NTF | 2026-09-03 11:04:38 | 45.53118 | 8.65946 | 240° | 7km/h | 1446m | 2.7m/s | 19.1°C | 0% | 0hPa | 3V | 08:30:00 | 00:29:24 | 00:00:00 | |
| IW2NTF | 2026-09-03 11:04:38 | 45.53119 | 8.65952 | 266° | 9km/h | 1441m | 2.7m/s | 19.2°C | 0% | 0hPa | 3V | 08:30:00 | 00:29:22 | 00:00:00 | |
| IW2NTF | 2026-09-03 11:04:32 | 45.53119 | 8.65960 | 269° | 9km/h | 1434m | 3.2m/s | 19.2°C | 0% | 0hPa | 3V | 08:30:00 | 00:29:20 | 00:00:00 | |
| IW2NTF | 2026-09-03 11:04:32 | 45.53120 | 8.65966 | 243° | 9km/h | 1430m | 2.8m/s | 19.2°C | 0% | 0hPa | 3V | 08:30:00 | 00:29:18 | 00:00:00 | |
| IW2NTF | 2026-09-03 11:04:32 | 45.53123 | 8.65972 | 231° | 13km/h | 1424m | 2.8m/s | 19.3°C | 0% | 0hPa | 3V | 08:30:00 | 00:29:16 | 00:00:00 | |
| IW2NTF | 2026-09-03 11:04:26 | 45.53128 | 8.65978 | 219° | 9km/h | 1419m | 3.1m/s | 19.3°C | 0% | 0hPa | 3V | 08:30:00 | 00:29:14 | 00:00:00 | |
| IW2NTF | 2026-09-03 11:04:26 | 45.53130 | 8.65982 | 238° | 7km/h | 1414m | 3m/s | 19.3°C | 0% | 0hPa | 3V | 08:30:00 | 00:29:12 | 00:00:00 | |
| IW2NTF | 2026-09-03 11:04:26 | 45.53131 | 8.65986 | 251° | 4km/h | 1408m | 3.6m/s | 19.3°C | 0% | 0hPa | 3V | 08:30:00 | 00:29:10 | 00:00:00 | |
| IW2NTF | 2026-09-03 11:04:20 | 45.53133 | 8.65989 | 240° | 5km/h | 1401m | 3.4m/s | 19.4°C | 0% | 0hPa | 3V | 08:30:00 | 00:29:08 | 00:00:00 | |
| IW2NTF | 2026-09-03 11:04:20 | 45.53134 | 8.65994 | 245° | 9km/h | 1394m | 4.1m/s | 19.5°C | 0% | 0hPa | 3V | 08:30:00 | 00:29:06 | 00:00:00 | |
| IW2NTF | 2026-09-03 11:04:20 | 45.53136 | 8.66001 | 241° | 9km/h | 1387m | 4.5m/s | 19.5°C | 0% | 0hPa | 3V | 08:30:00 | 00:29:04 | 00:00:00 | |
| IW2NTF | 2026-09-03 11:04:14 | 45.53139 | 8.66006 | 230° | 9km/h | 1380m | 3.1m/s | 19.5°C | 0% | 0hPa | 3V | 08:30:00 | 00:29:02 | 00:00:00 | |
| IW2NTF | 2026-09-03 11:04:14 | 45.53142 | 8.66012 | 234° | 7km/h | 1374m | 2.6m/s | 19.5°C | 0% | 0hPa | 3V | 08:30:00 | 00:29:00 | 00:00:00 | |
| IW2NTF | 2026-09-03 11:04:14 | 45.53145 | 8.66016 | 207° | 9km/h | 1367m | 3.6m/s | 19.6°C | 0% | 0hPa | 3V | 08:30:00 | 00:28:58 | 00:00:00 | |
| IW2NTF | 2026-09-03 11:04:08 | 45.53149 | 8.66019 | 221° | 11km/h | 1361m | 3.8m/s | 19.6°C | 0% | 0hPa | 3V | 08:30:00 | 00:28:56 | 00:00:00 | |
| IW2NTF | 2026-09-03 11:04:08 | 45.53152 | 8.66026 | 259° | 11km/h | 1354m | 3.2m/s | 19.7°C | 0% | 0hPa | 3V | 08:30:00 | 00:28:54 | 00:00:00 | |
| IW2NTF | 2026-09-03 11:04:08 | 45.53153 | 8.66036 | 270° | 15km/h | 1346m | 3.6m/s | 19.7°C | 0% | 0hPa | 3V | 00:00:00 | 00:28:52 | 00:00:00 | |
| IW2NTF | 2026-09-03 11:04:02 | 45.53152 | 8.66045 | 288° | 9km/h | 1338m | 3.7m/s | 19.8°C | 0% | 0hPa | 3V | 00:00:00 | 00:28:50 | 00:00:00 | |
| IW2NTF | 2026-09-03 11:04:02 | 45.53152 | 8.66047 | 127° | 0km/h | 1332m | 4.4m/s | 19.8°C | 0% | 0hPa | 3V | 00:00:00 | 00:28:48 | 00:00:00 | |
| IW2NTF | 2026-09-03 11:04:02 | 45.53154 | 8.66047 | 198° | 9km/h | 1321m | 6.5m/s | 19.8°C | 0% | 0hPa | 3V | 00:00:00 | 00:28:46 | 00:00:00 | |
| IW2NTF | 2026-09-03 11:03:56 | 45.53165 | 8.66061 | 230° | 13km/h | 1301m | 5.8m/s | 20°C | 0% | 0hPa | 3V | 00:00:00 | 00:28:42 | 00:00:00 | |
| IW2NTF | 2026-09-03 11:03:56 | 45.53168 | 8.66064 | 177° | 4km/h | 1291m | 4.3m/s | 19.8°C | 0% | 0hPa | 3V | 00:00:00 | 00:28:40 | 00:00:00 | |
| IW2NTF | 2026-09-03 11:03:50 | 45.53170 | 8.66062 | 117° | 7km/h | 1279m | 6.7m/s | 19.6°C | 0% | 0hPa | 3V | 00:00:00 | 00:28:38 | 00:00:00 | |
| IW2NTF | 2026-09-03 11:03:50 | 45.53173 | 8.66058 | 152° | 7km/h | 1268m | 3.6m/s | 19.7°C | 0% | 0hPa | 3V | 00:00:00 | 00:28:36 | 00:00:00 | |
| IW2NTF | 2026-09-03 11:03:50 | 45.53177 | 8.66054 | 154° | 11km/h | 1260m | 3.6m/s | 19.8°C | 0% | 0hPa | 3V | 00:00:00 | 00:28:34 | 00:00:00 | |
| IW2NTF | 2026-09-03 11:03:44 | 45.53181 | 8.66049 | 131° | 9km/h | 1252m | 4.3m/s | 19.8°C | 0% | 0hPa | 3V | 00:00:00 | 00:28:32 | 00:00:00 | |
| IW2NTF | 2026-09-03 11:03:44 | 45.53185 | 8.66046 | 168° | 9km/h | 1244m | 4.2m/s | 19.9°C | 0% | 0hPa | 3V | 00:00:00 | 00:28:30 | 00:00:00 | |
| IW2NTF | 2026-09-03 11:03:44 | 45.53189 | 8.66047 | 228° | 9km/h | 1235m | 4.1m/s | 20°C | 0% | 0hPa | 3V | 00:00:00 | 00:28:28 | 00:00:00 | |
| IW2NTF | 2026-09-03 11:03:38 | 45.53191 | 8.66055 | 271° | 15km/h | 1227m | 5.4m/s | 20.1°C | 0% | 0hPa | 3V | 00:00:00 | 00:28:26 | 00:00:00 | |
| IW2NTF | 2026-09-03 11:03:38 | 45.53189 | 8.66067 | 297° | 16km/h | 1217m | 4.9m/s | 20.2°C | 0% | 0hPa | 3V | 00:00:00 | 00:28:24 | 00:00:00 | |
| IW2NTF | 2026-09-03 11:03:38 | 45.53185 | 8.66075 | 313° | 15km/h | 1209m | 3.4m/s | 20.3°C | 0% | 0hPa | 3V | 00:00:00 | 00:28:22 | 00:00:00 | |
| IW2NTF | 2026-09-03 11:03:32 | 45.53180 | 8.66080 | 344° | 7km/h | 1201m | 3.8m/s | 20.3°C | 0% | 0hPa | 3V | 00:00:00 | 00:28:20 | 00:00:00 | |
| IW2NTF | 2026-09-03 11:03:32 | 45.53179 | 8.66079 | 111° | 5km/h | 1194m | 3.8m/s | 20.4°C | 0% | 0hPa | 3V | 00:00:00 | 00:28:18 | 00:00:00 | |
| IW2NTF | 2026-09-03 11:03:32 | 45.53183 | 8.66077 | 175° | 9km/h | 1184m | 4.6m/s | 20.5°C | 0% | 0hPa | 3V | 00:00:00 | 00:28:16 | 00:00:00 | |
| IW2NTF | 2026-09-03 11:03:26 | 45.53194 | 8.66088 | 236° | 16km/h | 1166m | 4.1m/s | 20.6°C | 0% | 0hPa | 3V | 00:00:00 | 00:28:12 | 00:00:00 | |
| IW2NTF | 2026-09-03 11:03:26 | 45.53197 | 8.66098 | 258° | 13km/h | 1158m | 4.9m/s | 20.5°C | 0% | 0hPa | 3V | 00:00:00 | 00:28:10 | 00:00:00 | |
| IW2NTF | 2026-09-03 11:03:20 | 45.53196 | 8.66106 | 309° | 9km/h | 1149m | 4.7m/s | 0°C | 0% | 0hPa | 3V | 00:00:00 | 00:28:08 | 00:00:00 | |
| IW2NTF | 2026-09-03 11:03:20 | 45.53193 | 8.66110 | 324° | 9km/h | 1139m | 5m/s | 0°C | 0% | 0hPa | 3V | 00:00:00 | 00:28:06 | 00:00:00 | |
| IW2NTF | 2026-09-03 11:03:20 | 45.53191 | 8.66112 | 269° | 2km/h | 1132m | 3.5m/s | 0°C | 0% | 0hPa | 3V | 00:00:00 | 00:28:04 | 00:00:00 | |
| IW2NTF | 2026-09-03 11:03:14 | 45.53192 | 8.66112 | 112° | 2km/h | 1123m | 5.4m/s | 0°C | 0% | 0hPa | 3V | 00:00:00 | 00:28:02 | 00:00:00 | |
| IW2NTF | 2026-09-03 11:03:14 | 45.53192 | 8.66110 | 5° | 2km/h | 1114m | 4.7m/s | 0°C | 0% | 0hPa | 3V | 00:00:00 | 00:28:00 | 00:00:00 | |
| IW2NTF | 2026-09-03 11:03:14 | 45.53191 | 8.66114 | 281° | 7km/h | 1105m | 4.2m/s | 0°C | 0% | 0hPa | 3V | 00:00:00 | 00:27:58 | 00:00:00 | |
| IW2NTF | 2026-09-03 11:03:09 | 45.53190 | 8.66121 | 277° | 11km/h | 1095m | 5.8m/s | 0°C | 0% | 0hPa | 3V | 00:00:00 | 00:27:56 | 00:00:00 | |
| IW2NTF | 2026-09-03 11:03:09 | 45.53189 | 8.66127 | 281° | 9km/h | 1084m | 6m/s | 0°C | 0% | 0hPa | 3V | 00:00:00 | 00:27:54 | 00:00:00 | |
| IW2NTF | 2026-09-03 11:03:09 | 45.53186 | 8.66132 | 337° | 11km/h | 1074m | 4.4m/s | 0°C | 0% | 0hPa | 3V | 00:00:00 | 00:27:52 | 00:00:00 | |
| IW2NTF | 2026-09-03 11:03:02 | 45.53182 | 8.66137 | 309° | 13km/h | 1066m | 3.6m/s | 0°C | 0% | 0hPa | 3V | 00:00:00 | 00:27:50 | 00:00:00 | |
| IW2NTF | 2026-09-03 11:03:02 | 45.53177 | 8.66145 | 308° | 16km/h | 1059m | 4.8m/s | 0°C | 0% | 0hPa | 3V | 00:00:00 | 00:27:48 | 00:00:00 | |
| IW2NTF | 2026-09-03 11:03:02 | 45.53173 | 8.66155 | 287° | 16km/h | 1051m | 4.3m/s | 0°C | 0% | 0hPa | 3V | 00:00:00 | 00:27:46 | 00:00:00 | |
| IW2NTF | 2026-09-03 11:02:56 | 45.53173 | 8.66166 | 255° | 13km/h | 1044m | 3.9m/s | 0°C | 0% | 0hPa | 3V | 00:00:00 | 00:27:44 | 00:00:00 | |
| IW2NTF | 2026-09-03 11:02:56 | 45.53176 | 8.66172 | 211° | 13km/h | 1036m | 4.7m/s | 0°C | 0% | 0hPa | 3V | 00:00:00 | 00:27:42 | 00:00:00 | |
| IW2NTF | 2026-09-03 11:02:56 | 45.53181 | 8.66174 | 182° | 9km/h | 1027m | 4m/s | 0°C | 0% | 0hPa | 3V | 00:00:00 | 00:27:40 | 00:00:00 | |
| IW2NTF | 2026-09-03 11:02:50 | 45.53185 | 8.66173 | 174° | 7km/h | 1019m | 4.5m/s | 0°C | 0% | 0hPa | 3V | 00:00:00 | 00:27:38 | 00:00:00 | |
| IW2NTF | 2026-09-03 11:02:50 | 45.53188 | 8.66174 | 212° | 7km/h | 1010m | 4.8m/s | 0°C | 0% | 0hPa | 3V | 00:00:00 | 00:27:36 | 00:00:00 | |
| IW2NTF | 2026-09-03 11:02:50 | 45.53192 | 8.66180 | 244° | 16km/h | 999m | 6.7m/s | 0°C | 0% | 0hPa | 3V | 00:00:00 | 00:27:34 | 00:00:00 | |
| IW2NTF | 2026-09-03 11:02:44 | 45.53192 | 8.66192 | 287° | 16km/h | 989m | 3.5m/s | 0°C | 0% | 0hPa | 3V | 00:00:00 | 00:27:32 | 00:00:00 | |
| IW2NTF | 2026-09-03 11:02:44 | 45.53187 | 8.66204 | 311° | 20km/h | 982m | 4.3m/s | 0°C | 0% | 0hPa | 3V | 00:00:00 | 00:27:30 | 00:00:00 | |
| IW2NTF | 2026-09-03 11:02:44 | 45.53180 | 8.66214 | 321° | 18km/h | 974m | 3.5m/s | 0°C | 0% | 0hPa | 3V | 00:00:00 | 00:27:28 | 00:00:00 | |
| IW2NTF | 2026-09-03 11:02:37 | 45.53174 | 8.66222 | 308° | 15km/h | 967m | 4.4m/s | 0°C | 0% | 0hPa | 3V | 00:00:00 | 00:27:26 | 00:00:00 | |
| IW2NTF | 2026-09-03 11:02:37 | 45.53172 | 8.66230 | 266° | 11km/h | 960m | 3.5m/s | 0°C | 0% | 0hPa | 3V | 00:00:00 | 00:27:24 | 00:00:00 | |
| IW2NTF | 2026-09-03 11:02:37 | 45.53165 | 8.66244 | 308° | 16km/h | 931m | 4.6m/s | 0°C | 0% | 0hPa | 3V | 00:00:00 | 00:27:18 | 00:00:00 | |
| IW2NTF | 2026-09-03 11:02:32 | 45.53162 | 8.66254 | 268° | 13km/h | 923m | 5.3m/s | 0°C | 0% | 0hPa | 3V | 00:00:00 | 00:27:16 | 00:00:00 | |
| IW2NTF | 2026-09-03 11:02:32 | 45.53165 | 8.66262 | 219° | 9km/h | 914m | 3.1m/s | 0°C | 0% | 0hPa | 3V | 00:00:00 | 00:27:14 | 00:00:00 | |
| IW2NTF | 2026-09-03 11:02:32 | 45.53158 | 8.66268 | 296° | 18km/h | 883m | 3m/s | 0°C | 0% | 0hPa | 3V | 00:00:00 | 00:27:06 | 00:00:00 | |
| IW2NTF | 2026-09-03 11:02:22 | 45.53155 | 8.66281 | 275° | 16km/h | 876m | 5.7m/s | 0°C | 0% | 0hPa | 3V | 00:00:00 | 00:27:04 | 00:00:00 | |
| IW2NTF | 2026-09-03 11:02:22 | 45.53156 | 8.66288 | 253° | 2km/h | 866m | 4.6m/s | 0°C | 0% | 0hPa | 3V | 00:00:00 | 00:27:02 | 00:00:00 | |
| IW2NTF | 2026-09-03 11:02:22 | 45.53154 | 8.66287 | 19° | 7km/h | 858m | 4.2m/s | 0°C | 0% | 0hPa | 3V | 00:00:00 | 00:27:00 | 00:00:00 | |
| IW2NTF | 2026-09-03 11:02:10 | 45.53148 | 8.66287 | 349° | 16km/h | 849m | 4.5m/s | 0°C | 0% | 0hPa | 3V | 00:00:00 | 00:26:58 | 00:00:00 | |
| IW2NTF | 2026-09-03 11:02:10 | 45.53141 | 8.66294 | 307° | 18km/h | 842m | 4.3m/s | 0°C | 0% | 0hPa | 3V | 00:00:00 | 00:26:56 | 00:00:00 | |
| IW2NTF | 2026-09-03 11:02:10 | 45.53138 | 8.66305 | 271° | 13km/h | 832m | 4.8m/s | 0°C | 0% | 0hPa | 3V | 00:00:00 | 00:26:54 | 00:00:00 |